﻿<?xml version="1.0" encoding="UTF-8" standalone="no"?>
<gpx xmlns="http://www.topografix.com/GPX/1/1" xmlns:gpxtpx="http://www.garmin.com/xmlschemas/TrackPointExtension/v1" xmlns:xsi="http://www.w3.org/2001/XMLSchema-instance" creator="Hribi.net" version="1.1" xsi:schemaLocation="http://www.topografix.com/GPX/1/1 http://www.topografix.com/GPX/1/1/gpx.xsd http://www.garmin.com/xmlschemas/TrackPointExtension/v1 http://www.garmin.com/xmlschemas/TrackPointExtensionv1.xsd">
  <metadata>
    <name>GPS sled</name>
    <desc>www.hribi.net</desc>
    <author>
      <name>hribi.net</name>
    </author>
    <link href="http://www.hribi.net">
      <text>Hribi.net</text>
    </link>
  </metadata>
  <trk>
    <trkseg>
      <trkpt lat="46.434562" lon="14.408232">
        <ele>1241.2349064</ele>
        <time>2016-06-18T05:35:24Z</time>
      </trkpt>
      <trkpt lat="46.434380" lon="14.408396">
        <ele>1241.2349064</ele>
        <time>2016-06-18T05:35:25Z</time>
      </trkpt>
      <trkpt lat="46.434385" lon="14.408425">
        <ele>1241.1049079808</ele>
        <time>2016-06-18T05:35:39Z</time>
      </trkpt>
      <trkpt lat="46.434509" lon="14.408364">
        <ele>1240.98490944</ele>
        <time>2016-06-18T05:35:56Z</time>
      </trkpt>
      <trkpt lat="46.434578" lon="14.408319">
        <ele>1241.1549073728</ele>
        <time>2016-06-18T05:36:14Z</time>
      </trkpt>
      <trkpt lat="46.434599" lon="14.408299">
        <ele>1242.1048958208</ele>
        <time>2016-06-18T05:36:22Z</time>
      </trkpt>
      <trkpt lat="46.434608" lon="14.408283">
        <ele>1242.2748937536</ele>
        <time>2016-06-18T05:36:34Z</time>
      </trkpt>
      <trkpt lat="46.434610" lon="14.408273">
        <ele>1242.2448941184</ele>
        <time>2016-06-18T05:36:44Z</time>
      </trkpt>
      <trkpt lat="46.434582" lon="14.408286">
        <ele>1242.334893024</ele>
        <time>2016-06-18T05:36:53Z</time>
      </trkpt>
      <trkpt lat="46.434593" lon="14.408259">
        <ele>1242.4248919296</ele>
        <time>2016-06-18T05:37:04Z</time>
      </trkpt>
      <trkpt lat="46.434599" lon="14.408264">
        <ele>1242.3048933888</ele>
        <time>2016-06-18T05:37:12Z</time>
      </trkpt>
      <trkpt lat="46.434576" lon="14.408291">
        <ele>1242.3648926592</ele>
        <time>2016-06-18T05:37:24Z</time>
      </trkpt>
      <trkpt lat="46.434525" lon="14.408305">
        <ele>1242.2548939968</ele>
        <time>2016-06-18T05:37:39Z</time>
      </trkpt>
      <trkpt lat="46.434533" lon="14.408316">
        <ele>1242.1148956992</ele>
        <time>2016-06-18T05:37:48Z</time>
      </trkpt>
      <trkpt lat="46.434577" lon="14.408306">
        <ele>1242.2748937536</ele>
        <time>2016-06-18T05:38:03Z</time>
      </trkpt>
      <trkpt lat="46.434577" lon="14.408233">
        <ele>1242.034896672</ele>
        <time>2016-06-18T05:38:10Z</time>
      </trkpt>
      <trkpt lat="46.434544" lon="14.408226">
        <ele>1241.8048994688</ele>
        <time>2016-06-18T05:38:26Z</time>
      </trkpt>
      <trkpt lat="46.434540" lon="14.408214">
        <ele>1241.8248992256</ele>
        <time>2016-06-18T05:38:29Z</time>
      </trkpt>
      <trkpt lat="46.434546" lon="14.408067">
        <ele>1241.584902144</ele>
        <time>2016-06-18T05:38:37Z</time>
      </trkpt>
      <trkpt lat="46.434544" lon="14.408067">
        <ele>1240.9649096832</ele>
        <time>2016-06-18T05:38:48Z</time>
      </trkpt>
      <trkpt lat="46.434554" lon="14.408105">
        <ele>1240.7749119936</ele>
        <time>2016-06-18T05:39:03Z</time>
      </trkpt>
      <trkpt lat="46.434541" lon="14.408212">
        <ele>1240.7149127232</ele>
        <time>2016-06-18T05:39:09Z</time>
      </trkpt>
      <trkpt lat="46.434528" lon="14.408256">
        <ele>1240.934910048</ele>
        <time>2016-06-18T05:39:16Z</time>
      </trkpt>
      <trkpt lat="46.434516" lon="14.408257">
        <ele>1241.2649060352</ele>
        <time>2016-06-18T05:39:27Z</time>
      </trkpt>
      <trkpt lat="46.434504" lon="14.408264">
        <ele>1241.4049043328</ele>
        <time>2016-06-18T05:39:43Z</time>
      </trkpt>
      <trkpt lat="46.434499" lon="14.408267">
        <ele>1241.7948995904</ele>
        <time>2016-06-18T05:39:54Z</time>
      </trkpt>
      <trkpt lat="46.434536" lon="14.408345">
        <ele>1241.7249004416</ele>
        <time>2016-06-18T05:40:02Z</time>
      </trkpt>
      <trkpt lat="46.434555" lon="14.408358">
        <ele>1242.2248943616</ele>
        <time>2016-06-18T05:40:12Z</time>
      </trkpt>
      <trkpt lat="46.434578" lon="14.408351">
        <ele>1242.5148908352</ele>
        <time>2016-06-18T05:40:22Z</time>
      </trkpt>
      <trkpt lat="46.434601" lon="14.408350">
        <ele>1242.7948874304</ele>
        <time>2016-06-18T05:40:37Z</time>
      </trkpt>
      <trkpt lat="46.434613" lon="14.408343">
        <ele>1242.7148884032</ele>
        <time>2016-06-18T05:40:52Z</time>
      </trkpt>
      <trkpt lat="46.434611" lon="14.408334">
        <ele>1243.0648841472</ele>
        <time>2016-06-18T05:41:29Z</time>
      </trkpt>
      <trkpt lat="46.434609" lon="14.408336">
        <ele>1243.0248846336</ele>
        <time>2016-06-18T05:41:43Z</time>
      </trkpt>
      <trkpt lat="46.434627" lon="14.408364">
        <ele>1242.8448868224</ele>
        <time>2016-06-18T05:41:58Z</time>
      </trkpt>
      <trkpt lat="46.434628" lon="14.408432">
        <ele>1243.0948837824</ele>
        <time>2016-06-18T05:42:05Z</time>
      </trkpt>
      <trkpt lat="46.434631" lon="14.408559">
        <ele>1243.8148750272</ele>
        <time>2016-06-18T05:42:17Z</time>
      </trkpt>
      <trkpt lat="46.434657" lon="14.408667">
        <ele>1245.134858976</ele>
        <time>2016-06-18T05:42:28Z</time>
      </trkpt>
      <trkpt lat="46.434673" lon="14.408726">
        <ele>1246.084847424</ele>
        <time>2016-06-18T05:42:36Z</time>
      </trkpt>
      <trkpt lat="46.434689" lon="14.408780">
        <ele>1246.634840736</ele>
        <time>2016-06-18T05:42:44Z</time>
      </trkpt>
      <trkpt lat="46.434702" lon="14.408875">
        <ele>1248.0748232256</ele>
        <time>2016-06-18T05:42:54Z</time>
      </trkpt>
      <trkpt lat="46.434719" lon="14.408980">
        <ele>1250.5247934336</ele>
        <time>2016-06-18T05:43:04Z</time>
      </trkpt>
      <trkpt lat="46.434726" lon="14.409078">
        <ele>1252.0147753152</ele>
        <time>2016-06-18T05:43:15Z</time>
      </trkpt>
      <trkpt lat="46.434717" lon="14.409233">
        <ele>1253.6447554944</ele>
        <time>2016-06-18T05:43:26Z</time>
      </trkpt>
      <trkpt lat="46.434704" lon="14.409367">
        <ele>1255.2447360384</ele>
        <time>2016-06-18T05:43:38Z</time>
      </trkpt>
      <trkpt lat="46.434737" lon="14.409487">
        <ele>1257.0447141504</ele>
        <time>2016-06-18T05:43:49Z</time>
      </trkpt>
      <trkpt lat="46.434768" lon="14.409631">
        <ele>1259.4446849664</ele>
        <time>2016-06-18T05:44:01Z</time>
      </trkpt>
      <trkpt lat="46.434835" lon="14.409742">
        <ele>1261.434660768</ele>
        <time>2016-06-18T05:44:13Z</time>
      </trkpt>
      <trkpt lat="46.434857" lon="14.409859">
        <ele>1263.534635232</ele>
        <time>2016-06-18T05:44:24Z</time>
      </trkpt>
      <trkpt lat="46.434869" lon="14.409940">
        <ele>1264.934618208</ele>
        <time>2016-06-18T05:44:35Z</time>
      </trkpt>
      <trkpt lat="46.434875" lon="14.410045">
        <ele>1265.3746128576</ele>
        <time>2016-06-18T05:44:43Z</time>
      </trkpt>
      <trkpt lat="46.434871" lon="14.410116">
        <ele>1265.884606656</ele>
        <time>2016-06-18T05:44:48Z</time>
      </trkpt>
      <trkpt lat="46.434876" lon="14.410190">
        <ele>1266.73459632</ele>
        <time>2016-06-18T05:44:54Z</time>
      </trkpt>
      <trkpt lat="46.434879" lon="14.410255">
        <ele>1267.5245867136</ele>
        <time>2016-06-18T05:44:59Z</time>
      </trkpt>
      <trkpt lat="46.434902" lon="14.410351">
        <ele>1268.434575648</ele>
        <time>2016-06-18T05:45:07Z</time>
      </trkpt>
      <trkpt lat="46.434905" lon="14.410451">
        <ele>1268.9045699328</ele>
        <time>2016-06-18T05:45:14Z</time>
      </trkpt>
      <trkpt lat="46.434919" lon="14.410520">
        <ele>1269.5445621504</ele>
        <time>2016-06-18T05:45:21Z</time>
      </trkpt>
      <trkpt lat="46.434932" lon="14.410619">
        <ele>1270.2445536384</ele>
        <time>2016-06-18T05:45:29Z</time>
      </trkpt>
      <trkpt lat="46.434966" lon="14.410784">
        <ele>1271.3245405056</ele>
        <time>2016-06-18T05:45:38Z</time>
      </trkpt>
      <trkpt lat="46.434977" lon="14.410907">
        <ele>1272.8245222656</ele>
        <time>2016-06-18T05:45:48Z</time>
      </trkpt>
      <trkpt lat="46.434965" lon="14.411031">
        <ele>1273.7245113216</ele>
        <time>2016-06-18T05:45:56Z</time>
      </trkpt>
      <trkpt lat="46.434987" lon="14.411185">
        <ele>1275.7744863936</ele>
        <time>2016-06-18T05:46:08Z</time>
      </trkpt>
      <trkpt lat="46.434992" lon="14.411330">
        <ele>1277.8444612224</ele>
        <time>2016-06-18T05:46:19Z</time>
      </trkpt>
      <trkpt lat="46.434994" lon="14.411464">
        <ele>1279.8744365376</ele>
        <time>2016-06-18T05:46:30Z</time>
      </trkpt>
      <trkpt lat="46.435026" lon="14.411591">
        <ele>1282.1544088128</ele>
        <time>2016-06-18T05:46:40Z</time>
      </trkpt>
      <trkpt lat="46.435090" lon="14.411725">
        <ele>1283.6243909376</ele>
        <time>2016-06-18T05:46:53Z</time>
      </trkpt>
      <trkpt lat="46.435116" lon="14.411874">
        <ele>1284.284382912</ele>
        <time>2016-06-18T05:47:03Z</time>
      </trkpt>
      <trkpt lat="46.435111" lon="14.411952">
        <ele>1284.3043826688</ele>
        <time>2016-06-18T05:47:14Z</time>
      </trkpt>
      <trkpt lat="46.435126" lon="14.412000">
        <ele>1284.384381696</ele>
        <time>2016-06-18T05:47:20Z</time>
      </trkpt>
      <trkpt lat="46.435134" lon="14.412101">
        <ele>1285.4443688064</ele>
        <time>2016-06-18T05:47:30Z</time>
      </trkpt>
      <trkpt lat="46.435151" lon="14.412203">
        <ele>1287.534343392</ele>
        <time>2016-06-18T05:47:44Z</time>
      </trkpt>
      <trkpt lat="46.435199" lon="14.412283">
        <ele>1289.9043145728</ele>
        <time>2016-06-18T05:47:59Z</time>
      </trkpt>
      <trkpt lat="46.435244" lon="14.412349">
        <ele>1291.7942915904</ele>
        <time>2016-06-18T05:48:12Z</time>
      </trkpt>
      <trkpt lat="46.435283" lon="14.412364">
        <ele>1293.1642749312</ele>
        <time>2016-06-18T05:48:23Z</time>
      </trkpt>
      <trkpt lat="46.435367" lon="14.412397">
        <ele>1294.534258272</ele>
        <time>2016-06-18T05:48:34Z</time>
      </trkpt>
      <trkpt lat="46.435354" lon="14.412460">
        <ele>1296.6042331008</ele>
        <time>2016-06-18T05:48:45Z</time>
      </trkpt>
      <trkpt lat="46.435381" lon="14.412544">
        <ele>1298.6642080512</ele>
        <time>2016-06-18T05:48:55Z</time>
      </trkpt>
      <trkpt lat="46.435418" lon="14.412621">
        <ele>1301.7041710848</ele>
        <time>2016-06-18T05:49:08Z</time>
      </trkpt>
      <trkpt lat="46.435421" lon="14.412697">
        <ele>1303.6441474944</ele>
        <time>2016-06-18T05:49:20Z</time>
      </trkpt>
      <trkpt lat="46.435451" lon="14.412719">
        <ele>1304.6441353344</ele>
        <time>2016-06-18T05:49:28Z</time>
      </trkpt>
      <trkpt lat="46.435463" lon="14.412778">
        <ele>1306.6141113792</ele>
        <time>2016-06-18T05:49:40Z</time>
      </trkpt>
      <trkpt lat="46.435517" lon="14.412827">
        <ele>1308.2740911936</ele>
        <time>2016-06-18T05:49:51Z</time>
      </trkpt>
      <trkpt lat="46.435532" lon="14.412903">
        <ele>1310.0740693056</ele>
        <time>2016-06-18T05:50:00Z</time>
      </trkpt>
      <trkpt lat="46.435570" lon="14.412971">
        <ele>1311.534051552</ele>
        <time>2016-06-18T05:50:12Z</time>
      </trkpt>
      <trkpt lat="46.435612" lon="14.413053">
        <ele>1312.5040397568</ele>
        <time>2016-06-18T05:50:22Z</time>
      </trkpt>
      <trkpt lat="46.435643" lon="14.413110">
        <ele>1314.3740170176</ele>
        <time>2016-06-18T05:50:31Z</time>
      </trkpt>
      <trkpt lat="46.435675" lon="14.413130">
        <ele>1315.9639976832</ele>
        <time>2016-06-18T05:50:42Z</time>
      </trkpt>
      <trkpt lat="46.435712" lon="14.413262">
        <ele>1318.0239726336</ele>
        <time>2016-06-18T05:50:53Z</time>
      </trkpt>
      <trkpt lat="46.435723" lon="14.413389">
        <ele>1319.283957312</ele>
        <time>2016-06-18T05:51:02Z</time>
      </trkpt>
      <trkpt lat="46.435723" lon="14.413516">
        <ele>1321.5039303168</ele>
        <time>2016-06-18T05:51:13Z</time>
      </trkpt>
      <trkpt lat="46.435719" lon="14.413598">
        <ele>1323.4939061184</ele>
        <time>2016-06-18T05:51:25Z</time>
      </trkpt>
      <trkpt lat="46.435689" lon="14.413662">
        <ele>1325.0238875136</ele>
        <time>2016-06-18T05:51:36Z</time>
      </trkpt>
      <trkpt lat="46.435651" lon="14.413740">
        <ele>1327.0938623424</ele>
        <time>2016-06-18T05:51:47Z</time>
      </trkpt>
      <trkpt lat="46.435690" lon="14.413829">
        <ele>1329.4738334016</ele>
        <time>2016-06-18T05:51:59Z</time>
      </trkpt>
      <trkpt lat="46.435720" lon="14.413900">
        <ele>1331.1038135808</ele>
        <time>2016-06-18T05:52:07Z</time>
      </trkpt>
      <trkpt lat="46.435774" lon="14.414014">
        <ele>1333.283787072</ele>
        <time>2016-06-18T05:52:21Z</time>
      </trkpt>
      <trkpt lat="46.435836" lon="14.414081">
        <ele>1335.5137599552</ele>
        <time>2016-06-18T05:52:33Z</time>
      </trkpt>
      <trkpt lat="46.435906" lon="14.414129">
        <ele>1337.23373904</ele>
        <time>2016-06-18T05:52:45Z</time>
      </trkpt>
      <trkpt lat="46.435951" lon="14.414160">
        <ele>1338.5137234752</ele>
        <time>2016-06-18T05:52:52Z</time>
      </trkpt>
      <trkpt lat="46.436073" lon="14.414217">
        <ele>1340.8136955072</ele>
        <time>2016-06-18T05:53:05Z</time>
      </trkpt>
      <trkpt lat="46.436208" lon="14.414213">
        <ele>1343.2536658368</ele>
        <time>2016-06-18T05:53:20Z</time>
      </trkpt>
      <trkpt lat="46.436351" lon="14.414136">
        <ele>1345.73363568</ele>
        <time>2016-06-18T05:53:35Z</time>
      </trkpt>
      <trkpt lat="46.436409" lon="14.414070">
        <ele>1347.4436148864</ele>
        <time>2016-06-18T05:53:43Z</time>
      </trkpt>
      <trkpt lat="46.436492" lon="14.413951">
        <ele>1349.1135945792</ele>
        <time>2016-06-18T05:53:56Z</time>
      </trkpt>
      <trkpt lat="46.436604" lon="14.413949">
        <ele>1350.9535722048</ele>
        <time>2016-06-18T05:54:07Z</time>
      </trkpt>
      <trkpt lat="46.436671" lon="14.414021">
        <ele>1351.7635623552</ele>
        <time>2016-06-18T05:54:18Z</time>
      </trkpt>
      <trkpt lat="46.436718" lon="14.414055">
        <ele>1351.3635672192</ele>
        <time>2016-06-18T05:54:30Z</time>
      </trkpt>
      <trkpt lat="46.436772" lon="14.414101">
        <ele>1351.3935668544</ele>
        <time>2016-06-18T05:54:41Z</time>
      </trkpt>
      <trkpt lat="46.436842" lon="14.414110">
        <ele>1351.433566368</ele>
        <time>2016-06-18T05:54:50Z</time>
      </trkpt>
      <trkpt lat="46.436903" lon="14.414070">
        <ele>1351.883560896</ele>
        <time>2016-06-18T05:55:00Z</time>
      </trkpt>
      <trkpt lat="46.436955" lon="14.414058">
        <ele>1352.6035521408</ele>
        <time>2016-06-18T05:55:12Z</time>
      </trkpt>
      <trkpt lat="46.436951" lon="14.414060">
        <ele>1352.5935522624</ele>
        <time>2016-06-18T05:55:15Z</time>
      </trkpt>
      <trkpt lat="46.436975" lon="14.414059">
        <ele>1352.5235531136</ele>
        <time>2016-06-18T05:55:27Z</time>
      </trkpt>
      <trkpt lat="46.437001" lon="14.414041">
        <ele>1352.5635526272</ele>
        <time>2016-06-18T05:55:42Z</time>
      </trkpt>
      <trkpt lat="46.437045" lon="14.414035">
        <ele>1352.3535551808</ele>
        <time>2016-06-18T05:55:53Z</time>
      </trkpt>
      <trkpt lat="46.437079" lon="14.414051">
        <ele>1352.3135556672</ele>
        <time>2016-06-18T05:56:09Z</time>
      </trkpt>
      <trkpt lat="46.437071" lon="14.414034">
        <ele>1352.533552992</ele>
        <time>2016-06-18T05:56:22Z</time>
      </trkpt>
      <trkpt lat="46.437112" lon="14.414067">
        <ele>1352.583552384</ele>
        <time>2016-06-18T05:56:29Z</time>
      </trkpt>
      <trkpt lat="46.437137" lon="14.414085">
        <ele>1352.6535515328</ele>
        <time>2016-06-18T05:56:33Z</time>
      </trkpt>
      <trkpt lat="46.437205" lon="14.414144">
        <ele>1353.23354448</ele>
        <time>2016-06-18T05:56:41Z</time>
      </trkpt>
      <trkpt lat="46.437234" lon="14.414158">
        <ele>1353.7035387648</ele>
        <time>2016-06-18T05:56:45Z</time>
      </trkpt>
      <trkpt lat="46.437305" lon="14.414210">
        <ele>1353.9935352384</ele>
        <time>2016-06-18T05:56:55Z</time>
      </trkpt>
      <trkpt lat="46.437342" lon="14.414251">
        <ele>1354.583528064</ele>
        <time>2016-06-18T05:57:01Z</time>
      </trkpt>
      <trkpt lat="46.437375" lon="14.414278">
        <ele>1354.8735245376</ele>
        <time>2016-06-18T05:57:05Z</time>
      </trkpt>
      <trkpt lat="46.437412" lon="14.414302">
        <ele>1355.4535174848</ele>
        <time>2016-06-18T05:57:12Z</time>
      </trkpt>
      <trkpt lat="46.437442" lon="14.414353">
        <ele>1355.9135118912</ele>
        <time>2016-06-18T05:57:19Z</time>
      </trkpt>
      <trkpt lat="46.437467" lon="14.414401">
        <ele>1356.3035071488</ele>
        <time>2016-06-18T05:57:23Z</time>
      </trkpt>
      <trkpt lat="46.437524" lon="14.414505">
        <ele>1357.383494016</ele>
        <time>2016-06-18T05:57:31Z</time>
      </trkpt>
      <trkpt lat="46.437537" lon="14.414551">
        <ele>1357.6634906112</ele>
        <time>2016-06-18T05:57:35Z</time>
      </trkpt>
      <trkpt lat="46.437588" lon="14.414640">
        <ele>1358.683478208</ele>
        <time>2016-06-18T05:57:43Z</time>
      </trkpt>
      <trkpt lat="46.437596" lon="14.414648">
        <ele>1358.7934768704</ele>
        <time>2016-06-18T05:57:43Z</time>
      </trkpt>
      <trkpt lat="46.437630" lon="14.414759">
        <ele>1359.933463008</ele>
        <time>2016-06-18T05:57:51Z</time>
      </trkpt>
      <trkpt lat="46.437657" lon="14.414830">
        <ele>1360.6934537664</ele>
        <time>2016-06-18T05:57:58Z</time>
      </trkpt>
      <trkpt lat="46.437681" lon="14.414929">
        <ele>1361.3434458624</ele>
        <time>2016-06-18T05:58:05Z</time>
      </trkpt>
      <trkpt lat="46.437711" lon="14.414989">
        <ele>1362.2534347968</ele>
        <time>2016-06-18T05:58:13Z</time>
      </trkpt>
      <trkpt lat="46.437751" lon="14.415114">
        <ele>1363.5934185024</ele>
        <time>2016-06-18T05:58:22Z</time>
      </trkpt>
      <trkpt lat="46.437778" lon="14.415176">
        <ele>1364.3234096256</ele>
        <time>2016-06-18T05:58:29Z</time>
      </trkpt>
      <trkpt lat="46.437828" lon="14.415245">
        <ele>1365.433396128</ele>
        <time>2016-06-18T05:58:37Z</time>
      </trkpt>
      <trkpt lat="46.437896" lon="14.415358">
        <ele>1366.6033819008</ele>
        <time>2016-06-18T05:58:48Z</time>
      </trkpt>
      <trkpt lat="46.437963" lon="14.415476">
        <ele>1367.383372416</ele>
        <time>2016-06-18T05:58:56Z</time>
      </trkpt>
      <trkpt lat="46.438010" lon="14.415554">
        <ele>1368.1033636608</ele>
        <time>2016-06-18T05:59:04Z</time>
      </trkpt>
      <trkpt lat="46.438081" lon="14.415646">
        <ele>1369.2633495552</ele>
        <time>2016-06-18T05:59:11Z</time>
      </trkpt>
      <trkpt lat="46.438119" lon="14.415742">
        <ele>1370.1133392192</ele>
        <time>2016-06-18T05:59:19Z</time>
      </trkpt>
      <trkpt lat="46.438153" lon="14.415809">
        <ele>1371.0633276672</ele>
        <time>2016-06-18T05:59:26Z</time>
      </trkpt>
      <trkpt lat="46.438171" lon="14.415876">
        <ele>1371.7233196416</ele>
        <time>2016-06-18T05:59:31Z</time>
      </trkpt>
      <trkpt lat="46.438230" lon="14.416002">
        <ele>1373.1633021312</ele>
        <time>2016-06-18T05:59:42Z</time>
      </trkpt>
      <trkpt lat="46.438240" lon="14.416027">
        <ele>1373.3133003072</ele>
        <time>2016-06-18T05:59:43Z</time>
      </trkpt>
      <trkpt lat="46.438269" lon="14.416127">
        <ele>1373.9632924032</ele>
        <time>2016-06-18T05:59:51Z</time>
      </trkpt>
      <trkpt lat="46.438279" lon="14.416211">
        <ele>1375.083278784</ele>
        <time>2016-06-18T06:00:00Z</time>
      </trkpt>
      <trkpt lat="46.438301" lon="14.416240">
        <ele>1375.7932701504</ele>
        <time>2016-06-18T06:00:09Z</time>
      </trkpt>
      <trkpt lat="46.438332" lon="14.416228">
        <ele>1375.933268448</ele>
        <time>2016-06-18T06:00:24Z</time>
      </trkpt>
      <trkpt lat="46.438357" lon="14.416288">
        <ele>1376.2432646784</ele>
        <time>2016-06-18T06:00:31Z</time>
      </trkpt>
      <trkpt lat="46.438364" lon="14.416365">
        <ele>1376.7232588416</ele>
        <time>2016-06-18T06:00:36Z</time>
      </trkpt>
      <trkpt lat="46.438381" lon="14.416453">
        <ele>1377.5032493568</ele>
        <time>2016-06-18T06:00:41Z</time>
      </trkpt>
      <trkpt lat="46.438391" lon="14.416485">
        <ele>1377.9732436416</ele>
        <time>2016-06-18T06:00:44Z</time>
      </trkpt>
      <trkpt lat="46.438404" lon="14.416553">
        <ele>1379.3732266176</ele>
        <time>2016-06-18T06:00:54Z</time>
      </trkpt>
      <trkpt lat="46.438447" lon="14.416589">
        <ele>1379.7232223616</ele>
        <time>2016-06-18T06:01:04Z</time>
      </trkpt>
      <trkpt lat="46.438510" lon="14.416693">
        <ele>1380.933207648</ele>
        <time>2016-06-18T06:01:15Z</time>
      </trkpt>
      <trkpt lat="46.438534" lon="14.416707">
        <ele>1382.2431917184</ele>
        <time>2016-06-18T06:01:25Z</time>
      </trkpt>
      <trkpt lat="46.438513" lon="14.416768">
        <ele>1383.0631817472</ele>
        <time>2016-06-18T06:01:31Z</time>
      </trkpt>
      <trkpt lat="46.438493" lon="14.416825">
        <ele>1384.0231700736</ele>
        <time>2016-06-18T06:01:38Z</time>
      </trkpt>
      <trkpt lat="46.438469" lon="14.416869">
        <ele>1384.5131641152</ele>
        <time>2016-06-18T06:01:42Z</time>
      </trkpt>
      <trkpt lat="46.438416" lon="14.416959">
        <ele>1385.7631489152</ele>
        <time>2016-06-18T06:01:52Z</time>
      </trkpt>
      <trkpt lat="46.438438" lon="14.417038">
        <ele>1387.1731317696</ele>
        <time>2016-06-18T06:02:01Z</time>
      </trkpt>
      <trkpt lat="46.438440" lon="14.417095">
        <ele>1387.7631245952</ele>
        <time>2016-06-18T06:02:05Z</time>
      </trkpt>
      <trkpt lat="46.438437" lon="14.417133">
        <ele>1388.6931132864</ele>
        <time>2016-06-18T06:02:20Z</time>
      </trkpt>
      <trkpt lat="46.438459" lon="14.417227">
        <ele>1390.083096384</ele>
        <time>2016-06-18T06:02:32Z</time>
      </trkpt>
      <trkpt lat="46.438459" lon="14.417354">
        <ele>1392.1630710912</ele>
        <time>2016-06-18T06:02:44Z</time>
      </trkpt>
      <trkpt lat="46.438472" lon="14.417454">
        <ele>1393.8030511488</ele>
        <time>2016-06-18T06:02:55Z</time>
      </trkpt>
      <trkpt lat="46.438477" lon="14.417561">
        <ele>1395.5930293824</ele>
        <time>2016-06-18T06:03:05Z</time>
      </trkpt>
      <trkpt lat="46.438490" lon="14.417643">
        <ele>1397.533005792</ele>
        <time>2016-06-18T06:03:14Z</time>
      </trkpt>
      <trkpt lat="46.438511" lon="14.417735">
        <ele>1399.0129877952</ele>
        <time>2016-06-18T06:03:22Z</time>
      </trkpt>
      <trkpt lat="46.438518" lon="14.417816">
        <ele>1401.182961408</ele>
        <time>2016-06-18T06:03:33Z</time>
      </trkpt>
      <trkpt lat="46.438504" lon="14.417909">
        <ele>1402.332947424</ele>
        <time>2016-06-18T06:03:41Z</time>
      </trkpt>
      <trkpt lat="46.438501" lon="14.417993">
        <ele>1404.0929260224</ele>
        <time>2016-06-18T06:03:49Z</time>
      </trkpt>
      <trkpt lat="46.438508" lon="14.418042">
        <ele>1405.9629032832</ele>
        <time>2016-06-18T06:04:01Z</time>
      </trkpt>
      <trkpt lat="46.438526" lon="14.418050">
        <ele>1406.6728946496</ele>
        <time>2016-06-18T06:04:08Z</time>
      </trkpt>
      <trkpt lat="46.438578" lon="14.418035">
        <ele>1407.332886624</ele>
        <time>2016-06-18T06:04:27Z</time>
      </trkpt>
      <trkpt lat="46.438597" lon="14.418088">
        <ele>1407.3028869888</ele>
        <time>2016-06-18T06:04:36Z</time>
      </trkpt>
      <trkpt lat="46.438605" lon="14.418172">
        <ele>1408.832868384</ele>
        <time>2016-06-18T06:04:47Z</time>
      </trkpt>
      <trkpt lat="46.438631" lon="14.418278">
        <ele>1410.98284224</ele>
        <time>2016-06-18T06:04:59Z</time>
      </trkpt>
      <trkpt lat="46.438663" lon="14.418382">
        <ele>1413.2628145152</ele>
        <time>2016-06-18T06:05:10Z</time>
      </trkpt>
      <trkpt lat="46.438689" lon="14.418509">
        <ele>1416.0927801024</ele>
        <time>2016-06-18T06:05:24Z</time>
      </trkpt>
      <trkpt lat="46.438684" lon="14.418622">
        <ele>1418.6027495808</ele>
        <time>2016-06-18T06:05:36Z</time>
      </trkpt>
      <trkpt lat="46.438670" lon="14.418715">
        <ele>1420.682724288</ele>
        <time>2016-06-18T06:05:47Z</time>
      </trkpt>
      <trkpt lat="46.438696" lon="14.418807">
        <ele>1422.4427028864</ele>
        <time>2016-06-18T06:05:57Z</time>
      </trkpt>
      <trkpt lat="46.438709" lon="14.418916">
        <ele>1424.3926791744</ele>
        <time>2016-06-18T06:06:08Z</time>
      </trkpt>
      <trkpt lat="46.438710" lon="14.419027">
        <ele>1425.9526602048</ele>
        <time>2016-06-18T06:06:19Z</time>
      </trkpt>
      <trkpt lat="46.438712" lon="14.419150">
        <ele>1428.1126339392</ele>
        <time>2016-06-18T06:06:28Z</time>
      </trkpt>
      <trkpt lat="46.438737" lon="14.419252">
        <ele>1430.0026109568</ele>
        <time>2016-06-18T06:06:39Z</time>
      </trkpt>
      <trkpt lat="46.438769" lon="14.419344">
        <ele>1431.4225936896</ele>
        <time>2016-06-18T06:06:50Z</time>
      </trkpt>
      <trkpt lat="46.438765" lon="14.419429">
        <ele>1432.6625786112</ele>
        <time>2016-06-18T06:06:59Z</time>
      </trkpt>
      <trkpt lat="46.438763" lon="14.419433">
        <ele>1433.8025647488</ele>
        <time>2016-06-18T06:07:08Z</time>
      </trkpt>
      <trkpt lat="46.438728" lon="14.419460">
        <ele>1434.3225584256</ele>
        <time>2016-06-18T06:07:14Z</time>
      </trkpt>
      <trkpt lat="46.438675" lon="14.419513">
        <ele>1435.4725444416</ele>
        <time>2016-06-18T06:07:22Z</time>
      </trkpt>
      <trkpt lat="46.438604" lon="14.419524">
        <ele>1436.9625263232</ele>
        <time>2016-06-18T06:07:33Z</time>
      </trkpt>
      <trkpt lat="46.438543" lon="14.419594">
        <ele>1439.332497504</ele>
        <time>2016-06-18T06:07:43Z</time>
      </trkpt>
      <trkpt lat="46.438512" lon="14.419698">
        <ele>1441.1424754944</ele>
        <time>2016-06-18T06:07:53Z</time>
      </trkpt>
      <trkpt lat="46.438500" lon="14.419778">
        <ele>1442.3424609024</ele>
        <time>2016-06-18T06:08:03Z</time>
      </trkpt>
      <trkpt lat="46.438474" lon="14.419877">
        <ele>1444.1424390144</ele>
        <time>2016-06-18T06:08:14Z</time>
      </trkpt>
      <trkpt lat="46.438464" lon="14.420018">
        <ele>1445.9724167616</ele>
        <time>2016-06-18T06:08:23Z</time>
      </trkpt>
      <trkpt lat="46.438482" lon="14.420122">
        <ele>1447.532397792</ele>
        <time>2016-06-18T06:08:34Z</time>
      </trkpt>
      <trkpt lat="46.438500" lon="14.420229">
        <ele>1449.6723717696</ele>
        <time>2016-06-18T06:08:46Z</time>
      </trkpt>
      <trkpt lat="46.438506" lon="14.420318">
        <ele>1451.5223492736</ele>
        <time>2016-06-18T06:08:56Z</time>
      </trkpt>
      <trkpt lat="46.438550" lon="14.420320">
        <ele>1453.0023312768</ele>
        <time>2016-06-18T06:09:05Z</time>
      </trkpt>
      <trkpt lat="46.438613" lon="14.420340">
        <ele>1454.2123165632</ele>
        <time>2016-06-18T06:09:14Z</time>
      </trkpt>
      <trkpt lat="46.438649" lon="14.420428">
        <ele>1456.332290784</ele>
        <time>2016-06-18T06:09:25Z</time>
      </trkpt>
      <trkpt lat="46.438688" lon="14.420463">
        <ele>1457.4022777728</ele>
        <time>2016-06-18T06:09:32Z</time>
      </trkpt>
      <trkpt lat="46.438732" lon="14.420504">
        <ele>1458.7122618432</ele>
        <time>2016-06-18T06:09:40Z</time>
      </trkpt>
      <trkpt lat="46.438713" lon="14.420629">
        <ele>1460.682237888</ele>
        <time>2016-06-18T06:09:52Z</time>
      </trkpt>
      <trkpt lat="46.438711" lon="14.420731">
        <ele>1462.0622211072</ele>
        <time>2016-06-18T06:10:00Z</time>
      </trkpt>
      <trkpt lat="46.438720" lon="14.420872">
        <ele>1464.132195936</ele>
        <time>2016-06-18T06:10:12Z</time>
      </trkpt>
      <trkpt lat="46.438743" lon="14.421011">
        <ele>1465.98217344</ele>
        <time>2016-06-18T06:10:23Z</time>
      </trkpt>
      <trkpt lat="46.438765" lon="14.421137">
        <ele>1467.4221559296</ele>
        <time>2016-06-18T06:10:34Z</time>
      </trkpt>
      <trkpt lat="46.438747" lon="14.421154">
        <ele>1468.0921477824</ele>
        <time>2016-06-18T06:10:44Z</time>
      </trkpt>
      <trkpt lat="46.438757" lon="14.421125">
        <ele>1468.2521458368</ele>
        <time>2016-06-18T06:10:57Z</time>
      </trkpt>
      <trkpt lat="46.438765" lon="14.421162">
        <ele>1467.98214912</ele>
        <time>2016-06-18T06:11:16Z</time>
      </trkpt>
      <trkpt lat="46.438770" lon="14.421206">
        <ele>1468.1021476608</ele>
        <time>2016-06-18T06:11:21Z</time>
      </trkpt>
      <trkpt lat="46.438770" lon="14.421307">
        <ele>1468.9021379328</ele>
        <time>2016-06-18T06:11:28Z</time>
      </trkpt>
      <trkpt lat="46.438754" lon="14.421413">
        <ele>1470.4421192064</ele>
        <time>2016-06-18T06:11:38Z</time>
      </trkpt>
      <trkpt lat="46.438743" lon="14.421524">
        <ele>1472.4120952512</ele>
        <time>2016-06-18T06:11:47Z</time>
      </trkpt>
      <trkpt lat="46.438717" lon="14.421551">
        <ele>1473.8720774976</ele>
        <time>2016-06-18T06:11:58Z</time>
      </trkpt>
      <trkpt lat="46.438682" lon="14.421652">
        <ele>1475.1520619328</ele>
        <time>2016-06-18T06:12:10Z</time>
      </trkpt>
      <trkpt lat="46.438692" lon="14.421694">
        <ele>1477.3520351808</ele>
        <time>2016-06-18T06:12:21Z</time>
      </trkpt>
      <trkpt lat="46.438731" lon="14.421805">
        <ele>1479.182012928</ele>
        <time>2016-06-18T06:12:32Z</time>
      </trkpt>
      <trkpt lat="46.438710" lon="14.422017">
        <ele>1481.831980704</ele>
        <time>2016-06-18T06:12:45Z</time>
      </trkpt>
      <trkpt lat="46.438688" lon="14.422178">
        <ele>1483.9119554112</ele>
        <time>2016-06-18T06:12:59Z</time>
      </trkpt>
      <trkpt lat="46.438689" lon="14.422320">
        <ele>1486.1719279296</ele>
        <time>2016-06-18T06:13:12Z</time>
      </trkpt>
      <trkpt lat="46.438668" lon="14.422443">
        <ele>1487.831907744</ele>
        <time>2016-06-18T06:13:21Z</time>
      </trkpt>
      <trkpt lat="46.438612" lon="14.422541">
        <ele>1489.1118921792</ele>
        <time>2016-06-18T06:13:31Z</time>
      </trkpt>
      <trkpt lat="46.438604" lon="14.422619">
        <ele>1490.1618794112</ele>
        <time>2016-06-18T06:13:39Z</time>
      </trkpt>
      <trkpt lat="46.438634" lon="14.422734">
        <ele>1491.6418614144</ele>
        <time>2016-06-18T06:13:50Z</time>
      </trkpt>
      <trkpt lat="46.438690" lon="14.422853">
        <ele>1493.4918389184</ele>
        <time>2016-06-18T06:14:01Z</time>
      </trkpt>
      <trkpt lat="46.438721" lon="14.422943">
        <ele>1495.2418176384</ele>
        <time>2016-06-18T06:14:13Z</time>
      </trkpt>
      <trkpt lat="46.438688" lon="14.422964">
        <ele>1495.931809248</ele>
        <time>2016-06-18T06:14:29Z</time>
      </trkpt>
      <trkpt lat="46.438702" lon="14.422991">
        <ele>1496.1518065728</ele>
        <time>2016-06-18T06:14:41Z</time>
      </trkpt>
      <trkpt lat="46.438757" lon="14.423076">
        <ele>1497.6917878464</ele>
        <time>2016-06-18T06:14:53Z</time>
      </trkpt>
      <trkpt lat="46.438827" lon="14.423184">
        <ele>1499.431766688</ele>
        <time>2016-06-18T06:15:04Z</time>
      </trkpt>
      <trkpt lat="46.438912" lon="14.423313">
        <ele>1501.5917404224</ele>
        <time>2016-06-18T06:15:19Z</time>
      </trkpt>
      <trkpt lat="46.438936" lon="14.423454">
        <ele>1503.3217193856</ele>
        <time>2016-06-18T06:15:31Z</time>
      </trkpt>
      <trkpt lat="46.438941" lon="14.423616">
        <ele>1505.1116976192</ele>
        <time>2016-06-18T06:15:42Z</time>
      </trkpt>
      <trkpt lat="46.438983" lon="14.423709">
        <ele>1506.9916747584</ele>
        <time>2016-06-18T06:15:53Z</time>
      </trkpt>
      <trkpt lat="46.439003" lon="14.423892">
        <ele>1508.5916553024</ele>
        <time>2016-06-18T06:16:06Z</time>
      </trkpt>
      <trkpt lat="46.439018" lon="14.424048">
        <ele>1510.6616301312</ele>
        <time>2016-06-18T06:16:17Z</time>
      </trkpt>
      <trkpt lat="46.439038" lon="14.424193">
        <ele>1512.4016089728</ele>
        <time>2016-06-18T06:16:28Z</time>
      </trkpt>
      <trkpt lat="46.439013" lon="14.424321">
        <ele>1514.3115857472</ele>
        <time>2016-06-18T06:16:40Z</time>
      </trkpt>
      <trkpt lat="46.439025" lon="14.424310">
        <ele>1514.7115808832</ele>
        <time>2016-06-18T06:16:56Z</time>
      </trkpt>
      <trkpt lat="46.439032" lon="14.424365">
        <ele>1514.6615814912</ele>
        <time>2016-06-18T06:17:07Z</time>
      </trkpt>
      <trkpt lat="46.439069" lon="14.424392">
        <ele>1515.2915738304</ele>
        <time>2016-06-18T06:17:14Z</time>
      </trkpt>
      <trkpt lat="46.439101" lon="14.424466">
        <ele>1516.381560576</ele>
        <time>2016-06-18T06:17:20Z</time>
      </trkpt>
      <trkpt lat="46.439146" lon="14.424550">
        <ele>1518.1115395392</ele>
        <time>2016-06-18T06:17:31Z</time>
      </trkpt>
      <trkpt lat="46.439204" lon="14.424628">
        <ele>1519.6615206912</ele>
        <time>2016-06-18T06:17:41Z</time>
      </trkpt>
      <trkpt lat="46.439225" lon="14.424770">
        <ele>1521.0615036672</ele>
        <time>2016-06-18T06:17:50Z</time>
      </trkpt>
      <trkpt lat="46.439241" lon="14.424850">
        <ele>1522.6914838464</ele>
        <time>2016-06-18T06:17:58Z</time>
      </trkpt>
      <trkpt lat="46.439267" lon="14.424918">
        <ele>1524.2614647552</ele>
        <time>2016-06-18T06:18:09Z</time>
      </trkpt>
      <trkpt lat="46.439303" lon="14.425000">
        <ele>1525.581448704</ele>
        <time>2016-06-18T06:18:17Z</time>
      </trkpt>
      <trkpt lat="46.439352" lon="14.425086">
        <ele>1527.3914266944</ele>
        <time>2016-06-18T06:18:25Z</time>
      </trkpt>
      <trkpt lat="46.439386" lon="14.425174">
        <ele>1528.4714135616</ele>
        <time>2016-06-18T06:18:33Z</time>
      </trkpt>
      <trkpt lat="46.439406" lon="14.425252">
        <ele>1529.2614039552</ele>
        <time>2016-06-18T06:18:40Z</time>
      </trkpt>
      <trkpt lat="46.439410" lon="14.425442">
        <ele>1530.6513870528</ele>
        <time>2016-06-18T06:18:51Z</time>
      </trkpt>
      <trkpt lat="46.439418" lon="14.425559">
        <ele>1531.5113765952</ele>
        <time>2016-06-18T06:18:59Z</time>
      </trkpt>
      <trkpt lat="46.439424" lon="14.425687">
        <ele>1532.831360544</ele>
        <time>2016-06-18T06:19:11Z</time>
      </trkpt>
      <trkpt lat="46.439438" lon="14.425782">
        <ele>1533.6713503296</ele>
        <time>2016-06-18T06:19:19Z</time>
      </trkpt>
      <trkpt lat="46.439467" lon="14.425924">
        <ele>1535.0413336704</ele>
        <time>2016-06-18T06:19:31Z</time>
      </trkpt>
      <trkpt lat="46.439475" lon="14.426054">
        <ele>1536.9013110528</ele>
        <time>2016-06-18T06:19:44Z</time>
      </trkpt>
      <trkpt lat="46.439439" lon="14.426156">
        <ele>1538.1912953664</ele>
        <time>2016-06-18T06:19:53Z</time>
      </trkpt>
      <trkpt lat="46.439412" lon="14.426257">
        <ele>1539.4512800448</ele>
        <time>2016-06-18T06:20:02Z</time>
      </trkpt>
      <trkpt lat="46.439419" lon="14.426317">
        <ele>1540.681265088</ele>
        <time>2016-06-18T06:20:12Z</time>
      </trkpt>
      <trkpt lat="46.439404" lon="14.426335">
        <ele>1540.9512618048</ele>
        <time>2016-06-18T06:20:24Z</time>
      </trkpt>
      <trkpt lat="46.439437" lon="14.426403">
        <ele>1541.331257184</ele>
        <time>2016-06-18T06:20:36Z</time>
      </trkpt>
      <trkpt lat="46.439480" lon="14.426478">
        <ele>1543.0012368768</ele>
        <time>2016-06-18T06:20:46Z</time>
      </trkpt>
      <trkpt lat="46.439521" lon="14.426562">
        <ele>1544.7012162048</ele>
        <time>2016-06-18T06:20:55Z</time>
      </trkpt>
      <trkpt lat="46.439573" lon="14.426651">
        <ele>1546.3611960192</ele>
        <time>2016-06-18T06:21:07Z</time>
      </trkpt>
      <trkpt lat="46.439581" lon="14.426759">
        <ele>1547.73117936</ele>
        <time>2016-06-18T06:21:15Z</time>
      </trkpt>
      <trkpt lat="46.439581" lon="14.426764">
        <ele>1548.8411658624</ele>
        <time>2016-06-18T06:21:26Z</time>
      </trkpt>
      <trkpt lat="46.439588" lon="14.426817">
        <ele>1549.1911616064</ele>
        <time>2016-06-18T06:21:40Z</time>
      </trkpt>
      <trkpt lat="46.439601" lon="14.426904">
        <ele>1549.9211527296</ele>
        <time>2016-06-18T06:21:48Z</time>
      </trkpt>
      <trkpt lat="46.439603" lon="14.426925">
        <ele>1550.6711436096</ele>
        <time>2016-06-18T06:22:00Z</time>
      </trkpt>
      <trkpt lat="46.439617" lon="14.427031">
        <ele>1550.9011408128</ele>
        <time>2016-06-18T06:22:08Z</time>
      </trkpt>
      <trkpt lat="46.439641" lon="14.427156">
        <ele>1552.1911251264</ele>
        <time>2016-06-18T06:22:16Z</time>
      </trkpt>
      <trkpt lat="46.439645" lon="14.427182">
        <ele>1552.5211211136</ele>
        <time>2016-06-18T06:22:19Z</time>
      </trkpt>
      <trkpt lat="46.439671" lon="14.427294">
        <ele>1554.4210980096</ele>
        <time>2016-06-18T06:22:28Z</time>
      </trkpt>
      <trkpt lat="46.439675" lon="14.427342">
        <ele>1555.1210894976</ele>
        <time>2016-06-18T06:22:31Z</time>
      </trkpt>
      <trkpt lat="46.439685" lon="14.427463">
        <ele>1556.3010751488</ele>
        <time>2016-06-18T06:22:40Z</time>
      </trkpt>
      <trkpt lat="46.439717" lon="14.427616">
        <ele>1558.1510526528</ele>
        <time>2016-06-18T06:22:51Z</time>
      </trkpt>
      <trkpt lat="46.439742" lon="14.427696">
        <ele>1559.4410369664</ele>
        <time>2016-06-18T06:22:58Z</time>
      </trkpt>
      <trkpt lat="46.439797" lon="14.427740">
        <ele>1560.6610221312</ele>
        <time>2016-06-18T06:23:07Z</time>
      </trkpt>
      <trkpt lat="46.439812" lon="14.427784">
        <ele>1561.2210153216</ele>
        <time>2016-06-18T06:23:11Z</time>
      </trkpt>
      <trkpt lat="46.439846" lon="14.427889">
        <ele>1562.131004256</ele>
        <time>2016-06-18T06:23:21Z</time>
      </trkpt>
      <trkpt lat="46.439869" lon="14.428027">
        <ele>1562.680997568</ele>
        <time>2016-06-18T06:23:32Z</time>
      </trkpt>
      <trkpt lat="46.439896" lon="14.428100">
        <ele>1563.8109838272</ele>
        <time>2016-06-18T06:23:41Z</time>
      </trkpt>
      <trkpt lat="46.439932" lon="14.428185">
        <ele>1565.8609588992</ele>
        <time>2016-06-18T06:23:51Z</time>
      </trkpt>
      <trkpt lat="46.439966" lon="14.428232">
        <ele>1566.9009462528</ele>
        <time>2016-06-18T06:23:57Z</time>
      </trkpt>
      <trkpt lat="46.439971" lon="14.428241">
        <ele>1567.080944064</ele>
        <time>2016-06-18T06:23:59Z</time>
      </trkpt>
      <trkpt lat="46.440013" lon="14.428305">
        <ele>1568.330928864</ele>
        <time>2016-06-18T06:24:05Z</time>
      </trkpt>
      <trkpt lat="46.440063" lon="14.428411">
        <ele>1569.580913664</ele>
        <time>2016-06-18T06:24:16Z</time>
      </trkpt>
      <trkpt lat="46.440082" lon="14.428455">
        <ele>1570.4109035712</ele>
        <time>2016-06-18T06:24:23Z</time>
      </trkpt>
      <trkpt lat="46.440083" lon="14.428462">
        <ele>1571.1008951808</ele>
        <time>2016-06-18T06:24:38Z</time>
      </trkpt>
      <trkpt lat="46.440087" lon="14.428468">
        <ele>1571.080895424</ele>
        <time>2016-06-18T06:24:50Z</time>
      </trkpt>
      <trkpt lat="46.440094" lon="14.428471">
        <ele>1571.2208937216</ele>
        <time>2016-06-18T06:25:05Z</time>
      </trkpt>
      <trkpt lat="46.440101" lon="14.428459">
        <ele>1571.330892384</ele>
        <time>2016-06-18T06:25:24Z</time>
      </trkpt>
      <trkpt lat="46.440106" lon="14.428458">
        <ele>1571.180894208</ele>
        <time>2016-06-18T06:25:52Z</time>
      </trkpt>
      <trkpt lat="46.440128" lon="14.428461">
        <ele>1571.3008927488</ele>
        <time>2016-06-18T06:26:00Z</time>
      </trkpt>
      <trkpt lat="46.440149" lon="14.428486">
        <ele>1572.630876576</ele>
        <time>2016-06-18T06:26:11Z</time>
      </trkpt>
      <trkpt lat="46.440164" lon="14.428493">
        <ele>1573.2908685504</ele>
        <time>2016-06-18T06:26:27Z</time>
      </trkpt>
      <trkpt lat="46.440161" lon="14.428497">
        <ele>1573.7008635648</ele>
        <time>2016-06-18T06:26:46Z</time>
      </trkpt>
      <trkpt lat="46.440161" lon="14.428503">
        <ele>1573.7708627136</ele>
        <time>2016-06-18T06:26:54Z</time>
      </trkpt>
      <trkpt lat="46.440168" lon="14.428512">
        <ele>1573.880861376</ele>
        <time>2016-06-18T06:27:09Z</time>
      </trkpt>
      <trkpt lat="46.440171" lon="14.428524">
        <ele>1573.6908636864</ele>
        <time>2016-06-18T06:27:31Z</time>
      </trkpt>
      <trkpt lat="46.440169" lon="14.428522">
        <ele>1573.780862592</ele>
        <time>2016-06-18T06:27:43Z</time>
      </trkpt>
      <trkpt lat="46.440169" lon="14.428512">
        <ele>1573.7308632</ele>
        <time>2016-06-18T06:27:58Z</time>
      </trkpt>
      <trkpt lat="46.440172" lon="14.428512">
        <ele>1573.7108634432</ele>
        <time>2016-06-18T06:28:11Z</time>
      </trkpt>
      <trkpt lat="46.440181" lon="14.428536">
        <ele>1573.7408630784</ele>
        <time>2016-06-18T06:28:21Z</time>
      </trkpt>
      <trkpt lat="46.440177" lon="14.428533">
        <ele>1573.9208608896</ele>
        <time>2016-06-18T06:28:33Z</time>
      </trkpt>
      <trkpt lat="46.440178" lon="14.428533">
        <ele>1574.1908576064</ele>
        <time>2016-06-18T06:28:45Z</time>
      </trkpt>
      <trkpt lat="46.440183" lon="14.428533">
        <ele>1574.5608531072</ele>
        <time>2016-06-18T06:29:01Z</time>
      </trkpt>
      <trkpt lat="46.440182" lon="14.428547">
        <ele>1574.4508544448</ele>
        <time>2016-06-18T06:29:16Z</time>
      </trkpt>
      <trkpt lat="46.440181" lon="14.428558">
        <ele>1574.4508544448</ele>
        <time>2016-06-18T06:29:31Z</time>
      </trkpt>
      <trkpt lat="46.440185" lon="14.428548">
        <ele>1574.5208535936</ele>
        <time>2016-06-18T06:29:42Z</time>
      </trkpt>
      <trkpt lat="46.440195" lon="14.428543">
        <ele>1574.4208548096</ele>
        <time>2016-06-18T06:29:56Z</time>
      </trkpt>
      <trkpt lat="46.440192" lon="14.428533">
        <ele>1574.330855904</ele>
        <time>2016-06-18T06:30:14Z</time>
      </trkpt>
      <trkpt lat="46.440191" lon="14.428535">
        <ele>1574.4008550528</ele>
        <time>2016-06-18T06:30:26Z</time>
      </trkpt>
      <trkpt lat="46.440207" lon="14.428552">
        <ele>1574.5908527424</ele>
        <time>2016-06-18T06:30:34Z</time>
      </trkpt>
      <trkpt lat="46.440200" lon="14.428589">
        <ele>1574.780850432</ele>
        <time>2016-06-18T06:30:41Z</time>
      </trkpt>
      <trkpt lat="46.440208" lon="14.428589">
        <ele>1574.7008514048</ele>
        <time>2016-06-18T06:30:53Z</time>
      </trkpt>
      <trkpt lat="46.440216" lon="14.428584">
        <ele>1574.6608518912</ele>
        <time>2016-06-18T06:30:57Z</time>
      </trkpt>
      <trkpt lat="46.440234" lon="14.428511">
        <ele>1574.5408533504</ele>
        <time>2016-06-18T06:31:04Z</time>
      </trkpt>
      <trkpt lat="46.440228" lon="14.428508">
        <ele>1574.6208523776</ele>
        <time>2016-06-18T06:31:20Z</time>
      </trkpt>
      <trkpt lat="46.440229" lon="14.428513">
        <ele>1574.780850432</ele>
        <time>2016-06-18T06:31:38Z</time>
      </trkpt>
      <trkpt lat="46.440219" lon="14.428525">
        <ele>1574.930848608</ele>
        <time>2016-06-18T06:31:55Z</time>
      </trkpt>
      <trkpt lat="46.440212" lon="14.428525">
        <ele>1574.6508520128</ele>
        <time>2016-06-18T06:32:13Z</time>
      </trkpt>
      <trkpt lat="46.440206" lon="14.428519">
        <ele>1574.8208499456</ele>
        <time>2016-06-18T06:32:29Z</time>
      </trkpt>
      <trkpt lat="46.440212" lon="14.428526">
        <ele>1574.4508544448</ele>
        <time>2016-06-18T06:32:41Z</time>
      </trkpt>
      <trkpt lat="46.440216" lon="14.428527">
        <ele>1574.3908551744</ele>
        <time>2016-06-18T06:32:59Z</time>
      </trkpt>
      <trkpt lat="46.440217" lon="14.428531">
        <ele>1574.3108561472</ele>
        <time>2016-06-18T06:33:15Z</time>
      </trkpt>
      <trkpt lat="46.440209" lon="14.428529">
        <ele>1574.3108561472</ele>
        <time>2016-06-18T06:33:38Z</time>
      </trkpt>
      <trkpt lat="46.440207" lon="14.428530">
        <ele>1574.5508532288</ele>
        <time>2016-06-18T06:33:54Z</time>
      </trkpt>
      <trkpt lat="46.440216" lon="14.428521">
        <ele>1574.4208548096</ele>
        <time>2016-06-18T06:34:10Z</time>
      </trkpt>
      <trkpt lat="46.440235" lon="14.428515">
        <ele>1574.4508544448</ele>
        <time>2016-06-18T06:34:18Z</time>
      </trkpt>
      <trkpt lat="46.440253" lon="14.428505">
        <ele>1574.2908563904</ele>
        <time>2016-06-18T06:34:29Z</time>
      </trkpt>
      <trkpt lat="46.440256" lon="14.428503">
        <ele>1574.2408569984</ele>
        <time>2016-06-18T06:34:44Z</time>
      </trkpt>
      <trkpt lat="46.440259" lon="14.428505">
        <ele>1574.4208548096</ele>
        <time>2016-06-18T06:34:56Z</time>
      </trkpt>
      <trkpt lat="46.440238" lon="14.428507">
        <ele>1574.5108537152</ele>
        <time>2016-06-18T06:35:14Z</time>
      </trkpt>
      <trkpt lat="46.440217" lon="14.428519">
        <ele>1574.3408557824</ele>
        <time>2016-06-18T06:35:29Z</time>
      </trkpt>
      <trkpt lat="46.440204" lon="14.428530">
        <ele>1574.5008538368</ele>
        <time>2016-06-18T06:35:54Z</time>
      </trkpt>
      <trkpt lat="46.440201" lon="14.428535">
        <ele>1574.530853472</ele>
        <time>2016-06-18T06:36:09Z</time>
      </trkpt>
      <trkpt lat="46.440205" lon="14.428536">
        <ele>1574.3108561472</ele>
        <time>2016-06-18T06:36:21Z</time>
      </trkpt>
      <trkpt lat="46.440216" lon="14.428541">
        <ele>1574.2608567552</ele>
        <time>2016-06-18T06:36:36Z</time>
      </trkpt>
      <trkpt lat="46.440263" lon="14.428528">
        <ele>1574.8508495808</ele>
        <time>2016-06-18T06:36:45Z</time>
      </trkpt>
      <trkpt lat="46.440308" lon="14.428521">
        <ele>1576.4108306112</ele>
        <time>2016-06-18T06:36:55Z</time>
      </trkpt>
      <trkpt lat="46.440363" lon="14.428521">
        <ele>1579.1407974144</ele>
        <time>2016-06-18T06:37:07Z</time>
      </trkpt>
      <trkpt lat="46.440429" lon="14.428495">
        <ele>1581.4207696896</ele>
        <time>2016-06-18T06:37:18Z</time>
      </trkpt>
      <trkpt lat="46.440479" lon="14.428486">
        <ele>1583.6107430592</ele>
        <time>2016-06-18T06:37:27Z</time>
      </trkpt>
      <trkpt lat="46.440515" lon="14.428511">
        <ele>1585.4207210496</ele>
        <time>2016-06-18T06:37:37Z</time>
      </trkpt>
      <trkpt lat="46.440539" lon="14.428495">
        <ele>1586.2207113216</ele>
        <time>2016-06-18T06:37:45Z</time>
      </trkpt>
      <trkpt lat="46.440561" lon="14.428497">
        <ele>1587.1007006208</ele>
        <time>2016-06-18T06:37:54Z</time>
      </trkpt>
      <trkpt lat="46.440613" lon="14.428513">
        <ele>1589.130675936</ele>
        <time>2016-06-18T06:38:09Z</time>
      </trkpt>
      <trkpt lat="46.440647" lon="14.428497">
        <ele>1591.3906484544</ele>
        <time>2016-06-18T06:38:20Z</time>
      </trkpt>
      <trkpt lat="46.440665" lon="14.428517">
        <ele>1592.530634592</ele>
        <time>2016-06-18T06:38:31Z</time>
      </trkpt>
      <trkpt lat="46.440709" lon="14.428544">
        <ele>1594.5606099072</ele>
        <time>2016-06-18T06:38:43Z</time>
      </trkpt>
      <trkpt lat="46.440747" lon="14.428544">
        <ele>1596.3905876544</ele>
        <time>2016-06-18T06:38:55Z</time>
      </trkpt>
      <trkpt lat="46.440780" lon="14.428554">
        <ele>1597.7505711168</ele>
        <time>2016-06-18T06:39:05Z</time>
      </trkpt>
      <trkpt lat="46.440825" lon="14.428523">
        <ele>1599.6705477696</ele>
        <time>2016-06-18T06:39:14Z</time>
      </trkpt>
      <trkpt lat="46.440869" lon="14.428468">
        <ele>1601.6005243008</ele>
        <time>2016-06-18T06:39:25Z</time>
      </trkpt>
      <trkpt lat="46.440920" lon="14.428406">
        <ele>1603.1105059392</ele>
        <time>2016-06-18T06:39:34Z</time>
      </trkpt>
      <trkpt lat="46.440963" lon="14.428297">
        <ele>1604.5204887936</ele>
        <time>2016-06-18T06:39:45Z</time>
      </trkpt>
      <trkpt lat="46.440991" lon="14.428218">
        <ele>1604.9804832</ele>
        <time>2016-06-18T06:39:54Z</time>
      </trkpt>
      <trkpt lat="46.441014" lon="14.428163">
        <ele>1605.8904721344</ele>
        <time>2016-06-18T06:40:01Z</time>
      </trkpt>
      <trkpt lat="46.441026" lon="14.428079">
        <ele>1606.880460096</ele>
        <time>2016-06-18T06:40:09Z</time>
      </trkpt>
      <trkpt lat="46.441025" lon="14.428063">
        <ele>1607.7704492736</ele>
        <time>2016-06-18T06:40:20Z</time>
      </trkpt>
      <trkpt lat="46.441023" lon="14.428065">
        <ele>1607.9004476928</ele>
        <time>2016-06-18T06:40:34Z</time>
      </trkpt>
      <trkpt lat="46.441016" lon="14.428063">
        <ele>1607.8004489088</ele>
        <time>2016-06-18T06:40:47Z</time>
      </trkpt>
      <trkpt lat="46.441013" lon="14.428051">
        <ele>1608.0604457472</ele>
        <time>2016-06-18T06:41:05Z</time>
      </trkpt>
      <trkpt lat="46.441041" lon="14.427988">
        <ele>1608.6904380864</ele>
        <time>2016-06-18T06:41:14Z</time>
      </trkpt>
      <trkpt lat="46.441080" lon="14.427893">
        <ele>1610.1704200896</ele>
        <time>2016-06-18T06:41:24Z</time>
      </trkpt>
      <trkpt lat="46.441127" lon="14.427837">
        <ele>1611.48040416</ele>
        <time>2016-06-18T06:41:33Z</time>
      </trkpt>
      <trkpt lat="46.441159" lon="14.427814">
        <ele>1612.2203951616</ele>
        <time>2016-06-18T06:41:37Z</time>
      </trkpt>
      <trkpt lat="46.441192" lon="14.427720">
        <ele>1613.2903821504</ele>
        <time>2016-06-18T06:41:47Z</time>
      </trkpt>
      <trkpt lat="46.441241" lon="14.427648">
        <ele>1614.4103685312</ele>
        <time>2016-06-18T06:41:56Z</time>
      </trkpt>
      <trkpt lat="46.441277" lon="14.427563">
        <ele>1615.5703544256</ele>
        <time>2016-06-18T06:42:04Z</time>
      </trkpt>
      <trkpt lat="46.441326" lon="14.427519">
        <ele>1616.5403426304</ele>
        <time>2016-06-18T06:42:15Z</time>
      </trkpt>
      <trkpt lat="46.441348" lon="14.427492">
        <ele>1617.5903298624</ele>
        <time>2016-06-18T06:42:24Z</time>
      </trkpt>
      <trkpt lat="46.441377" lon="14.427405">
        <ele>1619.8403025024</ele>
        <time>2016-06-18T06:42:36Z</time>
      </trkpt>
      <trkpt lat="46.441382" lon="14.427299">
        <ele>1621.330284384</ele>
        <time>2016-06-18T06:42:50Z</time>
      </trkpt>
      <trkpt lat="46.441388" lon="14.427252">
        <ele>1622.1002750208</ele>
        <time>2016-06-18T06:42:59Z</time>
      </trkpt>
      <trkpt lat="46.441399" lon="14.427185">
        <ele>1622.6602682112</ele>
        <time>2016-06-18T06:43:13Z</time>
      </trkpt>
      <trkpt lat="46.441398" lon="14.427122">
        <ele>1623.2702607936</ele>
        <time>2016-06-18T06:43:20Z</time>
      </trkpt>
      <trkpt lat="46.441377" lon="14.427008">
        <ele>1623.9202528896</ele>
        <time>2016-06-18T06:43:26Z</time>
      </trkpt>
      <trkpt lat="46.441377" lon="14.426877">
        <ele>1624.7102432832</ele>
        <time>2016-06-18T06:43:37Z</time>
      </trkpt>
      <trkpt lat="46.441387" lon="14.426785">
        <ele>1625.780230272</ele>
        <time>2016-06-18T06:43:45Z</time>
      </trkpt>
      <trkpt lat="46.441410" lon="14.426656">
        <ele>1627.3402113024</ele>
        <time>2016-06-18T06:43:56Z</time>
      </trkpt>
      <trkpt lat="46.441439" lon="14.426553">
        <ele>1628.2402003584</ele>
        <time>2016-06-18T06:44:07Z</time>
      </trkpt>
      <trkpt lat="46.441459" lon="14.426459">
        <ele>1628.880192576</ele>
        <time>2016-06-18T06:44:16Z</time>
      </trkpt>
      <trkpt lat="46.441467" lon="14.426373">
        <ele>1629.8701805376</ele>
        <time>2016-06-18T06:44:27Z</time>
      </trkpt>
      <trkpt lat="46.441492" lon="14.426230">
        <ele>1631.5501601088</ele>
        <time>2016-06-18T06:44:38Z</time>
      </trkpt>
      <trkpt lat="46.441488" lon="14.426112">
        <ele>1632.7201458816</ele>
        <time>2016-06-18T06:44:50Z</time>
      </trkpt>
      <trkpt lat="46.441513" lon="14.426015">
        <ele>1634.080129344</ele>
        <time>2016-06-18T06:45:02Z</time>
      </trkpt>
      <trkpt lat="46.441507" lon="14.425902">
        <ele>1635.9901061184</ele>
        <time>2016-06-18T06:45:14Z</time>
      </trkpt>
      <trkpt lat="46.441484" lon="14.425771">
        <ele>1636.8200960256</ele>
        <time>2016-06-18T06:45:25Z</time>
      </trkpt>
      <trkpt lat="46.441485" lon="14.425666">
        <ele>1637.6200862976</ele>
        <time>2016-06-18T06:45:32Z</time>
      </trkpt>
      <trkpt lat="46.441478" lon="14.425578">
        <ele>1638.7200729216</ele>
        <time>2016-06-18T06:45:41Z</time>
      </trkpt>
      <trkpt lat="46.441465" lon="14.425455">
        <ele>1639.8400593024</ele>
        <time>2016-06-18T06:45:52Z</time>
      </trkpt>
      <trkpt lat="46.441475" lon="14.425316">
        <ele>1640.9500458048</ele>
        <time>2016-06-18T06:46:06Z</time>
      </trkpt>
      <trkpt lat="46.441504" lon="14.425183">
        <ele>1642.3200291456</ele>
        <time>2016-06-18T06:46:18Z</time>
      </trkpt>
      <trkpt lat="46.441547" lon="14.425050">
        <ele>1643.9700090816</ele>
        <time>2016-06-18T06:46:30Z</time>
      </trkpt>
      <trkpt lat="46.441579" lon="14.424964">
        <ele>1644.8699981376</ele>
        <time>2016-06-18T06:46:38Z</time>
      </trkpt>
      <trkpt lat="46.441603" lon="14.424857">
        <ele>1645.9399851264</ele>
        <time>2016-06-18T06:46:49Z</time>
      </trkpt>
      <trkpt lat="46.441627" lon="14.424748">
        <ele>1647.7099636032</ele>
        <time>2016-06-18T06:47:01Z</time>
      </trkpt>
      <trkpt lat="46.441656" lon="14.424656">
        <ele>1648.7099514432</ele>
        <time>2016-06-18T06:47:11Z</time>
      </trkpt>
      <trkpt lat="46.441680" lon="14.424626">
        <ele>1649.6599398912</ele>
        <time>2016-06-18T06:47:19Z</time>
      </trkpt>
      <trkpt lat="46.441695" lon="14.424570">
        <ele>1651.2999199488</ele>
        <time>2016-06-18T06:47:29Z</time>
      </trkpt>
      <trkpt lat="46.441695" lon="14.424529">
        <ele>1652.0399109504</ele>
        <time>2016-06-18T06:47:47Z</time>
      </trkpt>
      <trkpt lat="46.441680" lon="14.424512">
        <ele>1652.1599094912</ele>
        <time>2016-06-18T06:47:58Z</time>
      </trkpt>
      <trkpt lat="46.441673" lon="14.424504">
        <ele>1652.0399109504</ele>
        <time>2016-06-18T06:48:11Z</time>
      </trkpt>
      <trkpt lat="46.441687" lon="14.424485">
        <ele>1652.2199087616</ele>
        <time>2016-06-18T06:48:23Z</time>
      </trkpt>
      <trkpt lat="46.441696" lon="14.424420">
        <ele>1653.7198905216</ele>
        <time>2016-06-18T06:48:34Z</time>
      </trkpt>
      <trkpt lat="46.441724" lon="14.424375">
        <ele>1655.3398708224</ele>
        <time>2016-06-18T06:48:44Z</time>
      </trkpt>
      <trkpt lat="46.441774" lon="14.424324">
        <ele>1657.529844192</ele>
        <time>2016-06-18T06:48:54Z</time>
      </trkpt>
      <trkpt lat="46.441814" lon="14.424241">
        <ele>1660.47980832</ele>
        <time>2016-06-18T06:49:08Z</time>
      </trkpt>
      <trkpt lat="46.441831" lon="14.424139">
        <ele>1662.279786432</ele>
        <time>2016-06-18T06:49:17Z</time>
      </trkpt>
      <trkpt lat="46.441848" lon="14.423997">
        <ele>1664.2697622336</ele>
        <time>2016-06-18T06:49:30Z</time>
      </trkpt>
      <trkpt lat="46.441888" lon="14.423924">
        <ele>1666.5597343872</ele>
        <time>2016-06-18T06:49:43Z</time>
      </trkpt>
      <trkpt lat="46.441905" lon="14.423870">
        <ele>1668.0097167552</ele>
        <time>2016-06-18T06:49:51Z</time>
      </trkpt>
      <trkpt lat="46.441936" lon="14.423801">
        <ele>1669.4896987584</ele>
        <time>2016-06-18T06:49:59Z</time>
      </trkpt>
      <trkpt lat="46.441942" lon="14.423789">
        <ele>1670.6396847744</ele>
        <time>2016-06-18T06:50:11Z</time>
      </trkpt>
      <trkpt lat="46.441931" lon="14.423779">
        <ele>1670.7496834368</ele>
        <time>2016-06-18T06:50:25Z</time>
      </trkpt>
      <trkpt lat="46.441918" lon="14.423745">
        <ele>1670.6396847744</ele>
        <time>2016-06-18T06:50:34Z</time>
      </trkpt>
      <trkpt lat="46.441910" lon="14.423726">
        <ele>1671.2196777216</ele>
        <time>2016-06-18T06:50:48Z</time>
      </trkpt>
      <trkpt lat="46.441895" lon="14.423720">
        <ele>1671.0696795456</ele>
        <time>2016-06-18T06:51:01Z</time>
      </trkpt>
      <trkpt lat="46.441888" lon="14.423718">
        <ele>1670.9496810048</ele>
        <time>2016-06-18T06:51:19Z</time>
      </trkpt>
      <trkpt lat="46.441887" lon="14.423722">
        <ele>1670.7396835584</ele>
        <time>2016-06-18T06:51:34Z</time>
      </trkpt>
      <trkpt lat="46.441888" lon="14.423717">
        <ele>1670.5896853824</ele>
        <time>2016-06-18T06:51:46Z</time>
      </trkpt>
      <trkpt lat="46.441891" lon="14.423725">
        <ele>1670.47968672</ele>
        <time>2016-06-18T06:52:01Z</time>
      </trkpt>
      <trkpt lat="46.441888" lon="14.423719">
        <ele>1670.6396847744</ele>
        <time>2016-06-18T06:52:14Z</time>
      </trkpt>
      <trkpt lat="46.441882" lon="14.423706">
        <ele>1670.779683072</ele>
        <time>2016-06-18T06:52:28Z</time>
      </trkpt>
      <trkpt lat="46.441880" lon="14.423708">
        <ele>1670.6996840448</ele>
        <time>2016-06-18T06:52:40Z</time>
      </trkpt>
      <trkpt lat="46.441882" lon="14.423710">
        <ele>1670.6696844096</ele>
        <time>2016-06-18T06:52:51Z</time>
      </trkpt>
      <trkpt lat="46.441880" lon="14.423714">
        <ele>1670.6396847744</ele>
        <time>2016-06-18T06:53:03Z</time>
      </trkpt>
      <trkpt lat="46.441876" lon="14.423721">
        <ele>1670.9096814912</ele>
        <time>2016-06-18T06:53:18Z</time>
      </trkpt>
      <trkpt lat="46.441895" lon="14.423691">
        <ele>1671.2096778432</ele>
        <time>2016-06-18T06:53:29Z</time>
      </trkpt>
      <trkpt lat="46.441914" lon="14.423612">
        <ele>1672.179666048</ele>
        <time>2016-06-18T06:53:39Z</time>
      </trkpt>
      <trkpt lat="46.441934" lon="14.423536">
        <ele>1673.5096498752</ele>
        <time>2016-06-18T06:53:50Z</time>
      </trkpt>
      <trkpt lat="46.441975" lon="14.423406">
        <ele>1675.5096255552</ele>
        <time>2016-06-18T06:54:05Z</time>
      </trkpt>
      <trkpt lat="46.442008" lon="14.423293">
        <ele>1677.3096036672</ele>
        <time>2016-06-18T06:54:20Z</time>
      </trkpt>
      <trkpt lat="46.442059" lon="14.423194">
        <ele>1679.2895795904</ele>
        <time>2016-06-18T06:54:32Z</time>
      </trkpt>
      <trkpt lat="46.442079" lon="14.423061">
        <ele>1680.7595617152</ele>
        <time>2016-06-18T06:54:43Z</time>
      </trkpt>
      <trkpt lat="46.442099" lon="14.422982">
        <ele>1681.1995563648</ele>
        <time>2016-06-18T06:54:52Z</time>
      </trkpt>
      <trkpt lat="46.442122" lon="14.422897">
        <ele>1682.1595446912</ele>
        <time>2016-06-18T06:55:02Z</time>
      </trkpt>
      <trkpt lat="46.442147" lon="14.422783">
        <ele>1682.9395352064</ele>
        <time>2016-06-18T06:55:14Z</time>
      </trkpt>
      <trkpt lat="46.442189" lon="14.422678">
        <ele>1683.8995235328</ele>
        <time>2016-06-18T06:55:26Z</time>
      </trkpt>
      <trkpt lat="46.442197" lon="14.422603">
        <ele>1684.8895114944</ele>
        <time>2016-06-18T06:55:34Z</time>
      </trkpt>
      <trkpt lat="46.442197" lon="14.422514">
        <ele>1685.4695044416</ele>
        <time>2016-06-18T06:55:42Z</time>
      </trkpt>
      <trkpt lat="46.442189" lon="14.422493">
        <ele>1685.97949824</ele>
        <time>2016-06-18T06:55:53Z</time>
      </trkpt>
      <trkpt lat="46.442180" lon="14.422449">
        <ele>1685.97949824</ele>
        <time>2016-06-18T06:56:06Z</time>
      </trkpt>
      <trkpt lat="46.442213" lon="14.422330">
        <ele>1687.4994797568</ele>
        <time>2016-06-18T06:56:20Z</time>
      </trkpt>
      <trkpt lat="46.442238" lon="14.422202">
        <ele>1689.4594559232</ele>
        <time>2016-06-18T06:56:32Z</time>
      </trkpt>
      <trkpt lat="46.442236" lon="14.422057">
        <ele>1690.7694399936</ele>
        <time>2016-06-18T06:56:44Z</time>
      </trkpt>
      <trkpt lat="46.442226" lon="14.421930">
        <ele>1691.0094370752</ele>
        <time>2016-06-18T06:56:55Z</time>
      </trkpt>
      <trkpt lat="46.442224" lon="14.421856">
        <ele>1690.8694387776</ele>
        <time>2016-06-18T06:56:59Z</time>
      </trkpt>
      <trkpt lat="46.442209" lon="14.421699">
        <ele>1690.7194406016</ele>
        <time>2016-06-18T06:57:07Z</time>
      </trkpt>
      <trkpt lat="46.442212" lon="14.421575">
        <ele>1690.5694424256</ele>
        <time>2016-06-18T06:57:15Z</time>
      </trkpt>
      <trkpt lat="46.442224" lon="14.421445">
        <ele>1690.8494390208</ele>
        <time>2016-06-18T06:57:26Z</time>
      </trkpt>
      <trkpt lat="46.442248" lon="14.421332">
        <ele>1691.5594303872</ele>
        <time>2016-06-18T06:57:37Z</time>
      </trkpt>
      <trkpt lat="46.442271" lon="14.421196">
        <ele>1692.6394172544</ele>
        <time>2016-06-18T06:57:49Z</time>
      </trkpt>
      <trkpt lat="46.442259" lon="14.421056">
        <ele>1694.1893984064</ele>
        <time>2016-06-18T06:58:01Z</time>
      </trkpt>
      <trkpt lat="46.442271" lon="14.420962">
        <ele>1694.8693901376</ele>
        <time>2016-06-18T06:58:11Z</time>
      </trkpt>
      <trkpt lat="46.442265" lon="14.420923">
        <ele>1695.6193810176</ele>
        <time>2016-06-18T06:58:26Z</time>
      </trkpt>
      <trkpt lat="46.442293" lon="14.420866">
        <ele>1695.9093774912</ele>
        <time>2016-06-18T06:58:38Z</time>
      </trkpt>
      <trkpt lat="46.442334" lon="14.420813">
        <ele>1696.7993666688</ele>
        <time>2016-06-18T06:58:47Z</time>
      </trkpt>
      <trkpt lat="46.442349" lon="14.420793">
        <ele>1697.0893631424</ele>
        <time>2016-06-18T06:59:01Z</time>
      </trkpt>
      <trkpt lat="46.442369" lon="14.420746">
        <ele>1696.4593708032</ele>
        <time>2016-06-18T06:59:11Z</time>
      </trkpt>
      <trkpt lat="46.442386" lon="14.420700">
        <ele>1695.779379072</ele>
        <time>2016-06-18T06:59:22Z</time>
      </trkpt>
      <trkpt lat="46.442420" lon="14.420641">
        <ele>1696.7093677632</ele>
        <time>2016-06-18T06:59:32Z</time>
      </trkpt>
      <trkpt lat="46.442458" lon="14.420590">
        <ele>1697.5493575488</ele>
        <time>2016-06-18T06:59:42Z</time>
      </trkpt>
      <trkpt lat="46.442480" lon="14.420540">
        <ele>1697.4493587648</ele>
        <time>2016-06-18T06:59:52Z</time>
      </trkpt>
      <trkpt lat="46.442478" lon="14.420469">
        <ele>1697.4093592512</ele>
        <time>2016-06-18T07:00:01Z</time>
      </trkpt>
      <trkpt lat="46.442488" lon="14.420411">
        <ele>1697.4593586432</ele>
        <time>2016-06-18T07:00:08Z</time>
      </trkpt>
      <trkpt lat="46.442529" lon="14.420324">
        <ele>1697.6693560896</ele>
        <time>2016-06-18T07:00:19Z</time>
      </trkpt>
      <trkpt lat="46.442540" lon="14.420317">
        <ele>1698.6993435648</ele>
        <time>2016-06-18T07:00:30Z</time>
      </trkpt>
      <trkpt lat="46.442563" lon="14.420282">
        <ele>1698.5193457536</ele>
        <time>2016-06-18T07:00:38Z</time>
      </trkpt>
      <trkpt lat="46.442577" lon="14.420254">
        <ele>1698.7293432</ele>
        <time>2016-06-18T07:00:47Z</time>
      </trkpt>
      <trkpt lat="46.442591" lon="14.420217">
        <ele>1698.8093422272</ele>
        <time>2016-06-18T07:00:55Z</time>
      </trkpt>
      <trkpt lat="46.442611" lon="14.420152">
        <ele>1699.4893339584</ele>
        <time>2016-06-18T07:01:05Z</time>
      </trkpt>
      <trkpt lat="46.442605" lon="14.420119">
        <ele>1699.9193287296</ele>
        <time>2016-06-18T07:01:13Z</time>
      </trkpt>
      <trkpt lat="46.442604" lon="14.420107">
        <ele>1700.0593270272</ele>
        <time>2016-06-18T07:01:26Z</time>
      </trkpt>
      <trkpt lat="46.442594" lon="14.420095">
        <ele>1700.329323744</ele>
        <time>2016-06-18T07:01:43Z</time>
      </trkpt>
      <trkpt lat="46.442592" lon="14.420073">
        <ele>1700.2993241088</ele>
        <time>2016-06-18T07:01:53Z</time>
      </trkpt>
      <trkpt lat="46.442604" lon="14.420043">
        <ele>1700.2693244736</ele>
        <time>2016-06-18T07:02:04Z</time>
      </trkpt>
      <trkpt lat="46.442595" lon="14.420023">
        <ele>1700.329323744</ele>
        <time>2016-06-18T07:02:18Z</time>
      </trkpt>
      <trkpt lat="46.442599" lon="14.419974">
        <ele>1700.5393211904</ele>
        <time>2016-06-18T07:02:30Z</time>
      </trkpt>
      <trkpt lat="46.442621" lon="14.419940">
        <ele>1700.5193214336</ele>
        <time>2016-06-18T07:02:43Z</time>
      </trkpt>
      <trkpt lat="46.442675" lon="14.419815">
        <ele>1700.4893217984</ele>
        <time>2016-06-18T07:02:54Z</time>
      </trkpt>
      <trkpt lat="46.442713" lon="14.419743">
        <ele>1700.6993192448</ele>
        <time>2016-06-18T07:03:05Z</time>
      </trkpt>
      <trkpt lat="46.442735" lon="14.419740">
        <ele>1699.829329824</ele>
        <time>2016-06-18T07:03:16Z</time>
      </trkpt>
      <trkpt lat="46.442751" lon="14.419672">
        <ele>1698.8993411328</ele>
        <time>2016-06-18T07:03:25Z</time>
      </trkpt>
      <trkpt lat="46.442754" lon="14.419635">
        <ele>1698.8493417408</ele>
        <time>2016-06-18T07:03:28Z</time>
      </trkpt>
      <trkpt lat="46.442753" lon="14.419596">
        <ele>1698.8393418624</ele>
        <time>2016-06-18T07:03:31Z</time>
      </trkpt>
      <trkpt lat="46.442774" lon="14.419487">
        <ele>1697.6193566976</ele>
        <time>2016-06-18T07:03:48Z</time>
      </trkpt>
      <trkpt lat="46.442765" lon="14.419430">
        <ele>1696.2893728704</ele>
        <time>2016-06-18T07:03:56Z</time>
      </trkpt>
      <trkpt lat="46.442696" lon="14.419391">
        <ele>1697.0893631424</ele>
        <time>2016-06-18T07:04:07Z</time>
      </trkpt>
      <trkpt lat="46.442668" lon="14.419342">
        <ele>1698.279348672</ele>
        <time>2016-06-18T07:04:17Z</time>
      </trkpt>
      <trkpt lat="46.442657" lon="14.419278">
        <ele>1699.47933408</ele>
        <time>2016-06-18T07:04:25Z</time>
      </trkpt>
      <trkpt lat="46.442617" lon="14.419260">
        <ele>1701.6593075712</ele>
        <time>2016-06-18T07:04:35Z</time>
      </trkpt>
      <trkpt lat="46.442555" lon="14.419255">
        <ele>1703.3692867776</ele>
        <time>2016-06-18T07:04:46Z</time>
      </trkpt>
      <trkpt lat="46.442504" lon="14.419236">
        <ele>1704.9092680512</ele>
        <time>2016-06-18T07:04:57Z</time>
      </trkpt>
      <trkpt lat="46.442506" lon="14.419160">
        <ele>1706.5392482304</ele>
        <time>2016-06-18T07:05:09Z</time>
      </trkpt>
      <trkpt lat="46.442512" lon="14.419080">
        <ele>1708.529224032</ele>
        <time>2016-06-18T07:05:20Z</time>
      </trkpt>
      <trkpt lat="46.442516" lon="14.419023">
        <ele>1709.679210048</ele>
        <time>2016-06-18T07:05:32Z</time>
      </trkpt>
      <trkpt lat="46.442535" lon="14.418948">
        <ele>1710.5691992256</ele>
        <time>2016-06-18T07:05:42Z</time>
      </trkpt>
      <trkpt lat="46.442547" lon="14.418925">
        <ele>1710.8391959424</ele>
        <time>2016-06-18T07:05:50Z</time>
      </trkpt>
      <trkpt lat="46.442565" lon="14.418876">
        <ele>1711.7191852416</ele>
        <time>2016-06-18T07:05:59Z</time>
      </trkpt>
      <trkpt lat="46.442571" lon="14.418852">
        <ele>1712.9691700416</ele>
        <time>2016-06-18T07:06:10Z</time>
      </trkpt>
      <trkpt lat="46.442558" lon="14.418854">
        <ele>1713.2191670016</ele>
        <time>2016-06-18T07:06:23Z</time>
      </trkpt>
      <trkpt lat="46.442566" lon="14.418829">
        <ele>1713.2991660288</ele>
        <time>2016-06-18T07:06:38Z</time>
      </trkpt>
      <trkpt lat="46.442597" lon="14.418793">
        <ele>1713.579162624</ele>
        <time>2016-06-18T07:06:49Z</time>
      </trkpt>
      <trkpt lat="46.442638" lon="14.418739">
        <ele>1715.279141952</ele>
        <time>2016-06-18T07:06:59Z</time>
      </trkpt>
      <trkpt lat="46.442706" lon="14.418709">
        <ele>1717.7891114304</ele>
        <time>2016-06-18T07:07:09Z</time>
      </trkpt>
      <trkpt lat="46.442773" lon="14.418655">
        <ele>1720.6390767744</ele>
        <time>2016-06-18T07:07:24Z</time>
      </trkpt>
      <trkpt lat="46.442805" lon="14.418637">
        <ele>1722.6890518464</ele>
        <time>2016-06-18T07:07:34Z</time>
      </trkpt>
      <trkpt lat="46.442801" lon="14.418713">
        <ele>1724.0990347008</ele>
        <time>2016-06-18T07:07:43Z</time>
      </trkpt>
      <trkpt lat="46.442787" lon="14.418793">
        <ele>1725.2890202304</ele>
        <time>2016-06-18T07:07:51Z</time>
      </trkpt>
      <trkpt lat="46.442799" lon="14.418834">
        <ele>1727.2389965184</ele>
        <time>2016-06-18T07:08:02Z</time>
      </trkpt>
      <trkpt lat="46.442843" lon="14.418755">
        <ele>1729.1989726848</ele>
        <time>2016-06-18T07:08:14Z</time>
      </trkpt>
      <trkpt lat="46.442868" lon="14.418676">
        <ele>1729.9989629568</ele>
        <time>2016-06-18T07:08:22Z</time>
      </trkpt>
      <trkpt lat="46.442887" lon="14.418632">
        <ele>1730.878952256</ele>
        <time>2016-06-18T07:08:30Z</time>
      </trkpt>
      <trkpt lat="46.442910" lon="14.418577">
        <ele>1732.1089372992</ele>
        <time>2016-06-18T07:08:41Z</time>
      </trkpt>
      <trkpt lat="46.442928" lon="14.418522">
        <ele>1733.328922464</ele>
        <time>2016-06-18T07:08:49Z</time>
      </trkpt>
      <trkpt lat="46.442952" lon="14.418484">
        <ele>1734.9689025216</ele>
        <time>2016-06-18T07:09:00Z</time>
      </trkpt>
      <trkpt lat="46.442963" lon="14.418450">
        <ele>1736.0888889024</ele>
        <time>2016-06-18T07:09:08Z</time>
      </trkpt>
      <trkpt lat="46.442967" lon="14.418446">
        <ele>1736.7988802688</ele>
        <time>2016-06-18T07:09:23Z</time>
      </trkpt>
      <trkpt lat="46.442959" lon="14.418393">
        <ele>1737.7988681088</ele>
        <time>2016-06-18T07:09:34Z</time>
      </trkpt>
      <trkpt lat="46.442959" lon="14.418352">
        <ele>1739.5688465856</ele>
        <time>2016-06-18T07:09:43Z</time>
      </trkpt>
      <trkpt lat="46.442973" lon="14.418338">
        <ele>1740.178839168</ele>
        <time>2016-06-18T07:09:57Z</time>
      </trkpt>
      <trkpt lat="46.442992" lon="14.418318">
        <ele>1740.5588345472</ele>
        <time>2016-06-18T07:10:10Z</time>
      </trkpt>
      <trkpt lat="46.442985" lon="14.418307">
        <ele>1741.628821536</ele>
        <time>2016-06-18T07:10:20Z</time>
      </trkpt>
      <trkpt lat="46.442967" lon="14.418306">
        <ele>1742.0988158208</ele>
        <time>2016-06-18T07:10:39Z</time>
      </trkpt>
      <trkpt lat="46.442961" lon="14.418313">
        <ele>1742.0688161856</ele>
        <time>2016-06-18T07:10:51Z</time>
      </trkpt>
      <trkpt lat="46.442956" lon="14.418315">
        <ele>1742.0688161856</ele>
        <time>2016-06-18T07:11:07Z</time>
      </trkpt>
      <trkpt lat="46.442942" lon="14.418299">
        <ele>1742.1388153344</ele>
        <time>2016-06-18T07:11:27Z</time>
      </trkpt>
      <trkpt lat="46.442931" lon="14.418293">
        <ele>1742.3488127808</ele>
        <time>2016-06-18T07:11:43Z</time>
      </trkpt>
      <trkpt lat="46.442927" lon="14.418271">
        <ele>1742.1588150912</ele>
        <time>2016-06-18T07:11:58Z</time>
      </trkpt>
      <trkpt lat="46.442937" lon="14.418190">
        <ele>1743.8187949056</ele>
        <time>2016-06-18T07:12:08Z</time>
      </trkpt>
      <trkpt lat="46.442971" lon="14.418201">
        <ele>1745.4587749632</ele>
        <time>2016-06-18T07:12:17Z</time>
      </trkpt>
      <trkpt lat="46.442980" lon="14.418215">
        <ele>1746.2487653568</ele>
        <time>2016-06-18T07:12:29Z</time>
      </trkpt>
      <trkpt lat="46.442991" lon="14.418223">
        <ele>1746.6987598848</ele>
        <time>2016-06-18T07:12:50Z</time>
      </trkpt>
      <trkpt lat="46.443004" lon="14.418198">
        <ele>1747.6087488192</ele>
        <time>2016-06-18T07:13:00Z</time>
      </trkpt>
      <trkpt lat="46.443025" lon="14.418168">
        <ele>1748.4087390912</ele>
        <time>2016-06-18T07:13:15Z</time>
      </trkpt>
      <trkpt lat="46.443047" lon="14.418118">
        <ele>1749.6987234048</ele>
        <time>2016-06-18T07:13:23Z</time>
      </trkpt>
      <trkpt lat="46.443065" lon="14.418093">
        <ele>1750.97870784</ele>
        <time>2016-06-18T07:13:33Z</time>
      </trkpt>
      <trkpt lat="46.443087" lon="14.418054">
        <ele>1751.2187049216</ele>
        <time>2016-06-18T07:13:46Z</time>
      </trkpt>
      <trkpt lat="46.443102" lon="14.418034">
        <ele>1751.7186988416</ele>
        <time>2016-06-18T07:13:57Z</time>
      </trkpt>
      <trkpt lat="46.443134" lon="14.417992">
        <ele>1753.1686812096</ele>
        <time>2016-06-18T07:14:09Z</time>
      </trkpt>
      <trkpt lat="46.443189" lon="14.417909">
        <ele>1754.8986601728</ele>
        <time>2016-06-18T07:14:19Z</time>
      </trkpt>
      <trkpt lat="46.443267" lon="14.417852">
        <ele>1756.5386402304</ele>
        <time>2016-06-18T07:14:31Z</time>
      </trkpt>
      <trkpt lat="46.443315" lon="14.417794">
        <ele>1759.0486097088</ele>
        <time>2016-06-18T07:14:43Z</time>
      </trkpt>
      <trkpt lat="46.443348" lon="14.417753">
        <ele>1760.6985896448</ele>
        <time>2016-06-18T07:14:55Z</time>
      </trkpt>
      <trkpt lat="46.443364" lon="14.417684">
        <ele>1761.1485841728</ele>
        <time>2016-06-18T07:15:05Z</time>
      </trkpt>
      <trkpt lat="46.443355" lon="14.417637">
        <ele>1761.6885776064</ele>
        <time>2016-06-18T07:15:17Z</time>
      </trkpt>
      <trkpt lat="46.443361" lon="14.417648">
        <ele>1762.1085724992</ele>
        <time>2016-06-18T07:15:30Z</time>
      </trkpt>
      <trkpt lat="46.443342" lon="14.417625">
        <ele>1761.928574688</ele>
        <time>2016-06-18T07:15:46Z</time>
      </trkpt>
      <trkpt lat="46.443333" lon="14.417623">
        <ele>1762.0885727424</ele>
        <time>2016-06-18T07:16:01Z</time>
      </trkpt>
      <trkpt lat="46.443307" lon="14.417630">
        <ele>1761.8985750528</ele>
        <time>2016-06-18T07:16:12Z</time>
      </trkpt>
      <trkpt lat="46.443311" lon="14.417632">
        <ele>1762.0985726208</ele>
        <time>2016-06-18T07:16:24Z</time>
      </trkpt>
      <trkpt lat="46.443288" lon="14.417599">
        <ele>1761.828575904</ele>
        <time>2016-06-18T07:16:39Z</time>
      </trkpt>
      <trkpt lat="46.443271" lon="14.417605">
        <ele>1761.9085749312</ele>
        <time>2016-06-18T07:16:54Z</time>
      </trkpt>
      <trkpt lat="46.443305" lon="14.417579">
        <ele>1762.5185675136</ele>
        <time>2016-06-18T07:17:03Z</time>
      </trkpt>
      <trkpt lat="46.443333" lon="14.417552">
        <ele>1763.7485525568</ele>
        <time>2016-06-18T07:17:14Z</time>
      </trkpt>
      <trkpt lat="46.443322" lon="14.417541">
        <ele>1763.9385502464</ele>
        <time>2016-06-18T07:17:15Z</time>
      </trkpt>
      <trkpt lat="46.443275" lon="14.417528">
        <ele>1765.5485306688</ele>
        <time>2016-06-18T07:17:25Z</time>
      </trkpt>
      <trkpt lat="46.443206" lon="14.417458">
        <ele>1767.0085129152</ele>
        <time>2016-06-18T07:17:36Z</time>
      </trkpt>
      <trkpt lat="46.443249" lon="14.417407">
        <ele>1768.5984935808</ele>
        <time>2016-06-18T07:17:45Z</time>
      </trkpt>
      <trkpt lat="46.443259" lon="14.417400">
        <ele>1768.9084898112</ele>
        <time>2016-06-18T07:17:53Z</time>
      </trkpt>
      <trkpt lat="46.443282" lon="14.417431">
        <ele>1768.8084910272</ele>
        <time>2016-06-18T07:18:03Z</time>
      </trkpt>
      <trkpt lat="46.443306" lon="14.417420">
        <ele>1769.3884839744</ele>
        <time>2016-06-18T07:18:16Z</time>
      </trkpt>
      <trkpt lat="46.443351" lon="14.417391">
        <ele>1771.7984546688</ele>
        <time>2016-06-18T07:18:27Z</time>
      </trkpt>
      <trkpt lat="46.443357" lon="14.417354">
        <ele>1774.5084217152</ele>
        <time>2016-06-18T07:18:39Z</time>
      </trkpt>
      <trkpt lat="46.443404" lon="14.417312">
        <ele>1776.6383958144</ele>
        <time>2016-06-18T07:18:49Z</time>
      </trkpt>
      <trkpt lat="46.443407" lon="14.417310">
        <ele>1776.878392896</ele>
        <time>2016-06-18T07:18:50Z</time>
      </trkpt>
      <trkpt lat="46.443411" lon="14.417275">
        <ele>1779.1383654144</ele>
        <time>2016-06-18T07:19:02Z</time>
      </trkpt>
      <trkpt lat="46.443420" lon="14.417225">
        <ele>1780.6883465664</ele>
        <time>2016-06-18T07:19:12Z</time>
      </trkpt>
      <trkpt lat="46.443463" lon="14.417202">
        <ele>1783.2183158016</ele>
        <time>2016-06-18T07:19:22Z</time>
      </trkpt>
      <trkpt lat="46.443442" lon="14.417146">
        <ele>1785.1082928192</ele>
        <time>2016-06-18T07:19:33Z</time>
      </trkpt>
      <trkpt lat="46.443464" lon="14.417132">
        <ele>1786.278278592</ele>
        <time>2016-06-18T07:19:41Z</time>
      </trkpt>
      <trkpt lat="46.443479" lon="14.417116">
        <ele>1788.3082539072</ele>
        <time>2016-06-18T07:19:56Z</time>
      </trkpt>
      <trkpt lat="46.443514" lon="14.417067">
        <ele>1789.5482388288</ele>
        <time>2016-06-18T07:20:06Z</time>
      </trkpt>
      <trkpt lat="46.443614" lon="14.417002">
        <ele>1791.1382194944</ele>
        <time>2016-06-18T07:20:18Z</time>
      </trkpt>
      <trkpt lat="46.443643" lon="14.416998">
        <ele>1792.4082040512</ele>
        <time>2016-06-18T07:20:27Z</time>
      </trkpt>
      <trkpt lat="46.443637" lon="14.417008">
        <ele>1792.7182002816</ele>
        <time>2016-06-18T07:20:43Z</time>
      </trkpt>
      <trkpt lat="46.443626" lon="14.417007">
        <ele>1792.8681984576</ele>
        <time>2016-06-18T07:21:05Z</time>
      </trkpt>
      <trkpt lat="46.443625" lon="14.417016">
        <ele>1792.578201984</ele>
        <time>2016-06-18T07:21:18Z</time>
      </trkpt>
      <trkpt lat="46.443623" lon="14.417022">
        <ele>1792.8881982144</ele>
        <time>2016-06-18T07:21:36Z</time>
      </trkpt>
      <trkpt lat="46.443617" lon="14.417032">
        <ele>1792.7382000384</ele>
        <time>2016-06-18T07:21:50Z</time>
      </trkpt>
      <trkpt lat="46.443606" lon="14.417029">
        <ele>1792.5982017408</ele>
        <time>2016-06-18T07:22:02Z</time>
      </trkpt>
      <trkpt lat="46.443625" lon="14.417000">
        <ele>1792.6382012544</ele>
        <time>2016-06-18T07:22:14Z</time>
      </trkpt>
      <trkpt lat="46.443681" lon="14.416959">
        <ele>1794.778175232</ele>
        <time>2016-06-18T07:22:26Z</time>
      </trkpt>
      <trkpt lat="46.443727" lon="14.416897">
        <ele>1796.6581523712</ele>
        <time>2016-06-18T07:22:37Z</time>
      </trkpt>
      <trkpt lat="46.443748" lon="14.416864">
        <ele>1799.0081237952</ele>
        <time>2016-06-18T07:22:48Z</time>
      </trkpt>
      <trkpt lat="46.443797" lon="14.416829">
        <ele>1799.9081128512</ele>
        <time>2016-06-18T07:23:01Z</time>
      </trkpt>
      <trkpt lat="46.443835" lon="14.416773">
        <ele>1801.72809072</ele>
        <time>2016-06-18T07:23:13Z</time>
      </trkpt>
      <trkpt lat="46.443787" lon="14.416645">
        <ele>1803.1180738176</ele>
        <time>2016-06-18T07:23:23Z</time>
      </trkpt>
      <trkpt lat="46.443767" lon="14.416567">
        <ele>1804.078062144</ele>
        <time>2016-06-18T07:23:32Z</time>
      </trkpt>
      <trkpt lat="46.443759" lon="14.416448">
        <ele>1805.8580404992</ele>
        <time>2016-06-18T07:23:44Z</time>
      </trkpt>
      <trkpt lat="46.443745" lon="14.416358">
        <ele>1807.6080192192</ele>
        <time>2016-06-18T07:23:55Z</time>
      </trkpt>
      <trkpt lat="46.443735" lon="14.416345">
        <ele>1808.2080119232</ele>
        <time>2016-06-18T07:24:14Z</time>
      </trkpt>
      <trkpt lat="46.443758" lon="14.416359">
        <ele>1808.0980132608</ele>
        <time>2016-06-18T07:24:32Z</time>
      </trkpt>
      <trkpt lat="46.443740" lon="14.416367">
        <ele>1808.0580137472</ele>
        <time>2016-06-18T07:24:45Z</time>
      </trkpt>
      <trkpt lat="46.443715" lon="14.416378">
        <ele>1808.128012896</ele>
        <time>2016-06-18T07:24:57Z</time>
      </trkpt>
      <trkpt lat="46.443709" lon="14.416374">
        <ele>1808.1880121664</ele>
        <time>2016-06-18T07:25:12Z</time>
      </trkpt>
      <trkpt lat="46.443707" lon="14.416372">
        <ele>1808.3380103424</ele>
        <time>2016-06-18T07:25:21Z</time>
      </trkpt>
      <trkpt lat="46.443720" lon="14.416392">
        <ele>1808.3080107072</ele>
        <time>2016-06-18T07:25:36Z</time>
      </trkpt>
      <trkpt lat="46.443728" lon="14.416349">
        <ele>1808.6380066944</ele>
        <time>2016-06-18T07:25:46Z</time>
      </trkpt>
      <trkpt lat="46.443750" lon="14.416356">
        <ele>1809.1080009792</ele>
        <time>2016-06-18T07:25:55Z</time>
      </trkpt>
      <trkpt lat="46.443761" lon="14.416348">
        <ele>1809.4479968448</ele>
        <time>2016-06-18T07:26:02Z</time>
      </trkpt>
      <trkpt lat="46.443761" lon="14.416333">
        <ele>1809.3679978176</ele>
        <time>2016-06-18T07:26:10Z</time>
      </trkpt>
      <trkpt lat="46.443791" lon="14.416338">
        <ele>1809.5479956288</ele>
        <time>2016-06-18T07:26:20Z</time>
      </trkpt>
      <trkpt lat="46.443814" lon="14.416335">
        <ele>1809.6679941696</ele>
        <time>2016-06-18T07:26:26Z</time>
      </trkpt>
      <trkpt lat="46.443803" lon="14.416348">
        <ele>1809.4879963584</ele>
        <time>2016-06-18T07:26:38Z</time>
      </trkpt>
      <trkpt lat="46.443814" lon="14.416356">
        <ele>1809.627994656</ele>
        <time>2016-06-18T07:26:51Z</time>
      </trkpt>
      <trkpt lat="46.443858" lon="14.416385">
        <ele>1810.4679844416</ele>
        <time>2016-06-18T07:27:00Z</time>
      </trkpt>
      <trkpt lat="46.443914" lon="14.416439">
        <ele>1811.9479664448</ele>
        <time>2016-06-18T07:27:08Z</time>
      </trkpt>
      <trkpt lat="46.443933" lon="14.416491">
        <ele>1813.2679503936</ele>
        <time>2016-06-18T07:27:16Z</time>
      </trkpt>
      <trkpt lat="46.443904" lon="14.416437">
        <ele>1815.4479238848</ele>
        <time>2016-06-18T07:27:26Z</time>
      </trkpt>
      <trkpt lat="46.443892" lon="14.416422">
        <ele>1815.8679187776</ele>
        <time>2016-06-18T07:27:27Z</time>
      </trkpt>
      <trkpt lat="46.443858" lon="14.416308">
        <ele>1817.2479019968</ele>
        <time>2016-06-18T07:27:39Z</time>
      </trkpt>
      <trkpt lat="46.443830" lon="14.416212">
        <ele>1819.0478801088</ele>
        <time>2016-06-18T07:27:49Z</time>
      </trkpt>
      <trkpt lat="46.443780" lon="14.416165">
        <ele>1819.8478703808</ele>
        <time>2016-06-18T07:27:58Z</time>
      </trkpt>
      <trkpt lat="46.443767" lon="14.416095">
        <ele>1821.4578508032</ele>
        <time>2016-06-18T07:28:08Z</time>
      </trkpt>
      <trkpt lat="46.443731" lon="14.416066">
        <ele>1823.4678263616</ele>
        <time>2016-06-18T07:28:16Z</time>
      </trkpt>
      <trkpt lat="46.443760" lon="14.416015">
        <ele>1825.0878066624</ele>
        <time>2016-06-18T07:28:26Z</time>
      </trkpt>
      <trkpt lat="46.443768" lon="14.415991">
        <ele>1825.9577960832</ele>
        <time>2016-06-18T07:28:40Z</time>
      </trkpt>
      <trkpt lat="46.443752" lon="14.415997">
        <ele>1826.5377890304</ele>
        <time>2016-06-18T07:28:51Z</time>
      </trkpt>
      <trkpt lat="46.443738" lon="14.415939">
        <ele>1827.1877811264</ele>
        <time>2016-06-18T07:29:08Z</time>
      </trkpt>
      <trkpt lat="46.443723" lon="14.415873">
        <ele>1828.7477621568</ele>
        <time>2016-06-18T07:29:18Z</time>
      </trkpt>
      <trkpt lat="46.443681" lon="14.415825">
        <ele>1829.7077504832</ele>
        <time>2016-06-18T07:29:26Z</time>
      </trkpt>
      <trkpt lat="46.443672" lon="14.415813">
        <ele>1830.3177430656</ele>
        <time>2016-06-18T07:29:39Z</time>
      </trkpt>
      <trkpt lat="46.443678" lon="14.415806">
        <ele>1830.2677436736</ele>
        <time>2016-06-18T07:29:54Z</time>
      </trkpt>
      <trkpt lat="46.443699" lon="14.415794">
        <ele>1830.4677412416</ele>
        <time>2016-06-18T07:30:08Z</time>
      </trkpt>
      <trkpt lat="46.443693" lon="14.415797">
        <ele>1830.5177406336</ele>
        <time>2016-06-18T07:30:20Z</time>
      </trkpt>
      <trkpt lat="46.443688" lon="14.415806">
        <ele>1830.5177406336</ele>
        <time>2016-06-18T07:30:31Z</time>
      </trkpt>
      <trkpt lat="46.443711" lon="14.415829">
        <ele>1830.5377403904</ele>
        <time>2016-06-18T07:30:56Z</time>
      </trkpt>
      <trkpt lat="46.443730" lon="14.415846">
        <ele>1830.7577377152</ele>
        <time>2016-06-18T07:31:04Z</time>
      </trkpt>
      <trkpt lat="46.443723" lon="14.415840">
        <ele>1831.0477341888</ele>
        <time>2016-06-18T07:31:22Z</time>
      </trkpt>
      <trkpt lat="46.443723" lon="14.415838">
        <ele>1830.7477378368</ele>
        <time>2016-06-18T07:31:37Z</time>
      </trkpt>
      <trkpt lat="46.443732" lon="14.415826">
        <ele>1830.8977360128</ele>
        <time>2016-06-18T07:31:54Z</time>
      </trkpt>
      <trkpt lat="46.443748" lon="14.415830">
        <ele>1830.6477390528</ele>
        <time>2016-06-18T07:32:08Z</time>
      </trkpt>
      <trkpt lat="46.443766" lon="14.415914">
        <ele>1829.527752672</ele>
        <time>2016-06-18T07:32:19Z</time>
      </trkpt>
      <trkpt lat="46.443779" lon="14.415939">
        <ele>1829.1477572928</ele>
        <time>2016-06-18T07:32:21Z</time>
      </trkpt>
      <trkpt lat="46.443833" lon="14.415995">
        <ele>1830.0077468352</ele>
        <time>2016-06-18T07:32:29Z</time>
      </trkpt>
      <trkpt lat="46.443885" lon="14.416051">
        <ele>1831.7977250688</ele>
        <time>2016-06-18T07:32:38Z</time>
      </trkpt>
      <trkpt lat="46.443929" lon="14.416077">
        <ele>1833.3177065856</ele>
        <time>2016-06-18T07:32:46Z</time>
      </trkpt>
      <trkpt lat="46.443960" lon="14.416080">
        <ele>1834.5876911424</ele>
        <time>2016-06-18T07:32:55Z</time>
      </trkpt>
      <trkpt lat="46.444002" lon="14.416073">
        <ele>1835.6076787392</ele>
        <time>2016-06-18T07:33:06Z</time>
      </trkpt>
      <trkpt lat="46.444007" lon="14.416074">
        <ele>1836.2976703488</ele>
        <time>2016-06-18T07:33:15Z</time>
      </trkpt>
      <trkpt lat="46.444017" lon="14.416058">
        <ele>1836.8076641472</ele>
        <time>2016-06-18T07:33:26Z</time>
      </trkpt>
      <trkpt lat="46.444024" lon="14.416015">
        <ele>1838.5076434752</ele>
        <time>2016-06-18T07:33:36Z</time>
      </trkpt>
      <trkpt lat="46.444041" lon="14.416014">
        <ele>1839.9976253568</ele>
        <time>2016-06-18T07:33:46Z</time>
      </trkpt>
      <trkpt lat="46.444083" lon="14.416027">
        <ele>1841.2376102784</ele>
        <time>2016-06-18T07:33:59Z</time>
      </trkpt>
      <trkpt lat="46.444093" lon="14.415992">
        <ele>1842.72759216</ele>
        <time>2016-06-18T07:34:09Z</time>
      </trkpt>
      <trkpt lat="46.444086" lon="14.415989">
        <ele>1844.1175752576</ele>
        <time>2016-06-18T07:34:20Z</time>
      </trkpt>
      <trkpt lat="46.444060" lon="14.415935">
        <ele>1844.6075692992</ele>
        <time>2016-06-18T07:34:31Z</time>
      </trkpt>
      <trkpt lat="46.444030" lon="14.415901">
        <ele>1845.127562976</ele>
        <time>2016-06-18T07:34:35Z</time>
      </trkpt>
      <trkpt lat="46.444010" lon="14.415886">
        <ele>1845.3075607872</ele>
        <time>2016-06-18T07:34:36Z</time>
      </trkpt>
      <trkpt lat="46.443957" lon="14.415875">
        <ele>1846.127550816</ele>
        <time>2016-06-18T07:34:44Z</time>
      </trkpt>
      <trkpt lat="46.443913" lon="14.415868">
        <ele>1847.2875367104</ele>
        <time>2016-06-18T07:34:55Z</time>
      </trkpt>
      <trkpt lat="46.443932" lon="14.415848">
        <ele>1848.6075206592</ele>
        <time>2016-06-18T07:35:06Z</time>
      </trkpt>
      <trkpt lat="46.443986" lon="14.415840">
        <ele>1850.177501568</ele>
        <time>2016-06-18T07:35:17Z</time>
      </trkpt>
      <trkpt lat="46.444011" lon="14.415814">
        <ele>1851.0974903808</ele>
        <time>2016-06-18T07:35:24Z</time>
      </trkpt>
      <trkpt lat="46.444043" lon="14.415805">
        <ele>1852.5874722624</ele>
        <time>2016-06-18T07:35:37Z</time>
      </trkpt>
      <trkpt lat="46.444073" lon="14.415792">
        <ele>1853.8674566976</ele>
        <time>2016-06-18T07:35:49Z</time>
      </trkpt>
      <trkpt lat="46.444073" lon="14.415765">
        <ele>1854.6974466048</ele>
        <time>2016-06-18T07:36:00Z</time>
      </trkpt>
      <trkpt lat="46.444081" lon="14.415750">
        <ele>1855.127441376</ele>
        <time>2016-06-18T07:36:16Z</time>
      </trkpt>
      <trkpt lat="46.444124" lon="14.415722">
        <ele>1856.4974247168</ele>
        <time>2016-06-18T07:36:26Z</time>
      </trkpt>
      <trkpt lat="46.444166" lon="14.415654">
        <ele>1858.5473997888</ele>
        <time>2016-06-18T07:36:35Z</time>
      </trkpt>
      <trkpt lat="46.444220" lon="14.415605">
        <ele>1860.4373768064</ele>
        <time>2016-06-18T07:36:46Z</time>
      </trkpt>
      <trkpt lat="46.444234" lon="14.415607">
        <ele>1861.0073698752</ele>
        <time>2016-06-18T07:36:55Z</time>
      </trkpt>
      <trkpt lat="46.444233" lon="14.415603">
        <ele>1861.5373634304</ele>
        <time>2016-06-18T07:37:06Z</time>
      </trkpt>
      <trkpt lat="46.444268" lon="14.415562">
        <ele>1861.527363552</ele>
        <time>2016-06-18T07:37:13Z</time>
      </trkpt>
      <trkpt lat="46.444306" lon="14.415506">
        <ele>1860.927370848</ele>
        <time>2016-06-18T07:37:25Z</time>
      </trkpt>
      <trkpt lat="46.444318" lon="14.415449">
        <ele>1860.8473718208</ele>
        <time>2016-06-18T07:37:33Z</time>
      </trkpt>
      <trkpt lat="46.444332" lon="14.415399">
        <ele>1860.6373743744</ele>
        <time>2016-06-18T07:37:44Z</time>
      </trkpt>
      <trkpt lat="46.444337" lon="14.415353">
        <ele>1861.0673691456</ele>
        <time>2016-06-18T07:37:52Z</time>
      </trkpt>
      <trkpt lat="46.444341" lon="14.415337">
        <ele>1861.2073674432</ele>
        <time>2016-06-18T07:38:04Z</time>
      </trkpt>
      <trkpt lat="46.444348" lon="14.415268">
        <ele>1861.3073662272</ele>
        <time>2016-06-18T07:38:11Z</time>
      </trkpt>
      <trkpt lat="46.444346" lon="14.415216">
        <ele>1861.4073650112</ele>
        <time>2016-06-18T07:38:19Z</time>
      </trkpt>
      <trkpt lat="46.444358" lon="14.415162">
        <ele>1861.4473645248</ele>
        <time>2016-06-18T07:38:27Z</time>
      </trkpt>
      <trkpt lat="46.444411" lon="14.415094">
        <ele>1862.1973554048</ele>
        <time>2016-06-18T07:38:37Z</time>
      </trkpt>
      <trkpt lat="46.444426" lon="14.415046">
        <ele>1863.22734288</ele>
        <time>2016-06-18T07:38:46Z</time>
      </trkpt>
      <trkpt lat="46.444461" lon="14.414970">
        <ele>1863.677337408</ele>
        <time>2016-06-18T07:38:56Z</time>
      </trkpt>
      <trkpt lat="46.444532" lon="14.414937">
        <ele>1863.4973395968</ele>
        <time>2016-06-18T07:39:08Z</time>
      </trkpt>
      <trkpt lat="46.444600" lon="14.414902">
        <ele>1864.2073309632</ele>
        <time>2016-06-18T07:39:17Z</time>
      </trkpt>
      <trkpt lat="46.444657" lon="14.414821">
        <ele>1864.0673326656</ele>
        <time>2016-06-18T07:39:29Z</time>
      </trkpt>
      <trkpt lat="46.444645" lon="14.414764">
        <ele>1863.7873360704</ele>
        <time>2016-06-18T07:39:39Z</time>
      </trkpt>
      <trkpt lat="46.444631" lon="14.414696">
        <ele>1863.577338624</ele>
        <time>2016-06-18T07:39:48Z</time>
      </trkpt>
      <trkpt lat="46.444632" lon="14.414638">
        <ele>1862.8973468928</ele>
        <time>2016-06-18T07:39:56Z</time>
      </trkpt>
      <trkpt lat="46.444607" lon="14.414546">
        <ele>1862.7973481088</ele>
        <time>2016-06-18T07:40:07Z</time>
      </trkpt>
      <trkpt lat="46.444554" lon="14.414468">
        <ele>1864.0473329088</ele>
        <time>2016-06-18T07:40:19Z</time>
      </trkpt>
      <trkpt lat="46.444538" lon="14.414388">
        <ele>1864.2973298688</ele>
        <time>2016-06-18T07:40:26Z</time>
      </trkpt>
      <trkpt lat="46.444548" lon="14.414308">
        <ele>1864.72732464</ele>
        <time>2016-06-18T07:40:33Z</time>
      </trkpt>
      <trkpt lat="46.444574" lon="14.414200">
        <ele>1864.9373220864</ele>
        <time>2016-06-18T07:40:44Z</time>
      </trkpt>
      <trkpt lat="46.444597" lon="14.414136">
        <ele>1865.9373099264</ele>
        <time>2016-06-18T07:40:56Z</time>
      </trkpt>
      <trkpt lat="46.444581" lon="14.414036">
        <ele>1865.6873129664</ele>
        <time>2016-06-18T07:41:04Z</time>
      </trkpt>
      <trkpt lat="46.444558" lon="14.413964">
        <ele>1865.2073188032</ele>
        <time>2016-06-18T07:41:13Z</time>
      </trkpt>
      <trkpt lat="46.444582" lon="14.413879">
        <ele>1865.5973140608</ele>
        <time>2016-06-18T07:41:24Z</time>
      </trkpt>
      <trkpt lat="46.444605" lon="14.413843">
        <ele>1866.077308224</ele>
        <time>2016-06-18T07:41:33Z</time>
      </trkpt>
      <trkpt lat="46.444605" lon="14.413833">
        <ele>1866.327305184</ele>
        <time>2016-06-18T07:41:43Z</time>
      </trkpt>
      <trkpt lat="46.444612" lon="14.413799">
        <ele>1866.777299712</ele>
        <time>2016-06-18T07:42:02Z</time>
      </trkpt>
      <trkpt lat="46.444615" lon="14.413747">
        <ele>1867.8972860928</ele>
        <time>2016-06-18T07:42:13Z</time>
      </trkpt>
      <trkpt lat="46.444602" lon="14.413724">
        <ele>1868.3972800128</ele>
        <time>2016-06-18T07:42:26Z</time>
      </trkpt>
      <trkpt lat="46.444592" lon="14.413689">
        <ele>1868.8072750272</ele>
        <time>2016-06-18T07:42:34Z</time>
      </trkpt>
      <trkpt lat="46.444603" lon="14.413683">
        <ele>1869.5372661504</ele>
        <time>2016-06-18T07:42:57Z</time>
      </trkpt>
      <trkpt lat="46.444617" lon="14.413649">
        <ele>1870.4572549632</ele>
        <time>2016-06-18T07:43:07Z</time>
      </trkpt>
      <trkpt lat="46.444633" lon="14.413623">
        <ele>1871.6372406144</ele>
        <time>2016-06-18T07:43:19Z</time>
      </trkpt>
      <trkpt lat="46.444616" lon="14.413586">
        <ele>1872.8672256576</ele>
        <time>2016-06-18T07:43:31Z</time>
      </trkpt>
      <trkpt lat="46.444619" lon="14.413540">
        <ele>1872.8972252928</ele>
        <time>2016-06-18T07:43:40Z</time>
      </trkpt>
      <trkpt lat="46.444654" lon="14.413433">
        <ele>1872.377231616</ele>
        <time>2016-06-18T07:43:50Z</time>
      </trkpt>
      <trkpt lat="46.444692" lon="14.413346">
        <ele>1872.1372345344</ele>
        <time>2016-06-18T07:43:58Z</time>
      </trkpt>
      <trkpt lat="46.444704" lon="14.413306">
        <ele>1872.6072288192</ele>
        <time>2016-06-18T07:44:10Z</time>
      </trkpt>
      <trkpt lat="46.444699" lon="14.413250">
        <ele>1873.0572233472</ele>
        <time>2016-06-18T07:44:18Z</time>
      </trkpt>
      <trkpt lat="46.444644" lon="14.413154">
        <ele>1872.7672268736</ele>
        <time>2016-06-18T07:44:28Z</time>
      </trkpt>
      <trkpt lat="46.444608" lon="14.413080">
        <ele>1873.3972192128</ele>
        <time>2016-06-18T07:44:37Z</time>
      </trkpt>
      <trkpt lat="46.444597" lon="14.413035">
        <ele>1874.1972094848</ele>
        <time>2016-06-18T07:44:45Z</time>
      </trkpt>
      <trkpt lat="46.444577" lon="14.412987">
        <ele>1876.0471869888</ele>
        <time>2016-06-18T07:44:56Z</time>
      </trkpt>
      <trkpt lat="46.444589" lon="14.412944">
        <ele>1876.9971754368</ele>
        <time>2016-06-18T07:45:07Z</time>
      </trkpt>
      <trkpt lat="46.444624" lon="14.412907">
        <ele>1877.9971632768</ele>
        <time>2016-06-18T07:45:19Z</time>
      </trkpt>
      <trkpt lat="46.444639" lon="14.412876">
        <ele>1879.5371445504</ele>
        <time>2016-06-18T07:45:31Z</time>
      </trkpt>
      <trkpt lat="46.444629" lon="14.412785">
        <ele>1880.8071291072</ele>
        <time>2016-06-18T07:45:39Z</time>
      </trkpt>
      <trkpt lat="46.444583" lon="14.412735">
        <ele>1881.6571187712</ele>
        <time>2016-06-18T07:45:46Z</time>
      </trkpt>
      <trkpt lat="46.444555" lon="14.412651">
        <ele>1882.5071084352</ele>
        <time>2016-06-18T07:45:54Z</time>
      </trkpt>
      <trkpt lat="46.444511" lon="14.412580">
        <ele>1883.6670943296</ele>
        <time>2016-06-18T07:46:06Z</time>
      </trkpt>
      <trkpt lat="46.444468" lon="14.412540">
        <ele>1884.9070792512</ele>
        <time>2016-06-18T07:46:16Z</time>
      </trkpt>
      <trkpt lat="46.444423" lon="14.412502">
        <ele>1885.8870673344</ele>
        <time>2016-06-18T07:46:25Z</time>
      </trkpt>
      <trkpt lat="46.444387" lon="14.412448">
        <ele>1887.0070537152</ele>
        <time>2016-06-18T07:46:33Z</time>
      </trkpt>
      <trkpt lat="46.444338" lon="14.412401">
        <ele>1888.3170377856</ele>
        <time>2016-06-18T07:46:44Z</time>
      </trkpt>
      <trkpt lat="46.444326" lon="14.412391">
        <ele>1889.5870223424</ele>
        <time>2016-06-18T07:46:57Z</time>
      </trkpt>
      <trkpt lat="46.444280" lon="14.412382">
        <ele>1890.6170098176</ele>
        <time>2016-06-18T07:47:07Z</time>
      </trkpt>
      <trkpt lat="46.444300" lon="14.412365">
        <ele>1892.0169927936</ele>
        <time>2016-06-18T07:47:15Z</time>
      </trkpt>
      <trkpt lat="46.444282" lon="14.412331">
        <ele>1892.9469814848</ele>
        <time>2016-06-18T07:47:23Z</time>
      </trkpt>
      <trkpt lat="46.444284" lon="14.412296">
        <ele>1894.7569594752</ele>
        <time>2016-06-18T07:47:33Z</time>
      </trkpt>
      <trkpt lat="46.444303" lon="14.412278">
        <ele>1896.2469413568</ele>
        <time>2016-06-18T07:47:46Z</time>
      </trkpt>
      <trkpt lat="46.444296" lon="14.412286">
        <ele>1896.4369390464</ele>
        <time>2016-06-18T07:47:58Z</time>
      </trkpt>
      <trkpt lat="46.444313" lon="14.412286">
        <ele>1896.6569363712</ele>
        <time>2016-06-18T07:48:09Z</time>
      </trkpt>
      <trkpt lat="46.444335" lon="14.412288">
        <ele>1898.2169174016</ele>
        <time>2016-06-18T07:48:20Z</time>
      </trkpt>
      <trkpt lat="46.444362" lon="14.412273">
        <ele>1899.7068992832</ele>
        <time>2016-06-18T07:48:31Z</time>
      </trkpt>
      <trkpt lat="46.444369" lon="14.412275">
        <ele>1900.326891744</ele>
        <time>2016-06-18T07:48:40Z</time>
      </trkpt>
      <trkpt lat="46.444397" lon="14.412270">
        <ele>1901.3468793408</ele>
        <time>2016-06-18T07:48:52Z</time>
      </trkpt>
      <trkpt lat="46.444440" lon="14.412260">
        <ele>1903.3868545344</ele>
        <time>2016-06-18T07:49:03Z</time>
      </trkpt>
      <trkpt lat="46.444453" lon="14.412270">
        <ele>1904.7668377536</ele>
        <time>2016-06-18T07:49:15Z</time>
      </trkpt>
      <trkpt lat="46.444476" lon="14.412245">
        <ele>1905.6168274176</ele>
        <time>2016-06-18T07:49:26Z</time>
      </trkpt>
      <trkpt lat="46.444493" lon="14.412229">
        <ele>1907.3568062592</ele>
        <time>2016-06-18T07:49:38Z</time>
      </trkpt>
      <trkpt lat="46.444553" lon="14.412234">
        <ele>1908.9467869248</ele>
        <time>2016-06-18T07:49:49Z</time>
      </trkpt>
      <trkpt lat="46.444611" lon="14.412200">
        <ele>1911.0967607808</ele>
        <time>2016-06-18T07:50:00Z</time>
      </trkpt>
      <trkpt lat="46.444582" lon="14.412221">
        <ele>1912.0967486208</ele>
        <time>2016-06-18T07:50:12Z</time>
      </trkpt>
      <trkpt lat="46.444565" lon="14.412222">
        <ele>1912.0867487424</ele>
        <time>2016-06-18T07:50:23Z</time>
      </trkpt>
      <trkpt lat="46.444600" lon="14.412210">
        <ele>1912.526743392</ele>
        <time>2016-06-18T07:50:31Z</time>
      </trkpt>
      <trkpt lat="46.444623" lon="14.412215">
        <ele>1914.1867232064</ele>
        <time>2016-06-18T07:50:40Z</time>
      </trkpt>
      <trkpt lat="46.444624" lon="14.412220">
        <ele>1914.776716032</ele>
        <time>2016-06-18T07:50:51Z</time>
      </trkpt>
      <trkpt lat="46.444651" lon="14.412209">
        <ele>1915.1667112896</ele>
        <time>2016-06-18T07:51:00Z</time>
      </trkpt>
      <trkpt lat="46.444683" lon="14.412202">
        <ele>1917.0166887936</ele>
        <time>2016-06-18T07:51:11Z</time>
      </trkpt>
      <trkpt lat="46.444723" lon="14.412170">
        <ele>1918.6166693376</ele>
        <time>2016-06-18T07:51:22Z</time>
      </trkpt>
      <trkpt lat="46.444754" lon="14.412184">
        <ele>1920.126650976</ele>
        <time>2016-06-18T07:51:32Z</time>
      </trkpt>
      <trkpt lat="46.444772" lon="14.412181">
        <ele>1921.8166304256</ele>
        <time>2016-06-18T07:51:42Z</time>
      </trkpt>
      <trkpt lat="46.444803" lon="14.412196">
        <ele>1923.1366143744</ele>
        <time>2016-06-18T07:51:52Z</time>
      </trkpt>
      <trkpt lat="46.444816" lon="14.412191">
        <ele>1924.1166024576</ele>
        <time>2016-06-18T07:52:01Z</time>
      </trkpt>
      <trkpt lat="46.444825" lon="14.412196">
        <ele>1924.6365961344</ele>
        <time>2016-06-18T07:52:09Z</time>
      </trkpt>
      <trkpt lat="46.444864" lon="14.412191">
        <ele>1926.8465692608</ele>
        <time>2016-06-18T07:52:20Z</time>
      </trkpt>
      <trkpt lat="46.444847" lon="14.412191">
        <ele>1927.9965552768</ele>
        <time>2016-06-18T07:52:31Z</time>
      </trkpt>
      <trkpt lat="46.444858" lon="14.412186">
        <ele>1928.5165489536</ele>
        <time>2016-06-18T07:52:39Z</time>
      </trkpt>
      <trkpt lat="46.444868" lon="14.412175">
        <ele>1929.6565350912</ele>
        <time>2016-06-18T07:52:51Z</time>
      </trkpt>
      <trkpt lat="46.444893" lon="14.412163">
        <ele>1930.7965212288</ele>
        <time>2016-06-18T07:53:02Z</time>
      </trkpt>
      <trkpt lat="46.444892" lon="14.412138">
        <ele>1932.1065052992</ele>
        <time>2016-06-18T07:53:10Z</time>
      </trkpt>
      <trkpt lat="46.444909" lon="14.412097">
        <ele>1932.8164966656</ele>
        <time>2016-06-18T07:53:21Z</time>
      </trkpt>
      <trkpt lat="46.444949" lon="14.412142">
        <ele>1934.4364769664</ele>
        <time>2016-06-18T07:53:29Z</time>
      </trkpt>
      <trkpt lat="46.444969" lon="14.412157">
        <ele>1936.3964531328</ele>
        <time>2016-06-18T07:53:40Z</time>
      </trkpt>
      <trkpt lat="46.444975" lon="14.412157">
        <ele>1936.4364526464</ele>
        <time>2016-06-18T07:53:55Z</time>
      </trkpt>
      <trkpt lat="46.444987" lon="14.412123">
        <ele>1936.826447904</ele>
        <time>2016-06-18T07:54:04Z</time>
      </trkpt>
      <trkpt lat="46.445011" lon="14.412136">
        <ele>1938.8664230976</ele>
        <time>2016-06-18T07:54:14Z</time>
      </trkpt>
      <trkpt lat="46.445046" lon="14.412142">
        <ele>1940.7863997504</ele>
        <time>2016-06-18T07:54:23Z</time>
      </trkpt>
      <trkpt lat="46.445056" lon="14.412140">
        <ele>1942.3663805376</ele>
        <time>2016-06-18T07:54:31Z</time>
      </trkpt>
      <trkpt lat="46.445072" lon="14.412157">
        <ele>1942.3863802944</ele>
        <time>2016-06-18T07:54:45Z</time>
      </trkpt>
      <trkpt lat="46.445108" lon="14.412103">
        <ele>1942.9463734848</ele>
        <time>2016-06-18T07:54:54Z</time>
      </trkpt>
      <trkpt lat="46.445110" lon="14.412114">
        <ele>1944.6063532992</ele>
        <time>2016-06-18T07:55:03Z</time>
      </trkpt>
      <trkpt lat="46.445111" lon="14.412088">
        <ele>1946.9163252096</ele>
        <time>2016-06-18T07:55:14Z</time>
      </trkpt>
      <trkpt lat="46.445115" lon="14.412059">
        <ele>1948.7663027136</ele>
        <time>2016-06-18T07:55:25Z</time>
      </trkpt>
      <trkpt lat="46.445101" lon="14.412068">
        <ele>1949.3162960256</ele>
        <time>2016-06-18T07:55:40Z</time>
      </trkpt>
      <trkpt lat="46.445075" lon="14.412090">
        <ele>1949.3162960256</ele>
        <time>2016-06-18T07:56:04Z</time>
      </trkpt>
      <trkpt lat="46.445113" lon="14.412057">
        <ele>1949.7362909184</ele>
        <time>2016-06-18T07:56:11Z</time>
      </trkpt>
      <trkpt lat="46.445156" lon="14.412007">
        <ele>1952.0962622208</ele>
        <time>2016-06-18T07:56:23Z</time>
      </trkpt>
      <trkpt lat="46.445180" lon="14.411962">
        <ele>1954.826229024</ele>
        <time>2016-06-18T07:56:34Z</time>
      </trkpt>
      <trkpt lat="46.445212" lon="14.411904">
        <ele>1957.1462008128</ele>
        <time>2016-06-18T07:56:43Z</time>
      </trkpt>
      <trkpt lat="46.445218" lon="14.411908">
        <ele>1958.826180384</ele>
        <time>2016-06-18T07:56:54Z</time>
      </trkpt>
      <trkpt lat="46.445211" lon="14.411903">
        <ele>1959.2461752768</ele>
        <time>2016-06-18T07:57:04Z</time>
      </trkpt>
      <trkpt lat="46.445212" lon="14.411901">
        <ele>1959.3961734528</ele>
        <time>2016-06-18T07:57:13Z</time>
      </trkpt>
      <trkpt lat="46.445216" lon="14.411901">
        <ele>1959.826168224</ele>
        <time>2016-06-18T07:57:23Z</time>
      </trkpt>
      <trkpt lat="46.445239" lon="14.411927">
        <ele>1960.1861638464</ele>
        <time>2016-06-18T07:57:31Z</time>
      </trkpt>
      <trkpt lat="46.445249" lon="14.411969">
        <ele>1961.5461473088</ele>
        <time>2016-06-18T07:57:41Z</time>
      </trkpt>
      <trkpt lat="46.445241" lon="14.412004">
        <ele>1963.6461217728</ele>
        <time>2016-06-18T07:57:52Z</time>
      </trkpt>
      <trkpt lat="46.445239" lon="14.412048">
        <ele>1965.7060967232</ele>
        <time>2016-06-18T07:58:03Z</time>
      </trkpt>
      <trkpt lat="46.445237" lon="14.412075">
        <ele>1967.176078848</ele>
        <time>2016-06-18T07:58:11Z</time>
      </trkpt>
      <trkpt lat="46.445236" lon="14.412095">
        <ele>1968.5460621888</ele>
        <time>2016-06-18T07:58:22Z</time>
      </trkpt>
      <trkpt lat="46.445259" lon="14.412092">
        <ele>1969.676048448</ele>
        <time>2016-06-18T07:58:34Z</time>
      </trkpt>
      <trkpt lat="46.445276" lon="14.412101">
        <ele>1970.2160418816</ele>
        <time>2016-06-18T07:58:39Z</time>
      </trkpt>
      <trkpt lat="46.445273" lon="14.412117">
        <ele>1971.4660266816</ele>
        <time>2016-06-18T07:58:48Z</time>
      </trkpt>
      <trkpt lat="46.445283" lon="14.412116">
        <ele>1972.5660133056</ele>
        <time>2016-06-18T07:58:57Z</time>
      </trkpt>
      <trkpt lat="46.445272" lon="14.412131">
        <ele>1973.376003456</ele>
        <time>2016-06-18T07:59:12Z</time>
      </trkpt>
      <trkpt lat="46.445278" lon="14.412139">
        <ele>1973.7259992</ele>
        <time>2016-06-18T07:59:24Z</time>
      </trkpt>
      <trkpt lat="46.445309" lon="14.412126">
        <ele>1973.6460001728</ele>
        <time>2016-06-18T07:59:32Z</time>
      </trkpt>
      <trkpt lat="46.445391" lon="14.412085">
        <ele>1974.9659841216</ele>
        <time>2016-06-18T07:59:43Z</time>
      </trkpt>
      <trkpt lat="46.445415" lon="14.412074">
        <ele>1976.5959643008</ele>
        <time>2016-06-18T07:59:54Z</time>
      </trkpt>
      <trkpt lat="46.445455" lon="14.412065">
        <ele>1979.175932928</ele>
        <time>2016-06-18T08:00:06Z</time>
      </trkpt>
      <trkpt lat="46.445454" lon="14.412039">
        <ele>1981.0859097024</ele>
        <time>2016-06-18T08:00:15Z</time>
      </trkpt>
      <trkpt lat="46.445450" lon="14.412033">
        <ele>1981.3559064192</ele>
        <time>2016-06-18T08:00:30Z</time>
      </trkpt>
      <trkpt lat="46.445499" lon="14.412039">
        <ele>1981.7359017984</ele>
        <time>2016-06-18T08:00:45Z</time>
      </trkpt>
      <trkpt lat="46.445542" lon="14.412016">
        <ele>1983.2058839232</ele>
        <time>2016-06-18T08:00:57Z</time>
      </trkpt>
      <trkpt lat="46.445551" lon="14.412024">
        <ele>1984.2358713984</ele>
        <time>2016-06-18T08:01:12Z</time>
      </trkpt>
      <trkpt lat="46.445545" lon="14.412016">
        <ele>1984.2958706688</ele>
        <time>2016-06-18T08:01:28Z</time>
      </trkpt>
      <trkpt lat="46.445566" lon="14.412020">
        <ele>1984.3958694528</ele>
        <time>2016-06-18T08:01:40Z</time>
      </trkpt>
      <trkpt lat="46.445568" lon="14.411972">
        <ele>1985.0158619136</ele>
        <time>2016-06-18T08:01:51Z</time>
      </trkpt>
      <trkpt lat="46.445578" lon="14.411961">
        <ele>1985.6958536448</ele>
        <time>2016-06-18T08:02:02Z</time>
      </trkpt>
      <trkpt lat="46.445565" lon="14.411943">
        <ele>1986.3558456192</ele>
        <time>2016-06-18T08:02:15Z</time>
      </trkpt>
      <trkpt lat="46.445546" lon="14.411905">
        <ele>1986.5558431872</ele>
        <time>2016-06-18T08:02:29Z</time>
      </trkpt>
      <trkpt lat="46.445543" lon="14.411861">
        <ele>1987.2058352832</ele>
        <time>2016-06-18T08:02:38Z</time>
      </trkpt>
      <trkpt lat="46.445546" lon="14.411852">
        <ele>1987.7958281088</ele>
        <time>2016-06-18T08:02:49Z</time>
      </trkpt>
      <trkpt lat="46.445562" lon="14.411832">
        <ele>1988.1658236096</ele>
        <time>2016-06-18T08:02:56Z</time>
      </trkpt>
      <trkpt lat="46.445567" lon="14.411860">
        <ele>1989.175811328</ele>
        <time>2016-06-18T08:03:16Z</time>
      </trkpt>
      <trkpt lat="46.445585" lon="14.411774">
        <ele>1989.6858051264</ele>
        <time>2016-06-18T08:03:27Z</time>
      </trkpt>
      <trkpt lat="46.445626" lon="14.411782">
        <ele>1991.175787008</ele>
        <time>2016-06-18T08:03:35Z</time>
      </trkpt>
      <trkpt lat="46.445607" lon="14.411789">
        <ele>1992.575769984</ele>
        <time>2016-06-18T08:03:50Z</time>
      </trkpt>
      <trkpt lat="46.445630" lon="14.411773">
        <ele>1992.9357656064</ele>
        <time>2016-06-18T08:04:01Z</time>
      </trkpt>
      <trkpt lat="46.445655" lon="14.411696">
        <ele>1995.3057367872</ele>
        <time>2016-06-18T08:04:13Z</time>
      </trkpt>
      <trkpt lat="46.445650" lon="14.411661">
        <ele>1996.7557191552</ele>
        <time>2016-06-18T08:04:25Z</time>
      </trkpt>
      <trkpt lat="46.445657" lon="14.411591">
        <ele>1998.5556972672</ele>
        <time>2016-06-18T08:04:37Z</time>
      </trkpt>
      <trkpt lat="46.445670" lon="14.411571">
        <ele>1999.97568</ele>
        <time>2016-06-18T08:04:45Z</time>
      </trkpt>
      <trkpt lat="46.445674" lon="14.411564">
        <ele>2000.5956724608</ele>
        <time>2016-06-18T08:05:00Z</time>
      </trkpt>
      <trkpt lat="46.445702" lon="14.411601">
        <ele>2001.5556607872</ele>
        <time>2016-06-18T08:05:08Z</time>
      </trkpt>
      <trkpt lat="46.445728" lon="14.411605">
        <ele>2003.0356427904</ele>
        <time>2016-06-18T08:05:18Z</time>
      </trkpt>
      <trkpt lat="46.445760" lon="14.411572">
        <ele>2005.2556157952</ele>
        <time>2016-06-18T08:05:27Z</time>
      </trkpt>
      <trkpt lat="46.445741" lon="14.411561">
        <ele>2006.7855971904</ele>
        <time>2016-06-18T08:05:41Z</time>
      </trkpt>
      <trkpt lat="46.445739" lon="14.411556">
        <ele>2007.0155943936</ele>
        <time>2016-06-18T08:05:56Z</time>
      </trkpt>
      <trkpt lat="46.445746" lon="14.411560">
        <ele>2007.1355929344</ele>
        <time>2016-06-18T08:06:10Z</time>
      </trkpt>
      <trkpt lat="46.445747" lon="14.411552">
        <ele>2007.0655937856</ele>
        <time>2016-06-18T08:06:24Z</time>
      </trkpt>
      <trkpt lat="46.445750" lon="14.411569">
        <ele>2007.0355941504</ele>
        <time>2016-06-18T08:06:32Z</time>
      </trkpt>
      <trkpt lat="46.445747" lon="14.411575">
        <ele>2007.1355929344</ele>
        <time>2016-06-18T08:06:44Z</time>
      </trkpt>
      <trkpt lat="46.445737" lon="14.411581">
        <ele>2007.2355917184</ele>
        <time>2016-06-18T08:06:58Z</time>
      </trkpt>
      <trkpt lat="46.445728" lon="14.411590">
        <ele>2007.425589408</ele>
        <time>2016-06-18T08:07:12Z</time>
      </trkpt>
      <trkpt lat="46.445742" lon="14.411575">
        <ele>2007.1655925696</ele>
        <time>2016-06-18T08:07:31Z</time>
      </trkpt>
      <trkpt lat="46.445736" lon="14.411572">
        <ele>2007.5655877056</ele>
        <time>2016-06-18T08:07:53Z</time>
      </trkpt>
      <trkpt lat="46.445731" lon="14.411567">
        <ele>2007.0455940288</ele>
        <time>2016-06-18T08:08:13Z</time>
      </trkpt>
      <trkpt lat="46.445735" lon="14.411560">
        <ele>2007.1155931776</ele>
        <time>2016-06-18T08:08:29Z</time>
      </trkpt>
      <trkpt lat="46.445728" lon="14.411564">
        <ele>2007.1955922048</ele>
        <time>2016-06-18T08:08:47Z</time>
      </trkpt>
      <trkpt lat="46.445733" lon="14.411559">
        <ele>2007.4455891648</ele>
        <time>2016-06-18T08:09:05Z</time>
      </trkpt>
      <trkpt lat="46.445735" lon="14.411566">
        <ele>2007.4055896512</ele>
        <time>2016-06-18T08:09:25Z</time>
      </trkpt>
      <trkpt lat="46.445744" lon="14.411575">
        <ele>2007.5355880704</ele>
        <time>2016-06-18T08:09:32Z</time>
      </trkpt>
      <trkpt lat="46.445752" lon="14.411572">
        <ele>2007.4155895296</ele>
        <time>2016-06-18T08:09:41Z</time>
      </trkpt>
      <trkpt lat="46.445755" lon="14.411561">
        <ele>2006.7155980416</ele>
        <time>2016-06-18T08:09:53Z</time>
      </trkpt>
      <trkpt lat="46.445752" lon="14.411563">
        <ele>2006.6655986496</ele>
        <time>2016-06-18T08:10:08Z</time>
      </trkpt>
      <trkpt lat="46.445751" lon="14.411567">
        <ele>2006.7055981632</ele>
        <time>2016-06-18T08:10:20Z</time>
      </trkpt>
      <trkpt lat="46.445758" lon="14.411570">
        <ele>2006.9155956096</ele>
        <time>2016-06-18T08:10:28Z</time>
      </trkpt>
      <trkpt lat="46.445750" lon="14.411562">
        <ele>2006.9155956096</ele>
        <time>2016-06-18T08:10:42Z</time>
      </trkpt>
      <trkpt lat="46.445754" lon="14.411556">
        <ele>2006.8655962176</ele>
        <time>2016-06-18T08:10:50Z</time>
      </trkpt>
      <trkpt lat="46.445757" lon="14.411557">
        <ele>2006.6055993792</ele>
        <time>2016-06-18T08:10:59Z</time>
      </trkpt>
      <trkpt lat="46.445755" lon="14.411551">
        <ele>2006.6055993792</ele>
        <time>2016-06-18T08:11:15Z</time>
      </trkpt>
      <trkpt lat="46.445758" lon="14.411549">
        <ele>2006.5955995008</ele>
        <time>2016-06-18T08:11:25Z</time>
      </trkpt>
      <trkpt lat="46.445760" lon="14.411550">
        <ele>2006.6955982848</ele>
        <time>2016-06-18T08:11:33Z</time>
      </trkpt>
      <trkpt lat="46.445760" lon="14.411560">
        <ele>2006.6555987712</ele>
        <time>2016-06-18T08:11:45Z</time>
      </trkpt>
      <trkpt lat="46.445756" lon="14.411551">
        <ele>2006.8455964608</ele>
        <time>2016-06-18T08:12:00Z</time>
      </trkpt>
      <trkpt lat="46.445741" lon="14.411553">
        <ele>2006.825596704</ele>
        <time>2016-06-18T08:12:19Z</time>
      </trkpt>
      <trkpt lat="46.445751" lon="14.411554">
        <ele>2006.7055981632</ele>
        <time>2016-06-18T08:12:28Z</time>
      </trkpt>
      <trkpt lat="46.445758" lon="14.411569">
        <ele>2006.6455988928</ele>
        <time>2016-06-18T08:12:39Z</time>
      </trkpt>
      <trkpt lat="46.445762" lon="14.411570">
        <ele>2006.5555999872</ele>
        <time>2016-06-18T08:12:49Z</time>
      </trkpt>
      <trkpt lat="46.445764" lon="14.411571">
        <ele>2006.7455976768</ele>
        <time>2016-06-18T08:12:58Z</time>
      </trkpt>
      <trkpt lat="46.445759" lon="14.411574">
        <ele>2007.1355929344</ele>
        <time>2016-06-18T08:13:10Z</time>
      </trkpt>
      <trkpt lat="46.445752" lon="14.411568">
        <ele>2007.4455891648</ele>
        <time>2016-06-18T08:13:20Z</time>
      </trkpt>
      <trkpt lat="46.445757" lon="14.411565">
        <ele>2008.3955776128</ele>
        <time>2016-06-18T08:13:28Z</time>
      </trkpt>
      <trkpt lat="46.445763" lon="14.411579">
        <ele>2009.125568736</ele>
        <time>2016-06-18T08:13:39Z</time>
      </trkpt>
      <trkpt lat="46.445759" lon="14.411527">
        <ele>2010.9355467264</ele>
        <time>2016-06-18T08:13:48Z</time>
      </trkpt>
      <trkpt lat="46.445784" lon="14.411515">
        <ele>2012.7155250816</ele>
        <time>2016-06-18T08:13:56Z</time>
      </trkpt>
      <trkpt lat="46.445816" lon="14.411497">
        <ele>2014.8454991808</ele>
        <time>2016-06-18T08:14:06Z</time>
      </trkpt>
      <trkpt lat="46.445855" lon="14.411500">
        <ele>2016.675476928</ele>
        <time>2016-06-18T08:14:14Z</time>
      </trkpt>
      <trkpt lat="46.445880" lon="14.411488">
        <ele>2018.7454517568</ele>
        <time>2016-06-18T08:14:23Z</time>
      </trkpt>
      <trkpt lat="46.445901" lon="14.411452">
        <ele>2020.5954292608</ele>
        <time>2016-06-18T08:14:34Z</time>
      </trkpt>
      <trkpt lat="46.445947" lon="14.411479">
        <ele>2022.5854050624</ele>
        <time>2016-06-18T08:14:43Z</time>
      </trkpt>
      <trkpt lat="46.445962" lon="14.411500">
        <ele>2023.8353898624</ele>
        <time>2016-06-18T08:14:51Z</time>
      </trkpt>
      <trkpt lat="46.445966" lon="14.411533">
        <ele>2025.1153742976</ele>
        <time>2016-06-18T08:15:01Z</time>
      </trkpt>
      <trkpt lat="46.445975" lon="14.411569">
        <ele>2026.3953587328</ele>
        <time>2016-06-18T08:15:12Z</time>
      </trkpt>
      <trkpt lat="46.445973" lon="14.411564">
        <ele>2027.2553482752</ele>
        <time>2016-06-18T08:15:23Z</time>
      </trkpt>
      <trkpt lat="46.445987" lon="14.411580">
        <ele>2027.2953477888</ele>
        <time>2016-06-18T08:15:32Z</time>
      </trkpt>
      <trkpt lat="46.446006" lon="14.411595">
        <ele>2028.2653359936</ele>
        <time>2016-06-18T08:15:40Z</time>
      </trkpt>
      <trkpt lat="46.446014" lon="14.411606">
        <ele>2029.6853187264</ele>
        <time>2016-06-18T08:15:48Z</time>
      </trkpt>
      <trkpt lat="46.446020" lon="14.411602">
        <ele>2030.3953100928</ele>
        <time>2016-06-18T08:15:59Z</time>
      </trkpt>
      <trkpt lat="46.446023" lon="14.411576">
        <ele>2031.525296352</ele>
        <time>2016-06-18T08:16:07Z</time>
      </trkpt>
      <trkpt lat="46.446050" lon="14.411565">
        <ele>2034.0052661952</ele>
        <time>2016-06-18T08:16:18Z</time>
      </trkpt>
      <trkpt lat="46.446069" lon="14.411511">
        <ele>2035.9652423616</ele>
        <time>2016-06-18T08:16:27Z</time>
      </trkpt>
      <trkpt lat="46.446101" lon="14.411521">
        <ele>2037.97521792</ele>
        <time>2016-06-18T08:16:37Z</time>
      </trkpt>
      <trkpt lat="46.446102" lon="14.411571">
        <ele>2038.8552072192</ele>
        <time>2016-06-18T08:16:49Z</time>
      </trkpt>
      <trkpt lat="46.446115" lon="14.411569">
        <ele>2039.5451988288</ele>
        <time>2016-06-18T08:16:56Z</time>
      </trkpt>
      <trkpt lat="46.446120" lon="14.411595">
        <ele>2041.0151809536</ele>
        <time>2016-06-18T08:17:05Z</time>
      </trkpt>
      <trkpt lat="46.446123" lon="14.411595">
        <ele>2042.1451672128</ele>
        <time>2016-06-18T08:17:16Z</time>
      </trkpt>
      <trkpt lat="46.446129" lon="14.411595">
        <ele>2042.0851679424</ele>
        <time>2016-06-18T08:17:28Z</time>
      </trkpt>
      <trkpt lat="46.446132" lon="14.411600">
        <ele>2041.875170496</ele>
        <time>2016-06-18T08:17:43Z</time>
      </trkpt>
      <trkpt lat="46.446146" lon="14.411548">
        <ele>2042.7451599168</ele>
        <time>2016-06-18T08:17:54Z</time>
      </trkpt>
      <trkpt lat="46.446151" lon="14.411427">
        <ele>2044.6851363264</ele>
        <time>2016-06-18T08:18:06Z</time>
      </trkpt>
      <trkpt lat="46.446158" lon="14.411323">
        <ele>2047.1951058048</ele>
        <time>2016-06-18T08:18:18Z</time>
      </trkpt>
      <trkpt lat="46.446191" lon="14.411286">
        <ele>2048.9950839168</ele>
        <time>2016-06-18T08:18:26Z</time>
      </trkpt>
      <trkpt lat="46.446206" lon="14.411249">
        <ele>2051.6050521792</ele>
        <time>2016-06-18T08:18:37Z</time>
      </trkpt>
      <trkpt lat="46.446211" lon="14.411194">
        <ele>2053.5350287104</ele>
        <time>2016-06-18T08:18:48Z</time>
      </trkpt>
      <trkpt lat="46.446211" lon="14.411186">
        <ele>2053.7450261568</ele>
        <time>2016-06-18T08:19:01Z</time>
      </trkpt>
      <trkpt lat="46.446197" lon="14.411142">
        <ele>2053.775025792</ele>
        <time>2016-06-18T08:19:15Z</time>
      </trkpt>
      <trkpt lat="46.446192" lon="14.411073">
        <ele>2054.6550150912</ele>
        <time>2016-06-18T08:19:23Z</time>
      </trkpt>
      <trkpt lat="46.446199" lon="14.410986">
        <ele>2056.2949951488</ele>
        <time>2016-06-18T08:19:31Z</time>
      </trkpt>
      <trkpt lat="46.446211" lon="14.410904">
        <ele>2057.374982016</ele>
        <time>2016-06-18T08:19:39Z</time>
      </trkpt>
      <trkpt lat="46.446236" lon="14.410834">
        <ele>2059.0449617088</ele>
        <time>2016-06-18T08:19:47Z</time>
      </trkpt>
      <trkpt lat="46.446246" lon="14.410802">
        <ele>2061.324933984</ele>
        <time>2016-06-18T08:20:02Z</time>
      </trkpt>
      <trkpt lat="46.446264" lon="14.410735">
        <ele>2062.6449179328</ele>
        <time>2016-06-18T08:20:13Z</time>
      </trkpt>
      <trkpt lat="46.446267" lon="14.410710">
        <ele>2064.2548983552</ele>
        <time>2016-06-18T08:20:22Z</time>
      </trkpt>
      <trkpt lat="46.446260" lon="14.410703">
        <ele>2065.2048868032</ele>
        <time>2016-06-18T08:20:40Z</time>
      </trkpt>
      <trkpt lat="46.446254" lon="14.410701">
        <ele>2064.8848906944</ele>
        <time>2016-06-18T08:20:52Z</time>
      </trkpt>
      <trkpt lat="46.446257" lon="14.410661">
        <ele>2065.6448814528</ele>
        <time>2016-06-18T08:21:01Z</time>
      </trkpt>
      <trkpt lat="46.446289" lon="14.410644">
        <ele>2067.5148587136</ele>
        <time>2016-06-18T08:21:11Z</time>
      </trkpt>
      <trkpt lat="46.446305" lon="14.410604">
        <ele>2069.6648325696</ele>
        <time>2016-06-18T08:21:19Z</time>
      </trkpt>
      <trkpt lat="46.446317" lon="14.410574">
        <ele>2071.424811168</ele>
        <time>2016-06-18T08:21:27Z</time>
      </trkpt>
      <trkpt lat="46.446336" lon="14.410570">
        <ele>2072.824794144</ele>
        <time>2016-06-18T08:21:36Z</time>
      </trkpt>
      <trkpt lat="46.446329" lon="14.410562">
        <ele>2073.874781376</ele>
        <time>2016-06-18T08:21:47Z</time>
      </trkpt>
      <trkpt lat="46.446327" lon="14.410532">
        <ele>2075.2947641088</ele>
        <time>2016-06-18T08:21:57Z</time>
      </trkpt>
      <trkpt lat="46.446340" lon="14.410527">
        <ele>2077.7647340736</ele>
        <time>2016-06-18T08:22:08Z</time>
      </trkpt>
      <trkpt lat="46.446353" lon="14.410499">
        <ele>2079.324715104</ele>
        <time>2016-06-18T08:22:17Z</time>
      </trkpt>
      <trkpt lat="46.446355" lon="14.410490">
        <ele>2080.3547025792</ele>
        <time>2016-06-18T08:22:29Z</time>
      </trkpt>
      <trkpt lat="46.446357" lon="14.410490">
        <ele>2080.1447051328</ele>
        <time>2016-06-18T08:22:43Z</time>
      </trkpt>
      <trkpt lat="46.446368" lon="14.410467">
        <ele>2080.8846961344</ele>
        <time>2016-06-18T08:22:52Z</time>
      </trkpt>
      <trkpt lat="46.446374" lon="14.410434">
        <ele>2082.9546709632</ele>
        <time>2016-06-18T08:23:02Z</time>
      </trkpt>
      <trkpt lat="46.446381" lon="14.410410">
        <ele>2085.124644576</ele>
        <time>2016-06-18T08:23:11Z</time>
      </trkpt>
      <trkpt lat="46.446375" lon="14.410386">
        <ele>2086.0346335104</ele>
        <time>2016-06-18T08:23:24Z</time>
      </trkpt>
      <trkpt lat="46.446382" lon="14.410291">
        <ele>2087.4646161216</ele>
        <time>2016-06-18T08:23:34Z</time>
      </trkpt>
      <trkpt lat="46.446387" lon="14.410231">
        <ele>2088.7846000704</ele>
        <time>2016-06-18T08:23:43Z</time>
      </trkpt>
      <trkpt lat="46.446394" lon="14.410211">
        <ele>2089.8545870592</ele>
        <time>2016-06-18T08:23:57Z</time>
      </trkpt>
      <trkpt lat="46.446409" lon="14.410155">
        <ele>2090.5845781824</ele>
        <time>2016-06-18T08:24:08Z</time>
      </trkpt>
      <trkpt lat="46.446420" lon="14.410179">
        <ele>2091.4645674816</ele>
        <time>2016-06-18T08:24:23Z</time>
      </trkpt>
      <trkpt lat="46.446433" lon="14.410197">
        <ele>2092.1545590912</ele>
        <time>2016-06-18T08:24:31Z</time>
      </trkpt>
      <trkpt lat="46.446431" lon="14.410195">
        <ele>2093.2045463232</ele>
        <time>2016-06-18T08:24:41Z</time>
      </trkpt>
      <trkpt lat="46.446444" lon="14.410199">
        <ele>2093.9045378112</ele>
        <time>2016-06-18T08:24:50Z</time>
      </trkpt>
      <trkpt lat="46.446450" lon="14.410196">
        <ele>2093.9545372032</ele>
        <time>2016-06-18T08:25:02Z</time>
      </trkpt>
      <trkpt lat="46.446429" lon="14.410204">
        <ele>2093.9345374464</ele>
        <time>2016-06-18T08:25:14Z</time>
      </trkpt>
      <trkpt lat="46.446429" lon="14.410204">
        <ele>2093.8645382976</ele>
        <time>2016-06-18T08:25:25Z</time>
      </trkpt>
      <trkpt lat="46.446432" lon="14.410199">
        <ele>2092.824550944</ele>
        <time>2016-06-18T08:25:38Z</time>
      </trkpt>
      <trkpt lat="46.446444" lon="14.410194">
        <ele>2092.5945537408</ele>
        <time>2016-06-18T08:25:56Z</time>
      </trkpt>
      <trkpt lat="46.446452" lon="14.410199">
        <ele>2092.5545542272</ele>
        <time>2016-06-18T08:26:28Z</time>
      </trkpt>
      <trkpt lat="46.446448" lon="14.410201">
        <ele>2092.5345544704</ele>
        <time>2016-06-18T08:26:58Z</time>
      </trkpt>
      <trkpt lat="46.446464" lon="14.410209">
        <ele>2092.5545542272</ele>
        <time>2016-06-18T08:27:14Z</time>
      </trkpt>
      <trkpt lat="46.446480" lon="14.410215">
        <ele>2092.4845550784</ele>
        <time>2016-06-18T08:27:23Z</time>
      </trkpt>
      <trkpt lat="46.446470" lon="14.410212">
        <ele>2092.6145534976</ele>
        <time>2016-06-18T08:27:40Z</time>
      </trkpt>
      <trkpt lat="46.446458" lon="14.410202">
        <ele>2092.3645565376</ele>
        <time>2016-06-18T08:28:01Z</time>
      </trkpt>
      <trkpt lat="46.446458" lon="14.410189">
        <ele>2092.5145547136</ele>
        <time>2016-06-18T08:28:28Z</time>
      </trkpt>
      <trkpt lat="46.446455" lon="14.410179">
        <ele>2092.824550944</ele>
        <time>2016-06-18T08:28:57Z</time>
      </trkpt>
      <trkpt lat="46.446454" lon="14.410181">
        <ele>2092.8345508224</ele>
        <time>2016-06-18T08:29:22Z</time>
      </trkpt>
      <trkpt lat="46.446457" lon="14.410181">
        <ele>2092.7345520384</ele>
        <time>2016-06-18T08:29:44Z</time>
      </trkpt>
      <trkpt lat="46.446462" lon="14.410177">
        <ele>2092.7345520384</ele>
        <time>2016-06-18T08:29:55Z</time>
      </trkpt>
      <trkpt lat="46.446456" lon="14.410182">
        <ele>2092.9345496064</ele>
        <time>2016-06-18T08:30:19Z</time>
      </trkpt>
      <trkpt lat="46.446455" lon="14.410186">
        <ele>2092.7945513088</ele>
        <time>2016-06-18T08:30:30Z</time>
      </trkpt>
      <trkpt lat="46.446449" lon="14.410181">
        <ele>2092.9145498496</ele>
        <time>2016-06-18T08:30:58Z</time>
      </trkpt>
      <trkpt lat="46.446446" lon="14.410185">
        <ele>2093.074547904</ele>
        <time>2016-06-18T08:31:25Z</time>
      </trkpt>
      <trkpt lat="46.446447" lon="14.410187">
        <ele>2092.774551552</ele>
        <time>2016-06-18T08:31:56Z</time>
      </trkpt>
      <trkpt lat="46.446443" lon="14.410185">
        <ele>2092.5945537408</ele>
        <time>2016-06-18T08:32:30Z</time>
      </trkpt>
      <trkpt lat="46.446443" lon="14.410186">
        <ele>2093.0845477824</ele>
        <time>2016-06-18T08:33:02Z</time>
      </trkpt>
      <trkpt lat="46.446439" lon="14.410194">
        <ele>2092.8445507008</ele>
        <time>2016-06-18T08:33:31Z</time>
      </trkpt>
      <trkpt lat="46.446441" lon="14.410190">
        <ele>2092.9045499712</ele>
        <time>2016-06-18T08:34:00Z</time>
      </trkpt>
      <trkpt lat="46.446442" lon="14.410188">
        <ele>2092.9345496064</ele>
        <time>2016-06-18T08:34:27Z</time>
      </trkpt>
      <trkpt lat="46.446441" lon="14.410194">
        <ele>2092.6045536192</ele>
        <time>2016-06-18T08:34:57Z</time>
      </trkpt>
      <trkpt lat="46.446443" lon="14.410191">
        <ele>2092.7545517952</ele>
        <time>2016-06-18T08:35:27Z</time>
      </trkpt>
      <trkpt lat="46.446442" lon="14.410192">
        <ele>2092.8445507008</ele>
        <time>2016-06-18T08:35:55Z</time>
      </trkpt>
      <trkpt lat="46.446438" lon="14.410196">
        <ele>2092.6945525248</ele>
        <time>2016-06-18T08:36:21Z</time>
      </trkpt>
      <trkpt lat="46.446437" lon="14.410198">
        <ele>2092.9145498496</ele>
        <time>2016-06-18T08:36:44Z</time>
      </trkpt>
      <trkpt lat="46.446436" lon="14.410195">
        <ele>2093.0645480256</ele>
        <time>2016-06-18T08:37:05Z</time>
      </trkpt>
      <trkpt lat="46.446436" lon="14.410191">
        <ele>2092.97454912</ele>
        <time>2016-06-18T08:37:31Z</time>
      </trkpt>
      <trkpt lat="46.446437" lon="14.410192">
        <ele>2093.174546688</ele>
        <time>2016-06-18T08:37:55Z</time>
      </trkpt>
      <trkpt lat="46.446443" lon="14.410189">
        <ele>2093.1045475392</ele>
        <time>2016-06-18T08:38:25Z</time>
      </trkpt>
      <trkpt lat="46.446449" lon="14.410188">
        <ele>2093.0045487552</ele>
        <time>2016-06-18T08:38:34Z</time>
      </trkpt>
      <trkpt lat="46.446453" lon="14.410187">
        <ele>2093.0345483904</ele>
        <time>2016-06-18T08:38:45Z</time>
      </trkpt>
      <trkpt lat="46.446453" lon="14.410184">
        <ele>2093.0645480256</ele>
        <time>2016-06-18T08:39:00Z</time>
      </trkpt>
      <trkpt lat="46.446455" lon="14.410186">
        <ele>2093.0845477824</ele>
        <time>2016-06-18T08:39:14Z</time>
      </trkpt>
      <trkpt lat="46.446452" lon="14.410188">
        <ele>2093.024548512</ele>
        <time>2016-06-18T08:39:32Z</time>
      </trkpt>
      <trkpt lat="46.446454" lon="14.410193">
        <ele>2092.8945500928</ele>
        <time>2016-06-18T08:39:43Z</time>
      </trkpt>
      <trkpt lat="46.446452" lon="14.410192">
        <ele>2092.824550944</ele>
        <time>2016-06-18T08:39:55Z</time>
      </trkpt>
      <trkpt lat="46.446455" lon="14.410190">
        <ele>2092.9445494848</ele>
        <time>2016-06-18T08:40:05Z</time>
      </trkpt>
      <trkpt lat="46.446457" lon="14.410192">
        <ele>2092.9345496064</ele>
        <time>2016-06-18T08:40:14Z</time>
      </trkpt>
      <trkpt lat="46.446453" lon="14.410193">
        <ele>2092.9445494848</ele>
        <time>2016-06-18T08:40:29Z</time>
      </trkpt>
      <trkpt lat="46.446446" lon="14.410196">
        <ele>2092.9545493632</ele>
        <time>2016-06-18T08:40:48Z</time>
      </trkpt>
      <trkpt lat="46.446446" lon="14.410198">
        <ele>2092.8545505792</ele>
        <time>2016-06-18T08:41:00Z</time>
      </trkpt>
      <trkpt lat="46.446448" lon="14.410193">
        <ele>2092.9545493632</ele>
        <time>2016-06-18T08:41:11Z</time>
      </trkpt>
      <trkpt lat="46.446453" lon="14.410188">
        <ele>2092.7945513088</ele>
        <time>2016-06-18T08:41:19Z</time>
      </trkpt>
      <trkpt lat="46.446445" lon="14.410187">
        <ele>2092.774551552</ele>
        <time>2016-06-18T08:41:41Z</time>
      </trkpt>
      <trkpt lat="46.446447" lon="14.410194">
        <ele>2092.9645492416</ele>
        <time>2016-06-18T08:41:54Z</time>
      </trkpt>
      <trkpt lat="46.446451" lon="14.410197">
        <ele>2092.9145498496</ele>
        <time>2016-06-18T08:42:05Z</time>
      </trkpt>
      <trkpt lat="46.446451" lon="14.410198">
        <ele>2092.97454912</ele>
        <time>2016-06-18T08:42:16Z</time>
      </trkpt>
      <trkpt lat="46.446451" lon="14.410195">
        <ele>2092.924549728</ele>
        <time>2016-06-18T08:42:33Z</time>
      </trkpt>
      <trkpt lat="46.446450" lon="14.410196">
        <ele>2092.7445519168</ele>
        <time>2016-06-18T08:42:47Z</time>
      </trkpt>
      <trkpt lat="46.446446" lon="14.410196">
        <ele>2092.4545554432</ele>
        <time>2016-06-18T08:43:04Z</time>
      </trkpt>
      <trkpt lat="46.446450" lon="14.410196">
        <ele>2092.3845562944</ele>
        <time>2016-06-18T08:43:15Z</time>
      </trkpt>
      <trkpt lat="46.446444" lon="14.410191">
        <ele>2092.2945573888</ele>
        <time>2016-06-18T08:43:25Z</time>
      </trkpt>
      <trkpt lat="46.446443" lon="14.410194">
        <ele>2092.2045584832</ele>
        <time>2016-06-18T08:43:37Z</time>
      </trkpt>
      <trkpt lat="46.446447" lon="14.410197">
        <ele>2092.024560672</ele>
        <time>2016-06-18T08:43:46Z</time>
      </trkpt>
      <trkpt lat="46.446445" lon="14.410199">
        <ele>2091.9845611584</ele>
        <time>2016-06-18T08:43:57Z</time>
      </trkpt>
      <trkpt lat="46.446443" lon="14.410202">
        <ele>2092.324557024</ele>
        <time>2016-06-18T08:44:16Z</time>
      </trkpt>
      <trkpt lat="46.446446" lon="14.410201">
        <ele>2092.574553984</ele>
        <time>2016-06-18T08:44:27Z</time>
      </trkpt>
      <trkpt lat="46.446446" lon="14.410195">
        <ele>2092.3145571456</ele>
        <time>2016-06-18T08:44:43Z</time>
      </trkpt>
      <trkpt lat="46.446450" lon="14.410192">
        <ele>2092.4845550784</ele>
        <time>2016-06-18T08:44:55Z</time>
      </trkpt>
      <trkpt lat="46.446445" lon="14.410195">
        <ele>2092.5845538624</ele>
        <time>2016-06-18T08:45:14Z</time>
      </trkpt>
      <trkpt lat="46.446439" lon="14.410193">
        <ele>2092.8145510656</ele>
        <time>2016-06-18T08:45:25Z</time>
      </trkpt>
      <trkpt lat="46.446440" lon="14.410190">
        <ele>2092.6945525248</ele>
        <time>2016-06-18T08:45:44Z</time>
      </trkpt>
      <trkpt lat="46.446441" lon="14.410190">
        <ele>2092.9045499712</ele>
        <time>2016-06-18T08:45:57Z</time>
      </trkpt>
      <trkpt lat="46.446444" lon="14.410191">
        <ele>2093.1345471744</ele>
        <time>2016-06-18T08:46:16Z</time>
      </trkpt>
      <trkpt lat="46.446447" lon="14.410189">
        <ele>2093.3645443776</ele>
        <time>2016-06-18T08:46:26Z</time>
      </trkpt>
      <trkpt lat="46.446448" lon="14.410186">
        <ele>2092.8445507008</ele>
        <time>2016-06-18T08:46:35Z</time>
      </trkpt>
      <trkpt lat="46.446452" lon="14.410184">
        <ele>2092.4445555648</ele>
        <time>2016-06-18T08:46:43Z</time>
      </trkpt>
      <trkpt lat="46.446450" lon="14.410184">
        <ele>2092.4745552</ele>
        <time>2016-06-18T08:46:53Z</time>
      </trkpt>
      <trkpt lat="46.446452" lon="14.410182">
        <ele>2092.6145534976</ele>
        <time>2016-06-18T08:47:02Z</time>
      </trkpt>
      <trkpt lat="46.446454" lon="14.410180">
        <ele>2092.574553984</ele>
        <time>2016-06-18T08:47:11Z</time>
      </trkpt>
      <trkpt lat="46.446456" lon="14.410177">
        <ele>2092.4045560512</ele>
        <time>2016-06-18T08:47:22Z</time>
      </trkpt>
      <trkpt lat="46.446458" lon="14.410178">
        <ele>2092.4945549568</ele>
        <time>2016-06-18T08:47:32Z</time>
      </trkpt>
      <trkpt lat="46.446460" lon="14.410178">
        <ele>2092.4945549568</ele>
        <time>2016-06-18T08:47:41Z</time>
      </trkpt>
      <trkpt lat="46.446461" lon="14.410176">
        <ele>2092.324557024</ele>
        <time>2016-06-18T08:47:52Z</time>
      </trkpt>
      <trkpt lat="46.446461" lon="14.410176">
        <ele>2092.2845575104</ele>
        <time>2016-06-18T08:48:01Z</time>
      </trkpt>
      <trkpt lat="46.446462" lon="14.410173">
        <ele>2092.3045572672</ele>
        <time>2016-06-18T08:48:12Z</time>
      </trkpt>
      <trkpt lat="46.446461" lon="14.410171">
        <ele>2092.4445555648</ele>
        <time>2016-06-18T08:48:23Z</time>
      </trkpt>
      <trkpt lat="46.446461" lon="14.410175">
        <ele>2092.4545554432</ele>
        <time>2016-06-18T08:48:32Z</time>
      </trkpt>
      <trkpt lat="46.446464" lon="14.410171">
        <ele>2092.674552768</ele>
        <time>2016-06-18T08:48:42Z</time>
      </trkpt>
      <trkpt lat="46.446465" lon="14.410174">
        <ele>2092.5145547136</ele>
        <time>2016-06-18T08:48:51Z</time>
      </trkpt>
      <trkpt lat="46.446468" lon="14.410163">
        <ele>2092.4845550784</ele>
        <time>2016-06-18T08:49:02Z</time>
      </trkpt>
      <trkpt lat="46.446468" lon="14.410152">
        <ele>2092.624553376</ele>
        <time>2016-06-18T08:49:12Z</time>
      </trkpt>
      <trkpt lat="46.446468" lon="14.410158">
        <ele>2092.8545505792</ele>
        <time>2016-06-18T08:49:21Z</time>
      </trkpt>
      <trkpt lat="46.446469" lon="14.410175">
        <ele>2092.8345508224</ele>
        <time>2016-06-18T08:49:32Z</time>
      </trkpt>
      <trkpt lat="46.446466" lon="14.410171">
        <ele>2092.874550336</ele>
        <time>2016-06-18T08:49:41Z</time>
      </trkpt>
      <trkpt lat="46.446461" lon="14.410170">
        <ele>2092.9045499712</ele>
        <time>2016-06-18T08:49:53Z</time>
      </trkpt>
      <trkpt lat="46.446460" lon="14.410175">
        <ele>2092.7645516736</ele>
        <time>2016-06-18T08:50:06Z</time>
      </trkpt>
      <trkpt lat="46.446459" lon="14.410177">
        <ele>2093.0945476608</ele>
        <time>2016-06-18T08:50:16Z</time>
      </trkpt>
      <trkpt lat="46.446461" lon="14.410176">
        <ele>2092.674552768</ele>
        <time>2016-06-18T08:50:26Z</time>
      </trkpt>
      <trkpt lat="46.446463" lon="14.410174">
        <ele>2092.2145583616</ele>
        <time>2016-06-18T08:50:34Z</time>
      </trkpt>
      <trkpt lat="46.446451" lon="14.410177">
        <ele>2092.1545590912</ele>
        <time>2016-06-18T08:50:47Z</time>
      </trkpt>
      <trkpt lat="46.446448" lon="14.410178">
        <ele>2092.1045596992</ele>
        <time>2016-06-18T08:51:09Z</time>
      </trkpt>
      <trkpt lat="46.446447" lon="14.410181">
        <ele>2091.8145632256</ele>
        <time>2016-06-18T08:51:31Z</time>
      </trkpt>
      <trkpt lat="46.446443" lon="14.410184">
        <ele>2092.0345605504</ele>
        <time>2016-06-18T08:51:48Z</time>
      </trkpt>
      <trkpt lat="46.446443" lon="14.410182">
        <ele>2091.9345617664</ele>
        <time>2016-06-18T08:52:06Z</time>
      </trkpt>
      <trkpt lat="46.446450" lon="14.410180">
        <ele>2092.2345581184</ele>
        <time>2016-06-18T08:52:18Z</time>
      </trkpt>
      <trkpt lat="46.446452" lon="14.410177">
        <ele>2092.1545590912</ele>
        <time>2016-06-18T08:52:30Z</time>
      </trkpt>
      <trkpt lat="46.446454" lon="14.410174">
        <ele>2092.4445555648</ele>
        <time>2016-06-18T08:52:45Z</time>
      </trkpt>
      <trkpt lat="46.446451" lon="14.410169">
        <ele>2092.524554592</ele>
        <time>2016-06-18T08:52:57Z</time>
      </trkpt>
      <trkpt lat="46.446451" lon="14.410172">
        <ele>2092.5345544704</ele>
        <time>2016-06-18T08:53:16Z</time>
      </trkpt>
      <trkpt lat="46.446453" lon="14.410175">
        <ele>2092.2345581184</ele>
        <time>2016-06-18T08:53:31Z</time>
      </trkpt>
      <trkpt lat="46.446459" lon="14.410166">
        <ele>2092.3045572672</ele>
        <time>2016-06-18T08:53:43Z</time>
      </trkpt>
      <trkpt lat="46.446466" lon="14.410159">
        <ele>2092.3345569024</ele>
        <time>2016-06-18T08:53:58Z</time>
      </trkpt>
      <trkpt lat="46.446471" lon="14.410160">
        <ele>2092.1945586048</ele>
        <time>2016-06-18T08:54:11Z</time>
      </trkpt>
      <trkpt lat="46.446471" lon="14.410163">
        <ele>2092.0945598208</ele>
        <time>2016-06-18T08:54:22Z</time>
      </trkpt>
      <trkpt lat="46.446466" lon="14.410167">
        <ele>2092.2545578752</ele>
        <time>2016-06-18T08:54:37Z</time>
      </trkpt>
      <trkpt lat="46.446461" lon="14.410172">
        <ele>2092.3545566592</ele>
        <time>2016-06-18T08:54:54Z</time>
      </trkpt>
      <trkpt lat="46.446457" lon="14.410175">
        <ele>2092.1645589696</ele>
        <time>2016-06-18T08:55:12Z</time>
      </trkpt>
      <trkpt lat="46.446457" lon="14.410179">
        <ele>2092.1945586048</ele>
        <time>2016-06-18T08:55:24Z</time>
      </trkpt>
      <trkpt lat="46.446466" lon="14.410181">
        <ele>2092.2845575104</ele>
        <time>2016-06-18T08:55:35Z</time>
      </trkpt>
      <trkpt lat="46.446458" lon="14.410164">
        <ele>2092.4845550784</ele>
        <time>2016-06-18T08:55:47Z</time>
      </trkpt>
      <trkpt lat="46.446455" lon="14.410163">
        <ele>2091.7345641984</ele>
        <time>2016-06-18T08:56:11Z</time>
      </trkpt>
      <trkpt lat="46.446457" lon="14.410156">
        <ele>2092.174558848</ele>
        <time>2016-06-18T08:56:37Z</time>
      </trkpt>
      <trkpt lat="46.446464" lon="14.410153">
        <ele>2092.0645601856</ele>
        <time>2016-06-18T08:56:48Z</time>
      </trkpt>
      <trkpt lat="46.446468" lon="14.410151">
        <ele>2092.2345581184</ele>
        <time>2016-06-18T08:56:59Z</time>
      </trkpt>
      <trkpt lat="46.446469" lon="14.410155">
        <ele>2092.2845575104</ele>
        <time>2016-06-18T08:57:12Z</time>
      </trkpt>
      <trkpt lat="46.446471" lon="14.410152">
        <ele>2092.2845575104</ele>
        <time>2016-06-18T08:57:23Z</time>
      </trkpt>
      <trkpt lat="46.446472" lon="14.410155">
        <ele>2092.22455824</ele>
        <time>2016-06-18T08:57:34Z</time>
      </trkpt>
      <trkpt lat="46.446469" lon="14.410155">
        <ele>2092.4845550784</ele>
        <time>2016-06-18T08:57:46Z</time>
      </trkpt>
      <trkpt lat="46.446466" lon="14.410153">
        <ele>2092.5145547136</ele>
        <time>2016-06-18T08:57:57Z</time>
      </trkpt>
      <trkpt lat="46.446460" lon="14.410171">
        <ele>2093.5045426752</ele>
        <time>2016-06-18T08:58:06Z</time>
      </trkpt>
      <trkpt lat="46.446456" lon="14.410174">
        <ele>2093.874538176</ele>
        <time>2016-06-18T08:58:17Z</time>
      </trkpt>
      <trkpt lat="46.446453" lon="14.410161">
        <ele>2093.8845380544</ele>
        <time>2016-06-18T08:58:29Z</time>
      </trkpt>
      <trkpt lat="46.446449" lon="14.410172">
        <ele>2093.874538176</ele>
        <time>2016-06-18T08:58:44Z</time>
      </trkpt>
      <trkpt lat="46.446441" lon="14.410177">
        <ele>2093.5345423104</ele>
        <time>2016-06-18T08:58:53Z</time>
      </trkpt>
      <trkpt lat="46.446445" lon="14.410145">
        <ele>2093.5345423104</ele>
        <time>2016-06-18T08:59:03Z</time>
      </trkpt>
      <trkpt lat="46.446430" lon="14.410079">
        <ele>2093.774539392</ele>
        <time>2016-06-18T08:59:11Z</time>
      </trkpt>
      <trkpt lat="46.446416" lon="14.410038">
        <ele>2093.7445397568</ele>
        <time>2016-06-18T08:59:19Z</time>
      </trkpt>
      <trkpt lat="46.446424" lon="14.410022">
        <ele>2093.5845417024</ele>
        <time>2016-06-18T08:59:27Z</time>
      </trkpt>
      <trkpt lat="46.446417" lon="14.410019">
        <ele>2094.024536352</ele>
        <time>2016-06-18T08:59:42Z</time>
      </trkpt>
      <trkpt lat="46.446402" lon="14.410026">
        <ele>2093.674540608</ele>
        <time>2016-06-18T08:59:54Z</time>
      </trkpt>
      <trkpt lat="46.446391" lon="14.409999">
        <ele>2093.0045487552</ele>
        <time>2016-06-18T09:00:04Z</time>
      </trkpt>
      <trkpt lat="46.446380" lon="14.409993">
        <ele>2092.5545542272</ele>
        <time>2016-06-18T09:00:16Z</time>
      </trkpt>
      <trkpt lat="46.446364" lon="14.410032">
        <ele>2091.9045621312</ele>
        <time>2016-06-18T09:00:25Z</time>
      </trkpt>
      <trkpt lat="46.446364" lon="14.410010">
        <ele>2090.2345824384</ele>
        <time>2016-06-18T09:00:37Z</time>
      </trkpt>
      <trkpt lat="46.446346" lon="14.410001">
        <ele>2089.424592288</ele>
        <time>2016-06-18T09:00:45Z</time>
      </trkpt>
      <trkpt lat="46.446347" lon="14.410000">
        <ele>2088.6546016512</ele>
        <time>2016-06-18T09:00:55Z</time>
      </trkpt>
      <trkpt lat="46.446343" lon="14.409981">
        <ele>2088.3446054208</ele>
        <time>2016-06-18T09:01:04Z</time>
      </trkpt>
      <trkpt lat="46.446336" lon="14.409986">
        <ele>2087.4846158784</ele>
        <time>2016-06-18T09:01:11Z</time>
      </trkpt>
      <trkpt lat="46.446342" lon="14.409959">
        <ele>2086.5846268224</ele>
        <time>2016-06-18T09:01:22Z</time>
      </trkpt>
      <trkpt lat="46.446349" lon="14.409902">
        <ele>2084.8146483456</ele>
        <time>2016-06-18T09:01:30Z</time>
      </trkpt>
      <trkpt lat="46.446363" lon="14.409830">
        <ele>2083.7646611136</ele>
        <time>2016-06-18T09:01:38Z</time>
      </trkpt>
      <trkpt lat="46.446365" lon="14.409800">
        <ele>2084.1146568576</ele>
        <time>2016-06-18T09:01:46Z</time>
      </trkpt>
      <trkpt lat="46.446357" lon="14.409753">
        <ele>2084.2346553984</ele>
        <time>2016-06-18T09:01:53Z</time>
      </trkpt>
      <trkpt lat="46.446363" lon="14.409687">
        <ele>2084.22465552</ele>
        <time>2016-06-18T09:02:01Z</time>
      </trkpt>
      <trkpt lat="46.446383" lon="14.409670">
        <ele>2085.3846414144</ele>
        <time>2016-06-18T09:02:13Z</time>
      </trkpt>
      <trkpt lat="46.446390" lon="14.409666">
        <ele>2086.3046302272</ele>
        <time>2016-06-18T09:02:20Z</time>
      </trkpt>
      <trkpt lat="46.446379" lon="14.409647">
        <ele>2086.8146240256</ele>
        <time>2016-06-18T09:02:33Z</time>
      </trkpt>
      <trkpt lat="46.446381" lon="14.409654">
        <ele>2087.3146179456</ele>
        <time>2016-06-18T09:02:46Z</time>
      </trkpt>
      <trkpt lat="46.446375" lon="14.409625">
        <ele>2087.2446187968</ele>
        <time>2016-06-18T09:02:55Z</time>
      </trkpt>
      <trkpt lat="46.446372" lon="14.409592">
        <ele>2087.2446187968</ele>
        <time>2016-06-18T09:03:02Z</time>
      </trkpt>
      <trkpt lat="46.446370" lon="14.409571">
        <ele>2086.624626336</ele>
        <time>2016-06-18T09:03:14Z</time>
      </trkpt>
      <trkpt lat="46.446369" lon="14.409546">
        <ele>2086.2146313216</ele>
        <time>2016-06-18T09:03:22Z</time>
      </trkpt>
      <trkpt lat="46.446353" lon="14.409470">
        <ele>2084.6946498048</ele>
        <time>2016-06-18T09:03:32Z</time>
      </trkpt>
      <trkpt lat="46.446334" lon="14.409463">
        <ele>2083.6146629376</ele>
        <time>2016-06-18T09:03:44Z</time>
      </trkpt>
      <trkpt lat="46.446313" lon="14.409498">
        <ele>2082.9046715712</ele>
        <time>2016-06-18T09:03:52Z</time>
      </trkpt>
      <trkpt lat="46.446289" lon="14.409507">
        <ele>2081.8546843392</ele>
        <time>2016-06-18T09:04:00Z</time>
      </trkpt>
      <trkpt lat="46.446279" lon="14.409483">
        <ele>2080.824696864</ele>
        <time>2016-06-18T09:04:08Z</time>
      </trkpt>
      <trkpt lat="46.446250" lon="14.409471">
        <ele>2079.3047153472</ele>
        <time>2016-06-18T09:04:16Z</time>
      </trkpt>
      <trkpt lat="46.446222" lon="14.409467">
        <ele>2077.9947312768</ele>
        <time>2016-06-18T09:04:24Z</time>
      </trkpt>
      <trkpt lat="46.446212" lon="14.409477">
        <ele>2076.624747936</ele>
        <time>2016-06-18T09:04:35Z</time>
      </trkpt>
      <trkpt lat="46.446189" lon="14.409471">
        <ele>2075.5347611904</ele>
        <time>2016-06-18T09:04:50Z</time>
      </trkpt>
      <trkpt lat="46.446181" lon="14.409468">
        <ele>2074.8547694592</ele>
        <time>2016-06-18T09:04:58Z</time>
      </trkpt>
      <trkpt lat="46.446177" lon="14.409461">
        <ele>2074.0847788224</ele>
        <time>2016-06-18T09:05:06Z</time>
      </trkpt>
      <trkpt lat="46.446196" lon="14.409420">
        <ele>2073.0047919552</ele>
        <time>2016-06-18T09:05:15Z</time>
      </trkpt>
      <trkpt lat="46.446193" lon="14.409385">
        <ele>2072.1948018048</ele>
        <time>2016-06-18T09:05:25Z</time>
      </trkpt>
      <trkpt lat="46.446178" lon="14.409362">
        <ele>2070.5348219904</ele>
        <time>2016-06-18T09:05:33Z</time>
      </trkpt>
      <trkpt lat="46.446176" lon="14.409365">
        <ele>2069.5848335424</ele>
        <time>2016-06-18T09:05:56Z</time>
      </trkpt>
      <trkpt lat="46.446160" lon="14.409388">
        <ele>2069.7548314752</ele>
        <time>2016-06-18T09:06:08Z</time>
      </trkpt>
      <trkpt lat="46.446142" lon="14.409395">
        <ele>2068.6148453376</ele>
        <time>2016-06-18T09:06:18Z</time>
      </trkpt>
      <trkpt lat="46.446132" lon="14.409389">
        <ele>2067.6148574976</ele>
        <time>2016-06-18T09:06:26Z</time>
      </trkpt>
      <trkpt lat="46.446124" lon="14.409403">
        <ele>2066.7048685632</ele>
        <time>2016-06-18T09:06:36Z</time>
      </trkpt>
      <trkpt lat="46.446119" lon="14.409407">
        <ele>2066.4448717248</ele>
        <time>2016-06-18T09:06:54Z</time>
      </trkpt>
      <trkpt lat="46.446107" lon="14.409428">
        <ele>2066.1948747648</ele>
        <time>2016-06-18T09:07:02Z</time>
      </trkpt>
      <trkpt lat="46.446072" lon="14.409435">
        <ele>2065.2548861952</ele>
        <time>2016-06-18T09:07:10Z</time>
      </trkpt>
      <trkpt lat="46.446042" lon="14.409421">
        <ele>2063.1049123392</ele>
        <time>2016-06-18T09:07:21Z</time>
      </trkpt>
      <trkpt lat="46.446013" lon="14.409393">
        <ele>2061.7449288768</ele>
        <time>2016-06-18T09:07:29Z</time>
      </trkpt>
      <trkpt lat="46.445968" lon="14.409429">
        <ele>2059.574955264</ele>
        <time>2016-06-18T09:07:39Z</time>
      </trkpt>
      <trkpt lat="46.445967" lon="14.409468">
        <ele>2057.6949781248</ele>
        <time>2016-06-18T09:07:48Z</time>
      </trkpt>
      <trkpt lat="46.445952" lon="14.409469">
        <ele>2056.72498992</ele>
        <time>2016-06-18T09:08:00Z</time>
      </trkpt>
      <trkpt lat="46.445926" lon="14.409448">
        <ele>2054.9150119296</ele>
        <time>2016-06-18T09:08:15Z</time>
      </trkpt>
      <trkpt lat="46.445904" lon="14.409454">
        <ele>2053.6150277376</ele>
        <time>2016-06-18T09:08:26Z</time>
      </trkpt>
      <trkpt lat="46.445886" lon="14.409440">
        <ele>2052.2150447616</ele>
        <time>2016-06-18T09:08:34Z</time>
      </trkpt>
      <trkpt lat="46.445863" lon="14.409417">
        <ele>2050.8650611776</ele>
        <time>2016-06-18T09:08:45Z</time>
      </trkpt>
      <trkpt lat="46.445841" lon="14.409418">
        <ele>2049.4450784448</ele>
        <time>2016-06-18T09:08:54Z</time>
      </trkpt>
      <trkpt lat="46.445835" lon="14.409459">
        <ele>2047.925096928</ele>
        <time>2016-06-18T09:09:04Z</time>
      </trkpt>
      <trkpt lat="46.445838" lon="14.409467">
        <ele>2047.0451076288</ele>
        <time>2016-06-18T09:09:13Z</time>
      </trkpt>
      <trkpt lat="46.445844" lon="14.409483">
        <ele>2046.575113344</ele>
        <time>2016-06-18T09:09:21Z</time>
      </trkpt>
      <trkpt lat="46.445846" lon="14.409480">
        <ele>2046.5451137088</ele>
        <time>2016-06-18T09:09:43Z</time>
      </trkpt>
      <trkpt lat="46.445842" lon="14.409502">
        <ele>2046.3651158976</ele>
        <time>2016-06-18T09:09:54Z</time>
      </trkpt>
      <trkpt lat="46.445828" lon="14.409514">
        <ele>2045.1651304896</ele>
        <time>2016-06-18T09:10:03Z</time>
      </trkpt>
      <trkpt lat="46.445820" lon="14.409538">
        <ele>2043.7351478784</ele>
        <time>2016-06-18T09:10:11Z</time>
      </trkpt>
      <trkpt lat="46.445806" lon="14.409551">
        <ele>2042.4851630784</ele>
        <time>2016-06-18T09:10:23Z</time>
      </trkpt>
      <trkpt lat="46.445811" lon="14.409535">
        <ele>2042.1051676992</ele>
        <time>2016-06-18T09:10:39Z</time>
      </trkpt>
      <trkpt lat="46.445799" lon="14.409518">
        <ele>2041.625173536</ele>
        <time>2016-06-18T09:10:53Z</time>
      </trkpt>
      <trkpt lat="46.445793" lon="14.409509">
        <ele>2040.675185088</ele>
        <time>2016-06-18T09:11:06Z</time>
      </trkpt>
      <trkpt lat="46.445795" lon="14.409499">
        <ele>2041.0351807104</ele>
        <time>2016-06-18T09:11:20Z</time>
      </trkpt>
      <trkpt lat="46.445784" lon="14.409493">
        <ele>2040.8551828992</ele>
        <time>2016-06-18T09:11:36Z</time>
      </trkpt>
      <trkpt lat="46.445797" lon="14.409485">
        <ele>2040.3051895872</ele>
        <time>2016-06-18T09:11:51Z</time>
      </trkpt>
      <trkpt lat="46.445792" lon="14.409487">
        <ele>2040.4551877632</ele>
        <time>2016-06-18T09:12:07Z</time>
      </trkpt>
      <trkpt lat="46.445778" lon="14.409503">
        <ele>2039.4452000448</ele>
        <time>2016-06-18T09:12:19Z</time>
      </trkpt>
      <trkpt lat="46.445779" lon="14.409509">
        <ele>2038.0452170688</ele>
        <time>2016-06-18T09:12:32Z</time>
      </trkpt>
      <trkpt lat="46.445758" lon="14.409532">
        <ele>2036.825231904</ele>
        <time>2016-06-18T09:12:45Z</time>
      </trkpt>
      <trkpt lat="46.445740" lon="14.409518">
        <ele>2035.7652447936</ele>
        <time>2016-06-18T09:12:54Z</time>
      </trkpt>
      <trkpt lat="46.445735" lon="14.409543">
        <ele>2035.4152490496</ele>
        <time>2016-06-18T09:13:03Z</time>
      </trkpt>
      <trkpt lat="46.445716" lon="14.409586">
        <ele>2033.7552692352</ele>
        <time>2016-06-18T09:13:12Z</time>
      </trkpt>
      <trkpt lat="46.445714" lon="14.409578">
        <ele>2032.4052856512</ele>
        <time>2016-06-18T09:13:20Z</time>
      </trkpt>
      <trkpt lat="46.445717" lon="14.409546">
        <ele>2030.72530608</ele>
        <time>2016-06-18T09:13:31Z</time>
      </trkpt>
      <trkpt lat="46.445682" lon="14.409493">
        <ele>2029.3353229824</ele>
        <time>2016-06-18T09:13:39Z</time>
      </trkpt>
      <trkpt lat="46.445669" lon="14.409445">
        <ele>2028.4053342912</ele>
        <time>2016-06-18T09:13:47Z</time>
      </trkpt>
      <trkpt lat="46.445657" lon="14.409415">
        <ele>2027.525344992</ele>
        <time>2016-06-18T09:13:58Z</time>
      </trkpt>
      <trkpt lat="46.445622" lon="14.409334">
        <ele>2025.8353655424</ele>
        <time>2016-06-18T09:14:07Z</time>
      </trkpt>
      <trkpt lat="46.445597" lon="14.409320">
        <ele>2023.8953891328</ele>
        <time>2016-06-18T09:14:14Z</time>
      </trkpt>
      <trkpt lat="46.445573" lon="14.409277">
        <ele>2021.9454128448</ele>
        <time>2016-06-18T09:14:22Z</time>
      </trkpt>
      <trkpt lat="46.445576" lon="14.409262">
        <ele>2020.3154326656</ele>
        <time>2016-06-18T09:14:30Z</time>
      </trkpt>
      <trkpt lat="46.445573" lon="14.409247">
        <ele>2019.6554406912</ele>
        <time>2016-06-18T09:14:41Z</time>
      </trkpt>
      <trkpt lat="46.445538" lon="14.409243">
        <ele>2019.2654454336</ele>
        <time>2016-06-18T09:14:53Z</time>
      </trkpt>
      <trkpt lat="46.445523" lon="14.409260">
        <ele>2017.2554698752</ele>
        <time>2016-06-18T09:15:01Z</time>
      </trkpt>
      <trkpt lat="46.445503" lon="14.409272">
        <ele>2016.075484224</ele>
        <time>2016-06-18T09:15:09Z</time>
      </trkpt>
      <trkpt lat="46.445481" lon="14.409284">
        <ele>2014.4555039232</ele>
        <time>2016-06-18T09:15:16Z</time>
      </trkpt>
      <trkpt lat="46.445444" lon="14.409281">
        <ele>2013.325517664</ele>
        <time>2016-06-18T09:15:24Z</time>
      </trkpt>
      <trkpt lat="46.445426" lon="14.409346">
        <ele>2010.4555525632</ele>
        <time>2016-06-18T09:15:35Z</time>
      </trkpt>
      <trkpt lat="46.445399" lon="14.409337">
        <ele>2009.2855667904</ele>
        <time>2016-06-18T09:15:45Z</time>
      </trkpt>
      <trkpt lat="46.445365" lon="14.409275">
        <ele>2007.1855923264</ele>
        <time>2016-06-18T09:15:55Z</time>
      </trkpt>
      <trkpt lat="46.445342" lon="14.409163">
        <ele>2004.6156235776</ele>
        <time>2016-06-18T09:16:06Z</time>
      </trkpt>
      <trkpt lat="46.445352" lon="14.409062">
        <ele>2001.7056589632</ele>
        <time>2016-06-18T09:16:17Z</time>
      </trkpt>
      <trkpt lat="46.445371" lon="14.409008">
        <ele>2000.6156722176</ele>
        <time>2016-06-18T09:16:26Z</time>
      </trkpt>
      <trkpt lat="46.445379" lon="14.408947">
        <ele>1999.875681216</ele>
        <time>2016-06-18T09:16:36Z</time>
      </trkpt>
      <trkpt lat="46.445373" lon="14.408932">
        <ele>1999.4156868096</ele>
        <time>2016-06-18T09:16:47Z</time>
      </trkpt>
      <trkpt lat="46.445376" lon="14.408869">
        <ele>1998.4056990912</ele>
        <time>2016-06-18T09:16:55Z</time>
      </trkpt>
      <trkpt lat="46.445370" lon="14.408855">
        <ele>1997.3657117376</ele>
        <time>2016-06-18T09:17:04Z</time>
      </trkpt>
      <trkpt lat="46.445374" lon="14.408854">
        <ele>1997.275712832</ele>
        <time>2016-06-18T09:17:11Z</time>
      </trkpt>
      <trkpt lat="46.445376" lon="14.408856">
        <ele>1997.125714656</ele>
        <time>2016-06-18T09:17:24Z</time>
      </trkpt>
      <trkpt lat="46.445382" lon="14.408861">
        <ele>1996.72571952</ele>
        <time>2016-06-18T09:17:43Z</time>
      </trkpt>
      <trkpt lat="46.445385" lon="14.408831">
        <ele>1996.7457192768</ele>
        <time>2016-06-18T09:18:00Z</time>
      </trkpt>
      <trkpt lat="46.445400" lon="14.408759">
        <ele>1996.875717696</ele>
        <time>2016-06-18T09:18:06Z</time>
      </trkpt>
      <trkpt lat="46.445383" lon="14.408664">
        <ele>1997.0857151424</ele>
        <time>2016-06-18T09:18:17Z</time>
      </trkpt>
      <trkpt lat="46.445389" lon="14.408585">
        <ele>1996.7457192768</ele>
        <time>2016-06-18T09:18:27Z</time>
      </trkpt>
      <trkpt lat="46.445385" lon="14.408531">
        <ele>1996.8557179392</ele>
        <time>2016-06-18T09:18:36Z</time>
      </trkpt>
      <trkpt lat="46.445403" lon="14.408453">
        <ele>1997.4157111296</ele>
        <time>2016-06-18T09:18:44Z</time>
      </trkpt>
      <trkpt lat="46.445412" lon="14.408433">
        <ele>1999.3156880256</ele>
        <time>2016-06-18T09:18:52Z</time>
      </trkpt>
      <trkpt lat="46.445417" lon="14.408393">
        <ele>2001.0856665024</ele>
        <time>2016-06-18T09:19:00Z</time>
      </trkpt>
      <trkpt lat="46.445409" lon="14.408348">
        <ele>2001.925656288</ele>
        <time>2016-06-18T09:19:14Z</time>
      </trkpt>
      <trkpt lat="46.445414" lon="14.408311">
        <ele>2003.3156393856</ele>
        <time>2016-06-18T09:19:23Z</time>
      </trkpt>
      <trkpt lat="46.445432" lon="14.408290">
        <ele>2003.97563136</ele>
        <time>2016-06-18T09:19:34Z</time>
      </trkpt>
      <trkpt lat="46.445440" lon="14.408271">
        <ele>2004.6056236992</ele>
        <time>2016-06-18T09:19:42Z</time>
      </trkpt>
      <trkpt lat="46.445452" lon="14.408259">
        <ele>2005.6456110528</ele>
        <time>2016-06-18T09:19:53Z</time>
      </trkpt>
      <trkpt lat="46.445467" lon="14.408261">
        <ele>2006.1956043648</ele>
        <time>2016-06-18T09:20:02Z</time>
      </trkpt>
      <trkpt lat="46.445474" lon="14.408263">
        <ele>2006.1556048512</ele>
        <time>2016-06-18T09:20:16Z</time>
      </trkpt>
      <trkpt lat="46.445474" lon="14.408270">
        <ele>2006.275603392</ele>
        <time>2016-06-18T09:20:35Z</time>
      </trkpt>
      <trkpt lat="46.445482" lon="14.408253">
        <ele>2006.4456013248</ele>
        <time>2016-06-18T09:20:55Z</time>
      </trkpt>
      <trkpt lat="46.445481" lon="14.408248">
        <ele>2006.1556048512</ele>
        <time>2016-06-18T09:21:05Z</time>
      </trkpt>
      <trkpt lat="46.445479" lon="14.408243">
        <ele>2006.0456061888</ele>
        <time>2016-06-18T09:21:18Z</time>
      </trkpt>
      <trkpt lat="46.445473" lon="14.408242">
        <ele>2006.1056054592</ele>
        <time>2016-06-18T09:21:33Z</time>
      </trkpt>
      <trkpt lat="46.445456" lon="14.408263">
        <ele>2006.0056066752</ele>
        <time>2016-06-18T09:21:42Z</time>
      </trkpt>
      <trkpt lat="46.445455" lon="14.408267">
        <ele>2006.3356026624</ele>
        <time>2016-06-18T09:21:57Z</time>
      </trkpt>
      <trkpt lat="46.445441" lon="14.408281">
        <ele>2006.47560096</ele>
        <time>2016-06-18T09:22:09Z</time>
      </trkpt>
      <trkpt lat="46.445408" lon="14.408239">
        <ele>2005.6956104448</ele>
        <time>2016-06-18T09:22:17Z</time>
      </trkpt>
      <trkpt lat="46.445406" lon="14.408210">
        <ele>2005.2956153088</ele>
        <time>2016-06-18T09:22:31Z</time>
      </trkpt>
      <trkpt lat="46.445385" lon="14.408095">
        <ele>2005.5456122688</ele>
        <time>2016-06-18T09:22:42Z</time>
      </trkpt>
      <trkpt lat="46.445392" lon="14.408010">
        <ele>2005.5956116608</ele>
        <time>2016-06-18T09:22:51Z</time>
      </trkpt>
      <trkpt lat="46.445390" lon="14.408004">
        <ele>2006.2056042432</ele>
        <time>2016-06-18T09:23:09Z</time>
      </trkpt>
      <trkpt lat="46.445359" lon="14.408031">
        <ele>2004.6956226048</ele>
        <time>2016-06-18T09:23:18Z</time>
      </trkpt>
      <trkpt lat="46.445321" lon="14.408000">
        <ele>2003.125641696</ele>
        <time>2016-06-18T09:23:26Z</time>
      </trkpt>
      <trkpt lat="46.445305" lon="14.407969">
        <ele>2001.6056601792</ele>
        <time>2016-06-18T09:23:37Z</time>
      </trkpt>
      <trkpt lat="46.445288" lon="14.407945">
        <ele>2001.3156637056</ele>
        <time>2016-06-18T09:23:52Z</time>
      </trkpt>
      <trkpt lat="46.445242" lon="14.407884">
        <ele>2000.2456767168</ele>
        <time>2016-06-18T09:24:03Z</time>
      </trkpt>
      <trkpt lat="46.445230" lon="14.407806">
        <ele>2000.2156770816</ele>
        <time>2016-06-18T09:24:12Z</time>
      </trkpt>
      <trkpt lat="46.445241" lon="14.407756">
        <ele>2001.72565872</ele>
        <time>2016-06-18T09:24:23Z</time>
      </trkpt>
      <trkpt lat="46.445243" lon="14.407735">
        <ele>2002.125653856</ele>
        <time>2016-06-18T09:24:38Z</time>
      </trkpt>
      <trkpt lat="46.445247" lon="14.407672">
        <ele>2002.3056516672</ele>
        <time>2016-06-18T09:24:46Z</time>
      </trkpt>
      <trkpt lat="46.445270" lon="14.407663">
        <ele>2004.7156223616</ele>
        <time>2016-06-18T09:24:54Z</time>
      </trkpt>
      <trkpt lat="46.445290" lon="14.407673">
        <ele>2007.0055945152</ele>
        <time>2016-06-18T09:25:03Z</time>
      </trkpt>
      <trkpt lat="46.445293" lon="14.407681">
        <ele>2007.7955849088</ele>
        <time>2016-06-18T09:25:22Z</time>
      </trkpt>
      <trkpt lat="46.445284" lon="14.407676">
        <ele>2007.72558576</ele>
        <time>2016-06-18T09:25:40Z</time>
      </trkpt>
      <trkpt lat="46.445251" lon="14.407659">
        <ele>2006.4356014464</ele>
        <time>2016-06-18T09:25:48Z</time>
      </trkpt>
      <trkpt lat="46.445214" lon="14.407579">
        <ele>2004.47562528</ele>
        <time>2016-06-18T09:25:57Z</time>
      </trkpt>
      <trkpt lat="46.445207" lon="14.407554">
        <ele>2004.4456256448</ele>
        <time>2016-06-18T09:26:00Z</time>
      </trkpt>
      <trkpt lat="46.445159" lon="14.407384">
        <ele>2005.0956177408</ele>
        <time>2016-06-18T09:26:11Z</time>
      </trkpt>
      <trkpt lat="46.445131" lon="14.407251">
        <ele>2005.9456074048</ele>
        <time>2016-06-18T09:26:19Z</time>
      </trkpt>
      <trkpt lat="46.445134" lon="14.407193">
        <ele>2006.9655950016</ele>
        <time>2016-06-18T09:26:27Z</time>
      </trkpt>
      <trkpt lat="46.445155" lon="14.407191">
        <ele>2008.825572384</ele>
        <time>2016-06-18T09:26:34Z</time>
      </trkpt>
      <trkpt lat="46.445155" lon="14.407171">
        <ele>2009.7655609536</ele>
        <time>2016-06-18T09:26:53Z</time>
      </trkpt>
      <trkpt lat="46.445128" lon="14.407128">
        <ele>2009.7155615616</ele>
        <time>2016-06-18T09:26:57Z</time>
      </trkpt>
      <trkpt lat="46.445109" lon="14.407083">
        <ele>2009.9055592512</ele>
        <time>2016-06-18T09:27:01Z</time>
      </trkpt>
      <trkpt lat="46.445080" lon="14.406969">
        <ele>2011.5055397952</ele>
        <time>2016-06-18T09:27:09Z</time>
      </trkpt>
      <trkpt lat="46.445033" lon="14.406873">
        <ele>2012.3855290944</ele>
        <time>2016-06-18T09:27:21Z</time>
      </trkpt>
      <trkpt lat="46.444992" lon="14.406839">
        <ele>2013.4055166912</ele>
        <time>2016-06-18T09:27:32Z</time>
      </trkpt>
      <trkpt lat="46.444971" lon="14.406814">
        <ele>2013.5355151104</ele>
        <time>2016-06-18T09:27:44Z</time>
      </trkpt>
      <trkpt lat="46.444938" lon="14.406775">
        <ele>2013.3355175424</ele>
        <time>2016-06-18T09:27:54Z</time>
      </trkpt>
      <trkpt lat="46.444919" lon="14.406757">
        <ele>2013.1155202176</ele>
        <time>2016-06-18T09:28:00Z</time>
      </trkpt>
      <trkpt lat="46.444916" lon="14.406733">
        <ele>2013.0355211904</ele>
        <time>2016-06-18T09:28:15Z</time>
      </trkpt>
      <trkpt lat="46.444917" lon="14.406716">
        <ele>2013.47551584</ele>
        <time>2016-06-18T09:28:31Z</time>
      </trkpt>
      <trkpt lat="46.444920" lon="14.406663">
        <ele>2013.7455125568</ele>
        <time>2016-06-18T09:28:46Z</time>
      </trkpt>
      <trkpt lat="46.444903" lon="14.406594">
        <ele>2015.6554893312</ele>
        <time>2016-06-18T09:29:00Z</time>
      </trkpt>
      <trkpt lat="46.444897" lon="14.406581">
        <ele>2016.7854755904</ele>
        <time>2016-06-18T09:29:16Z</time>
      </trkpt>
      <trkpt lat="46.444906" lon="14.406564">
        <ele>2017.1654709696</ele>
        <time>2016-06-18T09:29:32Z</time>
      </trkpt>
      <trkpt lat="46.444905" lon="14.406528">
        <ele>2018.325456864</ele>
        <time>2016-06-18T09:29:43Z</time>
      </trkpt>
      <trkpt lat="46.444912" lon="14.406496">
        <ele>2019.325444704</ele>
        <time>2016-06-18T09:29:51Z</time>
      </trkpt>
      <trkpt lat="46.444927" lon="14.406562">
        <ele>2019.9954365568</ele>
        <time>2016-06-18T09:30:09Z</time>
      </trkpt>
      <trkpt lat="46.444950" lon="14.406548">
        <ele>2020.775427072</ele>
        <time>2016-06-18T09:30:19Z</time>
      </trkpt>
      <trkpt lat="46.444974" lon="14.406528">
        <ele>2021.1854220864</ele>
        <time>2016-06-18T09:30:34Z</time>
      </trkpt>
      <trkpt lat="46.444955" lon="14.406530">
        <ele>2022.125410656</ele>
        <time>2016-06-18T09:30:45Z</time>
      </trkpt>
      <trkpt lat="46.444954" lon="14.406539">
        <ele>2022.7154034816</ele>
        <time>2016-06-18T09:31:00Z</time>
      </trkpt>
      <trkpt lat="46.444976" lon="14.406528">
        <ele>2023.8453897408</ele>
        <time>2016-06-18T09:31:09Z</time>
      </trkpt>
      <trkpt lat="46.444973" lon="14.406505">
        <ele>2026.2153609216</ele>
        <time>2016-06-18T09:31:24Z</time>
      </trkpt>
      <trkpt lat="46.444961" lon="14.406493">
        <ele>2027.6153438976</ele>
        <time>2016-06-18T09:31:36Z</time>
      </trkpt>
      <trkpt lat="46.444966" lon="14.406489">
        <ele>2029.3653226176</ele>
        <time>2016-06-18T09:31:47Z</time>
      </trkpt>
      <trkpt lat="46.444974" lon="14.406493">
        <ele>2031.2153001216</ele>
        <time>2016-06-18T09:31:55Z</time>
      </trkpt>
      <trkpt lat="46.444961" lon="14.406494">
        <ele>2031.9852907584</ele>
        <time>2016-06-18T09:32:10Z</time>
      </trkpt>
      <trkpt lat="46.444941" lon="14.406561">
        <ele>2031.5352962304</ele>
        <time>2016-06-18T09:32:24Z</time>
      </trkpt>
      <trkpt lat="46.444945" lon="14.406556">
        <ele>2031.5652958656</ele>
        <time>2016-06-18T09:32:32Z</time>
      </trkpt>
      <trkpt lat="46.444938" lon="14.406509">
        <ele>2032.275287232</ele>
        <time>2016-06-18T09:32:41Z</time>
      </trkpt>
      <trkpt lat="46.444925" lon="14.406498">
        <ele>2034.6052588992</ele>
        <time>2016-06-18T09:32:52Z</time>
      </trkpt>
      <trkpt lat="46.444927" lon="14.406491">
        <ele>2035.7052455232</ele>
        <time>2016-06-18T09:33:07Z</time>
      </trkpt>
      <trkpt lat="46.444941" lon="14.406461">
        <ele>2036.8852311744</ele>
        <time>2016-06-18T09:33:19Z</time>
      </trkpt>
      <trkpt lat="46.444922" lon="14.406460">
        <ele>2037.5352232704</ele>
        <time>2016-06-18T09:33:31Z</time>
      </trkpt>
      <trkpt lat="46.444923" lon="14.406428">
        <ele>2038.4852117184</ele>
        <time>2016-06-18T09:33:41Z</time>
      </trkpt>
      <trkpt lat="46.444920" lon="14.406370">
        <ele>2038.8052078272</ele>
        <time>2016-06-18T09:33:49Z</time>
      </trkpt>
      <trkpt lat="46.444928" lon="14.406314">
        <ele>2039.5451988288</ele>
        <time>2016-06-18T09:33:57Z</time>
      </trkpt>
      <trkpt lat="46.444939" lon="14.406271">
        <ele>2039.1952030848</ele>
        <time>2016-06-18T09:34:09Z</time>
      </trkpt>
      <trkpt lat="46.444942" lon="14.406240">
        <ele>2038.8552072192</ele>
        <time>2016-06-18T09:34:18Z</time>
      </trkpt>
      <trkpt lat="46.444942" lon="14.406222">
        <ele>2038.8152077056</ele>
        <time>2016-06-18T09:34:33Z</time>
      </trkpt>
      <trkpt lat="46.444941" lon="14.406181">
        <ele>2038.5952103808</ele>
        <time>2016-06-18T09:34:44Z</time>
      </trkpt>
      <trkpt lat="46.444934" lon="14.406169">
        <ele>2038.3652131776</ele>
        <time>2016-06-18T09:34:57Z</time>
      </trkpt>
      <trkpt lat="46.444920" lon="14.406176">
        <ele>2038.8152077056</ele>
        <time>2016-06-18T09:35:07Z</time>
      </trkpt>
      <trkpt lat="46.444920" lon="14.406124">
        <ele>2039.1652034496</ele>
        <time>2016-06-18T09:35:15Z</time>
      </trkpt>
      <trkpt lat="46.444935" lon="14.406039">
        <ele>2039.9851934784</ele>
        <time>2016-06-18T09:35:24Z</time>
      </trkpt>
      <trkpt lat="46.444953" lon="14.405979">
        <ele>2041.775171712</ele>
        <time>2016-06-18T09:35:34Z</time>
      </trkpt>
      <trkpt lat="46.444995" lon="14.405934">
        <ele>2042.3051652672</ele>
        <time>2016-06-18T09:35:42Z</time>
      </trkpt>
      <trkpt lat="46.444997" lon="14.405875">
        <ele>2042.9951568768</ele>
        <time>2016-06-18T09:35:49Z</time>
      </trkpt>
      <trkpt lat="46.444974" lon="14.405737">
        <ele>2044.8351345024</ele>
        <time>2016-06-18T09:36:01Z</time>
      </trkpt>
      <trkpt lat="46.444975" lon="14.405727">
        <ele>2045.925121248</ele>
        <time>2016-06-18T09:36:12Z</time>
      </trkpt>
      <trkpt lat="46.444970" lon="14.405693">
        <ele>2046.0651195456</ele>
        <time>2016-06-18T09:36:28Z</time>
      </trkpt>
      <trkpt lat="46.444959" lon="14.405618">
        <ele>2047.4951021568</ele>
        <time>2016-06-18T09:36:36Z</time>
      </trkpt>
      <trkpt lat="46.444945" lon="14.405567">
        <ele>2049.3650794176</ele>
        <time>2016-06-18T09:36:45Z</time>
      </trkpt>
      <trkpt lat="46.444942" lon="14.405533">
        <ele>2051.47505376</ele>
        <time>2016-06-18T09:36:55Z</time>
      </trkpt>
      <trkpt lat="46.444953" lon="14.405527">
        <ele>2052.1950450048</ele>
        <time>2016-06-18T09:37:00Z</time>
      </trkpt>
      <trkpt lat="46.444947" lon="14.405534">
        <ele>2053.7350262784</ele>
        <time>2016-06-18T09:37:14Z</time>
      </trkpt>
      <trkpt lat="46.444950" lon="14.405540">
        <ele>2053.5150289536</ele>
        <time>2016-06-18T09:37:37Z</time>
      </trkpt>
      <trkpt lat="46.444949" lon="14.405518">
        <ele>2053.7950255488</ele>
        <time>2016-06-18T09:37:58Z</time>
      </trkpt>
      <trkpt lat="46.444933" lon="14.405454">
        <ele>2055.3050071872</ele>
        <time>2016-06-18T09:38:09Z</time>
      </trkpt>
      <trkpt lat="46.444923" lon="14.405412">
        <ele>2056.4949927168</ele>
        <time>2016-06-18T09:38:16Z</time>
      </trkpt>
      <trkpt lat="46.444917" lon="14.405389">
        <ele>2056.9149876096</ele>
        <time>2016-06-18T09:38:20Z</time>
      </trkpt>
      <trkpt lat="46.444895" lon="14.405347">
        <ele>2057.9149754496</ele>
        <time>2016-06-18T09:38:28Z</time>
      </trkpt>
      <trkpt lat="46.444890" lon="14.405357">
        <ele>2058.4049694912</ele>
        <time>2016-06-18T09:38:36Z</time>
      </trkpt>
      <trkpt lat="46.444888" lon="14.405363">
        <ele>2058.4349691264</ele>
        <time>2016-06-18T09:38:50Z</time>
      </trkpt>
      <trkpt lat="46.444887" lon="14.405355">
        <ele>2058.574967424</ele>
        <time>2016-06-18T09:39:05Z</time>
      </trkpt>
      <trkpt lat="46.444884" lon="14.405361">
        <ele>2058.524968032</ele>
        <time>2016-06-18T09:39:18Z</time>
      </trkpt>
      <trkpt lat="46.444896" lon="14.405313">
        <ele>2058.6349666944</ele>
        <time>2016-06-18T09:39:37Z</time>
      </trkpt>
      <trkpt lat="46.444920" lon="14.405226">
        <ele>2059.47495648</ele>
        <time>2016-06-18T09:39:48Z</time>
      </trkpt>
      <trkpt lat="46.444924" lon="14.405226">
        <ele>2061.2049354432</ele>
        <time>2016-06-18T09:40:01Z</time>
      </trkpt>
      <trkpt lat="46.444923" lon="14.405232">
        <ele>2061.3849332544</ele>
        <time>2016-06-18T09:40:26Z</time>
      </trkpt>
      <trkpt lat="46.444925" lon="14.405232">
        <ele>2061.424932768</ele>
        <time>2016-06-18T09:40:51Z</time>
      </trkpt>
      <trkpt lat="46.444927" lon="14.405232">
        <ele>2061.4449325248</ele>
        <time>2016-06-18T09:41:15Z</time>
      </trkpt>
      <trkpt lat="46.444923" lon="14.405227">
        <ele>2061.5349314304</ele>
        <time>2016-06-18T09:41:44Z</time>
      </trkpt>
      <trkpt lat="46.444918" lon="14.405218">
        <ele>2061.2949343488</ele>
        <time>2016-06-18T09:42:11Z</time>
      </trkpt>
      <trkpt lat="46.444924" lon="14.405192">
        <ele>2061.6349302144</ele>
        <time>2016-06-18T09:42:19Z</time>
      </trkpt>
      <trkpt lat="46.444923" lon="14.405194">
        <ele>2062.574918784</ele>
        <time>2016-06-18T09:42:35Z</time>
      </trkpt>
      <trkpt lat="46.444927" lon="14.405196">
        <ele>2062.4349204864</ele>
        <time>2016-06-18T09:42:59Z</time>
      </trkpt>
      <trkpt lat="46.444926" lon="14.405186">
        <ele>2062.574918784</ele>
        <time>2016-06-18T09:43:12Z</time>
      </trkpt>
      <trkpt lat="46.444926" lon="14.405179">
        <ele>2062.9549141632</ele>
        <time>2016-06-18T09:43:25Z</time>
      </trkpt>
      <trkpt lat="46.444923" lon="14.405185">
        <ele>2062.9149146496</ele>
        <time>2016-06-18T09:43:43Z</time>
      </trkpt>
      <trkpt lat="46.444925" lon="14.405177">
        <ele>2062.8349156224</ele>
        <time>2016-06-18T09:44:02Z</time>
      </trkpt>
      <trkpt lat="46.444928" lon="14.405175">
        <ele>2062.5549190272</ele>
        <time>2016-06-18T09:44:23Z</time>
      </trkpt>
      <trkpt lat="46.444930" lon="14.405185">
        <ele>2062.4549202432</ele>
        <time>2016-06-18T09:44:37Z</time>
      </trkpt>
      <trkpt lat="46.444925" lon="14.405193">
        <ele>2062.6549178112</ele>
        <time>2016-06-18T09:44:50Z</time>
      </trkpt>
      <trkpt lat="46.444925" lon="14.405186">
        <ele>2062.5549190272</ele>
        <time>2016-06-18T09:45:01Z</time>
      </trkpt>
      <trkpt lat="46.444902" lon="14.405164">
        <ele>2062.5149195136</ele>
        <time>2016-06-18T09:45:06Z</time>
      </trkpt>
      <trkpt lat="46.444895" lon="14.405149">
        <ele>2061.4649322816</ele>
        <time>2016-06-18T09:45:13Z</time>
      </trkpt>
      <trkpt lat="46.444863" lon="14.405142">
        <ele>2060.5149438336</ele>
        <time>2016-06-18T09:45:23Z</time>
      </trkpt>
      <trkpt lat="46.444824" lon="14.405059">
        <ele>2058.3549700992</ele>
        <time>2016-06-18T09:45:32Z</time>
      </trkpt>
      <trkpt lat="46.444812" lon="14.405006">
        <ele>2056.6649906496</ele>
        <time>2016-06-18T09:45:40Z</time>
      </trkpt>
      <trkpt lat="46.444816" lon="14.405029">
        <ele>2055.6850025664</ele>
        <time>2016-06-18T09:45:47Z</time>
      </trkpt>
      <trkpt lat="46.444818" lon="14.405050">
        <ele>2056.024998432</ele>
        <time>2016-06-18T09:45:55Z</time>
      </trkpt>
      <trkpt lat="46.444801" lon="14.405074">
        <ele>2055.6150034176</ele>
        <time>2016-06-18T09:46:03Z</time>
      </trkpt>
      <trkpt lat="46.444793" lon="14.405054">
        <ele>2054.575016064</ele>
        <time>2016-06-18T09:46:11Z</time>
      </trkpt>
      <trkpt lat="46.444789" lon="14.405038">
        <ele>2053.5150289536</ele>
        <time>2016-06-18T09:46:23Z</time>
      </trkpt>
      <trkpt lat="46.444775" lon="14.405019">
        <ele>2052.275044032</ele>
        <time>2016-06-18T09:46:34Z</time>
      </trkpt>
      <trkpt lat="46.444762" lon="14.405021">
        <ele>2051.0650587456</ele>
        <time>2016-06-18T09:46:56Z</time>
      </trkpt>
      <trkpt lat="46.444757" lon="14.405027">
        <ele>2050.4650660416</ele>
        <time>2016-06-18T09:47:04Z</time>
      </trkpt>
      <trkpt lat="46.444751" lon="14.405027">
        <ele>2049.4850779584</ele>
        <time>2016-06-18T09:47:16Z</time>
      </trkpt>
      <trkpt lat="46.444753" lon="14.405023">
        <ele>2049.3850791744</ele>
        <time>2016-06-18T09:47:25Z</time>
      </trkpt>
      <trkpt lat="46.444735" lon="14.405004">
        <ele>2048.0550953472</ele>
        <time>2016-06-18T09:47:39Z</time>
      </trkpt>
      <trkpt lat="46.444716" lon="14.405007">
        <ele>2046.9551087232</ele>
        <time>2016-06-18T09:47:48Z</time>
      </trkpt>
      <trkpt lat="46.444717" lon="14.404990">
        <ele>2045.7851229504</ele>
        <time>2016-06-18T09:47:56Z</time>
      </trkpt>
      <trkpt lat="46.444714" lon="14.404991">
        <ele>2044.4851387584</ele>
        <time>2016-06-18T09:48:14Z</time>
      </trkpt>
      <trkpt lat="46.444727" lon="14.404968">
        <ele>2045.125130976</ele>
        <time>2016-06-18T09:48:25Z</time>
      </trkpt>
      <trkpt lat="46.444743" lon="14.404953">
        <ele>2044.3551403392</ele>
        <time>2016-06-18T09:48:34Z</time>
      </trkpt>
      <trkpt lat="46.444776" lon="14.404900">
        <ele>2043.5551500672</ele>
        <time>2016-06-18T09:48:44Z</time>
      </trkpt>
      <trkpt lat="46.444781" lon="14.404880">
        <ele>2042.4951629568</ele>
        <time>2016-06-18T09:48:53Z</time>
      </trkpt>
      <trkpt lat="46.444784" lon="14.404882">
        <ele>2041.825171104</ele>
        <time>2016-06-18T09:49:13Z</time>
      </trkpt>
      <trkpt lat="46.444782" lon="14.404856">
        <ele>2042.175166848</ele>
        <time>2016-06-18T09:49:40Z</time>
      </trkpt>
      <trkpt lat="46.444780" lon="14.404852">
        <ele>2041.9951690368</ele>
        <time>2016-06-18T09:50:06Z</time>
      </trkpt>
      <trkpt lat="46.444772" lon="14.404848">
        <ele>2041.9451696448</ele>
        <time>2016-06-18T09:50:18Z</time>
      </trkpt>
      <trkpt lat="46.444769" lon="14.404849">
        <ele>2041.3651766976</ele>
        <time>2016-06-18T09:50:25Z</time>
      </trkpt>
      <trkpt lat="46.444767" lon="14.404848">
        <ele>2041.375176576</ele>
        <time>2016-06-18T09:50:41Z</time>
      </trkpt>
      <trkpt lat="46.444774" lon="14.404844">
        <ele>2040.9351819264</ele>
        <time>2016-06-18T09:51:08Z</time>
      </trkpt>
      <trkpt lat="46.444779" lon="14.404853">
        <ele>2040.7651839936</ele>
        <time>2016-06-18T09:51:31Z</time>
      </trkpt>
      <trkpt lat="46.444773" lon="14.404854">
        <ele>2041.0351807104</ele>
        <time>2016-06-18T09:51:50Z</time>
      </trkpt>
      <trkpt lat="46.444770" lon="14.404851">
        <ele>2040.9551816832</ele>
        <time>2016-06-18T09:52:02Z</time>
      </trkpt>
      <trkpt lat="46.444766" lon="14.404849">
        <ele>2040.9551816832</ele>
        <time>2016-06-18T09:52:13Z</time>
      </trkpt>
      <trkpt lat="46.444770" lon="14.404847">
        <ele>2041.075180224</ele>
        <time>2016-06-18T09:52:25Z</time>
      </trkpt>
      <trkpt lat="46.444773" lon="14.404841">
        <ele>2041.2151785216</ele>
        <time>2016-06-18T09:52:41Z</time>
      </trkpt>
      <trkpt lat="46.444764" lon="14.404838">
        <ele>2041.0451805888</ele>
        <time>2016-06-18T09:53:02Z</time>
      </trkpt>
      <trkpt lat="46.444768" lon="14.404822">
        <ele>2041.1151797376</ele>
        <time>2016-06-18T09:53:15Z</time>
      </trkpt>
      <trkpt lat="46.444774" lon="14.404833">
        <ele>2041.0551804672</ele>
        <time>2016-06-18T09:53:31Z</time>
      </trkpt>
      <trkpt lat="46.444751" lon="14.404839">
        <ele>2041.1851788864</ele>
        <time>2016-06-18T09:53:46Z</time>
      </trkpt>
      <trkpt lat="46.444740" lon="14.404821">
        <ele>2041.1951787648</ele>
        <time>2016-06-18T09:54:01Z</time>
      </trkpt>
      <trkpt lat="46.444759" lon="14.404827">
        <ele>2040.9951811968</ele>
        <time>2016-06-18T09:54:16Z</time>
      </trkpt>
      <trkpt lat="46.444776" lon="14.404796">
        <ele>2040.9551816832</ele>
        <time>2016-06-18T09:54:24Z</time>
      </trkpt>
      <trkpt lat="46.444761" lon="14.404787">
        <ele>2039.8151955456</ele>
        <time>2016-06-18T09:54:31Z</time>
      </trkpt>
      <trkpt lat="46.444752" lon="14.404716">
        <ele>2038.1452158528</ele>
        <time>2016-06-18T09:54:40Z</time>
      </trkpt>
      <trkpt lat="46.444732" lon="14.404644">
        <ele>2036.125240416</ele>
        <time>2016-06-18T09:54:51Z</time>
      </trkpt>
      <trkpt lat="46.444695" lon="14.404622">
        <ele>2033.6152709376</ele>
        <time>2016-06-18T09:55:00Z</time>
      </trkpt>
      <trkpt lat="46.444684" lon="14.404576">
        <ele>2031.575295744</ele>
        <time>2016-06-18T09:55:08Z</time>
      </trkpt>
      <trkpt lat="46.444671" lon="14.404540">
        <ele>2029.8453167808</ele>
        <time>2016-06-18T09:55:15Z</time>
      </trkpt>
      <trkpt lat="46.444663" lon="14.404506">
        <ele>2028.1153378176</ele>
        <time>2016-06-18T09:55:23Z</time>
      </trkpt>
      <trkpt lat="46.444630" lon="14.404428">
        <ele>2025.9953635968</ele>
        <time>2016-06-18T09:55:34Z</time>
      </trkpt>
      <trkpt lat="46.444591" lon="14.404355">
        <ele>2024.4953818368</ele>
        <time>2016-06-18T09:55:42Z</time>
      </trkpt>
      <trkpt lat="46.444550" lon="14.404257">
        <ele>2022.625404576</ele>
        <time>2016-06-18T09:55:50Z</time>
      </trkpt>
      <trkpt lat="46.444544" lon="14.404166">
        <ele>2022.5054060352</ele>
        <time>2016-06-18T09:56:00Z</time>
      </trkpt>
      <trkpt lat="46.444552" lon="14.404048">
        <ele>2024.4553823232</ele>
        <time>2016-06-18T09:56:11Z</time>
      </trkpt>
      <trkpt lat="46.444587" lon="14.403964">
        <ele>2026.2453605568</ele>
        <time>2016-06-18T09:56:21Z</time>
      </trkpt>
      <trkpt lat="46.444612" lon="14.403929">
        <ele>2028.3853345344</ele>
        <time>2016-06-18T09:56:31Z</time>
      </trkpt>
      <trkpt lat="46.444623" lon="14.403876">
        <ele>2030.4853089984</ele>
        <time>2016-06-18T09:56:40Z</time>
      </trkpt>
      <trkpt lat="46.444635" lon="14.403864">
        <ele>2032.0552899072</ele>
        <time>2016-06-18T09:56:47Z</time>
      </trkpt>
      <trkpt lat="46.444645" lon="14.403825">
        <ele>2033.7652691136</ele>
        <time>2016-06-18T09:56:56Z</time>
      </trkpt>
      <trkpt lat="46.444661" lon="14.403829">
        <ele>2035.3452499008</ele>
        <time>2016-06-18T09:57:07Z</time>
      </trkpt>
      <trkpt lat="46.444657" lon="14.403802">
        <ele>2036.9552303232</ele>
        <time>2016-06-18T09:57:17Z</time>
      </trkpt>
      <trkpt lat="46.444681" lon="14.403805">
        <ele>2038.4352123264</ele>
        <time>2016-06-18T09:57:25Z</time>
      </trkpt>
      <trkpt lat="46.444672" lon="14.403807">
        <ele>2038.8152077056</ele>
        <time>2016-06-18T09:57:37Z</time>
      </trkpt>
      <trkpt lat="46.444682" lon="14.403805">
        <ele>2038.6452097728</ele>
        <time>2016-06-18T09:57:49Z</time>
      </trkpt>
      <trkpt lat="46.444682" lon="14.403776">
        <ele>2038.825207584</ele>
        <time>2016-06-18T09:58:04Z</time>
      </trkpt>
      <trkpt lat="46.444698" lon="14.403740">
        <ele>2040.075192384</ele>
        <time>2016-06-18T09:58:15Z</time>
      </trkpt>
      <trkpt lat="46.444699" lon="14.403693">
        <ele>2041.6951726848</ele>
        <time>2016-06-18T09:58:26Z</time>
      </trkpt>
      <trkpt lat="46.444692" lon="14.403624">
        <ele>2043.3351527424</ele>
        <time>2016-06-18T09:58:34Z</time>
      </trkpt>
      <trkpt lat="46.444675" lon="14.403575">
        <ele>2044.6951362048</ele>
        <time>2016-06-18T09:58:43Z</time>
      </trkpt>
      <trkpt lat="46.444662" lon="14.403537">
        <ele>2045.0851314624</ele>
        <time>2016-06-18T09:58:51Z</time>
      </trkpt>
      <trkpt lat="46.444672" lon="14.403507">
        <ele>2046.1351186944</ele>
        <time>2016-06-18T09:59:02Z</time>
      </trkpt>
      <trkpt lat="46.444677" lon="14.403530">
        <ele>2047.72509936</ele>
        <time>2016-06-18T09:59:10Z</time>
      </trkpt>
      <trkpt lat="46.444687" lon="14.403529">
        <ele>2048.3350919424</ele>
        <time>2016-06-18T09:59:18Z</time>
      </trkpt>
      <trkpt lat="46.444684" lon="14.403523">
        <ele>2049.3550795392</ele>
        <time>2016-06-18T09:59:25Z</time>
      </trkpt>
      <trkpt lat="46.444712" lon="14.403417">
        <ele>2051.825049504</ele>
        <time>2016-06-18T09:59:37Z</time>
      </trkpt>
      <trkpt lat="46.444719" lon="14.403377">
        <ele>2052.97503552</ele>
        <time>2016-06-18T09:59:45Z</time>
      </trkpt>
      <trkpt lat="46.444726" lon="14.403381">
        <ele>2053.8150253056</ele>
        <time>2016-06-18T10:00:04Z</time>
      </trkpt>
      <trkpt lat="46.444731" lon="14.403387">
        <ele>2053.675027008</ele>
        <time>2016-06-18T10:00:27Z</time>
      </trkpt>
      <trkpt lat="46.444738" lon="14.403324">
        <ele>2054.2650198336</ele>
        <time>2016-06-18T10:00:38Z</time>
      </trkpt>
      <trkpt lat="46.444758" lon="14.403305">
        <ele>2056.624991136</ele>
        <time>2016-06-18T10:00:49Z</time>
      </trkpt>
      <trkpt lat="46.444760" lon="14.403298">
        <ele>2057.8449763008</ele>
        <time>2016-06-18T10:01:02Z</time>
      </trkpt>
      <trkpt lat="46.444769" lon="14.403280">
        <ele>2058.4949683968</ele>
        <time>2016-06-18T10:01:16Z</time>
      </trkpt>
      <trkpt lat="46.444772" lon="14.403277">
        <ele>2059.3349581824</ele>
        <time>2016-06-18T10:01:24Z</time>
      </trkpt>
      <trkpt lat="46.444778" lon="14.403252">
        <ele>2059.8649517376</ele>
        <time>2016-06-18T10:01:32Z</time>
      </trkpt>
      <trkpt lat="46.444778" lon="14.403245">
        <ele>2060.7649407936</ele>
        <time>2016-06-18T10:01:43Z</time>
      </trkpt>
      <trkpt lat="46.444792" lon="14.403190">
        <ele>2061.3149341056</ele>
        <time>2016-06-18T10:01:52Z</time>
      </trkpt>
      <trkpt lat="46.444804" lon="14.403150">
        <ele>2063.2049111232</ele>
        <time>2016-06-18T10:02:00Z</time>
      </trkpt>
      <trkpt lat="46.444839" lon="14.403059">
        <ele>2065.0948881408</ele>
        <time>2016-06-18T10:02:11Z</time>
      </trkpt>
      <trkpt lat="46.444859" lon="14.403022">
        <ele>2066.2148745216</ele>
        <time>2016-06-18T10:02:18Z</time>
      </trkpt>
      <trkpt lat="46.444868" lon="14.402968">
        <ele>2067.524858592</ele>
        <time>2016-06-18T10:02:27Z</time>
      </trkpt>
      <trkpt lat="46.444875" lon="14.402937">
        <ele>2069.4148356096</ele>
        <time>2016-06-18T10:02:38Z</time>
      </trkpt>
      <trkpt lat="46.444885" lon="14.402867">
        <ele>2070.3148246656</ele>
        <time>2016-06-18T10:02:49Z</time>
      </trkpt>
      <trkpt lat="46.444876" lon="14.402830">
        <ele>2071.0848153024</ele>
        <time>2016-06-18T10:02:58Z</time>
      </trkpt>
      <trkpt lat="46.444877" lon="14.402784">
        <ele>2071.8848055744</ele>
        <time>2016-06-18T10:03:06Z</time>
      </trkpt>
      <trkpt lat="46.444889" lon="14.402747">
        <ele>2073.1847897664</ele>
        <time>2016-06-18T10:03:16Z</time>
      </trkpt>
      <trkpt lat="46.444882" lon="14.402758">
        <ele>2074.6447720128</ele>
        <time>2016-06-18T10:03:27Z</time>
      </trkpt>
      <trkpt lat="46.444880" lon="14.402729">
        <ele>2076.0647547456</ele>
        <time>2016-06-18T10:03:39Z</time>
      </trkpt>
      <trkpt lat="46.444871" lon="14.402690">
        <ele>2076.824745504</ele>
        <time>2016-06-18T10:03:48Z</time>
      </trkpt>
      <trkpt lat="46.444873" lon="14.402659">
        <ele>2077.7147346816</ele>
        <time>2016-06-18T10:03:56Z</time>
      </trkpt>
      <trkpt lat="46.444854" lon="14.402621">
        <ele>2077.7147346816</ele>
        <time>2016-06-18T10:04:07Z</time>
      </trkpt>
      <trkpt lat="46.444836" lon="14.402563">
        <ele>2077.1347417344</ele>
        <time>2016-06-18T10:04:14Z</time>
      </trkpt>
      <trkpt lat="46.444800" lon="14.402490">
        <ele>2077.0647425856</ele>
        <time>2016-06-18T10:04:22Z</time>
      </trkpt>
      <trkpt lat="46.444797" lon="14.402459">
        <ele>2077.024743072</ele>
        <time>2016-06-18T10:04:26Z</time>
      </trkpt>
      <trkpt lat="46.444809" lon="14.402369">
        <ele>2076.3147517056</ele>
        <time>2016-06-18T10:04:34Z</time>
      </trkpt>
      <trkpt lat="46.444835" lon="14.402321">
        <ele>2076.8547451392</ele>
        <time>2016-06-18T10:04:42Z</time>
      </trkpt>
      <trkpt lat="46.444879" lon="14.402262">
        <ele>2078.6647231296</ele>
        <time>2016-06-18T10:04:53Z</time>
      </trkpt>
      <trkpt lat="46.444915" lon="14.402264">
        <ele>2079.8147091456</ele>
        <time>2016-06-18T10:05:01Z</time>
      </trkpt>
      <trkpt lat="46.444922" lon="14.402268">
        <ele>2081.4946887168</ele>
        <time>2016-06-18T10:05:12Z</time>
      </trkpt>
      <trkpt lat="46.444921" lon="14.402268">
        <ele>2081.8446844608</ele>
        <time>2016-06-18T10:05:21Z</time>
      </trkpt>
      <trkpt lat="46.444925" lon="14.402267">
        <ele>2081.8846839744</ele>
        <time>2016-06-18T10:05:38Z</time>
      </trkpt>
      <trkpt lat="46.444924" lon="14.402270">
        <ele>2081.9946826368</ele>
        <time>2016-06-18T10:05:47Z</time>
      </trkpt>
      <trkpt lat="46.444923" lon="14.402269">
        <ele>2082.024682272</ele>
        <time>2016-06-18T10:06:03Z</time>
      </trkpt>
      <trkpt lat="46.444915" lon="14.402267">
        <ele>2081.7846851904</ele>
        <time>2016-06-18T10:06:30Z</time>
      </trkpt>
      <trkpt lat="46.444905" lon="14.402287">
        <ele>2081.2146921216</ele>
        <time>2016-06-18T10:06:37Z</time>
      </trkpt>
      <trkpt lat="46.444903" lon="14.402285">
        <ele>2080.874696256</ele>
        <time>2016-06-18T10:06:49Z</time>
      </trkpt>
      <trkpt lat="46.444904" lon="14.402262">
        <ele>2080.8446966208</ele>
        <time>2016-06-18T10:06:56Z</time>
      </trkpt>
      <trkpt lat="46.444900" lon="14.402208">
        <ele>2080.1547050112</ele>
        <time>2016-06-18T10:07:04Z</time>
      </trkpt>
      <trkpt lat="46.444901" lon="14.402206">
        <ele>2079.6947106048</ele>
        <time>2016-06-18T10:07:17Z</time>
      </trkpt>
      <trkpt lat="46.444908" lon="14.402176">
        <ele>2079.524712672</ele>
        <time>2016-06-18T10:07:32Z</time>
      </trkpt>
      <trkpt lat="46.444916" lon="14.402157">
        <ele>2079.3847143744</ele>
        <time>2016-06-18T10:07:40Z</time>
      </trkpt>
      <trkpt lat="46.444899" lon="14.402094">
        <ele>2079.124717536</ele>
        <time>2016-06-18T10:07:47Z</time>
      </trkpt>
      <trkpt lat="46.444898" lon="14.402024">
        <ele>2079.1647170496</ele>
        <time>2016-06-18T10:07:55Z</time>
      </trkpt>
      <trkpt lat="46.444893" lon="14.401979">
        <ele>2078.9047202112</ele>
        <time>2016-06-18T10:08:03Z</time>
      </trkpt>
      <trkpt lat="46.444889" lon="14.401962">
        <ele>2078.1647292096</ele>
        <time>2016-06-18T10:08:11Z</time>
      </trkpt>
      <trkpt lat="46.444897" lon="14.401952">
        <ele>2077.4347380864</ele>
        <time>2016-06-18T10:08:22Z</time>
      </trkpt>
      <trkpt lat="46.444899" lon="14.401950">
        <ele>2077.4447379648</ele>
        <time>2016-06-18T10:08:37Z</time>
      </trkpt>
      <trkpt lat="46.444889" lon="14.401958">
        <ele>2077.4347380864</ele>
        <time>2016-06-18T10:09:16Z</time>
      </trkpt>
      <trkpt lat="46.444887" lon="14.401957">
        <ele>2077.2847399104</ele>
        <time>2016-06-18T10:09:30Z</time>
      </trkpt>
      <trkpt lat="46.444887" lon="14.401952">
        <ele>2077.4547378432</ele>
        <time>2016-06-18T10:09:45Z</time>
      </trkpt>
      <trkpt lat="46.444888" lon="14.401947">
        <ele>2077.574736384</ele>
        <time>2016-06-18T10:10:06Z</time>
      </trkpt>
      <trkpt lat="46.444890" lon="14.401944">
        <ele>2077.5647365056</ele>
        <time>2016-06-18T10:10:18Z</time>
      </trkpt>
      <trkpt lat="46.444889" lon="14.401947">
        <ele>2077.7147346816</ele>
        <time>2016-06-18T10:10:44Z</time>
      </trkpt>
      <trkpt lat="46.444874" lon="14.401933">
        <ele>2077.7447343168</ele>
        <time>2016-06-18T10:11:02Z</time>
      </trkpt>
      <trkpt lat="46.444872" lon="14.401903">
        <ele>2076.8047457472</ele>
        <time>2016-06-18T10:11:11Z</time>
      </trkpt>
      <trkpt lat="46.444859" lon="14.401880">
        <ele>2076.174753408</ele>
        <time>2016-06-18T10:11:18Z</time>
      </trkpt>
      <trkpt lat="46.444848" lon="14.401861">
        <ele>2075.7547585152</ele>
        <time>2016-06-18T10:11:27Z</time>
      </trkpt>
      <trkpt lat="46.444836" lon="14.401883">
        <ele>2074.8147699456</ele>
        <time>2016-06-18T10:11:35Z</time>
      </trkpt>
      <trkpt lat="46.444826" lon="14.401891">
        <ele>2073.7447829568</ele>
        <time>2016-06-18T10:11:43Z</time>
      </trkpt>
      <trkpt lat="46.444803" lon="14.401871">
        <ele>2072.9147930496</ele>
        <time>2016-06-18T10:11:51Z</time>
      </trkpt>
      <trkpt lat="46.444776" lon="14.401879">
        <ele>2071.0348159104</ele>
        <time>2016-06-18T10:12:01Z</time>
      </trkpt>
      <trkpt lat="46.444773" lon="14.401841">
        <ele>2070.774819072</ele>
        <time>2016-06-18T10:12:10Z</time>
      </trkpt>
      <trkpt lat="46.444796" lon="14.401790">
        <ele>2071.5648094656</ele>
        <time>2016-06-18T10:12:21Z</time>
      </trkpt>
      <trkpt lat="46.444806" lon="14.401773">
        <ele>2073.8147821056</ele>
        <time>2016-06-18T10:12:35Z</time>
      </trkpt>
      <trkpt lat="46.444828" lon="14.401771">
        <ele>2073.9947799168</ele>
        <time>2016-06-18T10:12:55Z</time>
      </trkpt>
      <trkpt lat="46.444818" lon="14.401727">
        <ele>2074.574772864</ele>
        <time>2016-06-18T10:13:07Z</time>
      </trkpt>
      <trkpt lat="46.444815" lon="14.401710">
        <ele>2074.2347769984</ele>
        <time>2016-06-18T10:13:30Z</time>
      </trkpt>
      <trkpt lat="46.444821" lon="14.401668">
        <ele>2073.6947835648</ele>
        <time>2016-06-18T10:13:50Z</time>
      </trkpt>
      <trkpt lat="46.444814" lon="14.401595">
        <ele>2073.5047858752</ele>
        <time>2016-06-18T10:13:57Z</time>
      </trkpt>
      <trkpt lat="46.444803" lon="14.401489">
        <ele>2073.7847824704</ele>
        <time>2016-06-18T10:14:05Z</time>
      </trkpt>
      <trkpt lat="46.444772" lon="14.401408">
        <ele>2074.2447768768</ele>
        <time>2016-06-18T10:14:15Z</time>
      </trkpt>
      <trkpt lat="46.444718" lon="14.401345">
        <ele>2073.074791104</ele>
        <time>2016-06-18T10:14:25Z</time>
      </trkpt>
      <trkpt lat="46.444709" lon="14.401342">
        <ele>2072.1048028992</ele>
        <time>2016-06-18T10:14:35Z</time>
      </trkpt>
      <trkpt lat="46.444712" lon="14.401318">
        <ele>2071.6948078848</ele>
        <time>2016-06-18T10:14:56Z</time>
      </trkpt>
      <trkpt lat="46.444722" lon="14.401287">
        <ele>2073.274788672</ele>
        <time>2016-06-18T10:15:07Z</time>
      </trkpt>
      <trkpt lat="46.444732" lon="14.401277">
        <ele>2074.7047712832</ele>
        <time>2016-06-18T10:15:22Z</time>
      </trkpt>
      <trkpt lat="46.444738" lon="14.401246">
        <ele>2076.8847447744</ele>
        <time>2016-06-18T10:15:34Z</time>
      </trkpt>
      <trkpt lat="46.444751" lon="14.401221">
        <ele>2078.8347210624</ele>
        <time>2016-06-18T10:15:45Z</time>
      </trkpt>
      <trkpt lat="46.444749" lon="14.401215">
        <ele>2079.7947093888</ele>
        <time>2016-06-18T10:15:56Z</time>
      </trkpt>
      <trkpt lat="46.444748" lon="14.401218">
        <ele>2079.874708416</ele>
        <time>2016-06-18T10:16:09Z</time>
      </trkpt>
      <trkpt lat="46.444736" lon="14.401208">
        <ele>2080.2047044032</ele>
        <time>2016-06-18T10:16:21Z</time>
      </trkpt>
      <trkpt lat="46.444735" lon="14.401181">
        <ele>2082.274679232</ele>
        <time>2016-06-18T10:16:32Z</time>
      </trkpt>
      <trkpt lat="46.444733" lon="14.401124">
        <ele>2082.6846742464</ele>
        <time>2016-06-18T10:16:46Z</time>
      </trkpt>
      <trkpt lat="46.444736" lon="14.401127">
        <ele>2084.3146544256</ele>
        <time>2016-06-18T10:16:58Z</time>
      </trkpt>
      <trkpt lat="46.444730" lon="14.401128">
        <ele>2085.0346456704</ele>
        <time>2016-06-18T10:17:18Z</time>
      </trkpt>
      <trkpt lat="46.444732" lon="14.401103">
        <ele>2085.824636064</ele>
        <time>2016-06-18T10:17:26Z</time>
      </trkpt>
      <trkpt lat="46.444732" lon="14.401076">
        <ele>2086.4346286464</ele>
        <time>2016-06-18T10:17:37Z</time>
      </trkpt>
      <trkpt lat="46.444724" lon="14.401048">
        <ele>2088.3546052992</ele>
        <time>2016-06-18T10:17:49Z</time>
      </trkpt>
      <trkpt lat="46.444714" lon="14.401041">
        <ele>2088.7646003136</ele>
        <time>2016-06-18T10:18:24Z</time>
      </trkpt>
      <trkpt lat="46.444708" lon="14.401019">
        <ele>2088.7046010432</ele>
        <time>2016-06-18T10:18:39Z</time>
      </trkpt>
      <trkpt lat="46.444710" lon="14.401015">
        <ele>2089.47459168</ele>
        <time>2016-06-18T10:18:58Z</time>
      </trkpt>
      <trkpt lat="46.444716" lon="14.401021">
        <ele>2089.6645893696</ele>
        <time>2016-06-18T10:19:14Z</time>
      </trkpt>
      <trkpt lat="46.444717" lon="14.401024">
        <ele>2089.8945865728</ele>
        <time>2016-06-18T10:19:37Z</time>
      </trkpt>
      <trkpt lat="46.444717" lon="14.401020">
        <ele>2090.0145851136</ele>
        <time>2016-06-18T10:19:57Z</time>
      </trkpt>
      <trkpt lat="46.444716" lon="14.401027">
        <ele>2090.1145838976</ele>
        <time>2016-06-18T10:20:15Z</time>
      </trkpt>
      <trkpt lat="46.444718" lon="14.401031">
        <ele>2089.9745856</ele>
        <time>2016-06-18T10:20:37Z</time>
      </trkpt>
      <trkpt lat="46.444711" lon="14.401031">
        <ele>2090.2545821952</ele>
        <time>2016-06-18T10:20:57Z</time>
      </trkpt>
      <trkpt lat="46.444708" lon="14.401033">
        <ele>2089.924586208</ele>
        <time>2016-06-18T10:21:17Z</time>
      </trkpt>
      <trkpt lat="46.444712" lon="14.401032">
        <ele>2089.9545858432</ele>
        <time>2016-06-18T10:21:35Z</time>
      </trkpt>
      <trkpt lat="46.444709" lon="14.401020">
        <ele>2090.024584992</ele>
        <time>2016-06-18T10:21:51Z</time>
      </trkpt>
      <trkpt lat="46.444702" lon="14.401021">
        <ele>2089.6945890048</ele>
        <time>2016-06-18T10:22:07Z</time>
      </trkpt>
      <trkpt lat="46.444707" lon="14.401027">
        <ele>2090.1645832896</ele>
        <time>2016-06-18T10:22:27Z</time>
      </trkpt>
      <trkpt lat="46.444707" lon="14.401028">
        <ele>2090.0545846272</ele>
        <time>2016-06-18T10:22:45Z</time>
      </trkpt>
      <trkpt lat="46.444705" lon="14.401025">
        <ele>2089.824587424</ele>
        <time>2016-06-18T10:23:05Z</time>
      </trkpt>
      <trkpt lat="46.444715" lon="14.401042">
        <ele>2089.7545882752</ele>
        <time>2016-06-18T10:23:16Z</time>
      </trkpt>
      <trkpt lat="46.444720" lon="14.401051">
        <ele>2089.4545919232</ele>
        <time>2016-06-18T10:23:29Z</time>
      </trkpt>
      <trkpt lat="46.444727" lon="14.401058">
        <ele>2089.2545943552</ele>
        <time>2016-06-18T10:23:47Z</time>
      </trkpt>
      <trkpt lat="46.444733" lon="14.401048">
        <ele>2089.124595936</ele>
        <time>2016-06-18T10:23:59Z</time>
      </trkpt>
      <trkpt lat="46.444728" lon="14.401045">
        <ele>2089.424592288</ele>
        <time>2016-06-18T10:24:15Z</time>
      </trkpt>
      <trkpt lat="46.444729" lon="14.401037">
        <ele>2089.674589248</ele>
        <time>2016-06-18T10:24:34Z</time>
      </trkpt>
      <trkpt lat="46.444730" lon="14.401035">
        <ele>2089.424592288</ele>
        <time>2016-06-18T10:24:54Z</time>
      </trkpt>
      <trkpt lat="46.444723" lon="14.401034">
        <ele>2089.6845891264</ele>
        <time>2016-06-18T10:25:13Z</time>
      </trkpt>
      <trkpt lat="46.444725" lon="14.401031">
        <ele>2089.9645857216</ele>
        <time>2016-06-18T10:25:34Z</time>
      </trkpt>
      <trkpt lat="46.444725" lon="14.401027">
        <ele>2089.6845891264</ele>
        <time>2016-06-18T10:25:59Z</time>
      </trkpt>
      <trkpt lat="46.444728" lon="14.401031">
        <ele>2089.6445896128</ele>
        <time>2016-06-18T10:26:24Z</time>
      </trkpt>
      <trkpt lat="46.444722" lon="14.401036">
        <ele>2089.9645857216</ele>
        <time>2016-06-18T10:26:40Z</time>
      </trkpt>
      <trkpt lat="46.444708" lon="14.401040">
        <ele>2089.8445871808</ele>
        <time>2016-06-18T10:26:56Z</time>
      </trkpt>
      <trkpt lat="46.444700" lon="14.401029">
        <ele>2089.6945890048</ele>
        <time>2016-06-18T10:27:12Z</time>
      </trkpt>
      <trkpt lat="46.444693" lon="14.401014">
        <ele>2089.874586816</ele>
        <time>2016-06-18T10:27:22Z</time>
      </trkpt>
      <trkpt lat="46.444683" lon="14.401002">
        <ele>2089.424592288</ele>
        <time>2016-06-18T10:27:32Z</time>
      </trkpt>
      <trkpt lat="46.444669" lon="14.400976">
        <ele>2088.4646039616</ele>
        <time>2016-06-18T10:27:42Z</time>
      </trkpt>
      <trkpt lat="46.444646" lon="14.400934">
        <ele>2087.5946145408</ele>
        <time>2016-06-18T10:27:49Z</time>
      </trkpt>
      <trkpt lat="46.444623" lon="14.400909">
        <ele>2085.9846341184</ele>
        <time>2016-06-18T10:27:58Z</time>
      </trkpt>
      <trkpt lat="46.444615" lon="14.400873">
        <ele>2084.9746464</ele>
        <time>2016-06-18T10:28:06Z</time>
      </trkpt>
      <trkpt lat="46.444599" lon="14.400844">
        <ele>2084.3646538176</ele>
        <time>2016-06-18T10:28:21Z</time>
      </trkpt>
      <trkpt lat="46.444591" lon="14.400836">
        <ele>2083.3646659776</ele>
        <time>2016-06-18T10:28:32Z</time>
      </trkpt>
      <trkpt lat="46.444590" lon="14.400812">
        <ele>2082.924671328</ele>
        <time>2016-06-18T10:28:43Z</time>
      </trkpt>
      <trkpt lat="46.444594" lon="14.400798">
        <ele>2081.9146836096</ele>
        <time>2016-06-18T10:28:56Z</time>
      </trkpt>
      <trkpt lat="46.444606" lon="14.400784">
        <ele>2081.124693216</ele>
        <time>2016-06-18T10:29:11Z</time>
      </trkpt>
      <trkpt lat="46.444607" lon="14.400762">
        <ele>2080.3047031872</ele>
        <time>2016-06-18T10:29:18Z</time>
      </trkpt>
      <trkpt lat="46.444608" lon="14.400735">
        <ele>2080.2847034304</ele>
        <time>2016-06-18T10:29:34Z</time>
      </trkpt>
      <trkpt lat="46.444595" lon="14.400717">
        <ele>2080.9446954048</ele>
        <time>2016-06-18T10:29:47Z</time>
      </trkpt>
      <trkpt lat="46.444587" lon="14.400716">
        <ele>2081.3846900544</ele>
        <time>2016-06-18T10:30:01Z</time>
      </trkpt>
      <trkpt lat="46.444579" lon="14.400672">
        <ele>2080.7046983232</ele>
        <time>2016-06-18T10:30:13Z</time>
      </trkpt>
      <trkpt lat="46.444580" lon="14.400649">
        <ele>2079.4847131584</ele>
        <time>2016-06-18T10:30:25Z</time>
      </trkpt>
      <trkpt lat="46.444584" lon="14.400600">
        <ele>2078.5147249536</ele>
        <time>2016-06-18T10:30:36Z</time>
      </trkpt>
      <trkpt lat="46.444565" lon="14.400538">
        <ele>2077.4347380864</ele>
        <time>2016-06-18T10:30:44Z</time>
      </trkpt>
      <trkpt lat="46.444563" lon="14.400523">
        <ele>2077.0547427072</ele>
        <time>2016-06-18T10:30:55Z</time>
      </trkpt>
      <trkpt lat="46.444563" lon="14.400502">
        <ele>2077.4347380864</ele>
        <time>2016-06-18T10:31:10Z</time>
      </trkpt>
      <trkpt lat="46.444557" lon="14.400490">
        <ele>2078.2647279936</ele>
        <time>2016-06-18T10:31:21Z</time>
      </trkpt>
      <trkpt lat="46.444555" lon="14.400458">
        <ele>2079.22471632</ele>
        <time>2016-06-18T10:31:38Z</time>
      </trkpt>
      <trkpt lat="46.444557" lon="14.400447">
        <ele>2080.6446990528</ele>
        <time>2016-06-18T10:31:49Z</time>
      </trkpt>
      <trkpt lat="46.444558" lon="14.400435">
        <ele>2081.0046946752</ele>
        <time>2016-06-18T10:32:04Z</time>
      </trkpt>
      <trkpt lat="46.444556" lon="14.400420">
        <ele>2080.22470416</ele>
        <time>2016-06-18T10:32:16Z</time>
      </trkpt>
      <trkpt lat="46.444560" lon="14.400414">
        <ele>2079.7147103616</ele>
        <time>2016-06-18T10:32:38Z</time>
      </trkpt>
      <trkpt lat="46.444564" lon="14.400408">
        <ele>2079.1047177792</ele>
        <time>2016-06-18T10:32:55Z</time>
      </trkpt>
      <trkpt lat="46.444566" lon="14.400397">
        <ele>2077.9847313984</ele>
        <time>2016-06-18T10:33:10Z</time>
      </trkpt>
      <trkpt lat="46.444568" lon="14.400392">
        <ele>2077.2547402752</ele>
        <time>2016-06-18T10:33:23Z</time>
      </trkpt>
      <trkpt lat="46.444565" lon="14.400370">
        <ele>2075.8947568128</ele>
        <time>2016-06-18T10:33:34Z</time>
      </trkpt>
      <trkpt lat="46.444566" lon="14.400334">
        <ele>2074.2447768768</ele>
        <time>2016-06-18T10:33:46Z</time>
      </trkpt>
      <trkpt lat="46.444549" lon="14.400289">
        <ele>2073.6147845376</ele>
        <time>2016-06-18T10:33:59Z</time>
      </trkpt>
      <trkpt lat="46.444535" lon="14.400273">
        <ele>2073.2447890368</ele>
        <time>2016-06-18T10:34:11Z</time>
      </trkpt>
      <trkpt lat="46.444522" lon="14.400266">
        <ele>2072.2648009536</ele>
        <time>2016-06-18T10:34:21Z</time>
      </trkpt>
      <trkpt lat="46.444504" lon="14.400282">
        <ele>2072.7347952384</ele>
        <time>2016-06-18T10:34:28Z</time>
      </trkpt>
      <trkpt lat="46.444496" lon="14.400251">
        <ele>2072.3048004672</ele>
        <time>2016-06-18T10:34:39Z</time>
      </trkpt>
      <trkpt lat="46.444492" lon="14.400223">
        <ele>2072.0948030208</ele>
        <time>2016-06-18T10:34:51Z</time>
      </trkpt>
      <trkpt lat="46.444482" lon="14.400218">
        <ele>2072.9447926848</ele>
        <time>2016-06-18T10:35:02Z</time>
      </trkpt>
      <trkpt lat="46.444469" lon="14.400228">
        <ele>2074.1647778496</ele>
        <time>2016-06-18T10:35:14Z</time>
      </trkpt>
      <trkpt lat="46.444465" lon="14.400243">
        <ele>2075.624760096</ele>
        <time>2016-06-18T10:35:26Z</time>
      </trkpt>
      <trkpt lat="46.444463" lon="14.400248">
        <ele>2076.174753408</ele>
        <time>2016-06-18T10:35:38Z</time>
      </trkpt>
      <trkpt lat="46.444456" lon="14.400239">
        <ele>2076.824745504</ele>
        <time>2016-06-18T10:35:51Z</time>
      </trkpt>
      <trkpt lat="46.444451" lon="14.400208">
        <ele>2078.1947288448</ele>
        <time>2016-06-18T10:36:04Z</time>
      </trkpt>
      <trkpt lat="46.444457" lon="14.400196">
        <ele>2079.1447172928</ele>
        <time>2016-06-18T10:36:16Z</time>
      </trkpt>
      <trkpt lat="46.444470" lon="14.400180">
        <ele>2079.274715712</ele>
        <time>2016-06-18T10:36:31Z</time>
      </trkpt>
      <trkpt lat="46.444477" lon="14.400170">
        <ele>2079.174716928</ele>
        <time>2016-06-18T10:36:41Z</time>
      </trkpt>
      <trkpt lat="46.444480" lon="14.400159">
        <ele>2079.2847155904</ele>
        <time>2016-06-18T10:36:54Z</time>
      </trkpt>
      <trkpt lat="46.444456" lon="14.400135">
        <ele>2079.3047153472</ele>
        <time>2016-06-18T10:37:03Z</time>
      </trkpt>
      <trkpt lat="46.444447" lon="14.400095">
        <ele>2079.624711456</ele>
        <time>2016-06-18T10:37:13Z</time>
      </trkpt>
      <trkpt lat="46.444415" lon="14.400012">
        <ele>2079.2647158336</ele>
        <time>2016-06-18T10:37:21Z</time>
      </trkpt>
      <trkpt lat="46.444413" lon="14.399987">
        <ele>2079.7147103616</ele>
        <time>2016-06-18T10:37:32Z</time>
      </trkpt>
      <trkpt lat="46.444418" lon="14.399980">
        <ele>2080.9346955264</ele>
        <time>2016-06-18T10:37:45Z</time>
      </trkpt>
      <trkpt lat="46.444415" lon="14.399942">
        <ele>2081.3346906624</ele>
        <time>2016-06-18T10:37:57Z</time>
      </trkpt>
      <trkpt lat="46.444419" lon="14.399939">
        <ele>2081.1646927296</ele>
        <time>2016-06-18T10:38:08Z</time>
      </trkpt>
      <trkpt lat="46.444429" lon="14.399931">
        <ele>2080.9346955264</ele>
        <time>2016-06-18T10:38:31Z</time>
      </trkpt>
      <trkpt lat="46.444425" lon="14.399907">
        <ele>2080.174704768</ele>
        <time>2016-06-18T10:38:43Z</time>
      </trkpt>
      <trkpt lat="46.444428" lon="14.399885">
        <ele>2079.524712672</ele>
        <time>2016-06-18T10:38:56Z</time>
      </trkpt>
      <trkpt lat="46.444426" lon="14.399863">
        <ele>2079.2847155904</ele>
        <time>2016-06-18T10:39:05Z</time>
      </trkpt>
      <trkpt lat="46.444419" lon="14.399834">
        <ele>2078.2547281152</ele>
        <time>2016-06-18T10:39:17Z</time>
      </trkpt>
      <trkpt lat="46.444403" lon="14.399780">
        <ele>2078.2047287232</ele>
        <time>2016-06-18T10:39:29Z</time>
      </trkpt>
      <trkpt lat="46.444399" lon="14.399758">
        <ele>2079.024718752</ele>
        <time>2016-06-18T10:39:40Z</time>
      </trkpt>
      <trkpt lat="46.444373" lon="14.399728">
        <ele>2079.5147127936</ele>
        <time>2016-06-18T10:39:50Z</time>
      </trkpt>
      <trkpt lat="46.444368" lon="14.399699">
        <ele>2079.3947142528</ele>
        <time>2016-06-18T10:40:00Z</time>
      </trkpt>
      <trkpt lat="46.444371" lon="14.399658">
        <ele>2078.9047202112</ele>
        <time>2016-06-18T10:40:08Z</time>
      </trkpt>
      <trkpt lat="46.444362" lon="14.399644">
        <ele>2077.8847326144</ele>
        <time>2016-06-18T10:40:21Z</time>
      </trkpt>
      <trkpt lat="46.444350" lon="14.399626">
        <ele>2077.1947410048</ele>
        <time>2016-06-18T10:40:27Z</time>
      </trkpt>
      <trkpt lat="46.444343" lon="14.399599">
        <ele>2075.8347575424</ele>
        <time>2016-06-18T10:40:35Z</time>
      </trkpt>
      <trkpt lat="46.444347" lon="14.399573">
        <ele>2075.8947568128</ele>
        <time>2016-06-18T10:40:44Z</time>
      </trkpt>
      <trkpt lat="46.444350" lon="14.399568">
        <ele>2076.2347526784</ele>
        <time>2016-06-18T10:40:57Z</time>
      </trkpt>
      <trkpt lat="46.444349" lon="14.399570">
        <ele>2076.1347538944</ele>
        <time>2016-06-18T10:41:06Z</time>
      </trkpt>
      <trkpt lat="46.444354" lon="14.399570">
        <ele>2076.424750368</ele>
        <time>2016-06-18T10:41:24Z</time>
      </trkpt>
      <trkpt lat="46.444355" lon="14.399538">
        <ele>2076.0847545024</ele>
        <time>2016-06-18T10:41:42Z</time>
      </trkpt>
      <trkpt lat="46.444348" lon="14.399467">
        <ele>2076.4147504896</ele>
        <time>2016-06-18T10:41:51Z</time>
      </trkpt>
      <trkpt lat="46.444339" lon="14.399394">
        <ele>2078.0347307904</ele>
        <time>2016-06-18T10:42:02Z</time>
      </trkpt>
      <trkpt lat="46.444327" lon="14.399363">
        <ele>2079.5047129152</ele>
        <time>2016-06-18T10:42:11Z</time>
      </trkpt>
      <trkpt lat="46.444323" lon="14.399368">
        <ele>2080.3347028224</ele>
        <time>2016-06-18T10:42:29Z</time>
      </trkpt>
      <trkpt lat="46.444327" lon="14.399368">
        <ele>2080.6346991744</ele>
        <time>2016-06-18T10:42:42Z</time>
      </trkpt>
      <trkpt lat="46.444330" lon="14.399376">
        <ele>2080.374702336</ele>
        <time>2016-06-18T10:43:01Z</time>
      </trkpt>
      <trkpt lat="46.444341" lon="14.399369">
        <ele>2080.324702944</ele>
        <time>2016-06-18T10:43:13Z</time>
      </trkpt>
      <trkpt lat="46.444334" lon="14.399346">
        <ele>2080.8046971072</ele>
        <time>2016-06-18T10:43:24Z</time>
      </trkpt>
      <trkpt lat="46.444337" lon="14.399327">
        <ele>2080.8946960128</ele>
        <time>2016-06-18T10:43:26Z</time>
      </trkpt>
      <trkpt lat="46.444379" lon="14.399165">
        <ele>2079.8447087808</ele>
        <time>2016-06-18T10:43:39Z</time>
      </trkpt>
      <trkpt lat="46.444374" lon="14.399098">
        <ele>2078.6047238592</ele>
        <time>2016-06-18T10:43:47Z</time>
      </trkpt>
      <trkpt lat="46.444377" lon="14.399060">
        <ele>2077.5647365056</ele>
        <time>2016-06-18T10:43:55Z</time>
      </trkpt>
      <trkpt lat="46.444381" lon="14.399030">
        <ele>2076.6047481792</ele>
        <time>2016-06-18T10:44:05Z</time>
      </trkpt>
      <trkpt lat="46.444363" lon="14.398998">
        <ele>2075.2047652032</ele>
        <time>2016-06-18T10:44:15Z</time>
      </trkpt>
      <trkpt lat="46.444352" lon="14.398984">
        <ele>2074.6547718912</ele>
        <time>2016-06-18T10:44:25Z</time>
      </trkpt>
      <trkpt lat="46.444349" lon="14.398958">
        <ele>2073.7847824704</ele>
        <time>2016-06-18T10:44:33Z</time>
      </trkpt>
      <trkpt lat="46.444335" lon="14.398957">
        <ele>2072.8547937792</ele>
        <time>2016-06-18T10:44:42Z</time>
      </trkpt>
      <trkpt lat="46.444327" lon="14.398935">
        <ele>2071.0648155456</ele>
        <time>2016-06-18T10:44:53Z</time>
      </trkpt>
      <trkpt lat="46.444298" lon="14.398934">
        <ele>2069.2548375552</ele>
        <time>2016-06-18T10:45:04Z</time>
      </trkpt>
      <trkpt lat="46.444280" lon="14.398924">
        <ele>2068.3648483776</ele>
        <time>2016-06-18T10:45:14Z</time>
      </trkpt>
      <trkpt lat="46.444264" lon="14.398902">
        <ele>2067.3448607808</ele>
        <time>2016-06-18T10:45:23Z</time>
      </trkpt>
      <trkpt lat="46.444235" lon="14.398898">
        <ele>2065.6648812096</ele>
        <time>2016-06-18T10:45:34Z</time>
      </trkpt>
      <trkpt lat="46.444234" lon="14.398863">
        <ele>2064.1548995712</ele>
        <time>2016-06-18T10:45:43Z</time>
      </trkpt>
      <trkpt lat="46.444226" lon="14.398848">
        <ele>2062.674917568</ele>
        <time>2016-06-18T10:45:53Z</time>
      </trkpt>
      <trkpt lat="46.444200" lon="14.398829">
        <ele>2060.9349387264</ele>
        <time>2016-06-18T10:46:02Z</time>
      </trkpt>
      <trkpt lat="46.444177" lon="14.398819">
        <ele>2058.7849648704</ele>
        <time>2016-06-18T10:46:10Z</time>
      </trkpt>
      <trkpt lat="46.444141" lon="14.398792">
        <ele>2056.7949890688</ele>
        <time>2016-06-18T10:46:21Z</time>
      </trkpt>
      <trkpt lat="46.444134" lon="14.398785">
        <ele>2054.9050120512</ele>
        <time>2016-06-18T10:46:32Z</time>
      </trkpt>
      <trkpt lat="46.444128" lon="14.398762">
        <ele>2053.525028832</ele>
        <time>2016-06-18T10:46:40Z</time>
      </trkpt>
      <trkpt lat="46.444093" lon="14.398715">
        <ele>2051.3650550976</ele>
        <time>2016-06-18T10:46:55Z</time>
      </trkpt>
      <trkpt lat="46.444099" lon="14.398679">
        <ele>2049.4350785664</ele>
        <time>2016-06-18T10:47:07Z</time>
      </trkpt>
      <trkpt lat="46.444093" lon="14.398622">
        <ele>2047.7550989952</ele>
        <time>2016-06-18T10:47:15Z</time>
      </trkpt>
      <trkpt lat="46.444134" lon="14.398532">
        <ele>2044.8151347456</ele>
        <time>2016-06-18T10:47:26Z</time>
      </trkpt>
      <trkpt lat="46.444168" lon="14.398453">
        <ele>2042.4751632</ele>
        <time>2016-06-18T10:47:34Z</time>
      </trkpt>
      <trkpt lat="46.444179" lon="14.398418">
        <ele>2040.8851825344</ele>
        <time>2016-06-18T10:47:42Z</time>
      </trkpt>
      <trkpt lat="46.444177" lon="14.398358">
        <ele>2038.525211232</ele>
        <time>2016-06-18T10:47:53Z</time>
      </trkpt>
      <trkpt lat="46.444181" lon="14.398322">
        <ele>2036.1952395648</ele>
        <time>2016-06-18T10:48:02Z</time>
      </trkpt>
      <trkpt lat="46.444170" lon="14.398290">
        <ele>2034.8952553728</ele>
        <time>2016-06-18T10:48:10Z</time>
      </trkpt>
      <trkpt lat="46.444143" lon="14.398287">
        <ele>2033.4552728832</ele>
        <time>2016-06-18T10:48:20Z</time>
      </trkpt>
      <trkpt lat="46.444150" lon="14.398206">
        <ele>2032.0452900288</ele>
        <time>2016-06-18T10:48:31Z</time>
      </trkpt>
      <trkpt lat="46.444158" lon="14.398127">
        <ele>2030.97530304</ele>
        <time>2016-06-18T10:48:36Z</time>
      </trkpt>
      <trkpt lat="46.444140" lon="14.397981">
        <ele>2029.8053172672</ele>
        <time>2016-06-18T10:48:44Z</time>
      </trkpt>
      <trkpt lat="46.444084" lon="14.397856">
        <ele>2029.22532432</ele>
        <time>2016-06-18T10:48:55Z</time>
      </trkpt>
      <trkpt lat="46.444046" lon="14.397771">
        <ele>2029.675318848</ele>
        <time>2016-06-18T10:49:03Z</time>
      </trkpt>
      <trkpt lat="46.444036" lon="14.397734">
        <ele>2029.5453204288</ele>
        <time>2016-06-18T10:49:08Z</time>
      </trkpt>
      <trkpt lat="46.444006" lon="14.397659">
        <ele>2029.9053160512</ele>
        <time>2016-06-18T10:49:19Z</time>
      </trkpt>
      <trkpt lat="46.444009" lon="14.397638">
        <ele>2030.2153122816</ele>
        <time>2016-06-18T10:49:33Z</time>
      </trkpt>
      <trkpt lat="46.444002" lon="14.397599">
        <ele>2030.22531216</ele>
        <time>2016-06-18T10:49:42Z</time>
      </trkpt>
      <trkpt lat="46.443994" lon="14.397562">
        <ele>2028.6553312512</ele>
        <time>2016-06-18T10:49:52Z</time>
      </trkpt>
      <trkpt lat="46.443974" lon="14.397519">
        <ele>2026.8553531392</ele>
        <time>2016-06-18T10:50:04Z</time>
      </trkpt>
      <trkpt lat="46.443951" lon="14.397436">
        <ele>2024.4453824448</ele>
        <time>2016-06-18T10:50:15Z</time>
      </trkpt>
      <trkpt lat="46.443907" lon="14.397357">
        <ele>2021.3154205056</ele>
        <time>2016-06-18T10:50:27Z</time>
      </trkpt>
      <trkpt lat="46.443908" lon="14.397328">
        <ele>2020.0354360704</ele>
        <time>2016-06-18T10:50:35Z</time>
      </trkpt>
      <trkpt lat="46.443920" lon="14.397311">
        <ele>2019.2554455552</ele>
        <time>2016-06-18T10:50:47Z</time>
      </trkpt>
      <trkpt lat="46.443924" lon="14.397305">
        <ele>2019.2954450688</ele>
        <time>2016-06-18T10:51:03Z</time>
      </trkpt>
      <trkpt lat="46.443926" lon="14.397261">
        <ele>2019.4154436096</ele>
        <time>2016-06-18T10:51:09Z</time>
      </trkpt>
      <trkpt lat="46.443928" lon="14.397172">
        <ele>2019.1154472576</ele>
        <time>2016-06-18T10:51:18Z</time>
      </trkpt>
      <trkpt lat="46.443909" lon="14.397050">
        <ele>2019.5154423936</ele>
        <time>2016-06-18T10:51:27Z</time>
      </trkpt>
      <trkpt lat="46.443899" lon="14.397024">
        <ele>2019.625441056</ele>
        <time>2016-06-18T10:51:30Z</time>
      </trkpt>
      <trkpt lat="46.443894" lon="14.396872">
        <ele>2020.2554333952</ele>
        <time>2016-06-18T10:51:40Z</time>
      </trkpt>
      <trkpt lat="46.443889" lon="14.396793">
        <ele>2019.9854366784</ele>
        <time>2016-06-18T10:51:50Z</time>
      </trkpt>
      <trkpt lat="46.443863" lon="14.396691">
        <ele>2018.0554601472</ele>
        <time>2016-06-18T10:52:04Z</time>
      </trkpt>
      <trkpt lat="46.443866" lon="14.396594">
        <ele>2017.4854670784</ele>
        <time>2016-06-18T10:52:12Z</time>
      </trkpt>
      <trkpt lat="46.443855" lon="14.396506">
        <ele>2017.3954681728</ele>
        <time>2016-06-18T10:52:21Z</time>
      </trkpt>
      <trkpt lat="46.443844" lon="14.396448">
        <ele>2016.8554747392</ele>
        <time>2016-06-18T10:52:27Z</time>
      </trkpt>
      <trkpt lat="46.443810" lon="14.396314">
        <ele>2015.4054923712</ele>
        <time>2016-06-18T10:52:39Z</time>
      </trkpt>
      <trkpt lat="46.443770" lon="14.396250">
        <ele>2013.3055179072</ele>
        <time>2016-06-18T10:52:48Z</time>
      </trkpt>
      <trkpt lat="46.443734" lon="14.396206">
        <ele>2011.075545024</ele>
        <time>2016-06-18T10:52:58Z</time>
      </trkpt>
      <trkpt lat="46.443711" lon="14.396164">
        <ele>2009.175568128</ele>
        <time>2016-06-18T10:53:06Z</time>
      </trkpt>
      <trkpt lat="46.443681" lon="14.396090">
        <ele>2006.7855971904</ele>
        <time>2016-06-18T10:53:18Z</time>
      </trkpt>
      <trkpt lat="46.443639" lon="14.396080">
        <ele>2004.5156247936</ele>
        <time>2016-06-18T10:53:29Z</time>
      </trkpt>
      <trkpt lat="46.443605" lon="14.396049">
        <ele>2002.0656545856</ele>
        <time>2016-06-18T10:53:41Z</time>
      </trkpt>
      <trkpt lat="46.443585" lon="14.396026">
        <ele>2001.125666016</ele>
        <time>2016-06-18T10:53:53Z</time>
      </trkpt>
      <trkpt lat="46.443559" lon="14.395955">
        <ele>1999.6356841344</ele>
        <time>2016-06-18T10:54:07Z</time>
      </trkpt>
      <trkpt lat="46.443513" lon="14.395897">
        <ele>1997.6357084544</ele>
        <time>2016-06-18T10:54:15Z</time>
      </trkpt>
      <trkpt lat="46.443455" lon="14.395860">
        <ele>1995.1357388544</ele>
        <time>2016-06-18T10:54:23Z</time>
      </trkpt>
      <trkpt lat="46.443406" lon="14.395811">
        <ele>1992.275773632</ele>
        <time>2016-06-18T10:54:35Z</time>
      </trkpt>
      <trkpt lat="46.443368" lon="14.395772">
        <ele>1989.8358033024</ele>
        <time>2016-06-18T10:54:46Z</time>
      </trkpt>
      <trkpt lat="46.443343" lon="14.395766">
        <ele>1988.6658175296</ele>
        <time>2016-06-18T10:54:58Z</time>
      </trkpt>
      <trkpt lat="46.443306" lon="14.395706">
        <ele>1987.2558346752</ele>
        <time>2016-06-18T10:55:06Z</time>
      </trkpt>
      <trkpt lat="46.443284" lon="14.395633">
        <ele>1985.6658540096</ele>
        <time>2016-06-18T10:55:17Z</time>
      </trkpt>
      <trkpt lat="46.443263" lon="14.395505">
        <ele>1983.6458785728</ele>
        <time>2016-06-18T10:55:29Z</time>
      </trkpt>
      <trkpt lat="46.443253" lon="14.395346">
        <ele>1982.1358969344</ele>
        <time>2016-06-18T10:55:39Z</time>
      </trkpt>
      <trkpt lat="46.443288" lon="14.395257">
        <ele>1982.025898272</ele>
        <time>2016-06-18T10:55:48Z</time>
      </trkpt>
      <trkpt lat="46.443320" lon="14.395218">
        <ele>1983.1858841664</ele>
        <time>2016-06-18T10:55:56Z</time>
      </trkpt>
      <trkpt lat="46.443343" lon="14.395175">
        <ele>1984.075873344</ele>
        <time>2016-06-18T10:56:00Z</time>
      </trkpt>
      <trkpt lat="46.443375" lon="14.395107">
        <ele>1985.6358543744</ele>
        <time>2016-06-18T10:56:07Z</time>
      </trkpt>
      <trkpt lat="46.443417" lon="14.395056">
        <ele>1987.1558358912</ele>
        <time>2016-06-18T10:56:15Z</time>
      </trkpt>
      <trkpt lat="46.443433" lon="14.395054">
        <ele>1988.9958135168</ele>
        <time>2016-06-18T10:56:24Z</time>
      </trkpt>
      <trkpt lat="46.443436" lon="14.395055">
        <ele>1989.2158108416</ele>
        <time>2016-06-18T10:56:35Z</time>
      </trkpt>
      <trkpt lat="46.443416" lon="14.395045">
        <ele>1988.9458141248</ele>
        <time>2016-06-18T10:56:42Z</time>
      </trkpt>
      <trkpt lat="46.443374" lon="14.395001">
        <ele>1987.475832</ele>
        <time>2016-06-18T10:56:50Z</time>
      </trkpt>
      <trkpt lat="46.443369" lon="14.394978">
        <ele>1986.9558383232</ele>
        <time>2016-06-18T10:56:51Z</time>
      </trkpt>
      <trkpt lat="46.443329" lon="14.394810">
        <ele>1984.3558699392</ele>
        <time>2016-06-18T10:57:04Z</time>
      </trkpt>
      <trkpt lat="46.443293" lon="14.394721">
        <ele>1982.5858914624</ele>
        <time>2016-06-18T10:57:12Z</time>
      </trkpt>
      <trkpt lat="46.443257" lon="14.394632">
        <ele>1980.5959156608</ele>
        <time>2016-06-18T10:57:20Z</time>
      </trkpt>
      <trkpt lat="46.443215" lon="14.394506">
        <ele>1978.2559441152</ele>
        <time>2016-06-18T10:57:28Z</time>
      </trkpt>
      <trkpt lat="46.443169" lon="14.394451">
        <ele>1976.6359638144</ele>
        <time>2016-06-18T10:57:36Z</time>
      </trkpt>
      <trkpt lat="46.443129" lon="14.394384">
        <ele>1974.675987648</ele>
        <time>2016-06-18T10:57:44Z</time>
      </trkpt>
      <trkpt lat="46.443085" lon="14.394286">
        <ele>1972.3060164672</ele>
        <time>2016-06-18T10:57:54Z</time>
      </trkpt>
      <trkpt lat="46.443036" lon="14.394155">
        <ele>1970.6160370176</ele>
        <time>2016-06-18T10:58:03Z</time>
      </trkpt>
      <trkpt lat="46.443013" lon="14.394029">
        <ele>1971.1160309376</ele>
        <time>2016-06-18T10:58:14Z</time>
      </trkpt>
      <trkpt lat="46.442985" lon="14.393925">
        <ele>1973.0560073472</ele>
        <time>2016-06-18T10:58:23Z</time>
      </trkpt>
      <trkpt lat="46.442984" lon="14.393914">
        <ele>1973.2560049152</ele>
        <time>2016-06-18T10:58:25Z</time>
      </trkpt>
      <trkpt lat="46.442942" lon="14.393787">
        <ele>1975.0159835136</ele>
        <time>2016-06-18T10:58:35Z</time>
      </trkpt>
      <trkpt lat="46.442937" lon="14.393748">
        <ele>1975.3859790144</ele>
        <time>2016-06-18T10:58:38Z</time>
      </trkpt>
      <trkpt lat="46.442926" lon="14.393704">
        <ele>1975.9559720832</ele>
        <time>2016-06-18T10:58:48Z</time>
      </trkpt>
      <trkpt lat="46.442918" lon="14.393656">
        <ele>1976.2259688</ele>
        <time>2016-06-18T10:59:04Z</time>
      </trkpt>
      <trkpt lat="46.442880" lon="14.393564">
        <ele>1977.2659561536</ele>
        <time>2016-06-18T10:59:13Z</time>
      </trkpt>
      <trkpt lat="46.442868" lon="14.393528">
        <ele>1977.775949952</ele>
        <time>2016-06-18T10:59:16Z</time>
      </trkpt>
      <trkpt lat="46.442861" lon="14.393496">
        <ele>1979.0159348736</ele>
        <time>2016-06-18T10:59:24Z</time>
      </trkpt>
      <trkpt lat="46.442851" lon="14.393468">
        <ele>1979.3659306176</ele>
        <time>2016-06-18T10:59:36Z</time>
      </trkpt>
      <trkpt lat="46.442829" lon="14.393414">
        <ele>1979.5459284288</ele>
        <time>2016-06-18T10:59:43Z</time>
      </trkpt>
      <trkpt lat="46.442814" lon="14.393383">
        <ele>1981.4059058112</ele>
        <time>2016-06-18T10:59:54Z</time>
      </trkpt>
      <trkpt lat="46.442796" lon="14.393349">
        <ele>1984.2558711552</ele>
        <time>2016-06-18T11:00:07Z</time>
      </trkpt>
      <trkpt lat="46.442781" lon="14.393306">
        <ele>1985.7058535232</ele>
        <time>2016-06-18T11:00:22Z</time>
      </trkpt>
      <trkpt lat="46.442779" lon="14.393261">
        <ele>1987.5158315136</ele>
        <time>2016-06-18T11:00:32Z</time>
      </trkpt>
      <trkpt lat="46.442769" lon="14.393231">
        <ele>1988.7658163136</ele>
        <time>2016-06-18T11:00:41Z</time>
      </trkpt>
      <trkpt lat="46.442769" lon="14.393208">
        <ele>1990.1557994112</ele>
        <time>2016-06-18T11:00:53Z</time>
      </trkpt>
      <trkpt lat="46.442764" lon="14.393201">
        <ele>1991.3057854272</ele>
        <time>2016-06-18T11:01:05Z</time>
      </trkpt>
      <trkpt lat="46.442751" lon="14.393162">
        <ele>1992.1057756992</ele>
        <time>2016-06-18T11:01:16Z</time>
      </trkpt>
      <trkpt lat="46.442762" lon="14.393148">
        <ele>1993.5057586752</ele>
        <time>2016-06-18T11:01:24Z</time>
      </trkpt>
      <trkpt lat="46.442748" lon="14.393094">
        <ele>1995.5457338688</ele>
        <time>2016-06-18T11:01:35Z</time>
      </trkpt>
      <trkpt lat="46.442750" lon="14.393077">
        <ele>1997.6057088192</ele>
        <time>2016-06-18T11:01:47Z</time>
      </trkpt>
      <trkpt lat="46.442741" lon="14.393051">
        <ele>1998.2557009152</ele>
        <time>2016-06-18T11:02:02Z</time>
      </trkpt>
      <trkpt lat="46.442725" lon="14.392969">
        <ele>1999.2956882688</ele>
        <time>2016-06-18T11:02:10Z</time>
      </trkpt>
      <trkpt lat="46.442720" lon="14.392932">
        <ele>2000.325675744</ele>
        <time>2016-06-18T11:02:20Z</time>
      </trkpt>
      <trkpt lat="46.442685" lon="14.392881">
        <ele>2000.525673312</ele>
        <time>2016-06-18T11:02:29Z</time>
      </trkpt>
      <trkpt lat="46.442646" lon="14.392791">
        <ele>2001.4956615168</ele>
        <time>2016-06-18T11:02:38Z</time>
      </trkpt>
      <trkpt lat="46.442614" lon="14.392734">
        <ele>2002.2056528832</ele>
        <time>2016-06-18T11:02:44Z</time>
      </trkpt>
      <trkpt lat="46.442570" lon="14.392650">
        <ele>2002.3356513024</ele>
        <time>2016-06-18T11:02:51Z</time>
      </trkpt>
      <trkpt lat="46.442547" lon="14.392564">
        <ele>2001.9456560448</ele>
        <time>2016-06-18T11:02:57Z</time>
      </trkpt>
      <trkpt lat="46.442513" lon="14.392461">
        <ele>2001.2356646784</ele>
        <time>2016-06-18T11:03:09Z</time>
      </trkpt>
      <trkpt lat="46.442492" lon="14.392395">
        <ele>1999.8556814592</ele>
        <time>2016-06-18T11:03:19Z</time>
      </trkpt>
      <trkpt lat="46.442472" lon="14.392345">
        <ele>1998.4656983616</ele>
        <time>2016-06-18T11:03:26Z</time>
      </trkpt>
      <trkpt lat="46.442455" lon="14.392303">
        <ele>1997.6357084544</ele>
        <time>2016-06-18T11:03:28Z</time>
      </trkpt>
      <trkpt lat="46.442438" lon="14.392205">
        <ele>1996.7357193984</ele>
        <time>2016-06-18T11:03:38Z</time>
      </trkpt>
      <trkpt lat="46.442435" lon="14.392113">
        <ele>1999.0056917952</ele>
        <time>2016-06-18T11:03:49Z</time>
      </trkpt>
      <trkpt lat="46.442412" lon="14.392047">
        <ele>2000.0156795136</ele>
        <time>2016-06-18T11:03:55Z</time>
      </trkpt>
      <trkpt lat="46.442364" lon="14.391926">
        <ele>2000.125678176</ele>
        <time>2016-06-18T11:04:06Z</time>
      </trkpt>
      <trkpt lat="46.442336" lon="14.391797">
        <ele>2001.1656655296</ele>
        <time>2016-06-18T11:04:18Z</time>
      </trkpt>
      <trkpt lat="46.442291" lon="14.391703">
        <ele>2002.7956457088</ele>
        <time>2016-06-18T11:04:29Z</time>
      </trkpt>
      <trkpt lat="46.442274" lon="14.391633">
        <ele>2004.5356245504</ele>
        <time>2016-06-18T11:04:40Z</time>
      </trkpt>
      <trkpt lat="46.442256" lon="14.391571">
        <ele>2005.4456134848</ele>
        <time>2016-06-18T11:04:49Z</time>
      </trkpt>
      <trkpt lat="46.442217" lon="14.391496">
        <ele>2006.6055993792</ele>
        <time>2016-06-18T11:05:00Z</time>
      </trkpt>
      <trkpt lat="46.442190" lon="14.391411">
        <ele>2009.0955691008</ele>
        <time>2016-06-18T11:05:11Z</time>
      </trkpt>
      <trkpt lat="46.442193" lon="14.391409">
        <ele>2010.4455526848</ele>
        <time>2016-06-18T11:05:27Z</time>
      </trkpt>
      <trkpt lat="46.442192" lon="14.391392">
        <ele>2010.425552928</ele>
        <time>2016-06-18T11:05:43Z</time>
      </trkpt>
      <trkpt lat="46.442183" lon="14.391328">
        <ele>2011.4355406464</ele>
        <time>2016-06-18T11:05:54Z</time>
      </trkpt>
      <trkpt lat="46.442182" lon="14.391322">
        <ele>2012.2055312832</ele>
        <time>2016-06-18T11:06:04Z</time>
      </trkpt>
      <trkpt lat="46.442165" lon="14.391288">
        <ele>2012.2455307968</ele>
        <time>2016-06-18T11:06:16Z</time>
      </trkpt>
      <trkpt lat="46.442116" lon="14.391188">
        <ele>2014.22550672</ele>
        <time>2016-06-18T11:06:28Z</time>
      </trkpt>
      <trkpt lat="46.442090" lon="14.391072">
        <ele>2015.6354895744</ele>
        <time>2016-06-18T11:06:37Z</time>
      </trkpt>
      <trkpt lat="46.442088" lon="14.391061">
        <ele>2015.6854889664</ele>
        <time>2016-06-18T11:06:39Z</time>
      </trkpt>
      <trkpt lat="46.442071" lon="14.390885">
        <ele>2013.9155104896</ele>
        <time>2016-06-18T11:06:52Z</time>
      </trkpt>
      <trkpt lat="46.442062" lon="14.390828">
        <ele>2014.3855047744</ele>
        <time>2016-06-18T11:06:59Z</time>
      </trkpt>
      <trkpt lat="46.442058" lon="14.390784">
        <ele>2014.72550064</ele>
        <time>2016-06-18T11:07:02Z</time>
      </trkpt>
      <trkpt lat="46.442054" lon="14.390742">
        <ele>2014.9354980864</ele>
        <time>2016-06-18T11:07:04Z</time>
      </trkpt>
      <trkpt lat="46.442007" lon="14.390620">
        <ele>2016.525478752</ele>
        <time>2016-06-18T11:07:15Z</time>
      </trkpt>
      <trkpt lat="46.441990" lon="14.390514">
        <ele>2017.5354664704</ele>
        <time>2016-06-18T11:07:26Z</time>
      </trkpt>
      <trkpt lat="46.441973" lon="14.390431">
        <ele>2019.7854391104</ele>
        <time>2016-06-18T11:07:35Z</time>
      </trkpt>
      <trkpt lat="46.441969" lon="14.390373">
        <ele>2021.9054133312</ele>
        <time>2016-06-18T11:07:46Z</time>
      </trkpt>
      <trkpt lat="46.441980" lon="14.390357">
        <ele>2022.7654028736</ele>
        <time>2016-06-18T11:08:00Z</time>
      </trkpt>
      <trkpt lat="46.441984" lon="14.390366">
        <ele>2023.325396064</ele>
        <time>2016-06-18T11:08:19Z</time>
      </trkpt>
      <trkpt lat="46.441977" lon="14.390331">
        <ele>2023.3953952128</ele>
        <time>2016-06-18T11:08:25Z</time>
      </trkpt>
      <trkpt lat="46.441966" lon="14.390211">
        <ele>2023.2953964288</ele>
        <time>2016-06-18T11:08:36Z</time>
      </trkpt>
      <trkpt lat="46.441970" lon="14.390124">
        <ele>2024.5653809856</ele>
        <time>2016-06-18T11:08:44Z</time>
      </trkpt>
      <trkpt lat="46.441969" lon="14.389997">
        <ele>2026.4053586112</ele>
        <time>2016-06-18T11:08:55Z</time>
      </trkpt>
      <trkpt lat="46.441996" lon="14.389933">
        <ele>2027.7853418304</ele>
        <time>2016-06-18T11:09:07Z</time>
      </trkpt>
      <trkpt lat="46.441995" lon="14.389895">
        <ele>2029.1353254144</ele>
        <time>2016-06-18T11:09:14Z</time>
      </trkpt>
      <trkpt lat="46.441988" lon="14.389875">
        <ele>2031.1353010944</ele>
        <time>2016-06-18T11:09:23Z</time>
      </trkpt>
      <trkpt lat="46.442002" lon="14.389885">
        <ele>2031.6852944064</ele>
        <time>2016-06-18T11:09:41Z</time>
      </trkpt>
      <trkpt lat="46.442017" lon="14.389822">
        <ele>2031.7052941632</ele>
        <time>2016-06-18T11:09:57Z</time>
      </trkpt>
      <trkpt lat="46.442021" lon="14.389737">
        <ele>2032.4752848</ele>
        <time>2016-06-18T11:10:05Z</time>
      </trkpt>
      <trkpt lat="46.442011" lon="14.389665">
        <ele>2034.5352597504</ele>
        <time>2016-06-18T11:10:13Z</time>
      </trkpt>
      <trkpt lat="46.441989" lon="14.389580">
        <ele>2037.475224</ele>
        <time>2016-06-18T11:10:27Z</time>
      </trkpt>
      <trkpt lat="46.441984" lon="14.389527">
        <ele>2039.7351965184</ele>
        <time>2016-06-18T11:10:35Z</time>
      </trkpt>
      <trkpt lat="46.441952" lon="14.389456">
        <ele>2041.5151748736</ele>
        <time>2016-06-18T11:10:44Z</time>
      </trkpt>
      <trkpt lat="46.441942" lon="14.389421">
        <ele>2042.4351636864</ele>
        <time>2016-06-18T11:10:54Z</time>
      </trkpt>
      <trkpt lat="46.441918" lon="14.389371">
        <ele>2042.575161984</ele>
        <time>2016-06-18T11:11:03Z</time>
      </trkpt>
      <trkpt lat="46.441909" lon="14.389355">
        <ele>2042.7551597952</ele>
        <time>2016-06-18T11:11:14Z</time>
      </trkpt>
      <trkpt lat="46.441904" lon="14.389354">
        <ele>2042.8851582144</ele>
        <time>2016-06-18T11:11:26Z</time>
      </trkpt>
      <trkpt lat="46.441912" lon="14.389349">
        <ele>2042.7051604032</ele>
        <time>2016-06-18T11:11:37Z</time>
      </trkpt>
      <trkpt lat="46.441916" lon="14.389351">
        <ele>2042.1651669696</ele>
        <time>2016-06-18T11:11:52Z</time>
      </trkpt>
      <trkpt lat="46.441918" lon="14.389354">
        <ele>2041.9451696448</ele>
        <time>2016-06-18T11:12:03Z</time>
      </trkpt>
      <trkpt lat="46.441927" lon="14.389354">
        <ele>2041.9551695232</ele>
        <time>2016-06-18T11:12:22Z</time>
      </trkpt>
      <trkpt lat="46.441929" lon="14.389373">
        <ele>2041.8051713472</ele>
        <time>2016-06-18T11:12:53Z</time>
      </trkpt>
      <trkpt lat="46.441931" lon="14.389374">
        <ele>2041.9051701312</ele>
        <time>2016-06-18T11:13:36Z</time>
      </trkpt>
      <trkpt lat="46.441933" lon="14.389380">
        <ele>2042.025168672</ele>
        <time>2016-06-18T11:14:07Z</time>
      </trkpt>
      <trkpt lat="46.441937" lon="14.389383">
        <ele>2041.7551719552</ele>
        <time>2016-06-18T11:14:43Z</time>
      </trkpt>
      <trkpt lat="46.441934" lon="14.389377">
        <ele>2042.1051676992</ele>
        <time>2016-06-18T11:14:56Z</time>
      </trkpt>
      <trkpt lat="46.441935" lon="14.389364">
        <ele>2042.2951653888</ele>
        <time>2016-06-18T11:15:25Z</time>
      </trkpt>
      <trkpt lat="46.441943" lon="14.389354">
        <ele>2042.2551658752</ele>
        <time>2016-06-18T11:15:56Z</time>
      </trkpt>
      <trkpt lat="46.441941" lon="14.389347">
        <ele>2041.8051713472</ele>
        <time>2016-06-18T11:16:26Z</time>
      </trkpt>
      <trkpt lat="46.441939" lon="14.389348">
        <ele>2041.9851691584</ele>
        <time>2016-06-18T11:16:57Z</time>
      </trkpt>
      <trkpt lat="46.441928" lon="14.389345">
        <ele>2041.525174752</ele>
        <time>2016-06-18T11:17:28Z</time>
      </trkpt>
      <trkpt lat="46.441932" lon="14.389352">
        <ele>2041.7551719552</ele>
        <time>2016-06-18T11:17:47Z</time>
      </trkpt>
      <trkpt lat="46.441930" lon="14.389362">
        <ele>2041.7851715904</ele>
        <time>2016-06-18T11:18:15Z</time>
      </trkpt>
      <trkpt lat="46.441929" lon="14.389365">
        <ele>2041.9451696448</ele>
        <time>2016-06-18T11:18:52Z</time>
      </trkpt>
      <trkpt lat="46.441930" lon="14.389364">
        <ele>2041.3051774272</ele>
        <time>2016-06-18T11:19:31Z</time>
      </trkpt>
      <trkpt lat="46.441932" lon="14.389365">
        <ele>2041.4551756032</ele>
        <time>2016-06-18T11:20:03Z</time>
      </trkpt>
      <trkpt lat="46.441930" lon="14.389369">
        <ele>2041.0351807104</ele>
        <time>2016-06-18T11:20:37Z</time>
      </trkpt>
      <trkpt lat="46.441933" lon="14.389376">
        <ele>2041.4651754816</ele>
        <time>2016-06-18T11:21:12Z</time>
      </trkpt>
      <trkpt lat="46.441931" lon="14.389368">
        <ele>2041.7051725632</ele>
        <time>2016-06-18T11:21:50Z</time>
      </trkpt>
      <trkpt lat="46.441929" lon="14.389367">
        <ele>2041.2551780352</ele>
        <time>2016-06-18T11:22:25Z</time>
      </trkpt>
      <trkpt lat="46.441932" lon="14.389356">
        <ele>2042.1951666048</ele>
        <time>2016-06-18T11:23:04Z</time>
      </trkpt>
      <trkpt lat="46.441943" lon="14.389360">
        <ele>2041.7051725632</ele>
        <time>2016-06-18T11:23:37Z</time>
      </trkpt>
      <trkpt lat="46.441940" lon="14.389359">
        <ele>2041.0451805888</ele>
        <time>2016-06-18T11:24:14Z</time>
      </trkpt>
      <trkpt lat="46.441943" lon="14.389360">
        <ele>2040.6451854528</ele>
        <time>2016-06-18T11:24:59Z</time>
      </trkpt>
      <trkpt lat="46.441946" lon="14.389359">
        <ele>2041.0051810752</ele>
        <time>2016-06-18T11:25:37Z</time>
      </trkpt>
      <trkpt lat="46.441943" lon="14.389360">
        <ele>2040.9051822912</ele>
        <time>2016-06-18T11:26:11Z</time>
      </trkpt>
      <trkpt lat="46.441944" lon="14.389352">
        <ele>2040.4851873984</ele>
        <time>2016-06-18T11:26:25Z</time>
      </trkpt>
      <trkpt lat="46.441936" lon="14.389345">
        <ele>2041.3951763328</ele>
        <time>2016-06-18T11:26:38Z</time>
      </trkpt>
      <trkpt lat="46.441923" lon="14.389342">
        <ele>2041.6351734144</ele>
        <time>2016-06-18T11:26:54Z</time>
      </trkpt>
      <trkpt lat="46.441915" lon="14.389338">
        <ele>2041.6951726848</ele>
        <time>2016-06-18T11:27:05Z</time>
      </trkpt>
      <trkpt lat="46.441923" lon="14.389331">
        <ele>2041.525174752</ele>
        <time>2016-06-18T11:27:18Z</time>
      </trkpt>
      <trkpt lat="46.441923" lon="14.389326">
        <ele>2041.5151748736</ele>
        <time>2016-06-18T11:27:33Z</time>
      </trkpt>
      <trkpt lat="46.441905" lon="14.389301">
        <ele>2041.4651754816</ele>
        <time>2016-06-18T11:27:41Z</time>
      </trkpt>
      <trkpt lat="46.441871" lon="14.389233">
        <ele>2041.47517536</ele>
        <time>2016-06-18T11:27:50Z</time>
      </trkpt>
      <trkpt lat="46.441838" lon="14.389188">
        <ele>2040.5651864256</ele>
        <time>2016-06-18T11:28:00Z</time>
      </trkpt>
      <trkpt lat="46.441818" lon="14.389176">
        <ele>2039.925194208</ele>
        <time>2016-06-18T11:28:13Z</time>
      </trkpt>
      <trkpt lat="46.441779" lon="14.389131">
        <ele>2039.1552035712</ele>
        <time>2016-06-18T11:28:20Z</time>
      </trkpt>
      <trkpt lat="46.441711" lon="14.389078">
        <ele>2038.275214272</ele>
        <time>2016-06-18T11:28:28Z</time>
      </trkpt>
      <trkpt lat="46.441697" lon="14.389071">
        <ele>2038.2652143936</ele>
        <time>2016-06-18T11:28:31Z</time>
      </trkpt>
      <trkpt lat="46.441664" lon="14.389044">
        <ele>2038.1352159744</ele>
        <time>2016-06-18T11:28:39Z</time>
      </trkpt>
      <trkpt lat="46.441659" lon="14.389047">
        <ele>2038.175215488</ele>
        <time>2016-06-18T11:28:59Z</time>
      </trkpt>
      <trkpt lat="46.441655" lon="14.389050">
        <ele>2037.9152186496</ele>
        <time>2016-06-18T11:29:24Z</time>
      </trkpt>
      <trkpt lat="46.441631" lon="14.389009">
        <ele>2037.7952201088</ele>
        <time>2016-06-18T11:29:34Z</time>
      </trkpt>
      <trkpt lat="46.441586" lon="14.388952">
        <ele>2036.8952310528</ele>
        <time>2016-06-18T11:29:44Z</time>
      </trkpt>
      <trkpt lat="46.441541" lon="14.388916">
        <ele>2035.1952517248</ele>
        <time>2016-06-18T11:29:55Z</time>
      </trkpt>
      <trkpt lat="46.441527" lon="14.388917">
        <ele>2033.6652703296</ele>
        <time>2016-06-18T11:30:07Z</time>
      </trkpt>
      <trkpt lat="46.441493" lon="14.388889">
        <ele>2032.9152794496</ele>
        <time>2016-06-18T11:30:19Z</time>
      </trkpt>
      <trkpt lat="46.441449" lon="14.388860">
        <ele>2031.525296352</ele>
        <time>2016-06-18T11:30:28Z</time>
      </trkpt>
      <trkpt lat="46.441447" lon="14.388861">
        <ele>2031.0653019456</ele>
        <time>2016-06-18T11:30:36Z</time>
      </trkpt>
      <trkpt lat="46.441451" lon="14.388851">
        <ele>2030.8953040128</ele>
        <time>2016-06-18T11:30:50Z</time>
      </trkpt>
      <trkpt lat="46.441440" lon="14.388846">
        <ele>2030.9053038912</ele>
        <time>2016-06-18T11:30:58Z</time>
      </trkpt>
      <trkpt lat="46.441438" lon="14.388836">
        <ele>2031.0053026752</ele>
        <time>2016-06-18T11:31:12Z</time>
      </trkpt>
      <trkpt lat="46.441419" lon="14.388819">
        <ele>2031.1453009728</ele>
        <time>2016-06-18T11:31:32Z</time>
      </trkpt>
      <trkpt lat="46.441390" lon="14.388746">
        <ele>2031.5452961088</ele>
        <time>2016-06-18T11:31:41Z</time>
      </trkpt>
      <trkpt lat="46.441367" lon="14.388668">
        <ele>2032.825280544</ele>
        <time>2016-06-18T11:31:51Z</time>
      </trkpt>
      <trkpt lat="46.441361" lon="14.388652">
        <ele>2033.5152721536</ele>
        <time>2016-06-18T11:32:00Z</time>
      </trkpt>
      <trkpt lat="46.441359" lon="14.388651">
        <ele>2033.7452693568</ele>
        <time>2016-06-18T11:32:15Z</time>
      </trkpt>
      <trkpt lat="46.441353" lon="14.388598">
        <ele>2033.5852713024</ele>
        <time>2016-06-18T11:32:30Z</time>
      </trkpt>
      <trkpt lat="46.441335" lon="14.388597">
        <ele>2032.6552826112</ele>
        <time>2016-06-18T11:32:38Z</time>
      </trkpt>
      <trkpt lat="46.441316" lon="14.388604">
        <ele>2030.6553069312</ele>
        <time>2016-06-18T11:32:47Z</time>
      </trkpt>
      <trkpt lat="46.441295" lon="14.388614">
        <ele>2029.0653262656</ele>
        <time>2016-06-18T11:32:56Z</time>
      </trkpt>
      <trkpt lat="46.441277" lon="14.388597">
        <ele>2026.7953538688</ele>
        <time>2016-06-18T11:33:05Z</time>
      </trkpt>
      <trkpt lat="46.441267" lon="14.388578">
        <ele>2025.7353667584</ele>
        <time>2016-06-18T11:33:13Z</time>
      </trkpt>
      <trkpt lat="46.441254" lon="14.388533">
        <ele>2024.0153876736</ele>
        <time>2016-06-18T11:33:21Z</time>
      </trkpt>
      <trkpt lat="46.441238" lon="14.388486">
        <ele>2021.8854135744</ele>
        <time>2016-06-18T11:33:32Z</time>
      </trkpt>
      <trkpt lat="46.441225" lon="14.388447">
        <ele>2020.7154278016</ele>
        <time>2016-06-18T11:33:40Z</time>
      </trkpt>
      <trkpt lat="46.441218" lon="14.388389">
        <ele>2019.575441664</ele>
        <time>2016-06-18T11:33:48Z</time>
      </trkpt>
      <trkpt lat="46.441207" lon="14.388324">
        <ele>2018.47545504</ele>
        <time>2016-06-18T11:33:59Z</time>
      </trkpt>
      <trkpt lat="46.441178" lon="14.388292">
        <ele>2017.0654721856</ele>
        <time>2016-06-18T11:34:08Z</time>
      </trkpt>
      <trkpt lat="46.441200" lon="14.388250">
        <ele>2015.5654904256</ele>
        <time>2016-06-18T11:34:19Z</time>
      </trkpt>
      <trkpt lat="46.441193" lon="14.388219">
        <ele>2014.0955083008</ele>
        <time>2016-06-18T11:34:27Z</time>
      </trkpt>
      <trkpt lat="46.441199" lon="14.388197">
        <ele>2012.8855230144</ele>
        <time>2016-06-18T11:34:34Z</time>
      </trkpt>
      <trkpt lat="46.441189" lon="14.388169">
        <ele>2011.6955374848</ele>
        <time>2016-06-18T11:34:42Z</time>
      </trkpt>
      <trkpt lat="46.441185" lon="14.388129">
        <ele>2010.0855570624</ele>
        <time>2016-06-18T11:34:49Z</time>
      </trkpt>
      <trkpt lat="46.441151" lon="14.388105">
        <ele>2007.9455830848</ele>
        <time>2016-06-18T11:35:00Z</time>
      </trkpt>
      <trkpt lat="46.441133" lon="14.388070">
        <ele>2006.4456013248</ele>
        <time>2016-06-18T11:35:09Z</time>
      </trkpt>
      <trkpt lat="46.441118" lon="14.388037">
        <ele>2004.7356221184</ele>
        <time>2016-06-18T11:35:17Z</time>
      </trkpt>
      <trkpt lat="46.441091" lon="14.388021">
        <ele>2002.4356500864</ele>
        <time>2016-06-18T11:35:27Z</time>
      </trkpt>
      <trkpt lat="46.441069" lon="14.387974">
        <ele>2001.125666016</ele>
        <time>2016-06-18T11:35:38Z</time>
      </trkpt>
      <trkpt lat="46.441050" lon="14.387909">
        <ele>1999.575684864</ele>
        <time>2016-06-18T11:35:47Z</time>
      </trkpt>
      <trkpt lat="46.441030" lon="14.387850">
        <ele>1998.6956955648</ele>
        <time>2016-06-18T11:35:55Z</time>
      </trkpt>
      <trkpt lat="46.441005" lon="14.387784">
        <ele>1997.3357121024</ele>
        <time>2016-06-18T11:36:02Z</time>
      </trkpt>
      <trkpt lat="46.440990" lon="14.387711">
        <ele>1996.6657202496</ele>
        <time>2016-06-18T11:36:10Z</time>
      </trkpt>
      <trkpt lat="46.440976" lon="14.387614">
        <ele>1996.0157281536</ele>
        <time>2016-06-18T11:36:18Z</time>
      </trkpt>
      <trkpt lat="46.440944" lon="14.387474">
        <ele>1994.1157512576</ele>
        <time>2016-06-18T11:36:30Z</time>
      </trkpt>
      <trkpt lat="46.440923" lon="14.387395">
        <ele>1992.8557665792</ele>
        <time>2016-06-18T11:36:40Z</time>
      </trkpt>
      <trkpt lat="46.440886" lon="14.387338">
        <ele>1990.7857917504</ele>
        <time>2016-06-18T11:36:49Z</time>
      </trkpt>
      <trkpt lat="46.440845" lon="14.387303">
        <ele>1988.7058170432</ele>
        <time>2016-06-18T11:36:59Z</time>
      </trkpt>
      <trkpt lat="46.440808" lon="14.387282">
        <ele>1987.0558371072</ele>
        <time>2016-06-18T11:37:08Z</time>
      </trkpt>
      <trkpt lat="46.440758" lon="14.387252">
        <ele>1985.0158619136</ele>
        <time>2016-06-18T11:37:17Z</time>
      </trkpt>
      <trkpt lat="46.440748" lon="14.387215">
        <ele>1984.1358726144</ele>
        <time>2016-06-18T11:37:26Z</time>
      </trkpt>
      <trkpt lat="46.440747" lon="14.387147">
        <ele>1983.6058790592</ele>
        <time>2016-06-18T11:37:35Z</time>
      </trkpt>
      <trkpt lat="46.440730" lon="14.387063">
        <ele>1981.7959010688</ele>
        <time>2016-06-18T11:37:44Z</time>
      </trkpt>
      <trkpt lat="46.440714" lon="14.387022">
        <ele>1979.7859255104</ele>
        <time>2016-06-18T11:37:55Z</time>
      </trkpt>
      <trkpt lat="46.440701" lon="14.386940">
        <ele>1977.8359492224</ele>
        <time>2016-06-18T11:38:07Z</time>
      </trkpt>
      <trkpt lat="46.440698" lon="14.386873">
        <ele>1976.7559623552</ele>
        <time>2016-06-18T11:38:15Z</time>
      </trkpt>
      <trkpt lat="46.440698" lon="14.386795">
        <ele>1975.675975488</ele>
        <time>2016-06-18T11:38:25Z</time>
      </trkpt>
      <trkpt lat="46.440682" lon="14.386754">
        <ele>1973.8859972544</ele>
        <time>2016-06-18T11:38:33Z</time>
      </trkpt>
      <trkpt lat="46.440668" lon="14.386737">
        <ele>1972.2460171968</ele>
        <time>2016-06-18T11:38:44Z</time>
      </trkpt>
      <trkpt lat="46.440640" lon="14.386735">
        <ele>1970.7660351936</ele>
        <time>2016-06-18T11:38:52Z</time>
      </trkpt>
      <trkpt lat="46.440609" lon="14.386720">
        <ele>1969.22605392</ele>
        <time>2016-06-18T11:39:00Z</time>
      </trkpt>
      <trkpt lat="46.440592" lon="14.386679">
        <ele>1967.0560803072</ele>
        <time>2016-06-18T11:39:09Z</time>
      </trkpt>
      <trkpt lat="46.440590" lon="14.386609">
        <ele>1965.176103168</ele>
        <time>2016-06-18T11:39:19Z</time>
      </trkpt>
      <trkpt lat="46.440557" lon="14.386593">
        <ele>1962.7161330816</ele>
        <time>2016-06-18T11:39:28Z</time>
      </trkpt>
      <trkpt lat="46.440521" lon="14.386613">
        <ele>1959.7961685888</ele>
        <time>2016-06-18T11:39:38Z</time>
      </trkpt>
      <trkpt lat="46.440476" lon="14.386640">
        <ele>1957.5361960704</ele>
        <time>2016-06-18T11:39:47Z</time>
      </trkpt>
      <trkpt lat="46.440441" lon="14.386648">
        <ele>1955.2462239168</ele>
        <time>2016-06-18T11:39:58Z</time>
      </trkpt>
      <trkpt lat="46.440410" lon="14.386630">
        <ele>1954.1862368064</ele>
        <time>2016-06-18T11:40:06Z</time>
      </trkpt>
      <trkpt lat="46.440363" lon="14.386624">
        <ele>1952.4362580864</ele>
        <time>2016-06-18T11:40:16Z</time>
      </trkpt>
      <trkpt lat="46.440311" lon="14.386650">
        <ele>1950.026287392</ele>
        <time>2016-06-18T11:40:25Z</time>
      </trkpt>
      <trkpt lat="46.440309" lon="14.386623">
        <ele>1948.526305632</ele>
        <time>2016-06-18T11:40:32Z</time>
      </trkpt>
      <trkpt lat="46.440299" lon="14.386567">
        <ele>1947.1463224128</ele>
        <time>2016-06-18T11:40:40Z</time>
      </trkpt>
      <trkpt lat="46.440282" lon="14.386550">
        <ele>1945.4863425984</ele>
        <time>2016-06-18T11:40:48Z</time>
      </trkpt>
      <trkpt lat="46.440263" lon="14.386485">
        <ele>1942.8863742144</ele>
        <time>2016-06-18T11:40:57Z</time>
      </trkpt>
      <trkpt lat="46.440245" lon="14.386423">
        <ele>1940.6664012096</ele>
        <time>2016-06-18T11:41:07Z</time>
      </trkpt>
      <trkpt lat="46.440225" lon="14.386377">
        <ele>1938.7664243136</ele>
        <time>2016-06-18T11:41:16Z</time>
      </trkpt>
      <trkpt lat="46.440209" lon="14.386313">
        <ele>1936.1364562944</ele>
        <time>2016-06-18T11:41:27Z</time>
      </trkpt>
      <trkpt lat="46.440176" lon="14.386257">
        <ele>1933.7664851136</ele>
        <time>2016-06-18T11:41:37Z</time>
      </trkpt>
      <trkpt lat="46.440144" lon="14.386214">
        <ele>1931.026518432</ele>
        <time>2016-06-18T11:41:46Z</time>
      </trkpt>
      <trkpt lat="46.440124" lon="14.386195">
        <ele>1928.9365438464</ele>
        <time>2016-06-18T11:41:54Z</time>
      </trkpt>
      <trkpt lat="46.440118" lon="14.386150">
        <ele>1927.9565557632</ele>
        <time>2016-06-18T11:42:04Z</time>
      </trkpt>
      <trkpt lat="46.440106" lon="14.386105">
        <ele>1926.176577408</ele>
        <time>2016-06-18T11:42:13Z</time>
      </trkpt>
      <trkpt lat="46.440090" lon="14.386062">
        <ele>1924.8565934592</ele>
        <time>2016-06-18T11:42:20Z</time>
      </trkpt>
      <trkpt lat="46.440101" lon="14.385948">
        <ele>1922.276624832</ele>
        <time>2016-06-18T11:42:31Z</time>
      </trkpt>
      <trkpt lat="46.440125" lon="14.385800">
        <ele>1919.6166571776</ele>
        <time>2016-06-18T11:42:44Z</time>
      </trkpt>
      <trkpt lat="46.440115" lon="14.385729">
        <ele>1917.9066779712</ele>
        <time>2016-06-18T11:42:54Z</time>
      </trkpt>
      <trkpt lat="46.440103" lon="14.385644">
        <ele>1915.6667052096</ele>
        <time>2016-06-18T11:43:04Z</time>
      </trkpt>
      <trkpt lat="46.440096" lon="14.385520">
        <ele>1913.626730016</ele>
        <time>2016-06-18T11:43:15Z</time>
      </trkpt>
      <trkpt lat="46.440091" lon="14.385401">
        <ele>1912.1167483776</ele>
        <time>2016-06-18T11:43:23Z</time>
      </trkpt>
      <trkpt lat="46.440090" lon="14.385251">
        <ele>1911.3167581056</ele>
        <time>2016-06-18T11:43:34Z</time>
      </trkpt>
      <trkpt lat="46.440098" lon="14.385091">
        <ele>1911.4567564032</ele>
        <time>2016-06-18T11:43:45Z</time>
      </trkpt>
      <trkpt lat="46.440101" lon="14.385062">
        <ele>1911.7967522688</ele>
        <time>2016-06-18T11:43:53Z</time>
      </trkpt>
      <trkpt lat="46.440121" lon="14.385076">
        <ele>1912.0067497152</ele>
        <time>2016-06-18T11:44:09Z</time>
      </trkpt>
      <trkpt lat="46.440128" lon="14.385090">
        <ele>1911.8967510528</ele>
        <time>2016-06-18T11:44:28Z</time>
      </trkpt>
      <trkpt lat="46.440136" lon="14.385096">
        <ele>1911.6967534848</ele>
        <time>2016-06-18T11:44:50Z</time>
      </trkpt>
      <trkpt lat="46.440113" lon="14.384989">
        <ele>1911.97675008</ele>
        <time>2016-06-18T11:44:59Z</time>
      </trkpt>
      <trkpt lat="46.440071" lon="14.384812">
        <ele>1912.9967376768</ele>
        <time>2016-06-18T11:45:10Z</time>
      </trkpt>
      <trkpt lat="46.440066" lon="14.384727">
        <ele>1914.3067217472</ele>
        <time>2016-06-18T11:45:21Z</time>
      </trkpt>
      <trkpt lat="46.440067" lon="14.384698">
        <ele>1915.4667076416</ele>
        <time>2016-06-18T11:45:30Z</time>
      </trkpt>
      <trkpt lat="46.440064" lon="14.384663">
        <ele>1915.6567053312</ele>
        <time>2016-06-18T11:45:45Z</time>
      </trkpt>
      <trkpt lat="46.440067" lon="14.384673">
        <ele>1916.2366982784</ele>
        <time>2016-06-18T11:45:54Z</time>
      </trkpt>
      <trkpt lat="46.440065" lon="14.384671">
        <ele>1916.3866964544</ele>
        <time>2016-06-18T11:46:11Z</time>
      </trkpt>
      <trkpt lat="46.440051" lon="14.384636">
        <ele>1916.4466957248</ele>
        <time>2016-06-18T11:46:24Z</time>
      </trkpt>
      <trkpt lat="46.440052" lon="14.384541">
        <ele>1917.326685024</ele>
        <time>2016-06-18T11:46:35Z</time>
      </trkpt>
      <trkpt lat="46.440050" lon="14.384456">
        <ele>1919.6366569344</ele>
        <time>2016-06-18T11:46:47Z</time>
      </trkpt>
      <trkpt lat="46.440039" lon="14.384373">
        <ele>1921.2866368704</ele>
        <time>2016-06-18T11:46:57Z</time>
      </trkpt>
      <trkpt lat="46.440025" lon="14.384305">
        <ele>1922.4066232512</ele>
        <time>2016-06-18T11:47:05Z</time>
      </trkpt>
      <trkpt lat="46.440006" lon="14.384221">
        <ele>1923.6866076864</ele>
        <time>2016-06-18T11:47:17Z</time>
      </trkpt>
      <trkpt lat="46.440009" lon="14.384179">
        <ele>1925.376587136</ele>
        <time>2016-06-18T11:47:29Z</time>
      </trkpt>
      <trkpt lat="46.440010" lon="14.384142">
        <ele>1926.72657072</ele>
        <time>2016-06-18T11:47:41Z</time>
      </trkpt>
      <trkpt lat="46.439996" lon="14.384077">
        <ele>1928.026554912</ele>
        <time>2016-06-18T11:47:49Z</time>
      </trkpt>
      <trkpt lat="46.439980" lon="14.384027">
        <ele>1929.4665374016</ele>
        <time>2016-06-18T11:48:00Z</time>
      </trkpt>
      <trkpt lat="46.439948" lon="14.383945">
        <ele>1930.2565277952</ele>
        <time>2016-06-18T11:48:09Z</time>
      </trkpt>
      <trkpt lat="46.439922" lon="14.383847">
        <ele>1931.4665130816</ele>
        <time>2016-06-18T11:48:22Z</time>
      </trkpt>
      <trkpt lat="46.439888" lon="14.383761">
        <ele>1933.2164918016</ele>
        <time>2016-06-18T11:48:32Z</time>
      </trkpt>
      <trkpt lat="46.439879" lon="14.383665">
        <ele>1935.5364635904</ele>
        <time>2016-06-18T11:48:43Z</time>
      </trkpt>
      <trkpt lat="46.439853" lon="14.383613">
        <ele>1937.026445472</ele>
        <time>2016-06-18T11:48:53Z</time>
      </trkpt>
      <trkpt lat="46.439832" lon="14.383586">
        <ele>1938.2064311232</ele>
        <time>2016-06-18T11:49:01Z</time>
      </trkpt>
      <trkpt lat="46.439858" lon="14.383574">
        <ele>1940.276405952</ele>
        <time>2016-06-18T11:49:10Z</time>
      </trkpt>
      <trkpt lat="46.439875" lon="14.383578">
        <ele>1941.1163957376</ele>
        <time>2016-06-18T11:49:21Z</time>
      </trkpt>
      <trkpt lat="46.439908" lon="14.383605">
        <ele>1940.4364040064</ele>
        <time>2016-06-18T11:49:26Z</time>
      </trkpt>
      <trkpt lat="46.439946" lon="14.383658">
        <ele>1939.6964130048</ele>
        <time>2016-06-18T11:49:35Z</time>
      </trkpt>
      <trkpt lat="46.439946" lon="14.383651">
        <ele>1939.8664109376</ele>
        <time>2016-06-18T11:49:52Z</time>
      </trkpt>
      <trkpt lat="46.439937" lon="14.383636">
        <ele>1939.4364161664</ele>
        <time>2016-06-18T11:50:10Z</time>
      </trkpt>
      <trkpt lat="46.439901" lon="14.383582">
        <ele>1939.1664194496</ele>
        <time>2016-06-18T11:50:19Z</time>
      </trkpt>
      <trkpt lat="46.439886" lon="14.383566">
        <ele>1939.22641872</ele>
        <time>2016-06-18T11:50:34Z</time>
      </trkpt>
      <trkpt lat="46.439856" lon="14.383522">
        <ele>1940.6964008448</ele>
        <time>2016-06-18T11:50:43Z</time>
      </trkpt>
      <trkpt lat="46.439847" lon="14.383483">
        <ele>1943.0463722688</ele>
        <time>2016-06-18T11:50:54Z</time>
      </trkpt>
      <trkpt lat="46.439836" lon="14.383440">
        <ele>1944.5663537856</ele>
        <time>2016-06-18T11:51:05Z</time>
      </trkpt>
      <trkpt lat="46.439814" lon="14.383394">
        <ele>1946.326332384</ele>
        <time>2016-06-18T11:51:17Z</time>
      </trkpt>
      <trkpt lat="46.439805" lon="14.383392">
        <ele>1947.0863231424</ele>
        <time>2016-06-18T11:51:31Z</time>
      </trkpt>
      <trkpt lat="46.439794" lon="14.383365">
        <ele>1947.1163227776</ele>
        <time>2016-06-18T11:51:44Z</time>
      </trkpt>
      <trkpt lat="46.439773" lon="14.383290">
        <ele>1949.776290432</ele>
        <time>2016-06-18T11:51:59Z</time>
      </trkpt>
      <trkpt lat="46.439783" lon="14.383277">
        <ele>1951.3062718272</ele>
        <time>2016-06-18T11:52:10Z</time>
      </trkpt>
      <trkpt lat="46.439795" lon="14.383245">
        <ele>1953.3862465344</ele>
        <time>2016-06-18T11:52:19Z</time>
      </trkpt>
      <trkpt lat="46.439790" lon="14.383206">
        <ele>1954.0962379008</ele>
        <time>2016-06-18T11:52:38Z</time>
      </trkpt>
      <trkpt lat="46.439783" lon="14.383173">
        <ele>1956.1162133376</ele>
        <time>2016-06-18T11:52:50Z</time>
      </trkpt>
      <trkpt lat="46.439786" lon="14.383145">
        <ele>1956.4962087168</ele>
        <time>2016-06-18T11:53:15Z</time>
      </trkpt>
      <trkpt lat="46.439772" lon="14.383120">
        <ele>1957.8661920576</ele>
        <time>2016-06-18T11:53:24Z</time>
      </trkpt>
      <trkpt lat="46.439742" lon="14.383072">
        <ele>1959.626170656</ele>
        <time>2016-06-18T11:53:32Z</time>
      </trkpt>
      <trkpt lat="46.439743" lon="14.383039">
        <ele>1961.4661482816</ele>
        <time>2016-06-18T11:53:43Z</time>
      </trkpt>
      <trkpt lat="46.439740" lon="14.383000">
        <ele>1961.9961418368</ele>
        <time>2016-06-18T11:53:59Z</time>
      </trkpt>
      <trkpt lat="46.439723" lon="14.382966">
        <ele>1963.1461278528</ele>
        <time>2016-06-18T11:54:07Z</time>
      </trkpt>
      <trkpt lat="46.439699" lon="14.382928">
        <ele>1965.4161002496</ele>
        <time>2016-06-18T11:54:19Z</time>
      </trkpt>
      <trkpt lat="46.439719" lon="14.382937">
        <ele>1967.6460731328</ele>
        <time>2016-06-18T11:54:30Z</time>
      </trkpt>
      <trkpt lat="46.439726" lon="14.382933">
        <ele>1968.4160637696</ele>
        <time>2016-06-18T11:54:42Z</time>
      </trkpt>
      <trkpt lat="46.439730" lon="14.382943">
        <ele>1968.9460573248</ele>
        <time>2016-06-18T11:54:59Z</time>
      </trkpt>
      <trkpt lat="46.439731" lon="14.382931">
        <ele>1968.97605696</ele>
        <time>2016-06-18T11:55:20Z</time>
      </trkpt>
      <trkpt lat="46.439668" lon="14.382852">
        <ele>1969.1160552576</ele>
        <time>2016-06-18T11:55:31Z</time>
      </trkpt>
      <trkpt lat="46.439616" lon="14.382786">
        <ele>1970.5160382336</ele>
        <time>2016-06-18T11:55:39Z</time>
      </trkpt>
      <trkpt lat="46.439592" lon="14.382763">
        <ele>1970.6160370176</ele>
        <time>2016-06-18T11:55:43Z</time>
      </trkpt>
      <trkpt lat="46.439521" lon="14.382670">
        <ele>1970.1860422464</ele>
        <time>2016-06-18T11:55:53Z</time>
      </trkpt>
      <trkpt lat="46.439519" lon="14.382659">
        <ele>1970.2160418816</ele>
        <time>2016-06-18T11:55:54Z</time>
      </trkpt>
      <trkpt lat="46.439502" lon="14.382618">
        <ele>1970.2460415168</ele>
        <time>2016-06-18T11:55:58Z</time>
      </trkpt>
      <trkpt lat="46.439470" lon="14.382571">
        <ele>1969.8860458944</ele>
        <time>2016-06-18T11:56:06Z</time>
      </trkpt>
      <trkpt lat="46.439437" lon="14.382519">
        <ele>1969.9360452864</ele>
        <time>2016-06-18T11:56:22Z</time>
      </trkpt>
      <trkpt lat="46.439391" lon="14.382434">
        <ele>1970.826034464</ele>
        <time>2016-06-18T11:56:32Z</time>
      </trkpt>
      <trkpt lat="46.439334" lon="14.382363">
        <ele>1971.0360319104</ele>
        <time>2016-06-18T11:56:40Z</time>
      </trkpt>
      <trkpt lat="46.439296" lon="14.382323">
        <ele>1971.826022304</ele>
        <time>2016-06-18T11:56:45Z</time>
      </trkpt>
      <trkpt lat="46.439244" lon="14.382245">
        <ele>1972.5160139136</ele>
        <time>2016-06-18T11:56:55Z</time>
      </trkpt>
      <trkpt lat="46.439203" lon="14.382225">
        <ele>1974.22599312</ele>
        <time>2016-06-18T11:57:04Z</time>
      </trkpt>
      <trkpt lat="46.439180" lon="14.382214">
        <ele>1976.175969408</ele>
        <time>2016-06-18T11:57:15Z</time>
      </trkpt>
      <trkpt lat="46.439177" lon="14.382208">
        <ele>1976.425966368</ele>
        <time>2016-06-18T11:57:26Z</time>
      </trkpt>
      <trkpt lat="46.439175" lon="14.382218">
        <ele>1976.6859632064</ele>
        <time>2016-06-18T11:57:42Z</time>
      </trkpt>
      <trkpt lat="46.439158" lon="14.382182">
        <ele>1977.1959570048</ele>
        <time>2016-06-18T11:57:50Z</time>
      </trkpt>
      <trkpt lat="46.439138" lon="14.382145">
        <ele>1979.2159324416</ele>
        <time>2016-06-18T11:57:58Z</time>
      </trkpt>
      <trkpt lat="46.439129" lon="14.382148">
        <ele>1980.7559137152</ele>
        <time>2016-06-18T11:58:10Z</time>
      </trkpt>
      <trkpt lat="46.439127" lon="14.382139">
        <ele>1980.4159178496</ele>
        <time>2016-06-18T11:58:26Z</time>
      </trkpt>
      <trkpt lat="46.439093" lon="14.382114">
        <ele>1982.2658953536</ele>
        <time>2016-06-18T11:58:35Z</time>
      </trkpt>
      <trkpt lat="46.439098" lon="14.382128">
        <ele>1983.8858756544</ele>
        <time>2016-06-18T11:58:52Z</time>
      </trkpt>
      <trkpt lat="46.439085" lon="14.382136">
        <ele>1984.4858683584</ele>
        <time>2016-06-18T11:59:12Z</time>
      </trkpt>
      <trkpt lat="46.439088" lon="14.382125">
        <ele>1983.9858744384</ele>
        <time>2016-06-18T11:59:35Z</time>
      </trkpt>
      <trkpt lat="46.439080" lon="14.382113">
        <ele>1984.72586544</ele>
        <time>2016-06-18T11:59:46Z</time>
      </trkpt>
      <trkpt lat="46.439091" lon="14.382098">
        <ele>1985.1058608192</ele>
        <time>2016-06-18T12:00:05Z</time>
      </trkpt>
      <trkpt lat="46.439103" lon="14.382070">
        <ele>1985.675853888</ele>
        <time>2016-06-18T12:00:17Z</time>
      </trkpt>
      <trkpt lat="46.439113" lon="14.382027">
        <ele>1988.7858160704</ele>
        <time>2016-06-18T12:00:28Z</time>
      </trkpt>
      <trkpt lat="46.439131" lon="14.382012">
        <ele>1990.0558006272</ele>
        <time>2016-06-18T12:00:40Z</time>
      </trkpt>
      <trkpt lat="46.439122" lon="14.381961">
        <ele>1991.1557872512</ele>
        <time>2016-06-18T12:00:52Z</time>
      </trkpt>
      <trkpt lat="46.439118" lon="14.381909">
        <ele>1993.3657603776</ele>
        <time>2016-06-18T12:01:03Z</time>
      </trkpt>
      <trkpt lat="46.439137" lon="14.381876">
        <ele>1995.9957283968</ele>
        <time>2016-06-18T12:01:12Z</time>
      </trkpt>
      <trkpt lat="46.439145" lon="14.381859">
        <ele>1997.175714048</ele>
        <time>2016-06-18T12:01:22Z</time>
      </trkpt>
      <trkpt lat="46.439135" lon="14.381781">
        <ele>1998.7456949568</ele>
        <time>2016-06-18T12:01:34Z</time>
      </trkpt>
      <trkpt lat="46.439128" lon="14.381710">
        <ele>2000.1856774464</ele>
        <time>2016-06-18T12:01:45Z</time>
      </trkpt>
      <trkpt lat="46.439124" lon="14.381683">
        <ele>2000.8356695424</ele>
        <time>2016-06-18T12:01:52Z</time>
      </trkpt>
      <trkpt lat="46.439120" lon="14.381647">
        <ele>2002.0056553152</ele>
        <time>2016-06-18T12:02:01Z</time>
      </trkpt>
      <trkpt lat="46.439122" lon="14.381602">
        <ele>2003.3856385344</ele>
        <time>2016-06-18T12:02:12Z</time>
      </trkpt>
      <trkpt lat="46.439123" lon="14.381532">
        <ele>2004.9456195648</ele>
        <time>2016-06-18T12:02:20Z</time>
      </trkpt>
      <trkpt lat="46.439119" lon="14.381502">
        <ele>2006.5156004736</ele>
        <time>2016-06-18T12:02:31Z</time>
      </trkpt>
      <trkpt lat="46.439105" lon="14.381452">
        <ele>2007.3055908672</ele>
        <time>2016-06-18T12:02:40Z</time>
      </trkpt>
      <trkpt lat="46.439109" lon="14.381442">
        <ele>2007.8055847872</ele>
        <time>2016-06-18T12:02:59Z</time>
      </trkpt>
      <trkpt lat="46.439105" lon="14.381392">
        <ele>2007.7155858816</ele>
        <time>2016-06-18T12:03:11Z</time>
      </trkpt>
      <trkpt lat="46.439105" lon="14.381387">
        <ele>2008.2655791936</ele>
        <time>2016-06-18T12:03:27Z</time>
      </trkpt>
      <trkpt lat="46.439106" lon="14.381396">
        <ele>2008.4055774912</ele>
        <time>2016-06-18T12:03:32Z</time>
      </trkpt>
      <trkpt lat="46.439121" lon="14.381409">
        <ele>2007.8555841792</ele>
        <time>2016-06-18T12:03:38Z</time>
      </trkpt>
      <trkpt lat="46.439095" lon="14.381368">
        <ele>2008.025582112</ele>
        <time>2016-06-18T12:03:46Z</time>
      </trkpt>
      <trkpt lat="46.439078" lon="14.381325">
        <ele>2008.5155761536</ele>
        <time>2016-06-18T12:03:56Z</time>
      </trkpt>
      <trkpt lat="46.439075" lon="14.381331">
        <ele>2008.5155761536</ele>
        <time>2016-06-18T12:04:15Z</time>
      </trkpt>
      <trkpt lat="46.439077" lon="14.381326">
        <ele>2007.7355856384</ele>
        <time>2016-06-18T12:04:34Z</time>
      </trkpt>
      <trkpt lat="46.439084" lon="14.381332">
        <ele>2007.7655852736</ele>
        <time>2016-06-18T12:04:57Z</time>
      </trkpt>
      <trkpt lat="46.439085" lon="14.381312">
        <ele>2007.97558272</ele>
        <time>2016-06-18T12:05:11Z</time>
      </trkpt>
      <trkpt lat="46.439088" lon="14.381286">
        <ele>2008.0855813824</ele>
        <time>2016-06-18T12:05:14Z</time>
      </trkpt>
      <trkpt lat="46.439097" lon="14.381235">
        <ele>2008.675574208</ele>
        <time>2016-06-18T12:05:21Z</time>
      </trkpt>
      <trkpt lat="46.439109" lon="14.381202">
        <ele>2008.8655718976</ele>
        <time>2016-06-18T12:05:24Z</time>
      </trkpt>
      <trkpt lat="46.439122" lon="14.381153">
        <ele>2009.3055665472</ele>
        <time>2016-06-18T12:05:32Z</time>
      </trkpt>
      <trkpt lat="46.439123" lon="14.381170">
        <ele>2009.7355613184</ele>
        <time>2016-06-18T12:05:49Z</time>
      </trkpt>
      <trkpt lat="46.439116" lon="14.381171">
        <ele>2009.4555647232</ele>
        <time>2016-06-18T12:06:07Z</time>
      </trkpt>
      <trkpt lat="46.439109" lon="14.381187">
        <ele>2008.7255736</ele>
        <time>2016-06-18T12:06:27Z</time>
      </trkpt>
      <trkpt lat="46.439113" lon="14.381207">
        <ele>2008.3855777344</ele>
        <time>2016-06-18T12:06:39Z</time>
      </trkpt>
      <trkpt lat="46.439106" lon="14.381232">
        <ele>2008.2555793152</ele>
        <time>2016-06-18T12:06:46Z</time>
      </trkpt>
      <trkpt lat="46.439099" lon="14.381273">
        <ele>2008.425577248</ele>
        <time>2016-06-18T12:06:58Z</time>
      </trkpt>
      <trkpt lat="46.439095" lon="14.381293">
        <ele>2008.7055738432</ele>
        <time>2016-06-18T12:07:10Z</time>
      </trkpt>
      <trkpt lat="46.439090" lon="14.381301">
        <ele>2008.2155798016</ele>
        <time>2016-06-18T12:07:25Z</time>
      </trkpt>
      <trkpt lat="46.439091" lon="14.381297">
        <ele>2007.8655840576</ele>
        <time>2016-06-18T12:07:44Z</time>
      </trkpt>
      <trkpt lat="46.439087" lon="14.381291">
        <ele>2007.5355880704</ele>
        <time>2016-06-18T12:07:59Z</time>
      </trkpt>
      <trkpt lat="46.439083" lon="14.381294">
        <ele>2008.1855801664</ele>
        <time>2016-06-18T12:08:18Z</time>
      </trkpt>
      <trkpt lat="46.439083" lon="14.381294">
        <ele>2008.4455770048</ele>
        <time>2016-06-18T12:08:38Z</time>
      </trkpt>
      <trkpt lat="46.439086" lon="14.381293">
        <ele>2008.8555720192</ele>
        <time>2016-06-18T12:08:54Z</time>
      </trkpt>
      <trkpt lat="46.439090" lon="14.381290">
        <ele>2007.8355844224</ele>
        <time>2016-06-18T12:09:13Z</time>
      </trkpt>
      <trkpt lat="46.439086" lon="14.381291">
        <ele>2008.8655718976</ele>
        <time>2016-06-18T12:09:31Z</time>
      </trkpt>
      <trkpt lat="46.439086" lon="14.381287">
        <ele>2008.7655731136</ele>
        <time>2016-06-18T12:09:45Z</time>
      </trkpt>
      <trkpt lat="46.439086" lon="14.381284">
        <ele>2007.6655864896</ele>
        <time>2016-06-18T12:10:03Z</time>
      </trkpt>
      <trkpt lat="46.439085" lon="14.381290">
        <ele>2009.2455672768</ele>
        <time>2016-06-18T12:10:26Z</time>
      </trkpt>
      <trkpt lat="46.439098" lon="14.381334">
        <ele>2009.675562048</ele>
        <time>2016-06-18T12:10:38Z</time>
      </trkpt>
      <trkpt lat="46.439096" lon="14.381337">
        <ele>2007.4855886784</ele>
        <time>2016-06-18T12:10:45Z</time>
      </trkpt>
      <trkpt lat="46.439090" lon="14.381347">
        <ele>2006.1956043648</ele>
        <time>2016-06-18T12:11:09Z</time>
      </trkpt>
      <trkpt lat="46.439085" lon="14.381344">
        <ele>2006.47560096</ele>
        <time>2016-06-18T12:11:33Z</time>
      </trkpt>
      <trkpt lat="46.439069" lon="14.381334">
        <ele>2006.4056018112</ele>
        <time>2016-06-18T12:11:54Z</time>
      </trkpt>
      <trkpt lat="46.439052" lon="14.381324">
        <ele>2006.7955970688</ele>
        <time>2016-06-18T12:12:30Z</time>
      </trkpt>
      <trkpt lat="46.439055" lon="14.381326">
        <ele>2006.775597312</ele>
        <time>2016-06-18T12:13:04Z</time>
      </trkpt>
      <trkpt lat="46.439057" lon="14.381326">
        <ele>2006.4956007168</ele>
        <time>2016-06-18T12:13:31Z</time>
      </trkpt>
      <trkpt lat="46.439052" lon="14.381328">
        <ele>2006.5555999872</ele>
        <time>2016-06-18T12:13:47Z</time>
      </trkpt>
      <trkpt lat="46.439054" lon="14.381332">
        <ele>2006.5056005952</ele>
        <time>2016-06-18T12:14:10Z</time>
      </trkpt>
      <trkpt lat="46.439051" lon="14.381330">
        <ele>2006.7555975552</ele>
        <time>2016-06-18T12:14:45Z</time>
      </trkpt>
      <trkpt lat="46.439046" lon="14.381330">
        <ele>2006.6555987712</ele>
        <time>2016-06-18T12:15:31Z</time>
      </trkpt>
      <trkpt lat="46.439033" lon="14.381339">
        <ele>2006.6355990144</ele>
        <time>2016-06-18T12:15:47Z</time>
      </trkpt>
      <trkpt lat="46.439030" lon="14.381342">
        <ele>2006.7455976768</ele>
        <time>2016-06-18T12:15:59Z</time>
      </trkpt>
      <trkpt lat="46.439030" lon="14.381347">
        <ele>2006.5555999872</ele>
        <time>2016-06-18T12:16:13Z</time>
      </trkpt>
      <trkpt lat="46.439025" lon="14.381344">
        <ele>2006.6055993792</ele>
        <time>2016-06-18T12:16:25Z</time>
      </trkpt>
      <trkpt lat="46.439019" lon="14.381347">
        <ele>2006.6555987712</ele>
        <time>2016-06-18T12:16:37Z</time>
      </trkpt>
      <trkpt lat="46.439025" lon="14.381348">
        <ele>2006.7955970688</ele>
        <time>2016-06-18T12:16:49Z</time>
      </trkpt>
      <trkpt lat="46.439026" lon="14.381348">
        <ele>2006.6455988928</ele>
        <time>2016-06-18T12:17:03Z</time>
      </trkpt>
      <trkpt lat="46.439026" lon="14.381347">
        <ele>2006.5456001088</ele>
        <time>2016-06-18T12:17:16Z</time>
      </trkpt>
      <trkpt lat="46.439024" lon="14.381346">
        <ele>2006.375602176</ele>
        <time>2016-06-18T12:17:29Z</time>
      </trkpt>
      <trkpt lat="46.439025" lon="14.381344">
        <ele>2006.1856044864</ele>
        <time>2016-06-18T12:17:45Z</time>
      </trkpt>
      <trkpt lat="46.439034" lon="14.381341">
        <ele>2006.3956019328</ele>
        <time>2016-06-18T12:18:04Z</time>
      </trkpt>
      <trkpt lat="46.439048" lon="14.381349">
        <ele>2006.3656022976</ele>
        <time>2016-06-18T12:18:18Z</time>
      </trkpt>
      <trkpt lat="46.439049" lon="14.381353">
        <ele>2006.4856008384</ele>
        <time>2016-06-18T12:18:32Z</time>
      </trkpt>
      <trkpt lat="46.439049" lon="14.381353">
        <ele>2006.1156053376</ele>
        <time>2016-06-18T12:18:47Z</time>
      </trkpt>
      <trkpt lat="46.439051" lon="14.381349">
        <ele>2006.125605216</ele>
        <time>2016-06-18T12:19:02Z</time>
      </trkpt>
      <trkpt lat="46.439050" lon="14.381354">
        <ele>2006.1956043648</ele>
        <time>2016-06-18T12:19:15Z</time>
      </trkpt>
      <trkpt lat="46.439052" lon="14.381356">
        <ele>2006.275603392</ele>
        <time>2016-06-18T12:19:29Z</time>
      </trkpt>
      <trkpt lat="46.439053" lon="14.381346">
        <ele>2006.0656059456</ele>
        <time>2016-06-18T12:19:53Z</time>
      </trkpt>
      <trkpt lat="46.439055" lon="14.381344">
        <ele>2005.8156089856</ele>
        <time>2016-06-18T12:20:13Z</time>
      </trkpt>
      <trkpt lat="46.439058" lon="14.381342">
        <ele>2005.8156089856</ele>
        <time>2016-06-18T12:20:29Z</time>
      </trkpt>
      <trkpt lat="46.439061" lon="14.381340">
        <ele>2005.8856081344</ele>
        <time>2016-06-18T12:20:48Z</time>
      </trkpt>
      <trkpt lat="46.439058" lon="14.381338">
        <ele>2005.5656120256</ele>
        <time>2016-06-18T12:21:05Z</time>
      </trkpt>
      <trkpt lat="46.439052" lon="14.381333">
        <ele>2005.6156114176</ele>
        <time>2016-06-18T12:21:19Z</time>
      </trkpt>
      <trkpt lat="46.439046" lon="14.381329">
        <ele>2005.6356111744</ele>
        <time>2016-06-18T12:21:36Z</time>
      </trkpt>
      <trkpt lat="46.439046" lon="14.381328">
        <ele>2005.5856117824</ele>
        <time>2016-06-18T12:21:50Z</time>
      </trkpt>
      <trkpt lat="46.439042" lon="14.381327">
        <ele>2005.7056103232</ele>
        <time>2016-06-18T12:22:04Z</time>
      </trkpt>
      <trkpt lat="46.439036" lon="14.381326">
        <ele>2005.4356136064</ele>
        <time>2016-06-18T12:22:19Z</time>
      </trkpt>
      <trkpt lat="46.439040" lon="14.381328">
        <ele>2005.4456134848</ele>
        <time>2016-06-18T12:22:34Z</time>
      </trkpt>
      <trkpt lat="46.439045" lon="14.381329">
        <ele>2005.575611904</ele>
        <time>2016-06-18T12:22:48Z</time>
      </trkpt>
      <trkpt lat="46.439046" lon="14.381330">
        <ele>2005.6356111744</ele>
        <time>2016-06-18T12:23:05Z</time>
      </trkpt>
      <trkpt lat="46.439048" lon="14.381328">
        <ele>2005.7056103232</ele>
        <time>2016-06-18T12:23:20Z</time>
      </trkpt>
      <trkpt lat="46.439041" lon="14.381328">
        <ele>2005.6656108096</ele>
        <time>2016-06-18T12:23:33Z</time>
      </trkpt>
      <trkpt lat="46.439041" lon="14.381325">
        <ele>2005.6156114176</ele>
        <time>2016-06-18T12:23:49Z</time>
      </trkpt>
      <trkpt lat="46.439030" lon="14.381334">
        <ele>2005.4956128768</ele>
        <time>2016-06-18T12:24:00Z</time>
      </trkpt>
      <trkpt lat="46.439028" lon="14.381331">
        <ele>2005.6856105664</ele>
        <time>2016-06-18T12:24:16Z</time>
      </trkpt>
      <trkpt lat="46.439026" lon="14.381324">
        <ele>2005.7056103232</ele>
        <time>2016-06-18T12:24:31Z</time>
      </trkpt>
      <trkpt lat="46.439026" lon="14.381326">
        <ele>2005.8856081344</ele>
        <time>2016-06-18T12:24:43Z</time>
      </trkpt>
      <trkpt lat="46.439028" lon="14.381322">
        <ele>2005.9056078912</ele>
        <time>2016-06-18T12:24:58Z</time>
      </trkpt>
      <trkpt lat="46.439030" lon="14.381322">
        <ele>2005.6456110528</ele>
        <time>2016-06-18T12:25:13Z</time>
      </trkpt>
      <trkpt lat="46.439035" lon="14.381322">
        <ele>2005.9056078912</ele>
        <time>2016-06-18T12:25:29Z</time>
      </trkpt>
      <trkpt lat="46.439034" lon="14.381323">
        <ele>2006.3056030272</ele>
        <time>2016-06-18T12:25:44Z</time>
      </trkpt>
      <trkpt lat="46.439032" lon="14.381318">
        <ele>2006.2156041216</ele>
        <time>2016-06-18T12:25:57Z</time>
      </trkpt>
      <trkpt lat="46.439033" lon="14.381317">
        <ele>2006.4656010816</ele>
        <time>2016-06-18T12:26:11Z</time>
      </trkpt>
      <trkpt lat="46.439032" lon="14.381318">
        <ele>2006.4356014464</ele>
        <time>2016-06-18T12:26:23Z</time>
      </trkpt>
      <trkpt lat="46.439035" lon="14.381321">
        <ele>2006.1956043648</ele>
        <time>2016-06-18T12:26:38Z</time>
      </trkpt>
      <trkpt lat="46.439040" lon="14.381324">
        <ele>2005.8056091072</ele>
        <time>2016-06-18T12:26:54Z</time>
      </trkpt>
      <trkpt lat="46.439037" lon="14.381324">
        <ele>2005.575611904</ele>
        <time>2016-06-18T12:27:08Z</time>
      </trkpt>
      <trkpt lat="46.439041" lon="14.381324">
        <ele>2005.4456134848</ele>
        <time>2016-06-18T12:27:21Z</time>
      </trkpt>
      <trkpt lat="46.439043" lon="14.381322">
        <ele>2005.2656156736</ele>
        <time>2016-06-18T12:27:36Z</time>
      </trkpt>
      <trkpt lat="46.439041" lon="14.381319">
        <ele>2005.3556145792</ele>
        <time>2016-06-18T12:27:51Z</time>
      </trkpt>
      <trkpt lat="46.439046" lon="14.381321">
        <ele>2005.1956165248</ele>
        <time>2016-06-18T12:28:04Z</time>
      </trkpt>
      <trkpt lat="46.439050" lon="14.381323">
        <ele>2005.3556145792</ele>
        <time>2016-06-18T12:28:19Z</time>
      </trkpt>
      <trkpt lat="46.439051" lon="14.381334">
        <ele>2005.3656144576</ele>
        <time>2016-06-18T12:28:34Z</time>
      </trkpt>
      <trkpt lat="46.439089" lon="14.381351">
        <ele>2005.825608864</ele>
        <time>2016-06-18T12:28:45Z</time>
      </trkpt>
      <trkpt lat="46.439087" lon="14.381332">
        <ele>2006.0156065536</ele>
        <time>2016-06-18T12:28:54Z</time>
      </trkpt>
      <trkpt lat="46.439083" lon="14.381347">
        <ele>2006.7455976768</ele>
        <time>2016-06-18T12:29:04Z</time>
      </trkpt>
      <trkpt lat="46.439085" lon="14.381359">
        <ele>2006.9355953664</ele>
        <time>2016-06-18T12:29:12Z</time>
      </trkpt>
      <trkpt lat="46.439080" lon="14.381373">
        <ele>2007.1455928128</ele>
        <time>2016-06-18T12:29:17Z</time>
      </trkpt>
      <trkpt lat="46.439074" lon="14.381382">
        <ele>2007.0355941504</ele>
        <time>2016-06-18T12:29:27Z</time>
      </trkpt>
      <trkpt lat="46.439051" lon="14.381412">
        <ele>2007.0355941504</ele>
        <time>2016-06-18T12:29:36Z</time>
      </trkpt>
      <trkpt lat="46.439054" lon="14.381434">
        <ele>2007.0655937856</ele>
        <time>2016-06-18T12:29:46Z</time>
      </trkpt>
      <trkpt lat="46.439050" lon="14.381450">
        <ele>2007.0955934208</ele>
        <time>2016-06-18T12:29:50Z</time>
      </trkpt>
      <trkpt lat="46.439080" lon="14.381468">
        <ele>2006.6655986496</ele>
        <time>2016-06-18T12:29:56Z</time>
      </trkpt>
      <trkpt lat="46.439089" lon="14.381465">
        <ele>2006.9955946368</ele>
        <time>2016-06-18T12:30:06Z</time>
      </trkpt>
      <trkpt lat="46.439087" lon="14.381459">
        <ele>2007.0155943936</ele>
        <time>2016-06-18T12:30:19Z</time>
      </trkpt>
      <trkpt lat="46.439087" lon="14.381450">
        <ele>2006.9355953664</ele>
        <time>2016-06-18T12:30:38Z</time>
      </trkpt>
      <trkpt lat="46.439096" lon="14.381445">
        <ele>2006.8155968256</ele>
        <time>2016-06-18T12:31:04Z</time>
      </trkpt>
      <trkpt lat="46.439090" lon="14.381445">
        <ele>2007.22559184</ele>
        <time>2016-06-18T12:31:23Z</time>
      </trkpt>
      <trkpt lat="46.439088" lon="14.381447">
        <ele>2006.8355965824</ele>
        <time>2016-06-18T12:31:35Z</time>
      </trkpt>
      <trkpt lat="46.439086" lon="14.381446">
        <ele>2006.8055969472</ele>
        <time>2016-06-18T12:31:47Z</time>
      </trkpt>
      <trkpt lat="46.439083" lon="14.381439">
        <ele>2006.875596096</ele>
        <time>2016-06-18T12:32:02Z</time>
      </trkpt>
      <trkpt lat="46.439083" lon="14.381431">
        <ele>2006.5555999872</ele>
        <time>2016-06-18T12:32:11Z</time>
      </trkpt>
      <trkpt lat="46.439065" lon="14.381402">
        <ele>2006.4456013248</ele>
        <time>2016-06-18T12:32:25Z</time>
      </trkpt>
      <trkpt lat="46.439071" lon="14.381339">
        <ele>2006.7955970688</ele>
        <time>2016-06-18T12:32:33Z</time>
      </trkpt>
      <trkpt lat="46.439095" lon="14.381223">
        <ele>2007.5655877056</ele>
        <time>2016-06-18T12:32:44Z</time>
      </trkpt>
      <trkpt lat="46.439115" lon="14.381156">
        <ele>2007.9355832064</ele>
        <time>2016-06-18T12:32:52Z</time>
      </trkpt>
      <trkpt lat="46.439140" lon="14.381069">
        <ele>2008.3555780992</ele>
        <time>2016-06-18T12:33:03Z</time>
      </trkpt>
      <trkpt lat="46.439140" lon="14.380995">
        <ele>2007.075593664</ele>
        <time>2016-06-18T12:33:14Z</time>
      </trkpt>
      <trkpt lat="46.439167" lon="14.380929">
        <ele>2005.3556145792</ele>
        <time>2016-06-18T12:33:23Z</time>
      </trkpt>
      <trkpt lat="46.439198" lon="14.380868">
        <ele>2004.3556267392</ele>
        <time>2016-06-18T12:33:31Z</time>
      </trkpt>
      <trkpt lat="46.439230" lon="14.380790">
        <ele>2002.875644736</ele>
        <time>2016-06-18T12:33:42Z</time>
      </trkpt>
      <trkpt lat="46.439288" lon="14.380702">
        <ele>2001.7356585984</ele>
        <time>2016-06-18T12:33:53Z</time>
      </trkpt>
      <trkpt lat="46.439293" lon="14.380695">
        <ele>2001.6556595712</ele>
        <time>2016-06-18T12:33:54Z</time>
      </trkpt>
      <trkpt lat="46.439378" lon="14.380614">
        <ele>2000.6356719744</ele>
        <time>2016-06-18T12:34:05Z</time>
      </trkpt>
      <trkpt lat="46.439391" lon="14.380553">
        <ele>2000.025679392</ele>
        <time>2016-06-18T12:34:13Z</time>
      </trkpt>
      <trkpt lat="46.439352" lon="14.380516">
        <ele>1997.8357060224</ele>
        <time>2016-06-18T12:34:22Z</time>
      </trkpt>
      <trkpt lat="46.439301" lon="14.380487">
        <ele>1995.5457338688</ele>
        <time>2016-06-18T12:34:33Z</time>
      </trkpt>
      <trkpt lat="46.439257" lon="14.380484">
        <ele>1993.4857589184</ele>
        <time>2016-06-18T12:34:41Z</time>
      </trkpt>
      <trkpt lat="46.439260" lon="14.380436">
        <ele>1992.6957685248</ele>
        <time>2016-06-18T12:34:49Z</time>
      </trkpt>
      <trkpt lat="46.439255" lon="14.380410">
        <ele>1992.1857747264</ele>
        <time>2016-06-18T12:34:56Z</time>
      </trkpt>
      <trkpt lat="46.439262" lon="14.380352">
        <ele>1990.22579856</ele>
        <time>2016-06-18T12:35:06Z</time>
      </trkpt>
      <trkpt lat="46.439270" lon="14.380306">
        <ele>1988.7058170432</ele>
        <time>2016-06-18T12:35:15Z</time>
      </trkpt>
      <trkpt lat="46.439283" lon="14.380249">
        <ele>1987.3658333376</ele>
        <time>2016-06-18T12:35:24Z</time>
      </trkpt>
      <trkpt lat="46.439276" lon="14.380203">
        <ele>1985.8358519424</ele>
        <time>2016-06-18T12:35:33Z</time>
      </trkpt>
      <trkpt lat="46.439275" lon="14.380137">
        <ele>1983.3958816128</ele>
        <time>2016-06-18T12:35:43Z</time>
      </trkpt>
      <trkpt lat="46.439288" lon="14.380056">
        <ele>1981.5459041088</ele>
        <time>2016-06-18T12:35:54Z</time>
      </trkpt>
      <trkpt lat="46.439298" lon="14.379960">
        <ele>1979.3659306176</ele>
        <time>2016-06-18T12:36:05Z</time>
      </trkpt>
      <trkpt lat="46.439289" lon="14.379898">
        <ele>1977.275956032</ele>
        <time>2016-06-18T12:36:13Z</time>
      </trkpt>
      <trkpt lat="46.439290" lon="14.379814">
        <ele>1975.9459722048</ele>
        <time>2016-06-18T12:36:23Z</time>
      </trkpt>
      <trkpt lat="46.439295" lon="14.379723">
        <ele>1973.5860009024</ele>
        <time>2016-06-18T12:36:32Z</time>
      </trkpt>
      <trkpt lat="46.439266" lon="14.379619">
        <ele>1971.176030208</ele>
        <time>2016-06-18T12:36:43Z</time>
      </trkpt>
      <trkpt lat="46.439263" lon="14.379544">
        <ele>1969.876046016</ele>
        <time>2016-06-18T12:36:51Z</time>
      </trkpt>
      <trkpt lat="46.439263" lon="14.379532">
        <ele>1969.6860483264</ele>
        <time>2016-06-18T12:36:52Z</time>
      </trkpt>
      <trkpt lat="46.439265" lon="14.379458">
        <ele>1968.5160625536</ele>
        <time>2016-06-18T12:36:58Z</time>
      </trkpt>
      <trkpt lat="46.439279" lon="14.379291">
        <ele>1967.1560790912</ele>
        <time>2016-06-18T12:37:10Z</time>
      </trkpt>
      <trkpt lat="46.439276" lon="14.379183">
        <ele>1966.2460901568</ele>
        <time>2016-06-18T12:37:19Z</time>
      </trkpt>
      <trkpt lat="46.439279" lon="14.379059">
        <ele>1965.0361048704</ele>
        <time>2016-06-18T12:37:29Z</time>
      </trkpt>
      <trkpt lat="46.439248" lon="14.378985">
        <ele>1963.9561180032</ele>
        <time>2016-06-18T12:37:35Z</time>
      </trkpt>
      <trkpt lat="46.439217" lon="14.378846">
        <ele>1963.626122016</ele>
        <time>2016-06-18T12:37:46Z</time>
      </trkpt>
      <trkpt lat="46.439186" lon="14.378773">
        <ele>1963.4461242048</ele>
        <time>2016-06-18T12:37:54Z</time>
      </trkpt>
      <trkpt lat="46.439152" lon="14.378723">
        <ele>1962.3061380672</ele>
        <time>2016-06-18T12:38:04Z</time>
      </trkpt>
      <trkpt lat="46.439136" lon="14.378673">
        <ele>1960.6561581312</ele>
        <time>2016-06-18T12:38:13Z</time>
      </trkpt>
      <trkpt lat="46.439143" lon="14.378637">
        <ele>1959.4361729664</ele>
        <time>2016-06-18T12:38:21Z</time>
      </trkpt>
      <trkpt lat="46.439151" lon="14.378614">
        <ele>1958.5161841536</ele>
        <time>2016-06-18T12:38:28Z</time>
      </trkpt>
      <trkpt lat="46.439169" lon="14.378553">
        <ele>1958.0361899904</ele>
        <time>2016-06-18T12:38:38Z</time>
      </trkpt>
      <trkpt lat="46.439179" lon="14.378527">
        <ele>1957.3961977728</ele>
        <time>2016-06-18T12:38:44Z</time>
      </trkpt>
      <trkpt lat="46.439177" lon="14.378509">
        <ele>1956.1462129728</ele>
        <time>2016-06-18T12:38:52Z</time>
      </trkpt>
      <trkpt lat="46.439185" lon="14.378453">
        <ele>1955.076225984</ele>
        <time>2016-06-18T12:39:02Z</time>
      </trkpt>
      <trkpt lat="46.439184" lon="14.378377">
        <ele>1953.676243008</ele>
        <time>2016-06-18T12:39:10Z</time>
      </trkpt>
      <trkpt lat="46.439197" lon="14.378299">
        <ele>1951.3462713408</ele>
        <time>2016-06-18T12:39:21Z</time>
      </trkpt>
      <trkpt lat="46.439196" lon="14.378272">
        <ele>1949.626292256</ele>
        <time>2016-06-18T12:39:27Z</time>
      </trkpt>
      <trkpt lat="46.439204" lon="14.378194">
        <ele>1947.8663136576</ele>
        <time>2016-06-18T12:39:37Z</time>
      </trkpt>
      <trkpt lat="46.439217" lon="14.378114">
        <ele>1946.5663294656</ele>
        <time>2016-06-18T12:39:46Z</time>
      </trkpt>
      <trkpt lat="46.439232" lon="14.378094">
        <ele>1945.5563417472</ele>
        <time>2016-06-18T12:39:54Z</time>
      </trkpt>
      <trkpt lat="46.439266" lon="14.378012">
        <ele>1944.1563587712</ele>
        <time>2016-06-18T12:40:04Z</time>
      </trkpt>
      <trkpt lat="46.439273" lon="14.377957">
        <ele>1943.776363392</ele>
        <time>2016-06-18T12:40:12Z</time>
      </trkpt>
      <trkpt lat="46.439310" lon="14.377832">
        <ele>1942.4863790784</ele>
        <time>2016-06-18T12:40:21Z</time>
      </trkpt>
      <trkpt lat="46.439322" lon="14.377790">
        <ele>1942.426379808</ele>
        <time>2016-06-18T12:40:26Z</time>
      </trkpt>
      <trkpt lat="46.439368" lon="14.377618">
        <ele>1942.1063836992</ele>
        <time>2016-06-18T12:40:38Z</time>
      </trkpt>
      <trkpt lat="46.439390" lon="14.377515">
        <ele>1942.0963838208</ele>
        <time>2016-06-18T12:40:47Z</time>
      </trkpt>
      <trkpt lat="46.439397" lon="14.377442">
        <ele>1941.5063909952</ele>
        <time>2016-06-18T12:40:55Z</time>
      </trkpt>
      <trkpt lat="46.439408" lon="14.377400">
        <ele>1941.0863961024</ele>
        <time>2016-06-18T12:40:58Z</time>
      </trkpt>
      <trkpt lat="46.439422" lon="14.377255">
        <ele>1940.176407168</ele>
        <time>2016-06-18T12:41:07Z</time>
      </trkpt>
      <trkpt lat="46.439438" lon="14.377190">
        <ele>1940.3664048576</ele>
        <time>2016-06-18T12:41:17Z</time>
      </trkpt>
      <trkpt lat="46.439451" lon="14.377147">
        <ele>1940.1164078976</ele>
        <time>2016-06-18T12:41:22Z</time>
      </trkpt>
      <trkpt lat="46.439474" lon="14.377018">
        <ele>1940.426404128</ele>
        <time>2016-06-18T12:41:32Z</time>
      </trkpt>
      <trkpt lat="46.439478" lon="14.376975">
        <ele>1940.22640656</ele>
        <time>2016-06-18T12:41:36Z</time>
      </trkpt>
      <trkpt lat="46.439503" lon="14.376812">
        <ele>1938.576426624</ele>
        <time>2016-06-18T12:41:47Z</time>
      </trkpt>
      <trkpt lat="46.439517" lon="14.376684">
        <ele>1938.7564244352</ele>
        <time>2016-06-18T12:41:56Z</time>
      </trkpt>
      <trkpt lat="46.439536" lon="14.376586">
        <ele>1938.6164261376</ele>
        <time>2016-06-18T12:42:04Z</time>
      </trkpt>
      <trkpt lat="46.439559" lon="14.376505">
        <ele>1938.4664279616</ele>
        <time>2016-06-18T12:42:12Z</time>
      </trkpt>
      <trkpt lat="46.439579" lon="14.376401">
        <ele>1938.1464318528</ele>
        <time>2016-06-18T12:42:20Z</time>
      </trkpt>
      <trkpt lat="46.439593" lon="14.376302">
        <ele>1936.7464488768</ele>
        <time>2016-06-18T12:42:30Z</time>
      </trkpt>
      <trkpt lat="46.439613" lon="14.376199">
        <ele>1935.22646736</ele>
        <time>2016-06-18T12:42:39Z</time>
      </trkpt>
      <trkpt lat="46.439623" lon="14.376101">
        <ele>1934.2464792768</ele>
        <time>2016-06-18T12:42:49Z</time>
      </trkpt>
      <trkpt lat="46.439643" lon="14.375983">
        <ele>1934.1564803712</ele>
        <time>2016-06-18T12:42:58Z</time>
      </trkpt>
      <trkpt lat="46.439636" lon="14.375921">
        <ele>1935.2364672384</ele>
        <time>2016-06-18T12:43:09Z</time>
      </trkpt>
      <trkpt lat="46.439648" lon="14.375844">
        <ele>1933.8864836544</ele>
        <time>2016-06-18T12:43:17Z</time>
      </trkpt>
      <trkpt lat="46.439642" lon="14.375752">
        <ele>1931.6465108928</ele>
        <time>2016-06-18T12:43:28Z</time>
      </trkpt>
      <trkpt lat="46.439646" lon="14.375684">
        <ele>1929.9365316864</ele>
        <time>2016-06-18T12:43:36Z</time>
      </trkpt>
      <trkpt lat="46.439642" lon="14.375603">
        <ele>1928.8065454272</ele>
        <time>2016-06-18T12:43:44Z</time>
      </trkpt>
      <trkpt lat="46.439635" lon="14.375502">
        <ele>1927.8365572224</ele>
        <time>2016-06-18T12:43:53Z</time>
      </trkpt>
      <trkpt lat="46.439637" lon="14.375437">
        <ele>1926.4565740032</ele>
        <time>2016-06-18T12:44:03Z</time>
      </trkpt>
      <trkpt lat="46.439635" lon="14.375361">
        <ele>1924.7065952832</ele>
        <time>2016-06-18T12:44:12Z</time>
      </trkpt>
      <trkpt lat="46.439634" lon="14.375306">
        <ele>1923.4666103616</ele>
        <time>2016-06-18T12:44:22Z</time>
      </trkpt>
      <trkpt lat="46.439612" lon="14.375251">
        <ele>1921.6666322496</ele>
        <time>2016-06-18T12:44:31Z</time>
      </trkpt>
      <trkpt lat="46.439615" lon="14.375192">
        <ele>1920.0366520704</ele>
        <time>2016-06-18T12:44:38Z</time>
      </trkpt>
      <trkpt lat="46.439615" lon="14.375123">
        <ele>1918.6366690944</ele>
        <time>2016-06-18T12:44:49Z</time>
      </trkpt>
      <trkpt lat="46.439608" lon="14.375084">
        <ele>1917.5666821056</ele>
        <time>2016-06-18T12:44:56Z</time>
      </trkpt>
      <trkpt lat="46.439587" lon="14.375053">
        <ele>1916.1066998592</ele>
        <time>2016-06-18T12:45:04Z</time>
      </trkpt>
      <trkpt lat="46.439590" lon="14.375001">
        <ele>1914.6067180992</ele>
        <time>2016-06-18T12:45:12Z</time>
      </trkpt>
      <trkpt lat="46.439571" lon="14.374929">
        <ele>1912.8467395008</ele>
        <time>2016-06-18T12:45:20Z</time>
      </trkpt>
      <trkpt lat="46.439565" lon="14.374784">
        <ele>1910.5567673472</ele>
        <time>2016-06-18T12:45:32Z</time>
      </trkpt>
      <trkpt lat="46.439566" lon="14.374738">
        <ele>1909.8667757376</ele>
        <time>2016-06-18T12:45:36Z</time>
      </trkpt>
      <trkpt lat="46.439577" lon="14.374568">
        <ele>1907.526804192</ele>
        <time>2016-06-18T12:45:48Z</time>
      </trkpt>
      <trkpt lat="46.439584" lon="14.374433">
        <ele>1906.5068165952</ele>
        <time>2016-06-18T12:46:00Z</time>
      </trkpt>
      <trkpt lat="46.439594" lon="14.374344">
        <ele>1905.8568244992</ele>
        <time>2016-06-18T12:46:10Z</time>
      </trkpt>
      <trkpt lat="46.439607" lon="14.374242">
        <ele>1906.3868180544</ele>
        <time>2016-06-18T12:46:19Z</time>
      </trkpt>
      <trkpt lat="46.439611" lon="14.374124">
        <ele>1907.1168091776</ele>
        <time>2016-06-18T12:46:30Z</time>
      </trkpt>
      <trkpt lat="46.439620" lon="14.374030">
        <ele>1907.8468003008</ele>
        <time>2016-06-18T12:46:39Z</time>
      </trkpt>
      <trkpt lat="46.439622" lon="14.373927">
        <ele>1908.7567892352</ele>
        <time>2016-06-18T12:46:49Z</time>
      </trkpt>
      <trkpt lat="46.439609" lon="14.373840">
        <ele>1909.5867791424</ele>
        <time>2016-06-18T12:47:00Z</time>
      </trkpt>
      <trkpt lat="46.439579" lon="14.373743">
        <ele>1910.1367724544</ele>
        <time>2016-06-18T12:47:11Z</time>
      </trkpt>
      <trkpt lat="46.439558" lon="14.373689">
        <ele>1910.6967656448</ele>
        <time>2016-06-18T12:47:19Z</time>
      </trkpt>
      <trkpt lat="46.439538" lon="14.373600">
        <ele>1911.2567588352</ele>
        <time>2016-06-18T12:47:29Z</time>
      </trkpt>
      <trkpt lat="46.439530" lon="14.373539">
        <ele>1912.3667453376</ele>
        <time>2016-06-18T12:47:40Z</time>
      </trkpt>
      <trkpt lat="46.439521" lon="14.373454">
        <ele>1913.4567320832</ele>
        <time>2016-06-18T12:47:50Z</time>
      </trkpt>
      <trkpt lat="46.439514" lon="14.373389">
        <ele>1914.4167204096</ele>
        <time>2016-06-18T12:47:59Z</time>
      </trkpt>
      <trkpt lat="46.439498" lon="14.373288">
        <ele>1916.2366982784</ele>
        <time>2016-06-18T12:48:10Z</time>
      </trkpt>
      <trkpt lat="46.439476" lon="14.373213">
        <ele>1917.2866855104</ele>
        <time>2016-06-18T12:48:19Z</time>
      </trkpt>
      <trkpt lat="46.439464" lon="14.373125">
        <ele>1916.6666930496</ele>
        <time>2016-06-18T12:48:29Z</time>
      </trkpt>
      <trkpt lat="46.439481" lon="14.373030">
        <ele>1918.0866757824</ele>
        <time>2016-06-18T12:48:40Z</time>
      </trkpt>
      <trkpt lat="46.439494" lon="14.372923">
        <ele>1919.5566579072</ele>
        <time>2016-06-18T12:48:50Z</time>
      </trkpt>
      <trkpt lat="46.439518" lon="14.372793">
        <ele>1920.076651584</ele>
        <time>2016-06-18T12:49:01Z</time>
      </trkpt>
      <trkpt lat="46.439528" lon="14.372700">
        <ele>1921.3666358976</ele>
        <time>2016-06-18T12:49:11Z</time>
      </trkpt>
      <trkpt lat="46.439535" lon="14.372605">
        <ele>1921.8566299392</ele>
        <time>2016-06-18T12:49:20Z</time>
      </trkpt>
      <trkpt lat="46.439544" lon="14.372558">
        <ele>1922.126626656</ele>
        <time>2016-06-18T12:49:24Z</time>
      </trkpt>
      <trkpt lat="46.439547" lon="14.372522">
        <ele>1922.076627264</ele>
        <time>2016-06-18T12:49:28Z</time>
      </trkpt>
      <trkpt lat="46.439569" lon="14.372408">
        <ele>1922.2666249536</ele>
        <time>2016-06-18T12:49:38Z</time>
      </trkpt>
      <trkpt lat="46.439574" lon="14.372368">
        <ele>1922.376623616</ele>
        <time>2016-06-18T12:49:42Z</time>
      </trkpt>
      <trkpt lat="46.439593" lon="14.372255">
        <ele>1922.4166231296</ele>
        <time>2016-06-18T12:49:51Z</time>
      </trkpt>
      <trkpt lat="46.439598" lon="14.372139">
        <ele>1922.1166267776</ele>
        <time>2016-06-18T12:50:02Z</time>
      </trkpt>
      <trkpt lat="46.439598" lon="14.372061">
        <ele>1921.326636384</ele>
        <time>2016-06-18T12:50:10Z</time>
      </trkpt>
      <trkpt lat="46.439608" lon="14.371971">
        <ele>1919.6666565696</ele>
        <time>2016-06-18T12:50:20Z</time>
      </trkpt>
      <trkpt lat="46.439623" lon="14.371874">
        <ele>1918.2966732288</ele>
        <time>2016-06-18T12:50:28Z</time>
      </trkpt>
      <trkpt lat="46.439649" lon="14.371767">
        <ele>1917.326685024</ele>
        <time>2016-06-18T12:50:37Z</time>
      </trkpt>
      <trkpt lat="46.439665" lon="14.371689">
        <ele>1916.9666894016</ele>
        <time>2016-06-18T12:50:45Z</time>
      </trkpt>
      <trkpt lat="46.439682" lon="14.371597">
        <ele>1916.6366934144</ele>
        <time>2016-06-18T12:50:55Z</time>
      </trkpt>
      <trkpt lat="46.439693" lon="14.371524">
        <ele>1916.5566943872</ele>
        <time>2016-06-18T12:51:03Z</time>
      </trkpt>
      <trkpt lat="46.439712" lon="14.371449">
        <ele>1917.0166887936</ele>
        <time>2016-06-18T12:51:12Z</time>
      </trkpt>
      <trkpt lat="46.439728" lon="14.371375">
        <ele>1918.2366739584</ele>
        <time>2016-06-18T12:51:22Z</time>
      </trkpt>
      <trkpt lat="46.439747" lon="14.371298">
        <ele>1918.9166656896</ele>
        <time>2016-06-18T12:51:31Z</time>
      </trkpt>
      <trkpt lat="46.439771" lon="14.371216">
        <ele>1919.7066560832</ele>
        <time>2016-06-18T12:51:39Z</time>
      </trkpt>
      <trkpt lat="46.439795" lon="14.371151">
        <ele>1921.1066390592</ele>
        <time>2016-06-18T12:51:49Z</time>
      </trkpt>
      <trkpt lat="46.439826" lon="14.371070">
        <ele>1923.026615712</ele>
        <time>2016-06-18T12:51:58Z</time>
      </trkpt>
      <trkpt lat="46.439837" lon="14.370939">
        <ele>1922.5166219136</ele>
        <time>2016-06-18T12:52:10Z</time>
      </trkpt>
      <trkpt lat="46.439821" lon="14.370789">
        <ele>1921.4166352896</ele>
        <time>2016-06-18T12:52:22Z</time>
      </trkpt>
      <trkpt lat="46.439806" lon="14.370665">
        <ele>1921.9666286016</ele>
        <time>2016-06-18T12:52:35Z</time>
      </trkpt>
      <trkpt lat="46.439781" lon="14.370557">
        <ele>1923.0166158336</ele>
        <time>2016-06-18T12:52:44Z</time>
      </trkpt>
      <trkpt lat="46.439749" lon="14.370474">
        <ele>1923.3866113344</ele>
        <time>2016-06-18T12:52:52Z</time>
      </trkpt>
      <trkpt lat="46.439726" lon="14.370378">
        <ele>1923.6666079296</ele>
        <time>2016-06-18T12:53:02Z</time>
      </trkpt>
      <trkpt lat="46.439715" lon="14.370291">
        <ele>1924.3565995392</ele>
        <time>2016-06-18T12:53:11Z</time>
      </trkpt>
      <trkpt lat="46.439706" lon="14.370216">
        <ele>1925.3965868928</ele>
        <time>2016-06-18T12:53:22Z</time>
      </trkpt>
      <trkpt lat="46.439705" lon="14.370123">
        <ele>1926.176577408</ele>
        <time>2016-06-18T12:53:33Z</time>
      </trkpt>
      <trkpt lat="46.439698" lon="14.370050">
        <ele>1927.2665641536</ele>
        <time>2016-06-18T12:53:42Z</time>
      </trkpt>
      <trkpt lat="46.439684" lon="14.369977">
        <ele>1927.8065575872</ele>
        <time>2016-06-18T12:53:50Z</time>
      </trkpt>
      <trkpt lat="46.439658" lon="14.369865">
        <ele>1928.6165477376</ele>
        <time>2016-06-18T12:54:01Z</time>
      </trkpt>
      <trkpt lat="46.439629" lon="14.369746">
        <ele>1929.4965370368</ele>
        <time>2016-06-18T12:54:13Z</time>
      </trkpt>
      <trkpt lat="46.439602" lon="14.369640">
        <ele>1929.9565314432</ele>
        <time>2016-06-18T12:54:25Z</time>
      </trkpt>
      <trkpt lat="46.439586" lon="14.369564">
        <ele>1930.5865237824</ele>
        <time>2016-06-18T12:54:35Z</time>
      </trkpt>
      <trkpt lat="46.439563" lon="14.369484">
        <ele>1930.9165197696</ele>
        <time>2016-06-18T12:54:43Z</time>
      </trkpt>
      <trkpt lat="46.439535" lon="14.369394">
        <ele>1930.9465194048</ele>
        <time>2016-06-18T12:54:52Z</time>
      </trkpt>
      <trkpt lat="46.439515" lon="14.369292">
        <ele>1931.9665070016</ele>
        <time>2016-06-18T12:55:03Z</time>
      </trkpt>
      <trkpt lat="46.439495" lon="14.369222">
        <ele>1932.9364952064</ele>
        <time>2016-06-18T12:55:14Z</time>
      </trkpt>
      <trkpt lat="46.439475" lon="14.369176">
        <ele>1933.0064943552</ele>
        <time>2016-06-18T12:55:18Z</time>
      </trkpt>
      <trkpt lat="46.439433" lon="14.369080">
        <ele>1933.0164942336</ele>
        <time>2016-06-18T12:55:27Z</time>
      </trkpt>
      <trkpt lat="46.439415" lon="14.369030">
        <ele>1933.3864897344</ele>
        <time>2016-06-18T12:55:34Z</time>
      </trkpt>
      <trkpt lat="46.439383" lon="14.368967">
        <ele>1933.1464926528</ele>
        <time>2016-06-18T12:55:44Z</time>
      </trkpt>
      <trkpt lat="46.439348" lon="14.368863">
        <ele>1932.926495328</ele>
        <time>2016-06-18T12:55:53Z</time>
      </trkpt>
      <trkpt lat="46.439307" lon="14.368746">
        <ele>1932.8964956928</ele>
        <time>2016-06-18T12:56:04Z</time>
      </trkpt>
      <trkpt lat="46.439284" lon="14.368654">
        <ele>1933.376489856</ele>
        <time>2016-06-18T12:56:13Z</time>
      </trkpt>
      <trkpt lat="46.439257" lon="14.368566">
        <ele>1933.6464865728</ele>
        <time>2016-06-18T12:56:20Z</time>
      </trkpt>
      <trkpt lat="46.439224" lon="14.368489">
        <ele>1933.6064870592</ele>
        <time>2016-06-18T12:56:31Z</time>
      </trkpt>
      <trkpt lat="46.439204" lon="14.368415">
        <ele>1933.2464914368</ele>
        <time>2016-06-18T12:56:39Z</time>
      </trkpt>
      <trkpt lat="46.439163" lon="14.368321">
        <ele>1933.1364927744</ele>
        <time>2016-06-18T12:56:47Z</time>
      </trkpt>
      <trkpt lat="46.439119" lon="14.368220">
        <ele>1933.9664826816</ele>
        <time>2016-06-18T12:56:59Z</time>
      </trkpt>
      <trkpt lat="46.439083" lon="14.368135">
        <ele>1934.3364781824</ele>
        <time>2016-06-18T12:57:09Z</time>
      </trkpt>
      <trkpt lat="46.439053" lon="14.368055">
        <ele>1934.526475872</ele>
        <time>2016-06-18T12:57:18Z</time>
      </trkpt>
      <trkpt lat="46.439013" lon="14.367993">
        <ele>1934.7464731968</ele>
        <time>2016-06-18T12:57:29Z</time>
      </trkpt>
      <trkpt lat="46.438970" lon="14.367935">
        <ele>1934.3164784256</ele>
        <time>2016-06-18T12:57:36Z</time>
      </trkpt>
      <trkpt lat="46.438918" lon="14.367858">
        <ele>1934.6864739264</ele>
        <time>2016-06-18T12:57:45Z</time>
      </trkpt>
      <trkpt lat="46.438873" lon="14.367823">
        <ele>1935.4164650496</ele>
        <time>2016-06-18T12:57:53Z</time>
      </trkpt>
      <trkpt lat="46.438849" lon="14.367807">
        <ele>1935.7664607936</ele>
        <time>2016-06-18T12:58:05Z</time>
      </trkpt>
      <trkpt lat="46.438808" lon="14.367753">
        <ele>1935.4164650496</ele>
        <time>2016-06-18T12:58:12Z</time>
      </trkpt>
      <trkpt lat="46.438780" lon="14.367699">
        <ele>1934.5064761152</ele>
        <time>2016-06-18T12:58:24Z</time>
      </trkpt>
      <trkpt lat="46.438770" lon="14.367697">
        <ele>1934.5664753856</ele>
        <time>2016-06-18T12:58:36Z</time>
      </trkpt>
      <trkpt lat="46.438742" lon="14.367684">
        <ele>1934.8364721024</ele>
        <time>2016-06-18T12:58:53Z</time>
      </trkpt>
      <trkpt lat="46.438709" lon="14.367641">
        <ele>1934.7164735616</ele>
        <time>2016-06-18T12:59:01Z</time>
      </trkpt>
      <trkpt lat="46.438700" lon="14.367587">
        <ele>1936.426452768</ele>
        <time>2016-06-18T12:59:13Z</time>
      </trkpt>
      <trkpt lat="46.438691" lon="14.367565">
        <ele>1937.7464367168</ele>
        <time>2016-06-18T12:59:25Z</time>
      </trkpt>
      <trkpt lat="46.438691" lon="14.367535">
        <ele>1938.6064262592</ele>
        <time>2016-06-18T12:59:34Z</time>
      </trkpt>
      <trkpt lat="46.438697" lon="14.367511">
        <ele>1939.8364113024</ele>
        <time>2016-06-18T12:59:45Z</time>
      </trkpt>
      <trkpt lat="46.438716" lon="14.367477">
        <ele>1940.626401696</ele>
        <time>2016-06-18T12:59:56Z</time>
      </trkpt>
      <trkpt lat="46.438727" lon="14.367458">
        <ele>1941.5163908736</ele>
        <time>2016-06-18T13:00:04Z</time>
      </trkpt>
      <trkpt lat="46.438732" lon="14.367430">
        <ele>1943.3563684992</ele>
        <time>2016-06-18T13:00:16Z</time>
      </trkpt>
      <trkpt lat="46.438740" lon="14.367401">
        <ele>1944.576353664</ele>
        <time>2016-06-18T13:00:30Z</time>
      </trkpt>
      <trkpt lat="46.438748" lon="14.367362">
        <ele>1946.276332992</ele>
        <time>2016-06-18T13:00:39Z</time>
      </trkpt>
      <trkpt lat="46.438730" lon="14.367320">
        <ele>1948.9163008896</ele>
        <time>2016-06-18T13:00:50Z</time>
      </trkpt>
      <trkpt lat="46.438723" lon="14.367257">
        <ele>1950.5962804608</ele>
        <time>2016-06-18T13:01:02Z</time>
      </trkpt>
      <trkpt lat="46.438711" lon="14.367230">
        <ele>1951.776266112</ele>
        <time>2016-06-18T13:01:12Z</time>
      </trkpt>
      <trkpt lat="46.438691" lon="14.367145">
        <ele>1953.4862453184</ele>
        <time>2016-06-18T13:01:21Z</time>
      </trkpt>
      <trkpt lat="46.438676" lon="14.367058">
        <ele>1955.6162194176</ele>
        <time>2016-06-18T13:01:33Z</time>
      </trkpt>
      <trkpt lat="46.438682" lon="14.367050">
        <ele>1957.4361972864</ele>
        <time>2016-06-18T13:01:45Z</time>
      </trkpt>
      <trkpt lat="46.438685" lon="14.367066">
        <ele>1957.4861966784</ele>
        <time>2016-06-18T13:02:00Z</time>
      </trkpt>
      <trkpt lat="46.438686" lon="14.367075">
        <ele>1957.3561982592</ele>
        <time>2016-06-18T13:02:11Z</time>
      </trkpt>
      <trkpt lat="46.438693" lon="14.367049">
        <ele>1957.676194368</ele>
        <time>2016-06-18T13:02:23Z</time>
      </trkpt>
      <trkpt lat="46.438650" lon="14.366964">
        <ele>1958.8661798976</ele>
        <time>2016-06-18T13:02:34Z</time>
      </trkpt>
      <trkpt lat="46.438635" lon="14.366932">
        <ele>1959.0161780736</ele>
        <time>2016-06-18T13:02:37Z</time>
      </trkpt>
      <trkpt lat="46.438614" lon="14.366876">
        <ele>1959.176176128</ele>
        <time>2016-06-18T13:02:41Z</time>
      </trkpt>
      <trkpt lat="46.438586" lon="14.366744">
        <ele>1960.3361620224</ele>
        <time>2016-06-18T13:02:51Z</time>
      </trkpt>
      <trkpt lat="46.438570" lon="14.366644">
        <ele>1961.9961418368</ele>
        <time>2016-06-18T13:03:01Z</time>
      </trkpt>
      <trkpt lat="46.438562" lon="14.366505">
        <ele>1963.4161245696</ele>
        <time>2016-06-18T13:03:13Z</time>
      </trkpt>
      <trkpt lat="46.438556" lon="14.366375">
        <ele>1965.1861030464</ele>
        <time>2016-06-18T13:03:24Z</time>
      </trkpt>
      <trkpt lat="46.438562" lon="14.366345">
        <ele>1966.776083712</ele>
        <time>2016-06-18T13:03:32Z</time>
      </trkpt>
      <trkpt lat="46.438570" lon="14.366340">
        <ele>1967.2160783616</ele>
        <time>2016-06-18T13:03:44Z</time>
      </trkpt>
      <trkpt lat="46.438568" lon="14.366347">
        <ele>1967.126079456</ele>
        <time>2016-06-18T13:04:03Z</time>
      </trkpt>
      <trkpt lat="46.438567" lon="14.366299">
        <ele>1967.626073376</ele>
        <time>2016-06-18T13:04:15Z</time>
      </trkpt>
      <trkpt lat="46.438585" lon="14.366192">
        <ele>1968.7860592704</ele>
        <time>2016-06-18T13:04:26Z</time>
      </trkpt>
      <trkpt lat="46.438600" lon="14.366090">
        <ele>1971.3160285056</ele>
        <time>2016-06-18T13:04:38Z</time>
      </trkpt>
      <trkpt lat="46.438616" lon="14.366007">
        <ele>1973.6060006592</ele>
        <time>2016-06-18T13:04:49Z</time>
      </trkpt>
      <trkpt lat="46.438622" lon="14.365975">
        <ele>1975.3859790144</ele>
        <time>2016-06-18T13:04:57Z</time>
      </trkpt>
      <trkpt lat="46.438622" lon="14.365971">
        <ele>1975.9459722048</ele>
        <time>2016-06-18T13:05:17Z</time>
      </trkpt>
      <trkpt lat="46.438619" lon="14.365959">
        <ele>1976.2659683136</ele>
        <time>2016-06-18T13:05:32Z</time>
      </trkpt>
      <trkpt lat="46.438618" lon="14.365926">
        <ele>1976.7559623552</ele>
        <time>2016-06-18T13:05:43Z</time>
      </trkpt>
      <trkpt lat="46.438638" lon="14.365879">
        <ele>1978.47594144</ele>
        <time>2016-06-18T13:05:51Z</time>
      </trkpt>
      <trkpt lat="46.438676" lon="14.365828">
        <ele>1981.0459101888</ele>
        <time>2016-06-18T13:06:03Z</time>
      </trkpt>
      <trkpt lat="46.438703" lon="14.365798">
        <ele>1983.4658807616</ele>
        <time>2016-06-18T13:06:11Z</time>
      </trkpt>
      <trkpt lat="46.438725" lon="14.365764">
        <ele>1985.7358531584</ele>
        <time>2016-06-18T13:06:22Z</time>
      </trkpt>
      <trkpt lat="46.438721" lon="14.365764">
        <ele>1986.3958451328</ele>
        <time>2016-06-18T13:06:34Z</time>
      </trkpt>
      <trkpt lat="46.438746" lon="14.365749">
        <ele>1986.425844768</ele>
        <time>2016-06-18T13:06:45Z</time>
      </trkpt>
      <trkpt lat="46.438771" lon="14.365732">
        <ele>1987.625830176</ele>
        <time>2016-06-18T13:06:56Z</time>
      </trkpt>
      <trkpt lat="46.438768" lon="14.365690">
        <ele>1989.325809504</ele>
        <time>2016-06-18T13:07:04Z</time>
      </trkpt>
      <trkpt lat="46.438756" lon="14.365678">
        <ele>1990.4957952768</ele>
        <time>2016-06-18T13:07:13Z</time>
      </trkpt>
      <trkpt lat="46.438750" lon="14.365668">
        <ele>1990.6957928448</ele>
        <time>2016-06-18T13:07:26Z</time>
      </trkpt>
      <trkpt lat="46.438747" lon="14.365664">
        <ele>1990.775791872</ele>
        <time>2016-06-18T13:07:36Z</time>
      </trkpt>
      <trkpt lat="46.438737" lon="14.365660">
        <ele>1990.5557945472</ele>
        <time>2016-06-18T13:07:58Z</time>
      </trkpt>
      <trkpt lat="46.438733" lon="14.365660">
        <ele>1990.625793696</ele>
        <time>2016-06-18T13:08:10Z</time>
      </trkpt>
      <trkpt lat="46.438732" lon="14.365668">
        <ele>1990.7157926016</ele>
        <time>2016-06-18T13:08:25Z</time>
      </trkpt>
      <trkpt lat="46.438733" lon="14.365661">
        <ele>1991.0957879808</ele>
        <time>2016-06-18T13:08:40Z</time>
      </trkpt>
      <trkpt lat="46.438736" lon="14.365647">
        <ele>1991.1357874944</ele>
        <time>2016-06-18T13:08:55Z</time>
      </trkpt>
      <trkpt lat="46.438739" lon="14.365654">
        <ele>1990.9157901696</ele>
        <time>2016-06-18T13:09:15Z</time>
      </trkpt>
      <trkpt lat="46.438733" lon="14.365664">
        <ele>1990.9957891968</ele>
        <time>2016-06-18T13:09:27Z</time>
      </trkpt>
      <trkpt lat="46.438730" lon="14.365662">
        <ele>1991.3657846976</ele>
        <time>2016-06-18T13:09:43Z</time>
      </trkpt>
      <trkpt lat="46.438731" lon="14.365665">
        <ele>1991.4057842112</ele>
        <time>2016-06-18T13:09:57Z</time>
      </trkpt>
      <trkpt lat="46.438732" lon="14.365668">
        <ele>1991.175787008</ele>
        <time>2016-06-18T13:10:13Z</time>
      </trkpt>
      <trkpt lat="46.438733" lon="14.365662">
        <ele>1991.125787616</ele>
        <time>2016-06-18T13:10:30Z</time>
      </trkpt>
      <trkpt lat="46.438733" lon="14.365668">
        <ele>1990.9957891968</ele>
        <time>2016-06-18T13:10:47Z</time>
      </trkpt>
      <trkpt lat="46.438734" lon="14.365668">
        <ele>1991.0957879808</ele>
        <time>2016-06-18T13:11:04Z</time>
      </trkpt>
      <trkpt lat="46.438725" lon="14.365672">
        <ele>1991.5557823872</ele>
        <time>2016-06-18T13:11:20Z</time>
      </trkpt>
      <trkpt lat="46.438729" lon="14.365667">
        <ele>1991.1557872512</ele>
        <time>2016-06-18T13:11:41Z</time>
      </trkpt>
      <trkpt lat="46.438742" lon="14.365658">
        <ele>1990.9057902912</ele>
        <time>2016-06-18T13:11:58Z</time>
      </trkpt>
      <trkpt lat="46.438735" lon="14.365666">
        <ele>1990.9957891968</ele>
        <time>2016-06-18T13:12:12Z</time>
      </trkpt>
      <trkpt lat="46.438734" lon="14.365673">
        <ele>1990.6157938176</ele>
        <time>2016-06-18T13:12:21Z</time>
      </trkpt>
      <trkpt lat="46.438728" lon="14.365685">
        <ele>1990.5857941824</ele>
        <time>2016-06-18T13:12:32Z</time>
      </trkpt>
      <trkpt lat="46.438726" lon="14.365691">
        <ele>1990.6457934528</ele>
        <time>2016-06-18T13:12:44Z</time>
      </trkpt>
      <trkpt lat="46.438720" lon="14.365692">
        <ele>1990.9557896832</ele>
        <time>2016-06-18T13:13:02Z</time>
      </trkpt>
      <trkpt lat="46.438714" lon="14.365678">
        <ele>1991.075788224</ele>
        <time>2016-06-18T13:13:25Z</time>
      </trkpt>
      <trkpt lat="46.438716" lon="14.365674">
        <ele>1991.5957819008</ele>
        <time>2016-06-18T13:13:46Z</time>
      </trkpt>
      <trkpt lat="46.438720" lon="14.365672">
        <ele>1991.1657871296</ele>
        <time>2016-06-18T13:14:05Z</time>
      </trkpt>
      <trkpt lat="46.438716" lon="14.365687">
        <ele>1991.9457776448</ele>
        <time>2016-06-18T13:14:25Z</time>
      </trkpt>
      <trkpt lat="46.438713" lon="14.365687">
        <ele>1991.375784576</ele>
        <time>2016-06-18T13:14:40Z</time>
      </trkpt>
      <trkpt lat="46.438710" lon="14.365682">
        <ele>1991.3657846976</ele>
        <time>2016-06-18T13:14:59Z</time>
      </trkpt>
      <trkpt lat="46.438711" lon="14.365690">
        <ele>1991.2257864</ele>
        <time>2016-06-18T13:15:14Z</time>
      </trkpt>
      <trkpt lat="46.438715" lon="14.365704">
        <ele>1991.3557848192</ele>
        <time>2016-06-18T13:15:38Z</time>
      </trkpt>
      <trkpt lat="46.438718" lon="14.365704">
        <ele>1991.6457812928</ele>
        <time>2016-06-18T13:15:59Z</time>
      </trkpt>
      <trkpt lat="46.438719" lon="14.365702">
        <ele>1991.7957794688</ele>
        <time>2016-06-18T13:16:16Z</time>
      </trkpt>
      <trkpt lat="46.438721" lon="14.365695">
        <ele>1991.8357789824</ele>
        <time>2016-06-18T13:16:34Z</time>
      </trkpt>
      <trkpt lat="46.438720" lon="14.365695">
        <ele>1991.5657822656</ele>
        <time>2016-06-18T13:16:55Z</time>
      </trkpt>
      <trkpt lat="46.438705" lon="14.365706">
        <ele>1991.9457776448</ele>
        <time>2016-06-18T13:17:11Z</time>
      </trkpt>
      <trkpt lat="46.438720" lon="14.365703">
        <ele>1991.8157792256</ele>
        <time>2016-06-18T13:17:25Z</time>
      </trkpt>
      <trkpt lat="46.438728" lon="14.365703">
        <ele>1992.025776672</ele>
        <time>2016-06-18T13:17:44Z</time>
      </trkpt>
      <trkpt lat="46.438731" lon="14.365704">
        <ele>1992.1157755776</ele>
        <time>2016-06-18T13:17:56Z</time>
      </trkpt>
      <trkpt lat="46.438733" lon="14.365704">
        <ele>1992.075776064</ele>
        <time>2016-06-18T13:18:09Z</time>
      </trkpt>
      <trkpt lat="46.438725" lon="14.365704">
        <ele>1992.1557750912</ele>
        <time>2016-06-18T13:18:19Z</time>
      </trkpt>
      <trkpt lat="46.438745" lon="14.365707">
        <ele>1992.025776672</ele>
        <time>2016-06-18T13:18:34Z</time>
      </trkpt>
      <trkpt lat="46.438747" lon="14.365708">
        <ele>1992.3057732672</ele>
        <time>2016-06-18T13:18:45Z</time>
      </trkpt>
      <trkpt lat="46.438750" lon="14.365700">
        <ele>1992.7857674304</ele>
        <time>2016-06-18T13:18:55Z</time>
      </trkpt>
      <trkpt lat="46.438748" lon="14.365706">
        <ele>1992.6657688896</ele>
        <time>2016-06-18T13:19:10Z</time>
      </trkpt>
      <trkpt lat="46.438745" lon="14.365701">
        <ele>1992.5557702272</ele>
        <time>2016-06-18T13:19:21Z</time>
      </trkpt>
      <trkpt lat="46.438747" lon="14.365700">
        <ele>1992.5357704704</ele>
        <time>2016-06-18T13:19:32Z</time>
      </trkpt>
      <trkpt lat="46.438748" lon="14.365692">
        <ele>1992.4057720512</ele>
        <time>2016-06-18T13:19:44Z</time>
      </trkpt>
      <trkpt lat="46.438746" lon="14.365684">
        <ele>1992.2557738752</ele>
        <time>2016-06-18T13:19:56Z</time>
      </trkpt>
      <trkpt lat="46.438745" lon="14.365677">
        <ele>1992.1157755776</ele>
        <time>2016-06-18T13:20:07Z</time>
      </trkpt>
      <trkpt lat="46.438746" lon="14.365683">
        <ele>1992.0857759424</ele>
        <time>2016-06-18T13:20:19Z</time>
      </trkpt>
      <trkpt lat="46.438745" lon="14.365677">
        <ele>1992.1357753344</ele>
        <time>2016-06-18T13:20:31Z</time>
      </trkpt>
      <trkpt lat="46.438747" lon="14.365678">
        <ele>1991.8357789824</ele>
        <time>2016-06-18T13:20:43Z</time>
      </trkpt>
      <trkpt lat="46.438749" lon="14.365677">
        <ele>1991.9157780096</ele>
        <time>2016-06-18T13:20:58Z</time>
      </trkpt>
      <trkpt lat="46.438749" lon="14.365666">
        <ele>1991.8657786176</ele>
        <time>2016-06-18T13:21:08Z</time>
      </trkpt>
      <trkpt lat="46.438747" lon="14.365675">
        <ele>1991.775779712</ele>
        <time>2016-06-18T13:21:20Z</time>
      </trkpt>
      <trkpt lat="46.438744" lon="14.365670">
        <ele>1991.3657846976</ele>
        <time>2016-06-18T13:21:36Z</time>
      </trkpt>
      <trkpt lat="46.438744" lon="14.365667">
        <ele>1991.3157853056</ele>
        <time>2016-06-18T13:21:55Z</time>
      </trkpt>
      <trkpt lat="46.438739" lon="14.365665">
        <ele>1991.3857844544</ele>
        <time>2016-06-18T13:22:08Z</time>
      </trkpt>
      <trkpt lat="46.438736" lon="14.365670">
        <ele>1991.775779712</ele>
        <time>2016-06-18T13:22:18Z</time>
      </trkpt>
      <trkpt lat="46.438739" lon="14.365672">
        <ele>1991.6457812928</ele>
        <time>2016-06-18T13:22:29Z</time>
      </trkpt>
      <trkpt lat="46.438736" lon="14.365679">
        <ele>1991.5657822656</ele>
        <time>2016-06-18T13:22:38Z</time>
      </trkpt>
      <trkpt lat="46.438745" lon="14.365686">
        <ele>1991.6057817792</ele>
        <time>2016-06-18T13:22:49Z</time>
      </trkpt>
      <trkpt lat="46.438746" lon="14.365691">
        <ele>1991.8157792256</ele>
        <time>2016-06-18T13:23:00Z</time>
      </trkpt>
      <trkpt lat="46.438745" lon="14.365695">
        <ele>1991.9657774016</ele>
        <time>2016-06-18T13:23:09Z</time>
      </trkpt>
      <trkpt lat="46.438754" lon="14.365704">
        <ele>1992.1157755776</ele>
        <time>2016-06-18T13:23:20Z</time>
      </trkpt>
      <trkpt lat="46.438764" lon="14.365680">
        <ele>1992.075776064</ele>
        <time>2016-06-18T13:23:31Z</time>
      </trkpt>
      <trkpt lat="46.438772" lon="14.365676">
        <ele>1992.0557763072</ele>
        <time>2016-06-18T13:23:40Z</time>
      </trkpt>
      <trkpt lat="46.438760" lon="14.365685">
        <ele>1992.1357753344</ele>
        <time>2016-06-18T13:23:54Z</time>
      </trkpt>
      <trkpt lat="46.438742" lon="14.365695">
        <ele>1991.7357801984</ele>
        <time>2016-06-18T13:24:07Z</time>
      </trkpt>
      <trkpt lat="46.438727" lon="14.365729">
        <ele>1991.1957867648</ele>
        <time>2016-06-18T13:24:18Z</time>
      </trkpt>
      <trkpt lat="46.438724" lon="14.365749">
        <ele>1990.7557921152</ele>
        <time>2016-06-18T13:24:25Z</time>
      </trkpt>
      <trkpt lat="46.438720" lon="14.365777">
        <ele>1990.075800384</ele>
        <time>2016-06-18T13:24:33Z</time>
      </trkpt>
      <trkpt lat="46.438694" lon="14.365814">
        <ele>1988.5558188672</ele>
        <time>2016-06-18T13:24:44Z</time>
      </trkpt>
      <trkpt lat="46.438673" lon="14.365838">
        <ele>1987.0858367424</ele>
        <time>2016-06-18T13:24:53Z</time>
      </trkpt>
      <trkpt lat="46.438662" lon="14.365856">
        <ele>1985.5658552256</ele>
        <time>2016-06-18T13:25:01Z</time>
      </trkpt>
      <trkpt lat="46.438637" lon="14.365879">
        <ele>1983.9558748032</ele>
        <time>2016-06-18T13:25:08Z</time>
      </trkpt>
      <trkpt lat="46.438617" lon="14.365922">
        <ele>1982.6958901248</ele>
        <time>2016-06-18T13:25:16Z</time>
      </trkpt>
      <trkpt lat="46.438597" lon="14.365947">
        <ele>1980.2459199168</ele>
        <time>2016-06-18T13:25:26Z</time>
      </trkpt>
      <trkpt lat="46.438583" lon="14.365978">
        <ele>1979.3959302528</ele>
        <time>2016-06-18T13:25:32Z</time>
      </trkpt>
      <trkpt lat="46.438577" lon="14.366019">
        <ele>1978.125945696</ele>
        <time>2016-06-18T13:25:42Z</time>
      </trkpt>
      <trkpt lat="46.438569" lon="14.366043">
        <ele>1976.9059605312</ele>
        <time>2016-06-18T13:25:46Z</time>
      </trkpt>
      <trkpt lat="46.438565" lon="14.366121">
        <ele>1975.1359820544</ele>
        <time>2016-06-18T13:25:54Z</time>
      </trkpt>
      <trkpt lat="46.438559" lon="14.366186">
        <ele>1973.4360027264</ele>
        <time>2016-06-18T13:26:02Z</time>
      </trkpt>
      <trkpt lat="46.438554" lon="14.366265">
        <ele>1971.2460293568</ele>
        <time>2016-06-18T13:26:10Z</time>
      </trkpt>
      <trkpt lat="46.438558" lon="14.366350">
        <ele>1969.676048448</ele>
        <time>2016-06-18T13:26:18Z</time>
      </trkpt>
      <trkpt lat="46.438569" lon="14.366434">
        <ele>1968.2560657152</ele>
        <time>2016-06-18T13:26:28Z</time>
      </trkpt>
      <trkpt lat="46.438575" lon="14.366515">
        <ele>1966.47608736</ele>
        <time>2016-06-18T13:26:36Z</time>
      </trkpt>
      <trkpt lat="46.438597" lon="14.366618">
        <ele>1965.5360987904</ele>
        <time>2016-06-18T13:26:45Z</time>
      </trkpt>
      <trkpt lat="46.438608" lon="14.366702">
        <ele>1963.526123232</ele>
        <time>2016-06-18T13:26:55Z</time>
      </trkpt>
      <trkpt lat="46.438644" lon="14.366818">
        <ele>1962.7861322304</ele>
        <time>2016-06-18T13:27:04Z</time>
      </trkpt>
      <trkpt lat="46.438686" lon="14.366898">
        <ele>1962.1961394048</ele>
        <time>2016-06-18T13:27:12Z</time>
      </trkpt>
      <trkpt lat="46.438694" lon="14.366931">
        <ele>1961.6561459712</ele>
        <time>2016-06-18T13:27:19Z</time>
      </trkpt>
      <trkpt lat="46.438699" lon="14.366983">
        <ele>1960.4461606848</ele>
        <time>2016-06-18T13:27:30Z</time>
      </trkpt>
      <trkpt lat="46.438701" lon="14.367027">
        <ele>1958.926179168</ele>
        <time>2016-06-18T13:27:36Z</time>
      </trkpt>
      <trkpt lat="46.438719" lon="14.367113">
        <ele>1957.1162011776</ele>
        <time>2016-06-18T13:27:46Z</time>
      </trkpt>
      <trkpt lat="46.438731" lon="14.367176">
        <ele>1955.5462202688</ele>
        <time>2016-06-18T13:27:54Z</time>
      </trkpt>
      <trkpt lat="46.438743" lon="14.367212">
        <ele>1954.6062316992</ele>
        <time>2016-06-18T13:28:02Z</time>
      </trkpt>
      <trkpt lat="46.438744" lon="14.367232">
        <ele>1952.7662540736</ele>
        <time>2016-06-18T13:28:10Z</time>
      </trkpt>
      <trkpt lat="46.438744" lon="14.367276">
        <ele>1951.5062693952</ele>
        <time>2016-06-18T13:28:17Z</time>
      </trkpt>
      <trkpt lat="46.438757" lon="14.367327">
        <ele>1950.376283136</ele>
        <time>2016-06-18T13:28:26Z</time>
      </trkpt>
      <trkpt lat="46.438716" lon="14.367380">
        <ele>1948.176309888</ele>
        <time>2016-06-18T13:28:37Z</time>
      </trkpt>
      <trkpt lat="46.438718" lon="14.367414">
        <ele>1946.9663246016</ele>
        <time>2016-06-18T13:28:44Z</time>
      </trkpt>
      <trkpt lat="46.438733" lon="14.367438">
        <ele>1945.6963400448</ele>
        <time>2016-06-18T13:28:52Z</time>
      </trkpt>
      <trkpt lat="46.438724" lon="14.367472">
        <ele>1943.826362784</ele>
        <time>2016-06-18T13:29:00Z</time>
      </trkpt>
      <trkpt lat="46.438724" lon="14.367504">
        <ele>1942.6163774976</ele>
        <time>2016-06-18T13:29:07Z</time>
      </trkpt>
      <trkpt lat="46.438726" lon="14.367528">
        <ele>1941.97638528</ele>
        <time>2016-06-18T13:29:14Z</time>
      </trkpt>
      <trkpt lat="46.438715" lon="14.367558">
        <ele>1940.1164078976</ele>
        <time>2016-06-18T13:29:23Z</time>
      </trkpt>
      <trkpt lat="46.438736" lon="14.367600">
        <ele>1939.376416896</ele>
        <time>2016-06-18T13:29:31Z</time>
      </trkpt>
      <trkpt lat="46.438766" lon="14.367663">
        <ele>1938.0464330688</ele>
        <time>2016-06-18T13:29:39Z</time>
      </trkpt>
      <trkpt lat="46.438774" lon="14.367686">
        <ele>1937.3864410944</ele>
        <time>2016-06-18T13:29:42Z</time>
      </trkpt>
      <trkpt lat="46.438803" lon="14.367764">
        <ele>1935.8164601856</ele>
        <time>2016-06-18T13:29:51Z</time>
      </trkpt>
      <trkpt lat="46.438827" lon="14.367819">
        <ele>1935.8164601856</ele>
        <time>2016-06-18T13:30:00Z</time>
      </trkpt>
      <trkpt lat="46.438844" lon="14.367876">
        <ele>1934.1464804928</ele>
        <time>2016-06-18T13:30:08Z</time>
      </trkpt>
      <trkpt lat="46.438847" lon="14.367909">
        <ele>1932.8664960576</ele>
        <time>2016-06-18T13:30:17Z</time>
      </trkpt>
      <trkpt lat="46.438851" lon="14.367979">
        <ele>1930.9565192832</ele>
        <time>2016-06-18T13:30:25Z</time>
      </trkpt>
      <trkpt lat="46.438859" lon="14.368023">
        <ele>1929.72653424</ele>
        <time>2016-06-18T13:30:36Z</time>
      </trkpt>
      <trkpt lat="46.438845" lon="14.368092">
        <ele>1927.626559776</ele>
        <time>2016-06-18T13:30:44Z</time>
      </trkpt>
      <trkpt lat="46.438818" lon="14.368142">
        <ele>1924.9365924864</ele>
        <time>2016-06-18T13:30:52Z</time>
      </trkpt>
      <trkpt lat="46.438802" lon="14.368199">
        <ele>1922.3666237376</ele>
        <time>2016-06-18T13:30:59Z</time>
      </trkpt>
      <trkpt lat="46.438784" lon="14.368253">
        <ele>1920.2866490304</ele>
        <time>2016-06-18T13:31:07Z</time>
      </trkpt>
      <trkpt lat="46.438784" lon="14.368353">
        <ele>1917.676680768</ele>
        <time>2016-06-18T13:31:15Z</time>
      </trkpt>
      <trkpt lat="46.438763" lon="14.368417">
        <ele>1915.376708736</ele>
        <time>2016-06-18T13:31:22Z</time>
      </trkpt>
      <trkpt lat="46.438745" lon="14.368466">
        <ele>1912.1367481344</ele>
        <time>2016-06-18T13:31:31Z</time>
      </trkpt>
      <trkpt lat="46.438734" lon="14.368524">
        <ele>1909.5867791424</ele>
        <time>2016-06-18T13:31:38Z</time>
      </trkpt>
      <trkpt lat="46.438729" lon="14.368553">
        <ele>1908.776788992</ele>
        <time>2016-06-18T13:31:46Z</time>
      </trkpt>
      <trkpt lat="46.438709" lon="14.368612">
        <ele>1907.376806016</ele>
        <time>2016-06-18T13:31:54Z</time>
      </trkpt>
      <trkpt lat="46.438694" lon="14.368691">
        <ele>1904.126845536</ele>
        <time>2016-06-18T13:32:04Z</time>
      </trkpt>
      <trkpt lat="46.438674" lon="14.368752">
        <ele>1900.6568877312</ele>
        <time>2016-06-18T13:32:12Z</time>
      </trkpt>
      <trkpt lat="46.438647" lon="14.368826">
        <ele>1898.2369171584</ele>
        <time>2016-06-18T13:32:20Z</time>
      </trkpt>
      <trkpt lat="46.438618" lon="14.368882">
        <ele>1895.6069491392</ele>
        <time>2016-06-18T13:32:28Z</time>
      </trkpt>
      <trkpt lat="46.438606" lon="14.368919">
        <ele>1894.0069685952</ele>
        <time>2016-06-18T13:32:36Z</time>
      </trkpt>
      <trkpt lat="46.438585" lon="14.368955">
        <ele>1892.1169915776</ele>
        <time>2016-06-18T13:32:43Z</time>
      </trkpt>
      <trkpt lat="46.438566" lon="14.368967">
        <ele>1891.3870004544</ele>
        <time>2016-06-18T13:32:51Z</time>
      </trkpt>
      <trkpt lat="46.438560" lon="14.368980">
        <ele>1891.8669946176</ele>
        <time>2016-06-18T13:33:07Z</time>
      </trkpt>
      <trkpt lat="46.438561" lon="14.368975">
        <ele>1891.7669958336</ele>
        <time>2016-06-18T13:33:26Z</time>
      </trkpt>
      <trkpt lat="46.438552" lon="14.368985">
        <ele>1891.8869943744</ele>
        <time>2016-06-18T13:33:44Z</time>
      </trkpt>
      <trkpt lat="46.438544" lon="14.369027">
        <ele>1890.9070062912</ele>
        <time>2016-06-18T13:33:53Z</time>
      </trkpt>
      <trkpt lat="46.438546" lon="14.369103">
        <ele>1888.7170329216</ele>
        <time>2016-06-18T13:34:01Z</time>
      </trkpt>
      <trkpt lat="46.438546" lon="14.369119">
        <ele>1888.2070391232</ele>
        <time>2016-06-18T13:34:04Z</time>
      </trkpt>
      <trkpt lat="46.438558" lon="14.369164">
        <ele>1886.7570567552</ele>
        <time>2016-06-18T13:34:09Z</time>
      </trkpt>
      <trkpt lat="46.438542" lon="14.369192">
        <ele>1885.9070670912</ele>
        <time>2016-06-18T13:34:16Z</time>
      </trkpt>
      <trkpt lat="46.438531" lon="14.369245">
        <ele>1884.0870892224</ele>
        <time>2016-06-18T13:34:23Z</time>
      </trkpt>
      <trkpt lat="46.438531" lon="14.369294">
        <ele>1882.7471055168</ele>
        <time>2016-06-18T13:34:30Z</time>
      </trkpt>
      <trkpt lat="46.438522" lon="14.369340">
        <ele>1881.0371263104</ele>
        <time>2016-06-18T13:34:36Z</time>
      </trkpt>
      <trkpt lat="46.438520" lon="14.369383">
        <ele>1879.1971486848</ele>
        <time>2016-06-18T13:34:43Z</time>
      </trkpt>
      <trkpt lat="46.438498" lon="14.369428">
        <ele>1877.1671733696</ele>
        <time>2016-06-18T13:34:51Z</time>
      </trkpt>
      <trkpt lat="46.438475" lon="14.369484">
        <ele>1875.3471955008</ele>
        <time>2016-06-18T13:34:58Z</time>
      </trkpt>
      <trkpt lat="46.438443" lon="14.369521">
        <ele>1873.7072154432</ele>
        <time>2016-06-18T13:35:05Z</time>
      </trkpt>
      <trkpt lat="46.438411" lon="14.369564">
        <ele>1872.72722736</ele>
        <time>2016-06-18T13:35:13Z</time>
      </trkpt>
      <trkpt lat="46.438396" lon="14.369633">
        <ele>1871.4072434112</ele>
        <time>2016-06-18T13:35:21Z</time>
      </trkpt>
      <trkpt lat="46.438378" lon="14.369673">
        <ele>1870.22725776</ele>
        <time>2016-06-18T13:35:29Z</time>
      </trkpt>
      <trkpt lat="46.438380" lon="14.369731">
        <ele>1869.7072640832</ele>
        <time>2016-06-18T13:35:37Z</time>
      </trkpt>
      <trkpt lat="46.438354" lon="14.369771">
        <ele>1868.5472781888</ele>
        <time>2016-06-18T13:35:44Z</time>
      </trkpt>
      <trkpt lat="46.438317" lon="14.369829">
        <ele>1866.6473012928</ele>
        <time>2016-06-18T13:35:52Z</time>
      </trkpt>
      <trkpt lat="46.438285" lon="14.369888">
        <ele>1864.72732464</ele>
        <time>2016-06-18T13:36:00Z</time>
      </trkpt>
      <trkpt lat="46.438266" lon="14.369936">
        <ele>1863.6873372864</ele>
        <time>2016-06-18T13:36:05Z</time>
      </trkpt>
      <trkpt lat="46.438266" lon="14.369990">
        <ele>1862.3573534592</ele>
        <time>2016-06-18T13:36:12Z</time>
      </trkpt>
      <trkpt lat="46.438223" lon="14.370037">
        <ele>1860.9073710912</ele>
        <time>2016-06-18T13:36:19Z</time>
      </trkpt>
      <trkpt lat="46.438200" lon="14.370099">
        <ele>1858.9073954112</ele>
        <time>2016-06-18T13:36:27Z</time>
      </trkpt>
      <trkpt lat="46.438195" lon="14.370129">
        <ele>1857.2974149888</ele>
        <time>2016-06-18T13:36:35Z</time>
      </trkpt>
      <trkpt lat="46.438187" lon="14.370155">
        <ele>1855.5874357824</ele>
        <time>2016-06-18T13:36:42Z</time>
      </trkpt>
      <trkpt lat="46.438162" lon="14.370197">
        <ele>1854.4574495232</ele>
        <time>2016-06-18T13:36:50Z</time>
      </trkpt>
      <trkpt lat="46.438154" lon="14.370251">
        <ele>1853.3474630208</ele>
        <time>2016-06-18T13:36:58Z</time>
      </trkpt>
      <trkpt lat="46.438134" lon="14.370299">
        <ele>1851.4874856384</ele>
        <time>2016-06-18T13:37:06Z</time>
      </trkpt>
      <trkpt lat="46.438118" lon="14.370320">
        <ele>1850.3374996224</ele>
        <time>2016-06-18T13:37:17Z</time>
      </trkpt>
      <trkpt lat="46.438102" lon="14.370362">
        <ele>1848.7975183488</ele>
        <time>2016-06-18T13:37:24Z</time>
      </trkpt>
      <trkpt lat="46.438101" lon="14.370385">
        <ele>1847.22753744</ele>
        <time>2016-06-18T13:37:29Z</time>
      </trkpt>
      <trkpt lat="46.438084" lon="14.370410">
        <ele>1845.7875549504</ele>
        <time>2016-06-18T13:37:36Z</time>
      </trkpt>
      <trkpt lat="46.438075" lon="14.370437">
        <ele>1844.327572704</ele>
        <time>2016-06-18T13:37:43Z</time>
      </trkpt>
      <trkpt lat="46.438072" lon="14.370483">
        <ele>1842.1075996992</ele>
        <time>2016-06-18T13:37:52Z</time>
      </trkpt>
      <trkpt lat="46.438071" lon="14.370504">
        <ele>1840.6976168448</ele>
        <time>2016-06-18T13:37:57Z</time>
      </trkpt>
      <trkpt lat="46.438067" lon="14.370524">
        <ele>1839.3676330176</ele>
        <time>2016-06-18T13:38:04Z</time>
      </trkpt>
      <trkpt lat="46.438047" lon="14.370560">
        <ele>1837.9076507712</ele>
        <time>2016-06-18T13:38:11Z</time>
      </trkpt>
      <trkpt lat="46.438060" lon="14.370575">
        <ele>1836.1676719296</ele>
        <time>2016-06-18T13:38:20Z</time>
      </trkpt>
      <trkpt lat="46.438063" lon="14.370622">
        <ele>1835.3876814144</ele>
        <time>2016-06-18T13:38:27Z</time>
      </trkpt>
      <trkpt lat="46.438018" lon="14.370653">
        <ele>1833.5377039104</ele>
        <time>2016-06-18T13:38:37Z</time>
      </trkpt>
      <trkpt lat="46.437965" lon="14.370650">
        <ele>1831.0177345536</ele>
        <time>2016-06-18T13:38:46Z</time>
      </trkpt>
      <trkpt lat="46.437937" lon="14.370641">
        <ele>1829.0677582656</ele>
        <time>2016-06-18T13:38:54Z</time>
      </trkpt>
      <trkpt lat="46.437929" lon="14.370635">
        <ele>1827.8677728576</ele>
        <time>2016-06-18T13:39:00Z</time>
      </trkpt>
      <trkpt lat="46.437901" lon="14.370651">
        <ele>1826.0377951104</ele>
        <time>2016-06-18T13:39:10Z</time>
      </trkpt>
      <trkpt lat="46.437876" lon="14.370661">
        <ele>1823.7878224704</ele>
        <time>2016-06-18T13:39:18Z</time>
      </trkpt>
      <trkpt lat="46.437854" lon="14.370680">
        <ele>1821.7878467904</ele>
        <time>2016-06-18T13:39:28Z</time>
      </trkpt>
      <trkpt lat="46.437836" lon="14.370696">
        <ele>1820.0878674624</ele>
        <time>2016-06-18T13:39:36Z</time>
      </trkpt>
      <trkpt lat="46.437806" lon="14.370723">
        <ele>1818.0578921472</ele>
        <time>2016-06-18T13:39:44Z</time>
      </trkpt>
      <trkpt lat="46.437801" lon="14.370737">
        <ele>1816.6879088064</ele>
        <time>2016-06-18T13:39:51Z</time>
      </trkpt>
      <trkpt lat="46.437774" lon="14.370767">
        <ele>1815.027928992</ele>
        <time>2016-06-18T13:40:03Z</time>
      </trkpt>
      <trkpt lat="46.437755" lon="14.370724">
        <ele>1814.0979403008</ele>
        <time>2016-06-18T13:40:08Z</time>
      </trkpt>
      <trkpt lat="46.437690" lon="14.370725">
        <ele>1812.0579651072</ele>
        <time>2016-06-18T13:40:18Z</time>
      </trkpt>
      <trkpt lat="46.437644" lon="14.370801">
        <ele>1808.628006816</ele>
        <time>2016-06-18T13:40:26Z</time>
      </trkpt>
      <trkpt lat="46.437578" lon="14.370843">
        <ele>1805.6380431744</ele>
        <time>2016-06-18T13:40:34Z</time>
      </trkpt>
      <trkpt lat="46.437536" lon="14.370905">
        <ele>1802.378082816</ele>
        <time>2016-06-18T13:40:41Z</time>
      </trkpt>
      <trkpt lat="46.437500" lon="14.370963">
        <ele>1799.378119296</ele>
        <time>2016-06-18T13:40:46Z</time>
      </trkpt>
      <trkpt lat="46.437500" lon="14.371012">
        <ele>1795.9981603968</ele>
        <time>2016-06-18T13:40:53Z</time>
      </trkpt>
      <trkpt lat="46.437513" lon="14.371066">
        <ele>1793.47819104</ele>
        <time>2016-06-18T13:41:00Z</time>
      </trkpt>
      <trkpt lat="46.437516" lon="14.371084">
        <ele>1791.328217184</ele>
        <time>2016-06-18T13:41:06Z</time>
      </trkpt>
      <trkpt lat="46.437492" lon="14.371104">
        <ele>1791.028220832</ele>
        <time>2016-06-18T13:41:17Z</time>
      </trkpt>
      <trkpt lat="46.437490" lon="14.371139">
        <ele>1790.4182282496</ele>
        <time>2016-06-18T13:41:27Z</time>
      </trkpt>
      <trkpt lat="46.437444" lon="14.371198">
        <ele>1787.828259744</ele>
        <time>2016-06-18T13:41:36Z</time>
      </trkpt>
      <trkpt lat="46.437401" lon="14.371249">
        <ele>1784.72829744</ele>
        <time>2016-06-18T13:41:46Z</time>
      </trkpt>
      <trkpt lat="46.437379" lon="14.371280">
        <ele>1782.9983184768</ele>
        <time>2016-06-18T13:41:51Z</time>
      </trkpt>
      <trkpt lat="46.437321" lon="14.371315">
        <ele>1780.128353376</ele>
        <time>2016-06-18T13:42:02Z</time>
      </trkpt>
      <trkpt lat="46.437262" lon="14.371338">
        <ele>1776.8583931392</ele>
        <time>2016-06-18T13:42:10Z</time>
      </trkpt>
      <trkpt lat="46.437197" lon="14.371356">
        <ele>1773.5384335104</ele>
        <time>2016-06-18T13:42:18Z</time>
      </trkpt>
      <trkpt lat="46.437156" lon="14.371404">
        <ele>1770.4984704768</ele>
        <time>2016-06-18T13:42:26Z</time>
      </trkpt>
      <trkpt lat="46.437106" lon="14.371438">
        <ele>1767.1085116992</ele>
        <time>2016-06-18T13:42:33Z</time>
      </trkpt>
      <trkpt lat="46.437057" lon="14.371455">
        <ele>1764.0685486656</ele>
        <time>2016-06-18T13:42:41Z</time>
      </trkpt>
      <trkpt lat="46.437013" lon="14.371492">
        <ele>1761.0485853888</ele>
        <time>2016-06-18T13:42:49Z</time>
      </trkpt>
      <trkpt lat="46.436975" lon="14.371524">
        <ele>1757.7686252736</ele>
        <time>2016-06-18T13:42:56Z</time>
      </trkpt>
      <trkpt lat="46.436981" lon="14.371524">
        <ele>1755.7586497152</ele>
        <time>2016-06-18T13:43:04Z</time>
      </trkpt>
      <trkpt lat="46.436995" lon="14.371514">
        <ele>1755.0886578624</ele>
        <time>2016-06-18T13:43:12Z</time>
      </trkpt>
      <trkpt lat="46.436989" lon="14.371500">
        <ele>1755.128657376</ele>
        <time>2016-06-18T13:43:20Z</time>
      </trkpt>
      <trkpt lat="46.436977" lon="14.371524">
        <ele>1754.8386609024</ele>
        <time>2016-06-18T13:43:28Z</time>
      </trkpt>
      <trkpt lat="46.436962" lon="14.371580">
        <ele>1753.428678048</ele>
        <time>2016-06-18T13:43:35Z</time>
      </trkpt>
      <trkpt lat="46.436936" lon="14.371615">
        <ele>1751.7586983552</ele>
        <time>2016-06-18T13:43:43Z</time>
      </trkpt>
      <trkpt lat="46.436901" lon="14.371683">
        <ele>1748.8487337408</ele>
        <time>2016-06-18T13:43:54Z</time>
      </trkpt>
      <trkpt lat="46.436897" lon="14.371729">
        <ele>1746.97875648</ele>
        <time>2016-06-18T13:44:01Z</time>
      </trkpt>
      <trkpt lat="46.436877" lon="14.371749">
        <ele>1745.4387752064</ele>
        <time>2016-06-18T13:44:10Z</time>
      </trkpt>
      <trkpt lat="46.436851" lon="14.371778">
        <ele>1743.6487969728</ele>
        <time>2016-06-18T13:44:20Z</time>
      </trkpt>
      <trkpt lat="46.436827" lon="14.371798">
        <ele>1741.7888195904</ele>
        <time>2016-06-18T13:44:29Z</time>
      </trkpt>
      <trkpt lat="46.436811" lon="14.371826">
        <ele>1740.2888378304</ele>
        <time>2016-06-18T13:44:38Z</time>
      </trkpt>
      <trkpt lat="46.436776" lon="14.371858">
        <ele>1739.1388518144</ele>
        <time>2016-06-18T13:44:49Z</time>
      </trkpt>
      <trkpt lat="46.436764" lon="14.371873">
        <ele>1737.6088704192</ele>
        <time>2016-06-18T13:44:59Z</time>
      </trkpt>
      <trkpt lat="46.436732" lon="14.371906">
        <ele>1736.2388870784</ele>
        <time>2016-06-18T13:45:07Z</time>
      </trkpt>
      <trkpt lat="46.436711" lon="14.371950">
        <ele>1734.928903008</ele>
        <time>2016-06-18T13:45:15Z</time>
      </trkpt>
      <trkpt lat="46.436680" lon="14.371992">
        <ele>1732.4189335296</ele>
        <time>2016-06-18T13:45:23Z</time>
      </trkpt>
      <trkpt lat="46.436632" lon="14.372012">
        <ele>1730.1189614976</ele>
        <time>2016-06-18T13:45:32Z</time>
      </trkpt>
      <trkpt lat="46.436630" lon="14.372056">
        <ele>1728.5589804672</ele>
        <time>2016-06-18T13:45:42Z</time>
      </trkpt>
      <trkpt lat="46.436618" lon="14.372099">
        <ele>1725.9190125696</ele>
        <time>2016-06-18T13:45:50Z</time>
      </trkpt>
      <trkpt lat="46.436618" lon="14.372152">
        <ele>1723.3890433344</ele>
        <time>2016-06-18T13:46:01Z</time>
      </trkpt>
      <trkpt lat="46.436589" lon="14.372187">
        <ele>1720.9390731264</ele>
        <time>2016-06-18T13:46:10Z</time>
      </trkpt>
      <trkpt lat="46.436598" lon="14.372227">
        <ele>1719.5190903936</ele>
        <time>2016-06-18T13:46:17Z</time>
      </trkpt>
      <trkpt lat="46.436602" lon="14.372259">
        <ele>1717.7191122816</ele>
        <time>2016-06-18T13:46:25Z</time>
      </trkpt>
      <trkpt lat="46.436610" lon="14.372256">
        <ele>1716.6091257792</ele>
        <time>2016-06-18T13:46:33Z</time>
      </trkpt>
      <trkpt lat="46.436600" lon="14.372294">
        <ele>1716.429127968</ele>
        <time>2016-06-18T13:46:44Z</time>
      </trkpt>
      <trkpt lat="46.436550" lon="14.372324">
        <ele>1715.4191402496</ele>
        <time>2016-06-18T13:46:52Z</time>
      </trkpt>
      <trkpt lat="46.436516" lon="14.372359">
        <ele>1713.3991648128</ele>
        <time>2016-06-18T13:47:00Z</time>
      </trkpt>
      <trkpt lat="46.436486" lon="14.372358">
        <ele>1711.579186944</ele>
        <time>2016-06-18T13:47:10Z</time>
      </trkpt>
      <trkpt lat="46.436483" lon="14.372400">
        <ele>1710.0092060352</ele>
        <time>2016-06-18T13:47:18Z</time>
      </trkpt>
      <trkpt lat="46.436472" lon="14.372438">
        <ele>1707.97923072</ele>
        <time>2016-06-18T13:47:26Z</time>
      </trkpt>
      <trkpt lat="46.436440" lon="14.372451">
        <ele>1706.7592455552</ele>
        <time>2016-06-18T13:47:41Z</time>
      </trkpt>
      <trkpt lat="46.436441" lon="14.372473">
        <ele>1705.6492590528</ele>
        <time>2016-06-18T13:47:49Z</time>
      </trkpt>
      <trkpt lat="46.436426" lon="14.372477">
        <ele>1705.2092644032</ele>
        <time>2016-06-18T13:48:06Z</time>
      </trkpt>
      <trkpt lat="46.436408" lon="14.372498">
        <ele>1704.079278144</ele>
        <time>2016-06-18T13:48:16Z</time>
      </trkpt>
      <trkpt lat="46.436361" lon="14.372519">
        <ele>1702.179301248</ele>
        <time>2016-06-18T13:48:25Z</time>
      </trkpt>
      <trkpt lat="46.436358" lon="14.372578">
        <ele>1701.2993119488</ele>
        <time>2016-06-18T13:48:32Z</time>
      </trkpt>
      <trkpt lat="46.436366" lon="14.372640">
        <ele>1700.5393211904</ele>
        <time>2016-06-18T13:48:39Z</time>
      </trkpt>
      <trkpt lat="46.436370" lon="14.372681">
        <ele>1699.0393394304</ele>
        <time>2016-06-18T13:48:47Z</time>
      </trkpt>
      <trkpt lat="46.436372" lon="14.372715">
        <ele>1698.2393491584</ele>
        <time>2016-06-18T13:48:54Z</time>
      </trkpt>
      <trkpt lat="46.436354" lon="14.372754">
        <ele>1696.5993691008</ele>
        <time>2016-06-18T13:49:03Z</time>
      </trkpt>
      <trkpt lat="46.436331" lon="14.372755">
        <ele>1695.7393795584</ele>
        <time>2016-06-18T13:49:10Z</time>
      </trkpt>
      <trkpt lat="46.436324" lon="14.372806">
        <ele>1694.4493952448</ele>
        <time>2016-06-18T13:49:19Z</time>
      </trkpt>
      <trkpt lat="46.436327" lon="14.372841">
        <ele>1693.3694083776</ele>
        <time>2016-06-18T13:49:26Z</time>
      </trkpt>
      <trkpt lat="46.436295" lon="14.372882">
        <ele>1691.47943136</ele>
        <time>2016-06-18T13:49:35Z</time>
      </trkpt>
      <trkpt lat="46.436245" lon="14.372898">
        <ele>1689.4194564096</ele>
        <time>2016-06-18T13:49:46Z</time>
      </trkpt>
      <trkpt lat="46.436215" lon="14.372950">
        <ele>1687.529479392</ele>
        <time>2016-06-18T13:49:56Z</time>
      </trkpt>
      <trkpt lat="46.436194" lon="14.372980">
        <ele>1685.1195086976</ele>
        <time>2016-06-18T13:50:05Z</time>
      </trkpt>
      <trkpt lat="46.436165" lon="14.373020">
        <ele>1682.6995381248</ele>
        <time>2016-06-18T13:50:15Z</time>
      </trkpt>
      <trkpt lat="46.436119" lon="14.373051">
        <ele>1680.9395595264</ele>
        <time>2016-06-18T13:50:23Z</time>
      </trkpt>
      <trkpt lat="46.436089" lon="14.373082">
        <ele>1678.679587008</ele>
        <time>2016-06-18T13:50:32Z</time>
      </trkpt>
      <trkpt lat="46.436062" lon="14.373140">
        <ele>1675.8096219072</ele>
        <time>2016-06-18T13:50:43Z</time>
      </trkpt>
      <trkpt lat="46.436030" lon="14.373173">
        <ele>1673.829645984</ele>
        <time>2016-06-18T13:50:51Z</time>
      </trkpt>
      <trkpt lat="46.436013" lon="14.373229">
        <ele>1671.8096705472</ele>
        <time>2016-06-18T13:50:59Z</time>
      </trkpt>
      <trkpt lat="46.436014" lon="14.373299">
        <ele>1670.1596906112</ele>
        <time>2016-06-18T13:51:07Z</time>
      </trkpt>
      <trkpt lat="46.435989" lon="14.373371">
        <ele>1668.6997083648</ele>
        <time>2016-06-18T13:51:17Z</time>
      </trkpt>
      <trkpt lat="46.435935" lon="14.373434">
        <ele>1666.2397382784</ele>
        <time>2016-06-18T13:51:26Z</time>
      </trkpt>
      <trkpt lat="46.435891" lon="14.373483">
        <ele>1664.2197628416</ele>
        <time>2016-06-18T13:51:36Z</time>
      </trkpt>
      <trkpt lat="46.435849" lon="14.373525">
        <ele>1661.8197920256</ele>
        <time>2016-06-18T13:51:45Z</time>
      </trkpt>
      <trkpt lat="46.435792" lon="14.373524">
        <ele>1659.279822912</ele>
        <time>2016-06-18T13:51:57Z</time>
      </trkpt>
      <trkpt lat="46.435737" lon="14.373531">
        <ele>1656.2698595136</ele>
        <time>2016-06-18T13:52:08Z</time>
      </trkpt>
      <trkpt lat="46.435694" lon="14.373549">
        <ele>1653.079898304</ele>
        <time>2016-06-18T13:52:19Z</time>
      </trkpt>
      <trkpt lat="46.435640" lon="14.373569">
        <ele>1650.0199355136</ele>
        <time>2016-06-18T13:52:30Z</time>
      </trkpt>
      <trkpt lat="46.435601" lon="14.373607">
        <ele>1647.1999698048</ele>
        <time>2016-06-18T13:52:42Z</time>
      </trkpt>
      <trkpt lat="46.435584" lon="14.373653">
        <ele>1645.2399936384</ele>
        <time>2016-06-18T13:52:50Z</time>
      </trkpt>
      <trkpt lat="46.435568" lon="14.373684">
        <ele>1643.880010176</ele>
        <time>2016-06-18T13:52:58Z</time>
      </trkpt>
      <trkpt lat="46.435559" lon="14.373734">
        <ele>1642.3100292672</ele>
        <time>2016-06-18T13:53:06Z</time>
      </trkpt>
      <trkpt lat="46.435533" lon="14.373789">
        <ele>1639.9600578432</ele>
        <time>2016-06-18T13:53:17Z</time>
      </trkpt>
      <trkpt lat="46.435512" lon="14.373854">
        <ele>1638.080080704</ele>
        <time>2016-06-18T13:53:25Z</time>
      </trkpt>
      <trkpt lat="46.435466" lon="14.373907">
        <ele>1636.3101022272</ele>
        <time>2016-06-18T13:53:36Z</time>
      </trkpt>
      <trkpt lat="46.435420" lon="14.373938">
        <ele>1633.7101338432</ele>
        <time>2016-06-18T13:53:45Z</time>
      </trkpt>
      <trkpt lat="46.435400" lon="14.373988">
        <ele>1631.6101593792</ele>
        <time>2016-06-18T13:53:55Z</time>
      </trkpt>
      <trkpt lat="46.435383" lon="14.374072">
        <ele>1629.4501856448</ele>
        <time>2016-06-18T13:54:04Z</time>
      </trkpt>
      <trkpt lat="46.435359" lon="14.374168">
        <ele>1628.7501941568</ele>
        <time>2016-06-18T13:54:14Z</time>
      </trkpt>
      <trkpt lat="46.435329" lon="14.374238">
        <ele>1627.680207168</ele>
        <time>2016-06-18T13:54:23Z</time>
      </trkpt>
      <trkpt lat="46.435297" lon="14.374296">
        <ele>1626.2602244352</ele>
        <time>2016-06-18T13:54:31Z</time>
      </trkpt>
      <trkpt lat="46.435252" lon="14.374343">
        <ele>1624.7002434048</ele>
        <time>2016-06-18T13:54:42Z</time>
      </trkpt>
      <trkpt lat="46.435217" lon="14.374399">
        <ele>1623.3902593344</ele>
        <time>2016-06-18T13:54:50Z</time>
      </trkpt>
      <trkpt lat="46.435164" lon="14.374441">
        <ele>1620.9402891264</ele>
        <time>2016-06-18T13:54:59Z</time>
      </trkpt>
      <trkpt lat="46.435141" lon="14.374463">
        <ele>1619.8103028672</ele>
        <time>2016-06-18T13:55:05Z</time>
      </trkpt>
      <trkpt lat="46.435090" lon="14.374519">
        <ele>1617.5203307136</ele>
        <time>2016-06-18T13:55:16Z</time>
      </trkpt>
      <trkpt lat="46.435058" lon="14.374533">
        <ele>1616.0603484672</ele>
        <time>2016-06-18T13:55:24Z</time>
      </trkpt>
      <trkpt lat="46.435022" lon="14.374539">
        <ele>1614.7603642752</ele>
        <time>2016-06-18T13:55:33Z</time>
      </trkpt>
      <trkpt lat="46.435002" lon="14.374569">
        <ele>1613.7903760704</ele>
        <time>2016-06-18T13:55:41Z</time>
      </trkpt>
      <trkpt lat="46.434966" lon="14.374575">
        <ele>1612.6703896896</ele>
        <time>2016-06-18T13:55:51Z</time>
      </trkpt>
      <trkpt lat="46.434905" lon="14.374604">
        <ele>1610.98041024</ele>
        <time>2016-06-18T13:56:00Z</time>
      </trkpt>
      <trkpt lat="46.434862" lon="14.374609">
        <ele>1609.1404326144</ele>
        <time>2016-06-18T13:56:11Z</time>
      </trkpt>
      <trkpt lat="46.434818" lon="14.374591">
        <ele>1607.3904538944</ele>
        <time>2016-06-18T13:56:22Z</time>
      </trkpt>
      <trkpt lat="46.434798" lon="14.374604">
        <ele>1606.3604664192</ele>
        <time>2016-06-18T13:56:31Z</time>
      </trkpt>
      <trkpt lat="46.434776" lon="14.374609">
        <ele>1605.1204814976</ele>
        <time>2016-06-18T13:56:41Z</time>
      </trkpt>
      <trkpt lat="46.434767" lon="14.374610">
        <ele>1604.6004878208</ele>
        <time>2016-06-18T13:56:51Z</time>
      </trkpt>
      <trkpt lat="46.434763" lon="14.374616">
        <ele>1604.3604907392</ele>
        <time>2016-06-18T13:57:05Z</time>
      </trkpt>
      <trkpt lat="46.434754" lon="14.374606">
        <ele>1604.3404909824</ele>
        <time>2016-06-18T13:57:18Z</time>
      </trkpt>
      <trkpt lat="46.434766" lon="14.374611">
        <ele>1604.1604931712</ele>
        <time>2016-06-18T13:57:36Z</time>
      </trkpt>
      <trkpt lat="46.434752" lon="14.374615">
        <ele>1604.3504908608</ele>
        <time>2016-06-18T13:57:55Z</time>
      </trkpt>
      <trkpt lat="46.434725" lon="14.374646">
        <ele>1603.4505018048</ele>
        <time>2016-06-18T13:58:08Z</time>
      </trkpt>
      <trkpt lat="46.434715" lon="14.374629">
        <ele>1602.9505078848</ele>
        <time>2016-06-18T13:58:31Z</time>
      </trkpt>
      <trkpt lat="46.434736" lon="14.374624">
        <ele>1602.8505091008</ele>
        <time>2016-06-18T13:58:49Z</time>
      </trkpt>
      <trkpt lat="46.434730" lon="14.374621">
        <ele>1602.8405092224</ele>
        <time>2016-06-18T13:59:13Z</time>
      </trkpt>
      <trkpt lat="46.434733" lon="14.374617">
        <ele>1602.9205082496</ele>
        <time>2016-06-18T13:59:36Z</time>
      </trkpt>
      <trkpt lat="46.434730" lon="14.374628">
        <ele>1602.6705112896</ele>
        <time>2016-06-18T13:59:51Z</time>
      </trkpt>
      <trkpt lat="46.434726" lon="14.374628">
        <ele>1602.9205082496</ele>
        <time>2016-06-18T14:00:11Z</time>
      </trkpt>
      <trkpt lat="46.434734" lon="14.374621">
        <ele>1602.9205082496</ele>
        <time>2016-06-18T14:00:30Z</time>
      </trkpt>
      <trkpt lat="46.434736" lon="14.374636">
        <ele>1602.8905086144</ele>
        <time>2016-06-18T14:00:49Z</time>
      </trkpt>
      <trkpt lat="46.434737" lon="14.374626">
        <ele>1602.9505078848</ele>
        <time>2016-06-18T14:01:09Z</time>
      </trkpt>
      <trkpt lat="46.434752" lon="14.374656">
        <ele>1603.080506304</ele>
        <time>2016-06-18T14:01:26Z</time>
      </trkpt>
      <trkpt lat="46.434763" lon="14.374671">
        <ele>1603.0905061824</ele>
        <time>2016-06-18T14:01:47Z</time>
      </trkpt>
      <trkpt lat="46.434751" lon="14.374681">
        <ele>1603.1405055744</ele>
        <time>2016-06-18T14:02:03Z</time>
      </trkpt>
      <trkpt lat="46.434748" lon="14.374663">
        <ele>1603.23050448</ele>
        <time>2016-06-18T14:02:24Z</time>
      </trkpt>
      <trkpt lat="46.434751" lon="14.374663">
        <ele>1603.23050448</ele>
        <time>2016-06-18T14:02:40Z</time>
      </trkpt>
      <trkpt lat="46.434751" lon="14.374663">
        <ele>1603.1905049664</ele>
        <time>2016-06-18T14:03:04Z</time>
      </trkpt>
      <trkpt lat="46.434746" lon="14.374668">
        <ele>1602.8905086144</ele>
        <time>2016-06-18T14:03:18Z</time>
      </trkpt>
      <trkpt lat="46.434743" lon="14.374671">
        <ele>1603.0105071552</ele>
        <time>2016-06-18T14:03:35Z</time>
      </trkpt>
      <trkpt lat="46.434744" lon="14.374663">
        <ele>1602.98050752</ele>
        <time>2016-06-18T14:03:54Z</time>
      </trkpt>
      <trkpt lat="46.434743" lon="14.374669">
        <ele>1603.0105071552</ele>
        <time>2016-06-18T14:04:05Z</time>
      </trkpt>
      <trkpt lat="46.434749" lon="14.374679">
        <ele>1602.9105083712</ele>
        <time>2016-06-18T14:04:17Z</time>
      </trkpt>
      <trkpt lat="46.434754" lon="14.374686">
        <ele>1603.0105071552</ele>
        <time>2016-06-18T14:04:29Z</time>
      </trkpt>
      <trkpt lat="46.434757" lon="14.374682">
        <ele>1603.0005072768</ele>
        <time>2016-06-18T14:04:40Z</time>
      </trkpt>
      <trkpt lat="46.434746" lon="14.374673">
        <ele>1602.98050752</ele>
        <time>2016-06-18T14:05:00Z</time>
      </trkpt>
      <trkpt lat="46.434731" lon="14.374665">
        <ele>1602.430514208</ele>
        <time>2016-06-18T14:05:11Z</time>
      </trkpt>
      <trkpt lat="46.434674" lon="14.374668">
        <ele>1601.680523328</ele>
        <time>2016-06-18T14:05:23Z</time>
      </trkpt>
      <trkpt lat="46.434603" lon="14.374670">
        <ele>1600.2105412032</ele>
        <time>2016-06-18T14:05:35Z</time>
      </trkpt>
      <trkpt lat="46.434549" lon="14.374688">
        <ele>1598.1905657664</ele>
        <time>2016-06-18T14:05:47Z</time>
      </trkpt>
      <trkpt lat="46.434510" lon="14.374724">
        <ele>1596.2705891136</ele>
        <time>2016-06-18T14:05:58Z</time>
      </trkpt>
      <trkpt lat="46.434487" lon="14.374793">
        <ele>1594.930605408</ele>
        <time>2016-06-18T14:06:10Z</time>
      </trkpt>
      <trkpt lat="46.434478" lon="14.374845">
        <ele>1593.830618784</ele>
        <time>2016-06-18T14:06:18Z</time>
      </trkpt>
      <trkpt lat="46.434453" lon="14.374903">
        <ele>1592.4506355648</ele>
        <time>2016-06-18T14:06:28Z</time>
      </trkpt>
      <trkpt lat="46.434440" lon="14.374960">
        <ele>1591.330649184</ele>
        <time>2016-06-18T14:06:36Z</time>
      </trkpt>
      <trkpt lat="46.434403" lon="14.375008">
        <ele>1590.48065952</ele>
        <time>2016-06-18T14:06:44Z</time>
      </trkpt>
      <trkpt lat="46.434361" lon="14.375076">
        <ele>1589.7406685184</ele>
        <time>2016-06-18T14:06:52Z</time>
      </trkpt>
      <trkpt lat="46.434330" lon="14.375139">
        <ele>1588.7406806784</ele>
        <time>2016-06-18T14:07:02Z</time>
      </trkpt>
      <trkpt lat="46.434302" lon="14.375207">
        <ele>1588.1606877312</ele>
        <time>2016-06-18T14:07:11Z</time>
      </trkpt>
      <trkpt lat="46.434256" lon="14.375286">
        <ele>1587.2506987968</ele>
        <time>2016-06-18T14:07:19Z</time>
      </trkpt>
      <trkpt lat="46.434205" lon="14.375387">
        <ele>1586.080713024</ele>
        <time>2016-06-18T14:07:30Z</time>
      </trkpt>
      <trkpt lat="46.434158" lon="14.375440">
        <ele>1585.6407183744</ele>
        <time>2016-06-18T14:07:38Z</time>
      </trkpt>
      <trkpt lat="46.434110" lon="14.375549">
        <ele>1584.0507377088</ele>
        <time>2016-06-18T14:07:49Z</time>
      </trkpt>
      <trkpt lat="46.434091" lon="14.375616">
        <ele>1582.9507510848</ele>
        <time>2016-06-18T14:07:57Z</time>
      </trkpt>
      <trkpt lat="46.434081" lon="14.375689">
        <ele>1581.8207648256</ele>
        <time>2016-06-18T14:08:06Z</time>
      </trkpt>
      <trkpt lat="46.434074" lon="14.375760">
        <ele>1580.7107783232</ele>
        <time>2016-06-18T14:08:16Z</time>
      </trkpt>
      <trkpt lat="46.434033" lon="14.375825">
        <ele>1579.2407961984</ele>
        <time>2016-06-18T14:08:24Z</time>
      </trkpt>
      <trkpt lat="46.434015" lon="14.375894">
        <ele>1577.9908113984</ele>
        <time>2016-06-18T14:08:33Z</time>
      </trkpt>
      <trkpt lat="46.433980" lon="14.375985">
        <ele>1576.8208256256</ele>
        <time>2016-06-18T14:08:43Z</time>
      </trkpt>
      <trkpt lat="46.433944" lon="14.376049">
        <ele>1575.4408424064</ele>
        <time>2016-06-18T14:08:52Z</time>
      </trkpt>
      <trkpt lat="46.433874" lon="14.376132">
        <ele>1573.7708627136</ele>
        <time>2016-06-18T14:09:03Z</time>
      </trkpt>
      <trkpt lat="46.433849" lon="14.376213">
        <ele>1573.0208718336</ele>
        <time>2016-06-18T14:09:13Z</time>
      </trkpt>
      <trkpt lat="46.433814" lon="14.376287">
        <ele>1572.4708785216</ele>
        <time>2016-06-18T14:09:22Z</time>
      </trkpt>
      <trkpt lat="46.433775" lon="14.376363">
        <ele>1571.5608895872</ele>
        <time>2016-06-18T14:09:32Z</time>
      </trkpt>
      <trkpt lat="46.433730" lon="14.376428">
        <ele>1570.0009085568</ele>
        <time>2016-06-18T14:09:41Z</time>
      </trkpt>
      <trkpt lat="46.433678" lon="14.376490">
        <ele>1568.6209253376</ele>
        <time>2016-06-18T14:09:49Z</time>
      </trkpt>
      <trkpt lat="46.433653" lon="14.376563">
        <ele>1567.3409409024</ele>
        <time>2016-06-18T14:09:56Z</time>
      </trkpt>
      <trkpt lat="46.433619" lon="14.376663">
        <ele>1566.2609540352</ele>
        <time>2016-06-18T14:10:04Z</time>
      </trkpt>
      <trkpt lat="46.433581" lon="14.376742">
        <ele>1565.530962912</ele>
        <time>2016-06-18T14:10:13Z</time>
      </trkpt>
      <trkpt lat="46.433564" lon="14.376770">
        <ele>1564.9609698432</ele>
        <time>2016-06-18T14:10:17Z</time>
      </trkpt>
      <trkpt lat="46.433520" lon="14.376815">
        <ele>1563.8609832192</ele>
        <time>2016-06-18T14:10:26Z</time>
      </trkpt>
      <trkpt lat="46.433489" lon="14.376863">
        <ele>1562.680997568</ele>
        <time>2016-06-18T14:10:32Z</time>
      </trkpt>
      <trkpt lat="46.433469" lon="14.376943">
        <ele>1562.2110032832</ele>
        <time>2016-06-18T14:10:42Z</time>
      </trkpt>
      <trkpt lat="46.433445" lon="14.377022">
        <ele>1561.8110081472</ele>
        <time>2016-06-18T14:10:50Z</time>
      </trkpt>
      <trkpt lat="46.433416" lon="14.377077">
        <ele>1561.2610148352</ele>
        <time>2016-06-18T14:10:57Z</time>
      </trkpt>
      <trkpt lat="46.433380" lon="14.377178">
        <ele>1560.2910266304</ele>
        <time>2016-06-18T14:11:06Z</time>
      </trkpt>
      <trkpt lat="46.433366" lon="14.377269">
        <ele>1559.8610318592</ele>
        <time>2016-06-18T14:11:15Z</time>
      </trkpt>
      <trkpt lat="46.433346" lon="14.377316">
        <ele>1559.381037696</ele>
        <time>2016-06-18T14:11:22Z</time>
      </trkpt>
      <trkpt lat="46.433319" lon="14.377389">
        <ele>1558.48104864</ele>
        <time>2016-06-18T14:11:32Z</time>
      </trkpt>
      <trkpt lat="46.433279" lon="14.377467">
        <ele>1556.9910667584</ele>
        <time>2016-06-18T14:11:41Z</time>
      </trkpt>
      <trkpt lat="46.433253" lon="14.377519">
        <ele>1556.4210736896</ele>
        <time>2016-06-18T14:11:48Z</time>
      </trkpt>
      <trkpt lat="46.433225" lon="14.377586">
        <ele>1555.5710840256</ele>
        <time>2016-06-18T14:11:56Z</time>
      </trkpt>
      <trkpt lat="46.433197" lon="14.377625">
        <ele>1554.9910910784</ele>
        <time>2016-06-18T14:12:00Z</time>
      </trkpt>
      <trkpt lat="46.433156" lon="14.377674">
        <ele>1553.531108832</ele>
        <time>2016-06-18T14:12:09Z</time>
      </trkpt>
      <trkpt lat="46.433134" lon="14.377752">
        <ele>1552.3111236672</ele>
        <time>2016-06-18T14:12:18Z</time>
      </trkpt>
      <trkpt lat="46.433102" lon="14.377825">
        <ele>1550.6911433664</ele>
        <time>2016-06-18T14:12:27Z</time>
      </trkpt>
      <trkpt lat="46.433070" lon="14.377890">
        <ele>1548.9511645248</ele>
        <time>2016-06-18T14:12:36Z</time>
      </trkpt>
      <trkpt lat="46.433048" lon="14.377943">
        <ele>1547.4911822784</ele>
        <time>2016-06-18T14:12:45Z</time>
      </trkpt>
      <trkpt lat="46.433023" lon="14.378001">
        <ele>1546.2211977216</ele>
        <time>2016-06-18T14:12:54Z</time>
      </trkpt>
      <trkpt lat="46.432991" lon="14.378057">
        <ele>1545.081211584</ele>
        <time>2016-06-18T14:13:02Z</time>
      </trkpt>
      <trkpt lat="46.432959" lon="14.378133">
        <ele>1542.9012380928</ele>
        <time>2016-06-18T14:13:13Z</time>
      </trkpt>
      <trkpt lat="46.432926" lon="14.378177">
        <ele>1540.8512630208</ele>
        <time>2016-06-18T14:13:22Z</time>
      </trkpt>
      <trkpt lat="46.432899" lon="14.378186">
        <ele>1539.681277248</ele>
        <time>2016-06-18T14:13:30Z</time>
      </trkpt>
      <trkpt lat="46.432868" lon="14.378189">
        <ele>1537.5913026624</ele>
        <time>2016-06-18T14:13:41Z</time>
      </trkpt>
      <trkpt lat="46.432844" lon="14.378175">
        <ele>1535.7013256448</ele>
        <time>2016-06-18T14:13:52Z</time>
      </trkpt>
      <trkpt lat="46.432830" lon="14.378177">
        <ele>1534.8513359808</ele>
        <time>2016-06-18T14:14:00Z</time>
      </trkpt>
      <trkpt lat="46.432834" lon="14.378167">
        <ele>1534.281342912</ele>
        <time>2016-06-18T14:14:15Z</time>
      </trkpt>
      <trkpt lat="46.432829" lon="14.378168">
        <ele>1534.1913440064</ele>
        <time>2016-06-18T14:14:33Z</time>
      </trkpt>
      <trkpt lat="46.432835" lon="14.378167">
        <ele>1534.23134352</ele>
        <time>2016-06-18T14:14:53Z</time>
      </trkpt>
      <trkpt lat="46.432824" lon="14.378207">
        <ele>1534.181344128</ele>
        <time>2016-06-18T14:15:08Z</time>
      </trkpt>
      <trkpt lat="46.432800" lon="14.378259">
        <ele>1532.7713612736</ele>
        <time>2016-06-18T14:15:17Z</time>
      </trkpt>
      <trkpt lat="46.432781" lon="14.378323">
        <ele>1531.8013730688</ele>
        <time>2016-06-18T14:15:24Z</time>
      </trkpt>
      <trkpt lat="46.432785" lon="14.378357">
        <ele>1531.0513821888</ele>
        <time>2016-06-18T14:15:32Z</time>
      </trkpt>
      <trkpt lat="46.432762" lon="14.378399">
        <ele>1530.6513870528</ele>
        <time>2016-06-18T14:15:41Z</time>
      </trkpt>
      <trkpt lat="46.432718" lon="14.378478">
        <ele>1529.3914023744</ele>
        <time>2016-06-18T14:15:52Z</time>
      </trkpt>
      <trkpt lat="46.432681" lon="14.378533">
        <ele>1528.3214153856</ele>
        <time>2016-06-18T14:16:00Z</time>
      </trkpt>
      <trkpt lat="46.432650" lon="14.378600">
        <ele>1527.2214287616</ele>
        <time>2016-06-18T14:16:08Z</time>
      </trkpt>
      <trkpt lat="46.432606" lon="14.378680">
        <ele>1525.6614477312</ele>
        <time>2016-06-18T14:16:19Z</time>
      </trkpt>
      <trkpt lat="46.432564" lon="14.378730">
        <ele>1525.031455392</ele>
        <time>2016-06-18T14:16:25Z</time>
      </trkpt>
      <trkpt lat="46.432497" lon="14.378815">
        <ele>1523.4614744832</ele>
        <time>2016-06-18T14:16:34Z</time>
      </trkpt>
      <trkpt lat="46.432444" lon="14.378871">
        <ele>1522.23148944</ele>
        <time>2016-06-18T14:16:42Z</time>
      </trkpt>
      <trkpt lat="46.432376" lon="14.378904">
        <ele>1521.4914984384</ele>
        <time>2016-06-18T14:16:50Z</time>
      </trkpt>
      <trkpt lat="46.432364" lon="14.378909">
        <ele>1521.48149856</ele>
        <time>2016-06-18T14:16:52Z</time>
      </trkpt>
      <trkpt lat="46.432279" lon="14.378959">
        <ele>1521.3914996544</ele>
        <time>2016-06-18T14:17:01Z</time>
      </trkpt>
      <trkpt lat="46.432225" lon="14.379039">
        <ele>1522.5614854272</ele>
        <time>2016-06-18T14:17:13Z</time>
      </trkpt>
      <trkpt lat="46.432190" lon="14.379071">
        <ele>1523.5714731456</ele>
        <time>2016-06-18T14:17:17Z</time>
      </trkpt>
      <trkpt lat="46.432105" lon="14.379102">
        <ele>1525.1114544192</ele>
        <time>2016-06-18T14:17:28Z</time>
      </trkpt>
      <trkpt lat="46.432062" lon="14.379141">
        <ele>1526.081442624</ele>
        <time>2016-06-18T14:17:36Z</time>
      </trkpt>
      <trkpt lat="46.432063" lon="14.379145">
        <ele>1526.4014387328</ele>
        <time>2016-06-18T14:17:46Z</time>
      </trkpt>
      <trkpt lat="46.432034" lon="14.379190">
        <ele>1526.5014375168</ele>
        <time>2016-06-18T14:17:54Z</time>
      </trkpt>
      <trkpt lat="46.432056" lon="14.379175">
        <ele>1526.7614343552</ele>
        <time>2016-06-18T14:18:07Z</time>
      </trkpt>
      <trkpt lat="46.432080" lon="14.379179">
        <ele>1526.9214324096</ele>
        <time>2016-06-18T14:18:22Z</time>
      </trkpt>
      <trkpt lat="46.432094" lon="14.379168">
        <ele>1527.0114313152</ele>
        <time>2016-06-18T14:18:34Z</time>
      </trkpt>
      <trkpt lat="46.432094" lon="14.379163">
        <ele>1527.3114276672</ele>
        <time>2016-06-18T14:18:52Z</time>
      </trkpt>
      <trkpt lat="46.432049" lon="14.379190">
        <ele>1527.0014314368</ele>
        <time>2016-06-18T14:19:00Z</time>
      </trkpt>
      <trkpt lat="46.432044" lon="14.379210">
        <ele>1526.2914400704</ele>
        <time>2016-06-18T14:19:19Z</time>
      </trkpt>
      <trkpt lat="46.432031" lon="14.379213">
        <ele>1526.1714415296</ele>
        <time>2016-06-18T14:19:34Z</time>
      </trkpt>
      <trkpt lat="46.432051" lon="14.379208">
        <ele>1526.2414406784</ele>
        <time>2016-06-18T14:19:51Z</time>
      </trkpt>
      <trkpt lat="46.432055" lon="14.379206">
        <ele>1526.2914400704</ele>
        <time>2016-06-18T14:20:06Z</time>
      </trkpt>
      <trkpt lat="46.432018" lon="14.379191">
        <ele>1526.4014387328</ele>
        <time>2016-06-18T14:20:25Z</time>
      </trkpt>
      <trkpt lat="46.432024" lon="14.379220">
        <ele>1526.6214360576</ele>
        <time>2016-06-18T14:20:45Z</time>
      </trkpt>
      <trkpt lat="46.432025" lon="14.379235">
        <ele>1526.5914364224</ele>
        <time>2016-06-18T14:21:00Z</time>
      </trkpt>
      <trkpt lat="46.432019" lon="14.379220">
        <ele>1526.8914327744</ele>
        <time>2016-06-18T14:21:12Z</time>
      </trkpt>
      <trkpt lat="46.432004" lon="14.379207">
        <ele>1526.931432288</ele>
        <time>2016-06-18T14:21:28Z</time>
      </trkpt>
      <trkpt lat="46.431997" lon="14.379191">
        <ele>1527.0414309504</ele>
        <time>2016-06-18T14:21:43Z</time>
      </trkpt>
      <trkpt lat="46.432019" lon="14.379227">
        <ele>1526.9914315584</ele>
        <time>2016-06-18T14:22:02Z</time>
      </trkpt>
      <trkpt lat="46.432028" lon="14.379242">
        <ele>1526.7114349632</ele>
        <time>2016-06-18T14:22:17Z</time>
      </trkpt>
      <trkpt lat="46.432028" lon="14.379231">
        <ele>1527.0514308288</ele>
        <time>2016-06-18T14:22:37Z</time>
      </trkpt>
      <trkpt lat="46.432032" lon="14.379221">
        <ele>1527.1914291264</ele>
        <time>2016-06-18T14:22:59Z</time>
      </trkpt>
      <trkpt lat="46.432044" lon="14.379237">
        <ele>1527.1614294912</ele>
        <time>2016-06-18T14:23:18Z</time>
      </trkpt>
      <trkpt lat="46.432058" lon="14.379246">
        <ele>1526.9414321664</ele>
        <time>2016-06-18T14:23:38Z</time>
      </trkpt>
      <trkpt lat="46.432076" lon="14.379254">
        <ele>1527.0714305856</ele>
        <time>2016-06-18T14:23:58Z</time>
      </trkpt>
      <trkpt lat="46.432059" lon="14.379241">
        <ele>1527.0014314368</ele>
        <time>2016-06-18T14:24:23Z</time>
      </trkpt>
      <trkpt lat="46.432066" lon="14.379230">
        <ele>1527.0214311936</ele>
        <time>2016-06-18T14:24:43Z</time>
      </trkpt>
      <trkpt lat="46.432073" lon="14.379231">
        <ele>1526.9514320448</ele>
        <time>2016-06-18T14:25:00Z</time>
      </trkpt>
      <trkpt lat="46.432053" lon="14.379211">
        <ele>1526.3714390976</ele>
        <time>2016-06-18T14:25:23Z</time>
      </trkpt>
      <trkpt lat="46.432056" lon="14.379207">
        <ele>1526.3214397056</ele>
        <time>2016-06-18T14:25:38Z</time>
      </trkpt>
      <trkpt lat="46.432011" lon="14.379248">
        <ele>1526.3414394624</ele>
        <time>2016-06-18T14:25:50Z</time>
      </trkpt>
      <trkpt lat="46.431927" lon="14.379247">
        <ele>1526.081442624</ele>
        <time>2016-06-18T14:26:00Z</time>
      </trkpt>
      <trkpt lat="46.431835" lon="14.379211">
        <ele>1527.4514259648</ele>
        <time>2016-06-18T14:26:09Z</time>
      </trkpt>
      <trkpt lat="46.431763" lon="14.379195">
        <ele>1528.5714123456</ele>
        <time>2016-06-18T14:26:21Z</time>
      </trkpt>
      <trkpt lat="46.431727" lon="14.379250">
        <ele>1528.7914096704</ele>
        <time>2016-06-18T14:26:32Z</time>
      </trkpt>
      <trkpt lat="46.431731" lon="14.379371">
        <ele>1527.8214214656</ele>
        <time>2016-06-18T14:26:43Z</time>
      </trkpt>
      <trkpt lat="46.431755" lon="14.379483">
        <ele>1527.1214299776</ele>
        <time>2016-06-18T14:26:51Z</time>
      </trkpt>
      <trkpt lat="46.431754" lon="14.379567">
        <ele>1526.7414345984</ele>
        <time>2016-06-18T14:26:59Z</time>
      </trkpt>
      <trkpt lat="46.431795" lon="14.379668">
        <ele>1525.5014496768</ele>
        <time>2016-06-18T14:27:09Z</time>
      </trkpt>
      <trkpt lat="46.431778" lon="14.379762">
        <ele>1524.0414674304</ele>
        <time>2016-06-18T14:27:18Z</time>
      </trkpt>
      <trkpt lat="46.431759" lon="14.379804">
        <ele>1524.081466944</ele>
        <time>2016-06-18T14:27:21Z</time>
      </trkpt>
      <trkpt lat="46.431743" lon="14.379909">
        <ele>1524.4614623232</ele>
        <time>2016-06-18T14:27:29Z</time>
      </trkpt>
      <trkpt lat="46.431711" lon="14.380050">
        <ele>1525.381451136</ele>
        <time>2016-06-18T14:27:40Z</time>
      </trkpt>
      <trkpt lat="46.431710" lon="14.380162">
        <ele>1525.9614440832</ele>
        <time>2016-06-18T14:27:50Z</time>
      </trkpt>
      <trkpt lat="46.431705" lon="14.380316">
        <ele>1527.5714245056</ele>
        <time>2016-06-18T14:28:04Z</time>
      </trkpt>
      <trkpt lat="46.431658" lon="14.380411">
        <ele>1528.7514101568</ele>
        <time>2016-06-18T14:28:16Z</time>
      </trkpt>
      <trkpt lat="46.431590" lon="14.380496">
        <ele>1530.2913914304</ele>
        <time>2016-06-18T14:28:27Z</time>
      </trkpt>
      <trkpt lat="46.431492" lon="14.380528">
        <ele>1531.181380608</ele>
        <time>2016-06-18T14:28:38Z</time>
      </trkpt>
      <trkpt lat="46.431410" lon="14.380553">
        <ele>1531.0613820672</ele>
        <time>2016-06-18T14:28:48Z</time>
      </trkpt>
      <trkpt lat="46.431283" lon="14.380610">
        <ele>1532.2413677184</ele>
        <time>2016-06-18T14:28:59Z</time>
      </trkpt>
      <trkpt lat="46.431172" lon="14.380662">
        <ele>1532.631362976</ele>
        <time>2016-06-18T14:29:07Z</time>
      </trkpt>
      <trkpt lat="46.431082" lon="14.380693">
        <ele>1532.1613686912</ele>
        <time>2016-06-18T14:29:15Z</time>
      </trkpt>
      <trkpt lat="46.431016" lon="14.380721">
        <ele>1532.2013682048</ele>
        <time>2016-06-18T14:29:22Z</time>
      </trkpt>
      <trkpt lat="46.430941" lon="14.380725">
        <ele>1531.931371488</ele>
        <time>2016-06-18T14:29:29Z</time>
      </trkpt>
      <trkpt lat="46.430813" lon="14.380835">
        <ele>1532.4413652864</ele>
        <time>2016-06-18T14:29:37Z</time>
      </trkpt>
      <trkpt lat="46.430689" lon="14.380830">
        <ele>1533.6013511808</ele>
        <time>2016-06-18T14:29:47Z</time>
      </trkpt>
      <trkpt lat="46.430635" lon="14.380806">
        <ele>1535.1913318464</ele>
        <time>2016-06-18T14:29:57Z</time>
      </trkpt>
      <trkpt lat="46.430630" lon="14.380836">
        <ele>1536.9413105664</ele>
        <time>2016-06-18T14:30:07Z</time>
      </trkpt>
      <trkpt lat="46.430613" lon="14.380841">
        <ele>1537.831299744</ele>
        <time>2016-06-18T14:30:15Z</time>
      </trkpt>
      <trkpt lat="46.430610" lon="14.380824">
        <ele>1538.081296704</ele>
        <time>2016-06-18T14:30:23Z</time>
      </trkpt>
      <trkpt lat="46.430625" lon="14.380815">
        <ele>1538.1412959744</ele>
        <time>2016-06-18T14:30:43Z</time>
      </trkpt>
      <trkpt lat="46.430647" lon="14.380790">
        <ele>1537.9512982848</ele>
        <time>2016-06-18T14:30:54Z</time>
      </trkpt>
      <trkpt lat="46.430652" lon="14.380791">
        <ele>1538.081296704</ele>
        <time>2016-06-18T14:31:05Z</time>
      </trkpt>
      <trkpt lat="46.430639" lon="14.380812">
        <ele>1538.1512958528</ele>
        <time>2016-06-18T14:31:14Z</time>
      </trkpt>
      <trkpt lat="46.430628" lon="14.380810">
        <ele>1538.381293056</ele>
        <time>2016-06-18T14:31:25Z</time>
      </trkpt>
      <trkpt lat="46.430613" lon="14.380854">
        <ele>1537.831299744</ele>
        <time>2016-06-18T14:31:33Z</time>
      </trkpt>
      <trkpt lat="46.430607" lon="14.380937">
        <ele>1537.031309472</ele>
        <time>2016-06-18T14:31:40Z</time>
      </trkpt>
      <trkpt lat="46.430591" lon="14.381002">
        <ele>1536.0713211456</ele>
        <time>2016-06-18T14:31:48Z</time>
      </trkpt>
      <trkpt lat="46.430555" lon="14.381029">
        <ele>1535.5013280768</ele>
        <time>2016-06-18T14:32:00Z</time>
      </trkpt>
      <trkpt lat="46.430503" lon="14.381096">
        <ele>1534.1113449792</ele>
        <time>2016-06-18T14:32:08Z</time>
      </trkpt>
      <trkpt lat="46.430498" lon="14.381105">
        <ele>1533.7413494784</ele>
        <time>2016-06-18T14:32:10Z</time>
      </trkpt>
      <trkpt lat="46.430408" lon="14.381213">
        <ele>1530.631387296</ele>
        <time>2016-06-18T14:32:20Z</time>
      </trkpt>
      <trkpt lat="46.430361" lon="14.381317">
        <ele>1528.7114106432</ele>
        <time>2016-06-18T14:32:29Z</time>
      </trkpt>
      <trkpt lat="46.430337" lon="14.381467">
        <ele>1526.2714403136</ele>
        <time>2016-06-18T14:32:42Z</time>
      </trkpt>
      <trkpt lat="46.430346" lon="14.381509">
        <ele>1525.5614489472</ele>
        <time>2016-06-18T14:32:49Z</time>
      </trkpt>
      <trkpt lat="46.430410" lon="14.381580">
        <ele>1524.9214567296</ele>
        <time>2016-06-18T14:32:57Z</time>
      </trkpt>
      <trkpt lat="46.430485" lon="14.381653">
        <ele>1524.1214664576</ele>
        <time>2016-06-18T14:33:05Z</time>
      </trkpt>
      <trkpt lat="46.430555" lon="14.381727">
        <ele>1523.1014788608</ele>
        <time>2016-06-18T14:33:14Z</time>
      </trkpt>
      <trkpt lat="46.430616" lon="14.381757">
        <ele>1522.5514855488</ele>
        <time>2016-06-18T14:33:21Z</time>
      </trkpt>
      <trkpt lat="46.430668" lon="14.381789">
        <ele>1521.8214944256</ele>
        <time>2016-06-18T14:33:29Z</time>
      </trkpt>
      <trkpt lat="46.430676" lon="14.381800">
        <ele>1521.0515037888</ele>
        <time>2016-06-18T14:33:41Z</time>
      </trkpt>
      <trkpt lat="46.430703" lon="14.381826">
        <ele>1521.031504032</ele>
        <time>2016-06-18T14:33:44Z</time>
      </trkpt>
      <trkpt lat="46.430815" lon="14.381943">
        <ele>1520.4515110848</ele>
        <time>2016-06-18T14:33:55Z</time>
      </trkpt>
      <trkpt lat="46.430874" lon="14.382027">
        <ele>1519.8115188672</ele>
        <time>2016-06-18T14:34:03Z</time>
      </trkpt>
      <trkpt lat="46.430940" lon="14.382112">
        <ele>1519.1615267712</ele>
        <time>2016-06-18T14:34:11Z</time>
      </trkpt>
      <trkpt lat="46.431015" lon="14.382198">
        <ele>1518.4115358912</ele>
        <time>2016-06-18T14:34:21Z</time>
      </trkpt>
      <trkpt lat="46.431117" lon="14.382293">
        <ele>1517.4015481728</ele>
        <time>2016-06-18T14:34:31Z</time>
      </trkpt>
      <trkpt lat="46.431135" lon="14.382314">
        <ele>1517.2215503616</ele>
        <time>2016-06-18T14:34:34Z</time>
      </trkpt>
      <trkpt lat="46.431209" lon="14.382368">
        <ele>1516.8715546176</ele>
        <time>2016-06-18T14:34:42Z</time>
      </trkpt>
      <trkpt lat="46.431261" lon="14.382454">
        <ele>1516.5915580224</ele>
        <time>2016-06-18T14:34:49Z</time>
      </trkpt>
      <trkpt lat="46.431279" lon="14.382508">
        <ele>1516.1915628864</ele>
        <time>2016-06-18T14:34:54Z</time>
      </trkpt>
      <trkpt lat="46.431308" lon="14.382608">
        <ele>1515.5415707904</ele>
        <time>2016-06-18T14:35:01Z</time>
      </trkpt>
      <trkpt lat="46.431395" lon="14.382704">
        <ele>1515.3015737088</ele>
        <time>2016-06-18T14:35:12Z</time>
      </trkpt>
      <trkpt lat="46.431424" lon="14.382725">
        <ele>1515.2715740736</ele>
        <time>2016-06-18T14:35:15Z</time>
      </trkpt>
      <trkpt lat="46.431484" lon="14.382787">
        <ele>1514.6115820992</ele>
        <time>2016-06-18T14:35:21Z</time>
      </trkpt>
      <trkpt lat="46.431566" lon="14.382913">
        <ele>1513.0616009472</ele>
        <time>2016-06-18T14:35:33Z</time>
      </trkpt>
      <trkpt lat="46.431634" lon="14.383013">
        <ele>1511.7216172416</ele>
        <time>2016-06-18T14:35:43Z</time>
      </trkpt>
      <trkpt lat="46.431686" lon="14.383117">
        <ele>1511.081625024</ele>
        <time>2016-06-18T14:35:51Z</time>
      </trkpt>
      <trkpt lat="46.431703" lon="14.383239">
        <ele>1511.3216221056</ele>
        <time>2016-06-18T14:36:00Z</time>
      </trkpt>
      <trkpt lat="46.431723" lon="14.383328">
        <ele>1511.6916176064</ele>
        <time>2016-06-18T14:36:09Z</time>
      </trkpt>
      <trkpt lat="46.431747" lon="14.383473">
        <ele>1511.931614688</ele>
        <time>2016-06-18T14:36:19Z</time>
      </trkpt>
      <trkpt lat="46.431760" lon="14.383560">
        <ele>1512.1116124992</ele>
        <time>2016-06-18T14:36:26Z</time>
      </trkpt>
      <trkpt lat="46.431777" lon="14.383622">
        <ele>1511.5216196736</ele>
        <time>2016-06-18T14:36:34Z</time>
      </trkpt>
      <trkpt lat="46.431836" lon="14.383751">
        <ele>1510.1716360896</ele>
        <time>2016-06-18T14:36:42Z</time>
      </trkpt>
      <trkpt lat="46.431890" lon="14.383895">
        <ele>1509.4516448448</ele>
        <time>2016-06-18T14:36:52Z</time>
      </trkpt>
      <trkpt lat="46.431894" lon="14.383916">
        <ele>1509.381645696</ele>
        <time>2016-06-18T14:36:53Z</time>
      </trkpt>
      <trkpt lat="46.431894" lon="14.383996">
        <ele>1509.1916480064</ele>
        <time>2016-06-18T14:36:57Z</time>
      </trkpt>
      <trkpt lat="46.431867" lon="14.384035">
        <ele>1509.0516497088</ele>
        <time>2016-06-18T14:37:00Z</time>
      </trkpt>
      <trkpt lat="46.431838" lon="14.384158">
        <ele>1509.2216476416</ele>
        <time>2016-06-18T14:37:09Z</time>
      </trkpt>
      <trkpt lat="46.431828" lon="14.384323">
        <ele>1508.9216512896</ele>
        <time>2016-06-18T14:37:20Z</time>
      </trkpt>
      <trkpt lat="46.431836" lon="14.384531">
        <ele>1508.881651776</ele>
        <time>2016-06-18T14:37:32Z</time>
      </trkpt>
      <trkpt lat="46.431829" lon="14.384671">
        <ele>1508.381657856</ele>
        <time>2016-06-18T14:37:42Z</time>
      </trkpt>
      <trkpt lat="46.431844" lon="14.384792">
        <ele>1507.6716664896</ele>
        <time>2016-06-18T14:37:48Z</time>
      </trkpt>
      <trkpt lat="46.431833" lon="14.384985">
        <ele>1506.9416753664</ele>
        <time>2016-06-18T14:37:59Z</time>
      </trkpt>
      <trkpt lat="46.431810" lon="14.385129">
        <ele>1506.0016867968</ele>
        <time>2016-06-18T14:38:11Z</time>
      </trkpt>
      <trkpt lat="46.431809" lon="14.385293">
        <ele>1505.1716968896</ele>
        <time>2016-06-18T14:38:22Z</time>
      </trkpt>
      <trkpt lat="46.431826" lon="14.385436">
        <ele>1504.2417081984</ele>
        <time>2016-06-18T14:38:33Z</time>
      </trkpt>
      <trkpt lat="46.431834" lon="14.385540">
        <ele>1502.8117255872</ele>
        <time>2016-06-18T14:38:45Z</time>
      </trkpt>
      <trkpt lat="46.431859" lon="14.385699">
        <ele>1500.9017488128</ele>
        <time>2016-06-18T14:38:56Z</time>
      </trkpt>
      <trkpt lat="46.431876" lon="14.385826">
        <ele>1499.8917610944</ele>
        <time>2016-06-18T14:39:05Z</time>
      </trkpt>
      <trkpt lat="46.431895" lon="14.386027">
        <ele>1498.7517749568</ele>
        <time>2016-06-18T14:39:18Z</time>
      </trkpt>
      <trkpt lat="46.431887" lon="14.386192">
        <ele>1497.3217923456</ele>
        <time>2016-06-18T14:39:28Z</time>
      </trkpt>
      <trkpt lat="46.431870" lon="14.386291">
        <ele>1496.2118058432</ele>
        <time>2016-06-18T14:39:36Z</time>
      </trkpt>
      <trkpt lat="46.431898" lon="14.386400">
        <ele>1495.5718136256</ele>
        <time>2016-06-18T14:39:45Z</time>
      </trkpt>
      <trkpt lat="46.431946" lon="14.386493">
        <ele>1494.7018242048</ele>
        <time>2016-06-18T14:39:54Z</time>
      </trkpt>
      <trkpt lat="46.431982" lon="14.386572">
        <ele>1492.7118484032</ele>
        <time>2016-06-18T14:40:05Z</time>
      </trkpt>
      <trkpt lat="46.432036" lon="14.386649">
        <ele>1490.4918753984</ele>
        <time>2016-06-18T14:40:17Z</time>
      </trkpt>
      <trkpt lat="46.432091" lon="14.386754">
        <ele>1488.5418991104</ele>
        <time>2016-06-18T14:40:28Z</time>
      </trkpt>
      <trkpt lat="46.432131" lon="14.386808">
        <ele>1487.331913824</ele>
        <time>2016-06-18T14:40:37Z</time>
      </trkpt>
      <trkpt lat="46.432178" lon="14.386899">
        <ele>1485.8119323072</ele>
        <time>2016-06-18T14:40:48Z</time>
      </trkpt>
      <trkpt lat="46.432236" lon="14.387003">
        <ele>1484.4919483584</ele>
        <time>2016-06-18T14:40:59Z</time>
      </trkpt>
      <trkpt lat="46.432275" lon="14.387079">
        <ele>1483.2619633152</ele>
        <time>2016-06-18T14:41:08Z</time>
      </trkpt>
      <trkpt lat="46.432327" lon="14.387173">
        <ele>1481.4419854464</ele>
        <time>2016-06-18T14:41:20Z</time>
      </trkpt>
      <trkpt lat="46.432388" lon="14.387324">
        <ele>1479.7120064832</ele>
        <time>2016-06-18T14:41:33Z</time>
      </trkpt>
      <trkpt lat="46.432445" lon="14.387404">
        <ele>1477.9720276416</ele>
        <time>2016-06-18T14:41:43Z</time>
      </trkpt>
      <trkpt lat="46.432499" lon="14.387494">
        <ele>1476.1920492864</ele>
        <time>2016-06-18T14:41:54Z</time>
      </trkpt>
      <trkpt lat="46.432515" lon="14.387560">
        <ele>1474.5520692288</ele>
        <time>2016-06-18T14:42:06Z</time>
      </trkpt>
      <trkpt lat="46.432567" lon="14.387673">
        <ele>1472.8520899008</ele>
        <time>2016-06-18T14:42:18Z</time>
      </trkpt>
      <trkpt lat="46.432625" lon="14.387747">
        <ele>1471.032112032</ele>
        <time>2016-06-18T14:42:28Z</time>
      </trkpt>
      <trkpt lat="46.432687" lon="14.387850">
        <ele>1469.0721358656</ele>
        <time>2016-06-18T14:42:39Z</time>
      </trkpt>
      <trkpt lat="46.432749" lon="14.387918">
        <ele>1466.98216128</ele>
        <time>2016-06-18T14:42:50Z</time>
      </trkpt>
      <trkpt lat="46.432784" lon="14.388005">
        <ele>1464.8521871808</ele>
        <time>2016-06-18T14:42:59Z</time>
      </trkpt>
      <trkpt lat="46.432809" lon="14.388082">
        <ele>1462.6722136896</ele>
        <time>2016-06-18T14:43:10Z</time>
      </trkpt>
      <trkpt lat="46.432817" lon="14.388141">
        <ele>1460.2422432384</ele>
        <time>2016-06-18T14:43:19Z</time>
      </trkpt>
      <trkpt lat="46.432811" lon="14.388169">
        <ele>1458.8022607488</ele>
        <time>2016-06-18T14:43:30Z</time>
      </trkpt>
      <trkpt lat="46.432858" lon="14.388135">
        <ele>1457.7422736384</ele>
        <time>2016-06-18T14:43:39Z</time>
      </trkpt>
      <trkpt lat="46.432899" lon="14.388065">
        <ele>1456.3522905408</ele>
        <time>2016-06-18T14:43:52Z</time>
      </trkpt>
      <trkpt lat="46.432942" lon="14.388038">
        <ele>1455.23230416</ele>
        <time>2016-06-18T14:44:01Z</time>
      </trkpt>
      <trkpt lat="46.433017" lon="14.388062">
        <ele>1453.9423198464</ele>
        <time>2016-06-18T14:44:12Z</time>
      </trkpt>
      <trkpt lat="46.433096" lon="14.388117">
        <ele>1452.5223371136</ele>
        <time>2016-06-18T14:44:20Z</time>
      </trkpt>
      <trkpt lat="46.433138" lon="14.388155">
        <ele>1450.6023604608</ele>
        <time>2016-06-18T14:44:31Z</time>
      </trkpt>
      <trkpt lat="46.433243" lon="14.388238">
        <ele>1449.3123761472</ele>
        <time>2016-06-18T14:44:40Z</time>
      </trkpt>
      <trkpt lat="46.433318" lon="14.388328">
        <ele>1448.7923824704</ele>
        <time>2016-06-18T14:44:51Z</time>
      </trkpt>
      <trkpt lat="46.433429" lon="14.388392">
        <ele>1448.2523890368</ele>
        <time>2016-06-18T14:45:03Z</time>
      </trkpt>
      <trkpt lat="46.433474" lon="14.388443">
        <ele>1447.8223942656</ele>
        <time>2016-06-18T14:45:13Z</time>
      </trkpt>
      <trkpt lat="46.433538" lon="14.388488">
        <ele>1447.5723973056</ele>
        <time>2016-06-18T14:45:23Z</time>
      </trkpt>
      <trkpt lat="46.433611" lon="14.388559">
        <ele>1446.8124065472</ele>
        <time>2016-06-18T14:45:34Z</time>
      </trkpt>
      <trkpt lat="46.433697" lon="14.388583">
        <ele>1445.7924189504</ele>
        <time>2016-06-18T14:45:44Z</time>
      </trkpt>
      <trkpt lat="46.433728" lon="14.388588">
        <ele>1445.4624229632</ele>
        <time>2016-06-18T14:45:48Z</time>
      </trkpt>
      <trkpt lat="46.433775" lon="14.388591">
        <ele>1444.8924298944</ele>
        <time>2016-06-18T14:45:53Z</time>
      </trkpt>
      <trkpt lat="46.433810" lon="14.388611">
        <ele>1444.73243184</ele>
        <time>2016-06-18T14:45:57Z</time>
      </trkpt>
      <trkpt lat="46.433846" lon="14.388714">
        <ele>1444.1724386496</ele>
        <time>2016-06-18T14:46:05Z</time>
      </trkpt>
      <trkpt lat="46.433850" lon="14.388727">
        <ele>1444.1924384064</ele>
        <time>2016-06-18T14:46:07Z</time>
      </trkpt>
      <trkpt lat="46.433892" lon="14.388891">
        <ele>1443.8924420544</ele>
        <time>2016-06-18T14:46:17Z</time>
      </trkpt>
      <trkpt lat="46.433900" lon="14.388923">
        <ele>1444.0524401088</ele>
        <time>2016-06-18T14:46:24Z</time>
      </trkpt>
      <trkpt lat="46.433905" lon="14.388976">
        <ele>1444.0924396224</ele>
        <time>2016-06-18T14:46:27Z</time>
      </trkpt>
      <trkpt lat="46.433912" lon="14.389021">
        <ele>1444.0124405952</ele>
        <time>2016-06-18T14:46:30Z</time>
      </trkpt>
      <trkpt lat="46.433953" lon="14.389155">
        <ele>1444.2924371904</ele>
        <time>2016-06-18T14:46:40Z</time>
      </trkpt>
      <trkpt lat="46.434012" lon="14.389197">
        <ele>1444.6724325696</ele>
        <time>2016-06-18T14:46:47Z</time>
      </trkpt>
      <trkpt lat="46.434070" lon="14.389214">
        <ele>1445.2724252736</ele>
        <time>2016-06-18T14:46:55Z</time>
      </trkpt>
      <trkpt lat="46.434127" lon="14.389279">
        <ele>1446.0124162752</ele>
        <time>2016-06-18T14:47:06Z</time>
      </trkpt>
      <trkpt lat="46.434148" lon="14.389358">
        <ele>1446.3924116544</ele>
        <time>2016-06-18T14:47:14Z</time>
      </trkpt>
      <trkpt lat="46.434150" lon="14.389377">
        <ele>1446.48241056</ele>
        <time>2016-06-18T14:47:15Z</time>
      </trkpt>
      <trkpt lat="46.434155" lon="14.389405">
        <ele>1446.5624095872</ele>
        <time>2016-06-18T14:47:18Z</time>
      </trkpt>
      <trkpt lat="46.434163" lon="14.389444">
        <ele>1446.5624095872</ele>
        <time>2016-06-18T14:47:21Z</time>
      </trkpt>
      <trkpt lat="46.434167" lon="14.389495">
        <ele>1446.4624108032</ele>
        <time>2016-06-18T14:47:25Z</time>
      </trkpt>
      <trkpt lat="46.434188" lon="14.389537">
        <ele>1446.5224100736</ele>
        <time>2016-06-18T14:47:29Z</time>
      </trkpt>
      <trkpt lat="46.434276" lon="14.389630">
        <ele>1446.1424146944</ele>
        <time>2016-06-18T14:47:40Z</time>
      </trkpt>
      <trkpt lat="46.434320" lon="14.389719">
        <ele>1445.7024200448</ele>
        <time>2016-06-18T14:47:48Z</time>
      </trkpt>
      <trkpt lat="46.434371" lon="14.389821">
        <ele>1445.6424207744</ele>
        <time>2016-06-18T14:47:56Z</time>
      </trkpt>
      <trkpt lat="46.434444" lon="14.389935">
        <ele>1446.5424098304</ele>
        <time>2016-06-18T14:48:09Z</time>
      </trkpt>
      <trkpt lat="46.434495" lon="14.390048">
        <ele>1447.6923958464</ele>
        <time>2016-06-18T14:48:26Z</time>
      </trkpt>
      <trkpt lat="46.434517" lon="14.390121">
        <ele>1448.2523890368</ele>
        <time>2016-06-18T14:48:36Z</time>
      </trkpt>
      <trkpt lat="46.434527" lon="14.390143">
        <ele>1449.032379552</ele>
        <time>2016-06-18T14:48:49Z</time>
      </trkpt>
      <trkpt lat="46.434532" lon="14.390170">
        <ele>1449.2623767552</ele>
        <time>2016-06-18T14:48:58Z</time>
      </trkpt>
      <trkpt lat="46.434535" lon="14.390190">
        <ele>1449.7223711616</ele>
        <time>2016-06-18T14:49:08Z</time>
      </trkpt>
      <trkpt lat="46.434545" lon="14.390210">
        <ele>1450.0223675136</ele>
        <time>2016-06-18T14:49:20Z</time>
      </trkpt>
      <trkpt lat="46.434551" lon="14.390239">
        <ele>1449.5523732288</ele>
        <time>2016-06-18T14:49:29Z</time>
      </trkpt>
      <trkpt lat="46.434550" lon="14.390260">
        <ele>1449.48237408</ele>
        <time>2016-06-18T14:49:33Z</time>
      </trkpt>
      <trkpt lat="46.434571" lon="14.390370">
        <ele>1449.6123724992</ele>
        <time>2016-06-18T14:49:41Z</time>
      </trkpt>
      <trkpt lat="46.434581" lon="14.390459">
        <ele>1450.6223602176</ele>
        <time>2016-06-18T14:49:52Z</time>
      </trkpt>
      <trkpt lat="46.434567" lon="14.390552">
        <ele>1451.7523464768</ele>
        <time>2016-06-18T14:50:02Z</time>
      </trkpt>
      <trkpt lat="46.434537" lon="14.390661">
        <ele>1452.3923386944</ele>
        <time>2016-06-18T14:50:11Z</time>
      </trkpt>
      <trkpt lat="46.434531" lon="14.390689">
        <ele>1452.5723365056</ele>
        <time>2016-06-18T14:50:14Z</time>
      </trkpt>
      <trkpt lat="46.434528" lon="14.390825">
        <ele>1453.8923204544</ele>
        <time>2016-06-18T14:50:23Z</time>
      </trkpt>
      <trkpt lat="46.434484" lon="14.390941">
        <ele>1454.6223115776</ele>
        <time>2016-06-18T14:50:34Z</time>
      </trkpt>
      <trkpt lat="46.434479" lon="14.390949">
        <ele>1454.682310848</ele>
        <time>2016-06-18T14:50:34Z</time>
      </trkpt>
      <trkpt lat="46.434435" lon="14.391043">
        <ele>1454.8623086592</ele>
        <time>2016-06-18T14:50:45Z</time>
      </trkpt>
      <trkpt lat="46.434403" lon="14.391111">
        <ele>1456.4522893248</ele>
        <time>2016-06-18T14:50:53Z</time>
      </trkpt>
      <trkpt lat="46.434370" lon="14.391157">
        <ele>1457.0622819072</ele>
        <time>2016-06-18T14:50:57Z</time>
      </trkpt>
      <trkpt lat="46.434297" lon="14.391243">
        <ele>1458.7322616</ele>
        <time>2016-06-18T14:51:08Z</time>
      </trkpt>
      <trkpt lat="46.434264" lon="14.391298">
        <ele>1460.182243968</ele>
        <time>2016-06-18T14:51:17Z</time>
      </trkpt>
      <trkpt lat="46.434218" lon="14.391392">
        <ele>1461.4022291328</ele>
        <time>2016-06-18T14:51:29Z</time>
      </trkpt>
      <trkpt lat="46.434160" lon="14.391505">
        <ele>1461.8022242688</ele>
        <time>2016-06-18T14:51:41Z</time>
      </trkpt>
      <trkpt lat="46.434146" lon="14.391594">
        <ele>1461.282230592</ele>
        <time>2016-06-18T14:51:52Z</time>
      </trkpt>
      <trkpt lat="46.434071" lon="14.391595">
        <ele>1460.7222374016</ele>
        <time>2016-06-18T14:52:03Z</time>
      </trkpt>
      <trkpt lat="46.434042" lon="14.391567">
        <ele>1460.5422395904</ele>
        <time>2016-06-18T14:52:14Z</time>
      </trkpt>
      <trkpt lat="46.433991" lon="14.391566">
        <ele>1460.5422395904</ele>
        <time>2016-06-18T14:52:30Z</time>
      </trkpt>
      <trkpt lat="46.433965" lon="14.391547">
        <ele>1460.782236672</ele>
        <time>2016-06-18T14:52:49Z</time>
      </trkpt>
      <trkpt lat="46.434016" lon="14.391565">
        <ele>1460.832236064</ele>
        <time>2016-06-18T14:53:01Z</time>
      </trkpt>
      <trkpt lat="46.434057" lon="14.391590">
        <ele>1461.2522309568</ele>
        <time>2016-06-18T14:53:13Z</time>
      </trkpt>
      <trkpt lat="46.434111" lon="14.391613">
        <ele>1461.1122326592</ele>
        <time>2016-06-18T14:53:24Z</time>
      </trkpt>
      <trkpt lat="46.434146" lon="14.391634">
        <ele>1461.1022327808</ele>
        <time>2016-06-18T14:53:43Z</time>
      </trkpt>
      <trkpt lat="46.434161" lon="14.391635">
        <ele>1461.032233632</ele>
        <time>2016-06-18T14:53:55Z</time>
      </trkpt>
      <trkpt lat="46.434137" lon="14.391624">
        <ele>1461.2322312</ele>
        <time>2016-06-18T14:54:18Z</time>
      </trkpt>
      <trkpt lat="46.434114" lon="14.391636">
        <ele>1461.4422286464</ele>
        <time>2016-06-18T14:54:36Z</time>
      </trkpt>
      <trkpt lat="46.434139" lon="14.391652">
        <ele>1461.2022315648</ele>
        <time>2016-06-18T14:54:53Z</time>
      </trkpt>
      <trkpt lat="46.434106" lon="14.391653">
        <ele>1460.7522370368</ele>
        <time>2016-06-18T14:55:11Z</time>
      </trkpt>
      <trkpt lat="46.434116" lon="14.391700">
        <ele>1460.7922365504</ele>
        <time>2016-06-18T14:55:21Z</time>
      </trkpt>
      <trkpt lat="46.434136" lon="14.391846">
        <ele>1459.5022522368</ele>
        <time>2016-06-18T14:55:35Z</time>
      </trkpt>
      <trkpt lat="46.434165" lon="14.391897">
        <ele>1459.0922572224</ele>
        <time>2016-06-18T14:55:39Z</time>
      </trkpt>
      <trkpt lat="46.434172" lon="14.392075">
        <ele>1458.5022643968</ele>
        <time>2016-06-18T14:55:50Z</time>
      </trkpt>
      <trkpt lat="46.434162" lon="14.392123">
        <ele>1458.1922681664</ele>
        <time>2016-06-18T14:55:53Z</time>
      </trkpt>
      <trkpt lat="46.434151" lon="14.392241">
        <ele>1457.4922766784</ele>
        <time>2016-06-18T14:55:58Z</time>
      </trkpt>
      <trkpt lat="46.434223" lon="14.392357">
        <ele>1456.9722830016</ele>
        <time>2016-06-18T14:56:07Z</time>
      </trkpt>
      <trkpt lat="46.434272" lon="14.392473">
        <ele>1457.082281664</ele>
        <time>2016-06-18T14:56:17Z</time>
      </trkpt>
      <trkpt lat="46.434322" lon="14.392602">
        <ele>1457.1622806912</ele>
        <time>2016-06-18T14:56:26Z</time>
      </trkpt>
      <trkpt lat="46.434361" lon="14.392757">
        <ele>1456.9622831232</ele>
        <time>2016-06-18T14:56:37Z</time>
      </trkpt>
      <trkpt lat="46.434405" lon="14.392789">
        <ele>1456.582287744</ele>
        <time>2016-06-18T14:56:45Z</time>
      </trkpt>
      <trkpt lat="46.434485" lon="14.392780">
        <ele>1455.9722951616</ele>
        <time>2016-06-18T14:56:55Z</time>
      </trkpt>
      <trkpt lat="46.434523" lon="14.392762">
        <ele>1455.8522966208</ele>
        <time>2016-06-18T14:56:57Z</time>
      </trkpt>
      <trkpt lat="46.434567" lon="14.392721">
        <ele>1455.8022972288</ele>
        <time>2016-06-18T14:57:04Z</time>
      </trkpt>
      <trkpt lat="46.434615" lon="14.392691">
        <ele>1456.6422870144</ele>
        <time>2016-06-18T14:57:09Z</time>
      </trkpt>
      <trkpt lat="46.434649" lon="14.392669">
        <ele>1456.7122861632</ele>
        <time>2016-06-18T14:57:12Z</time>
      </trkpt>
      <trkpt lat="46.434717" lon="14.392640">
        <ele>1456.182292608</ele>
        <time>2016-06-18T14:57:18Z</time>
      </trkpt>
      <trkpt lat="46.434827" lon="14.392623">
        <ele>1455.782297472</ele>
        <time>2016-06-18T14:57:24Z</time>
      </trkpt>
      <trkpt lat="46.434931" lon="14.392630">
        <ele>1455.8022972288</ele>
        <time>2016-06-18T14:57:31Z</time>
      </trkpt>
      <trkpt lat="46.434975" lon="14.392831">
        <ele>1456.082293824</ele>
        <time>2016-06-18T14:57:39Z</time>
      </trkpt>
      <trkpt lat="46.434980" lon="14.392877">
        <ele>1456.332290784</ele>
        <time>2016-06-18T14:57:43Z</time>
      </trkpt>
      <trkpt lat="46.434997" lon="14.392958">
        <ele>1456.5422882304</ele>
        <time>2016-06-18T14:57:51Z</time>
      </trkpt>
      <trkpt lat="46.435008" lon="14.392988">
        <ele>1456.6222872576</ele>
        <time>2016-06-18T14:57:54Z</time>
      </trkpt>
      <trkpt lat="46.435032" lon="14.393063">
        <ele>1456.7722854336</ele>
        <time>2016-06-18T14:58:01Z</time>
      </trkpt>
      <trkpt lat="46.435048" lon="14.393098">
        <ele>1456.7622855552</ele>
        <time>2016-06-18T14:58:03Z</time>
      </trkpt>
      <trkpt lat="46.435071" lon="14.393150">
        <ele>1456.6722866496</ele>
        <time>2016-06-18T14:58:09Z</time>
      </trkpt>
      <trkpt lat="46.435113" lon="14.393202">
        <ele>1457.1122812992</ele>
        <time>2016-06-18T14:58:17Z</time>
      </trkpt>
      <trkpt lat="46.435121" lon="14.393237">
        <ele>1457.7122740032</ele>
        <time>2016-06-18T14:58:28Z</time>
      </trkpt>
      <trkpt lat="46.435167" lon="14.393329">
        <ele>1457.5222763136</ele>
        <time>2016-06-18T14:58:37Z</time>
      </trkpt>
      <trkpt lat="46.435187" lon="14.393384">
        <ele>1457.5522759488</ele>
        <time>2016-06-18T14:58:43Z</time>
      </trkpt>
      <trkpt lat="46.435211" lon="14.393433">
        <ele>1457.5222763136</ele>
        <time>2016-06-18T14:58:47Z</time>
      </trkpt>
      <trkpt lat="46.435288" lon="14.393576">
        <ele>1457.4122776512</ele>
        <time>2016-06-18T14:58:57Z</time>
      </trkpt>
      <trkpt lat="46.435380" lon="14.393699">
        <ele>1456.6722866496</ele>
        <time>2016-06-18T14:59:08Z</time>
      </trkpt>
      <trkpt lat="46.435462" lon="14.393778">
        <ele>1456.3922900544</ele>
        <time>2016-06-18T14:59:18Z</time>
      </trkpt>
      <trkpt lat="46.435482" lon="14.393869">
        <ele>1456.5522881088</ele>
        <time>2016-06-18T14:59:27Z</time>
      </trkpt>
      <trkpt lat="46.435482" lon="14.394048">
        <ele>1456.0722939456</ele>
        <time>2016-06-18T14:59:38Z</time>
      </trkpt>
      <trkpt lat="46.435491" lon="14.394168">
        <ele>1456.232292</ele>
        <time>2016-06-18T14:59:45Z</time>
      </trkpt>
      <trkpt lat="46.435491" lon="14.394299">
        <ele>1456.6922864064</ele>
        <time>2016-06-18T14:59:56Z</time>
      </trkpt>
      <trkpt lat="46.435499" lon="14.394434">
        <ele>1457.1222811776</ele>
        <time>2016-06-18T15:00:05Z</time>
      </trkpt>
      <trkpt lat="46.435558" lon="14.394589">
        <ele>1457.6922742464</ele>
        <time>2016-06-18T15:00:17Z</time>
      </trkpt>
      <trkpt lat="46.435565" lon="14.394745">
        <ele>1458.2222678016</ele>
        <time>2016-06-18T15:00:27Z</time>
      </trkpt>
      <trkpt lat="46.435561" lon="14.394840">
        <ele>1459.282254912</ele>
        <time>2016-06-18T15:00:36Z</time>
      </trkpt>
      <trkpt lat="46.435503" lon="14.394951">
        <ele>1459.432253088</ele>
        <time>2016-06-18T15:00:47Z</time>
      </trkpt>
      <trkpt lat="46.435495" lon="14.395056">
        <ele>1460.2522431168</ele>
        <time>2016-06-18T15:00:56Z</time>
      </trkpt>
      <trkpt lat="46.435462" lon="14.395196">
        <ele>1460.6622381312</ele>
        <time>2016-06-18T15:01:08Z</time>
      </trkpt>
      <trkpt lat="46.435424" lon="14.395308">
        <ele>1459.532251872</ele>
        <time>2016-06-18T15:01:19Z</time>
      </trkpt>
      <trkpt lat="46.435389" lon="14.395415">
        <ele>1458.5622636672</ele>
        <time>2016-06-18T15:01:29Z</time>
      </trkpt>
      <trkpt lat="46.435374" lon="14.395547">
        <ele>1457.182280448</ele>
        <time>2016-06-18T15:01:38Z</time>
      </trkpt>
      <trkpt lat="46.435356" lon="14.395618">
        <ele>1456.2922912704</ele>
        <time>2016-06-18T15:01:44Z</time>
      </trkpt>
      <trkpt lat="46.435372" lon="14.395741">
        <ele>1454.632311456</ele>
        <time>2016-06-18T15:01:53Z</time>
      </trkpt>
      <trkpt lat="46.435422" lon="14.395842">
        <ele>1453.1023300608</ele>
        <time>2016-06-18T15:02:04Z</time>
      </trkpt>
      <trkpt lat="46.435486" lon="14.395887">
        <ele>1452.0023434368</ele>
        <time>2016-06-18T15:02:16Z</time>
      </trkpt>
      <trkpt lat="46.435486" lon="14.395892">
        <ele>1451.9123445312</ele>
        <time>2016-06-18T15:02:16Z</time>
      </trkpt>
      <trkpt lat="46.435585" lon="14.396005">
        <ele>1449.5023738368</ele>
        <time>2016-06-18T15:02:29Z</time>
      </trkpt>
      <trkpt lat="46.435610" lon="14.396105">
        <ele>1449.4223748096</ele>
        <time>2016-06-18T15:02:40Z</time>
      </trkpt>
      <trkpt lat="46.435593" lon="14.396175">
        <ele>1448.1723900096</ele>
        <time>2016-06-18T15:02:54Z</time>
      </trkpt>
      <trkpt lat="46.435600" lon="14.396251">
        <ele>1446.48241056</ele>
        <time>2016-06-18T15:03:07Z</time>
      </trkpt>
      <trkpt lat="46.435615" lon="14.396353">
        <ele>1444.5124345152</ele>
        <time>2016-06-18T15:03:18Z</time>
      </trkpt>
      <trkpt lat="46.435657" lon="14.396473">
        <ele>1442.5724581056</ele>
        <time>2016-06-18T15:03:29Z</time>
      </trkpt>
      <trkpt lat="46.435698" lon="14.396689">
        <ele>1440.3024857088</ele>
        <time>2016-06-18T15:03:40Z</time>
      </trkpt>
      <trkpt lat="46.435705" lon="14.396866">
        <ele>1437.9225146496</ele>
        <time>2016-06-18T15:03:52Z</time>
      </trkpt>
      <trkpt lat="46.435746" lon="14.396967">
        <ele>1436.1125366592</ele>
        <time>2016-06-18T15:04:01Z</time>
      </trkpt>
      <trkpt lat="46.435821" lon="14.397094">
        <ele>1433.9625628032</ele>
        <time>2016-06-18T15:04:12Z</time>
      </trkpt>
      <trkpt lat="46.435860" lon="14.397165">
        <ele>1432.9925745984</ele>
        <time>2016-06-18T15:04:20Z</time>
      </trkpt>
      <trkpt lat="46.435904" lon="14.397259">
        <ele>1431.8225888256</ele>
        <time>2016-06-18T15:04:28Z</time>
      </trkpt>
      <trkpt lat="46.435916" lon="14.397349">
        <ele>1430.4526054848</ele>
        <time>2016-06-18T15:04:38Z</time>
      </trkpt>
      <trkpt lat="46.435907" lon="14.397445">
        <ele>1428.8526249408</ele>
        <time>2016-06-18T15:04:47Z</time>
      </trkpt>
      <trkpt lat="46.435914" lon="14.397478">
        <ele>1427.2426445184</ele>
        <time>2016-06-18T15:04:58Z</time>
      </trkpt>
      <trkpt lat="46.435919" lon="14.397489">
        <ele>1426.682651328</ele>
        <time>2016-06-18T15:05:10Z</time>
      </trkpt>
      <trkpt lat="46.435930" lon="14.397546">
        <ele>1426.7726502336</ele>
        <time>2016-06-18T15:05:25Z</time>
      </trkpt>
      <trkpt lat="46.435920" lon="14.397567">
        <ele>1426.7226508416</ele>
        <time>2016-06-18T15:05:40Z</time>
      </trkpt>
      <trkpt lat="46.435968" lon="14.397555">
        <ele>1427.1126460992</ele>
        <time>2016-06-18T15:05:49Z</time>
      </trkpt>
      <trkpt lat="46.435988" lon="14.397549">
        <ele>1426.7226508416</ele>
        <time>2016-06-18T15:06:00Z</time>
      </trkpt>
      <trkpt lat="46.436016" lon="14.397540">
        <ele>1426.3526553408</ele>
        <time>2016-06-18T15:06:12Z</time>
      </trkpt>
      <trkpt lat="46.436016" lon="14.397541">
        <ele>1426.0926585024</ele>
        <time>2016-06-18T15:06:31Z</time>
      </trkpt>
      <trkpt lat="46.436025" lon="14.397521">
        <ele>1426.0626588672</ele>
        <time>2016-06-18T15:06:54Z</time>
      </trkpt>
      <trkpt lat="46.436030" lon="14.397535">
        <ele>1425.9926597184</ele>
        <time>2016-06-18T15:07:06Z</time>
      </trkpt>
      <trkpt lat="46.436026" lon="14.397555">
        <ele>1426.2726563136</ele>
        <time>2016-06-18T15:07:24Z</time>
      </trkpt>
      <trkpt lat="46.436040" lon="14.397562">
        <ele>1425.9726599616</ele>
        <time>2016-06-18T15:07:37Z</time>
      </trkpt>
      <trkpt lat="46.436079" lon="14.397590">
        <ele>1425.6726636096</ele>
        <time>2016-06-18T15:07:47Z</time>
      </trkpt>
      <trkpt lat="46.436114" lon="14.397615">
        <ele>1425.4126667712</ele>
        <time>2016-06-18T15:07:56Z</time>
      </trkpt>
      <trkpt lat="46.436109" lon="14.397602">
        <ele>1425.3026681088</ele>
        <time>2016-06-18T15:08:07Z</time>
      </trkpt>
      <trkpt lat="46.436114" lon="14.397607">
        <ele>1425.132670176</ele>
        <time>2016-06-18T15:08:15Z</time>
      </trkpt>
      <trkpt lat="46.436158" lon="14.397637">
        <ele>1424.982672</ele>
        <time>2016-06-18T15:08:23Z</time>
      </trkpt>
      <trkpt lat="46.436216" lon="14.397677">
        <ele>1424.3026802688</ele>
        <time>2016-06-18T15:08:31Z</time>
      </trkpt>
      <trkpt lat="46.436232" lon="14.397705">
        <ele>1423.8126862272</ele>
        <time>2016-06-18T15:08:41Z</time>
      </trkpt>
      <trkpt lat="46.436273" lon="14.397770">
        <ele>1423.8626856192</ele>
        <time>2016-06-18T15:08:47Z</time>
      </trkpt>
      <trkpt lat="46.436282" lon="14.397914">
        <ele>1422.9126971712</ele>
        <time>2016-06-18T15:09:00Z</time>
      </trkpt>
      <trkpt lat="46.436254" lon="14.397966">
        <ele>1422.0027082368</ele>
        <time>2016-06-18T15:09:05Z</time>
      </trkpt>
      <trkpt lat="46.436239" lon="14.398050">
        <ele>1420.782723072</ele>
        <time>2016-06-18T15:09:12Z</time>
      </trkpt>
      <trkpt lat="46.436251" lon="14.398137">
        <ele>1419.5527380288</ele>
        <time>2016-06-18T15:09:18Z</time>
      </trkpt>
      <trkpt lat="46.436247" lon="14.398194">
        <ele>1418.382752256</ele>
        <time>2016-06-18T15:09:27Z</time>
      </trkpt>
      <trkpt lat="46.436242" lon="14.398264">
        <ele>1417.4227639296</ele>
        <time>2016-06-18T15:09:33Z</time>
      </trkpt>
      <trkpt lat="46.436250" lon="14.398333">
        <ele>1416.5527745088</ele>
        <time>2016-06-18T15:09:40Z</time>
      </trkpt>
      <trkpt lat="46.436262" lon="14.398368">
        <ele>1416.1427794944</ele>
        <time>2016-06-18T15:09:44Z</time>
      </trkpt>
      <trkpt lat="46.436306" lon="14.398420">
        <ele>1415.2127908032</ele>
        <time>2016-06-18T15:09:48Z</time>
      </trkpt>
      <trkpt lat="46.436385" lon="14.398456">
        <ele>1413.5228113536</ele>
        <time>2016-06-18T15:09:55Z</time>
      </trkpt>
      <trkpt lat="46.436464" lon="14.398541">
        <ele>1412.4128248512</ele>
        <time>2016-06-18T15:10:03Z</time>
      </trkpt>
      <trkpt lat="46.436482" lon="14.398566">
        <ele>1412.2928263104</ele>
        <time>2016-06-18T15:10:06Z</time>
      </trkpt>
      <trkpt lat="46.436557" lon="14.398702">
        <ele>1412.0528292288</ele>
        <time>2016-06-18T15:10:17Z</time>
      </trkpt>
      <trkpt lat="46.436599" lon="14.398809">
        <ele>1411.6428342144</ele>
        <time>2016-06-18T15:10:25Z</time>
      </trkpt>
      <trkpt lat="46.436607" lon="14.398823">
        <ele>1411.6528340928</ele>
        <time>2016-06-18T15:10:26Z</time>
      </trkpt>
      <trkpt lat="46.436628" lon="14.398841">
        <ele>1411.6728338496</ele>
        <time>2016-06-18T15:10:27Z</time>
      </trkpt>
      <trkpt lat="46.436700" lon="14.398969">
        <ele>1411.6028347008</ele>
        <time>2016-06-18T15:10:38Z</time>
      </trkpt>
      <trkpt lat="46.436745" lon="14.399096">
        <ele>1411.48283616</ele>
        <time>2016-06-18T15:10:46Z</time>
      </trkpt>
      <trkpt lat="46.436774" lon="14.399231">
        <ele>1411.1128406592</ele>
        <time>2016-06-18T15:10:56Z</time>
      </trkpt>
      <trkpt lat="46.436806" lon="14.399380">
        <ele>1410.832844064</ele>
        <time>2016-06-18T15:11:05Z</time>
      </trkpt>
      <trkpt lat="46.436809" lon="14.399554">
        <ele>1410.8528438208</ele>
        <time>2016-06-18T15:11:16Z</time>
      </trkpt>
      <trkpt lat="46.436772" lon="14.399697">
        <ele>1410.9628424832</ele>
        <time>2016-06-18T15:11:24Z</time>
      </trkpt>
      <trkpt lat="46.436769" lon="14.399824">
        <ele>1411.2128394432</ele>
        <time>2016-06-18T15:11:32Z</time>
      </trkpt>
      <trkpt lat="46.436773" lon="14.399871">
        <ele>1411.5128357952</ele>
        <time>2016-06-18T15:11:36Z</time>
      </trkpt>
      <trkpt lat="46.436805" lon="14.399940">
        <ele>1411.8228320256</ele>
        <time>2016-06-18T15:11:40Z</time>
      </trkpt>
      <trkpt lat="46.436830" lon="14.399983">
        <ele>1411.9128309312</ele>
        <time>2016-06-18T15:11:44Z</time>
      </trkpt>
      <trkpt lat="46.436843" lon="14.400061">
        <ele>1411.6228344576</ele>
        <time>2016-06-18T15:11:50Z</time>
      </trkpt>
      <trkpt lat="46.436844" lon="14.400141">
        <ele>1411.0428415104</ele>
        <time>2016-06-18T15:11:55Z</time>
      </trkpt>
      <trkpt lat="46.436829" lon="14.400273">
        <ele>1410.3228502656</ele>
        <time>2016-06-18T15:12:03Z</time>
      </trkpt>
      <trkpt lat="46.436824" lon="14.400287">
        <ele>1410.2628509952</ele>
        <time>2016-06-18T15:12:05Z</time>
      </trkpt>
      <trkpt lat="46.436806" lon="14.400327">
        <ele>1410.0428536704</ele>
        <time>2016-06-18T15:12:07Z</time>
      </trkpt>
      <trkpt lat="46.436792" lon="14.400399">
        <ele>1408.9428670464</ele>
        <time>2016-06-18T15:12:17Z</time>
      </trkpt>
      <trkpt lat="46.436792" lon="14.400447">
        <ele>1408.6028711808</ele>
        <time>2016-06-18T15:12:22Z</time>
      </trkpt>
      <trkpt lat="46.436807" lon="14.400571">
        <ele>1408.0528778688</ele>
        <time>2016-06-18T15:12:33Z</time>
      </trkpt>
      <trkpt lat="46.436806" lon="14.400706">
        <ele>1409.2128637632</ele>
        <time>2016-06-18T15:12:45Z</time>
      </trkpt>
      <trkpt lat="46.436808" lon="14.400736">
        <ele>1409.3028626688</ele>
        <time>2016-06-18T15:12:46Z</time>
      </trkpt>
      <trkpt lat="46.436822" lon="14.400855">
        <ele>1409.1128649792</ele>
        <time>2016-06-18T15:12:56Z</time>
      </trkpt>
      <trkpt lat="46.436826" lon="14.401017">
        <ele>1408.282875072</ele>
        <time>2016-06-18T15:13:07Z</time>
      </trkpt>
      <trkpt lat="46.436769" lon="14.401134">
        <ele>1408.382873856</ele>
        <time>2016-06-18T15:13:16Z</time>
      </trkpt>
      <trkpt lat="46.436740" lon="14.401189">
        <ele>1408.48287264</ele>
        <time>2016-06-18T15:13:23Z</time>
      </trkpt>
      <trkpt lat="46.436681" lon="14.401258">
        <ele>1409.032865952</ele>
        <time>2016-06-18T15:13:31Z</time>
      </trkpt>
      <trkpt lat="46.436633" lon="14.401323">
        <ele>1410.082853184</ele>
        <time>2016-06-18T15:13:42Z</time>
      </trkpt>
      <trkpt lat="46.436593" lon="14.401470">
        <ele>1410.932842848</ele>
        <time>2016-06-18T15:13:53Z</time>
      </trkpt>
      <trkpt lat="46.436612" lon="14.401656">
        <ele>1411.8128321472</ele>
        <time>2016-06-18T15:14:05Z</time>
      </trkpt>
      <trkpt lat="46.436649" lon="14.401796">
        <ele>1412.5928226624</ele>
        <time>2016-06-18T15:14:17Z</time>
      </trkpt>
      <trkpt lat="46.436675" lon="14.401954">
        <ele>1412.7628205952</ele>
        <time>2016-06-18T15:14:28Z</time>
      </trkpt>
      <trkpt lat="46.436710" lon="14.402017">
        <ele>1412.7628205952</ele>
        <time>2016-06-18T15:14:37Z</time>
      </trkpt>
      <trkpt lat="46.436765" lon="14.402124">
        <ele>1412.3628254592</ele>
        <time>2016-06-18T15:14:45Z</time>
      </trkpt>
      <trkpt lat="46.436774" lon="14.402136">
        <ele>1412.3228259456</ele>
        <time>2016-06-18T15:14:47Z</time>
      </trkpt>
      <trkpt lat="46.436870" lon="14.402284">
        <ele>1411.8028322688</ele>
        <time>2016-06-18T15:14:57Z</time>
      </trkpt>
      <trkpt lat="46.436921" lon="14.402391">
        <ele>1411.2728387136</ele>
        <time>2016-06-18T15:15:08Z</time>
      </trkpt>
      <trkpt lat="46.436941" lon="14.402501">
        <ele>1411.0528413888</ele>
        <time>2016-06-18T15:15:15Z</time>
      </trkpt>
      <trkpt lat="46.436969" lon="14.402656">
        <ele>1410.5128479552</ele>
        <time>2016-06-18T15:15:24Z</time>
      </trkpt>
      <trkpt lat="46.436951" lon="14.402817">
        <ele>1410.4028492928</ele>
        <time>2016-06-18T15:15:35Z</time>
      </trkpt>
      <trkpt lat="46.436941" lon="14.402885">
        <ele>1410.6628461312</ele>
        <time>2016-06-18T15:15:41Z</time>
      </trkpt>
      <trkpt lat="46.436936" lon="14.402910">
        <ele>1410.73284528</ele>
        <time>2016-06-18T15:15:43Z</time>
      </trkpt>
      <trkpt lat="46.436879" lon="14.403043">
        <ele>1410.7228454016</ele>
        <time>2016-06-18T15:15:54Z</time>
      </trkpt>
      <trkpt lat="46.436852" lon="14.403109">
        <ele>1410.6128467392</ele>
        <time>2016-06-18T15:15:58Z</time>
      </trkpt>
      <trkpt lat="46.436851" lon="14.403127">
        <ele>1410.6228466176</ele>
        <time>2016-06-18T15:16:02Z</time>
      </trkpt>
      <trkpt lat="46.436858" lon="14.403169">
        <ele>1410.7628449152</ele>
        <time>2016-06-18T15:16:06Z</time>
      </trkpt>
      <trkpt lat="46.436856" lon="14.403236">
        <ele>1411.0628412672</ele>
        <time>2016-06-18T15:16:10Z</time>
      </trkpt>
      <trkpt lat="46.436865" lon="14.403282">
        <ele>1411.1628400512</ele>
        <time>2016-06-18T15:16:13Z</time>
      </trkpt>
      <trkpt lat="46.436939" lon="14.403356">
        <ele>1410.6528462528</ele>
        <time>2016-06-18T15:16:24Z</time>
      </trkpt>
      <trkpt lat="46.436947" lon="14.403363">
        <ele>1410.5128479552</ele>
        <time>2016-06-18T15:16:25Z</time>
      </trkpt>
      <trkpt lat="46.437039" lon="14.403414">
        <ele>1409.4028614528</ele>
        <time>2016-06-18T15:16:33Z</time>
      </trkpt>
      <trkpt lat="46.437102" lon="14.403464">
        <ele>1409.0528657088</ele>
        <time>2016-06-18T15:16:40Z</time>
      </trkpt>
      <trkpt lat="46.437123" lon="14.403502">
        <ele>1408.7328696</ele>
        <time>2016-06-18T15:16:44Z</time>
      </trkpt>
      <trkpt lat="46.437132" lon="14.403668">
        <ele>1408.2028760448</ele>
        <time>2016-06-18T15:16:52Z</time>
      </trkpt>
      <trkpt lat="46.437162" lon="14.403773">
        <ele>1408.5028723968</ele>
        <time>2016-06-18T15:17:00Z</time>
      </trkpt>
      <trkpt lat="46.437176" lon="14.403882">
        <ele>1409.0128661952</ele>
        <time>2016-06-18T15:17:07Z</time>
      </trkpt>
      <trkpt lat="46.437188" lon="14.404019">
        <ele>1409.6528584128</ele>
        <time>2016-06-18T15:17:16Z</time>
      </trkpt>
      <trkpt lat="46.437211" lon="14.404092">
        <ele>1409.8228563456</ele>
        <time>2016-06-18T15:17:26Z</time>
      </trkpt>
      <trkpt lat="46.437245" lon="14.404194">
        <ele>1410.4728484416</ele>
        <time>2016-06-18T15:17:34Z</time>
      </trkpt>
      <trkpt lat="46.437253" lon="14.404229">
        <ele>1410.4928481984</ele>
        <time>2016-06-18T15:17:38Z</time>
      </trkpt>
      <trkpt lat="46.437231" lon="14.404300">
        <ele>1410.4228490496</ele>
        <time>2016-06-18T15:17:45Z</time>
      </trkpt>
      <trkpt lat="46.437184" lon="14.404411">
        <ele>1410.9528426048</ele>
        <time>2016-06-18T15:17:58Z</time>
      </trkpt>
      <trkpt lat="46.437136" lon="14.404558">
        <ele>1411.6228344576</ele>
        <time>2016-06-18T15:18:09Z</time>
      </trkpt>
      <trkpt lat="46.437118" lon="14.404654">
        <ele>1412.9728180416</ele>
        <time>2016-06-18T15:18:18Z</time>
      </trkpt>
      <trkpt lat="46.437086" lon="14.404790">
        <ele>1414.4428001664</ele>
        <time>2016-06-18T15:18:31Z</time>
      </trkpt>
      <trkpt lat="46.437066" lon="14.404966">
        <ele>1415.6627853312</ele>
        <time>2016-06-18T15:18:44Z</time>
      </trkpt>
      <trkpt lat="46.437026" lon="14.405173">
        <ele>1416.6927728064</ele>
        <time>2016-06-18T15:18:58Z</time>
      </trkpt>
      <trkpt lat="46.437016" lon="14.405260">
        <ele>1417.6027617408</ele>
        <time>2016-06-18T15:19:07Z</time>
      </trkpt>
      <trkpt lat="46.437056" lon="14.405371">
        <ele>1419.032744352</ele>
        <time>2016-06-18T15:19:19Z</time>
      </trkpt>
      <trkpt lat="46.437105" lon="14.405469">
        <ele>1420.682724288</ele>
        <time>2016-06-18T15:19:31Z</time>
      </trkpt>
      <trkpt lat="46.437158" lon="14.405564">
        <ele>1422.4627026432</ele>
        <time>2016-06-18T15:19:44Z</time>
      </trkpt>
      <trkpt lat="46.437239" lon="14.405645">
        <ele>1423.7126874432</ele>
        <time>2016-06-18T15:19:54Z</time>
      </trkpt>
      <trkpt lat="46.437336" lon="14.405753">
        <ele>1425.1426700544</ele>
        <time>2016-06-18T15:20:06Z</time>
      </trkpt>
      <trkpt lat="46.437453" lon="14.405828">
        <ele>1425.7526626368</ele>
        <time>2016-06-18T15:20:19Z</time>
      </trkpt>
      <trkpt lat="46.437540" lon="14.405956">
        <ele>1425.9526602048</ele>
        <time>2016-06-18T15:20:31Z</time>
      </trkpt>
      <trkpt lat="46.437580" lon="14.406063">
        <ele>1425.5226654336</ele>
        <time>2016-06-18T15:20:40Z</time>
      </trkpt>
      <trkpt lat="46.437611" lon="14.406191">
        <ele>1425.6226642176</ele>
        <time>2016-06-18T15:20:50Z</time>
      </trkpt>
      <trkpt lat="46.437655" lon="14.406401">
        <ele>1425.3126679872</ele>
        <time>2016-06-18T15:21:00Z</time>
      </trkpt>
      <trkpt lat="46.437647" lon="14.406514">
        <ele>1425.0026717568</ele>
        <time>2016-06-18T15:21:10Z</time>
      </trkpt>
      <trkpt lat="46.437643" lon="14.406584">
        <ele>1424.632676256</ele>
        <time>2016-06-18T15:21:21Z</time>
      </trkpt>
      <trkpt lat="46.437659" lon="14.406690">
        <ele>1424.282680512</ele>
        <time>2016-06-18T15:21:29Z</time>
      </trkpt>
      <trkpt lat="46.437663" lon="14.406798">
        <ele>1424.082682944</ele>
        <time>2016-06-18T15:21:37Z</time>
      </trkpt>
      <trkpt lat="46.437647" lon="14.406796">
        <ele>1423.6526881728</ele>
        <time>2016-06-18T15:21:49Z</time>
      </trkpt>
      <trkpt lat="46.437645" lon="14.406866">
        <ele>1423.4426907264</ele>
        <time>2016-06-18T15:21:56Z</time>
      </trkpt>
      <trkpt lat="46.437635" lon="14.406967">
        <ele>1422.9026972928</ele>
        <time>2016-06-18T15:22:03Z</time>
      </trkpt>
      <trkpt lat="46.437595" lon="14.407022">
        <ele>1422.4727025216</ele>
        <time>2016-06-18T15:22:07Z</time>
      </trkpt>
      <trkpt lat="46.437506" lon="14.407103">
        <ele>1421.7527112768</ele>
        <time>2016-06-18T15:22:16Z</time>
      </trkpt>
      <trkpt lat="46.437442" lon="14.407145">
        <ele>1421.0527197888</ele>
        <time>2016-06-18T15:22:23Z</time>
      </trkpt>
      <trkpt lat="46.437349" lon="14.407215">
        <ele>1419.5427381504</ele>
        <time>2016-06-18T15:22:32Z</time>
      </trkpt>
      <trkpt lat="46.437286" lon="14.407257">
        <ele>1419.1627427712</ele>
        <time>2016-06-18T15:22:40Z</time>
      </trkpt>
      <trkpt lat="46.437286" lon="14.407373">
        <ele>1418.7927472704</ele>
        <time>2016-06-18T15:22:51Z</time>
      </trkpt>
      <trkpt lat="46.437307" lon="14.407498">
        <ele>1418.2427539584</ele>
        <time>2016-06-18T15:22:59Z</time>
      </trkpt>
      <trkpt lat="46.437331" lon="14.407625">
        <ele>1417.6427612544</ele>
        <time>2016-06-18T15:23:07Z</time>
      </trkpt>
      <trkpt lat="46.437374" lon="14.407762">
        <ele>1417.1627670912</ele>
        <time>2016-06-18T15:23:18Z</time>
      </trkpt>
      <trkpt lat="46.437443" lon="14.407837">
        <ele>1416.0527805888</ele>
        <time>2016-06-18T15:23:29Z</time>
      </trkpt>
      <trkpt lat="46.437484" lon="14.407950">
        <ele>1415.8627828992</ele>
        <time>2016-06-18T15:23:40Z</time>
      </trkpt>
      <trkpt lat="46.437502" lon="14.408005">
        <ele>1415.682785088</ele>
        <time>2016-06-18T15:23:52Z</time>
      </trkpt>
      <trkpt lat="46.437508" lon="14.408075">
        <ele>1415.8427831424</ele>
        <time>2016-06-18T15:24:07Z</time>
      </trkpt>
      <trkpt lat="46.437515" lon="14.408217">
        <ele>1415.3927886144</ele>
        <time>2016-06-18T15:24:15Z</time>
      </trkpt>
      <trkpt lat="46.437504" lon="14.408358">
        <ele>1415.1127920192</ele>
        <time>2016-06-18T15:24:24Z</time>
      </trkpt>
      <trkpt lat="46.437432" lon="14.408421">
        <ele>1414.4128005312</ele>
        <time>2016-06-18T15:24:35Z</time>
      </trkpt>
      <trkpt lat="46.437410" lon="14.408534">
        <ele>1414.032805152</ele>
        <time>2016-06-18T15:24:45Z</time>
      </trkpt>
      <trkpt lat="46.437348" lon="14.408670">
        <ele>1413.5228113536</ele>
        <time>2016-06-18T15:24:55Z</time>
      </trkpt>
      <trkpt lat="46.437303" lon="14.408800">
        <ele>1411.9228308096</ele>
        <time>2016-06-18T15:25:06Z</time>
      </trkpt>
      <trkpt lat="46.437252" lon="14.408924">
        <ele>1411.9628303232</ele>
        <time>2016-06-18T15:25:18Z</time>
      </trkpt>
      <trkpt lat="46.437163" lon="14.408983">
        <ele>1412.3428257024</ele>
        <time>2016-06-18T15:25:29Z</time>
      </trkpt>
      <trkpt lat="46.437143" lon="14.409082">
        <ele>1412.3228259456</ele>
        <time>2016-06-18T15:25:40Z</time>
      </trkpt>
      <trkpt lat="46.437126" lon="14.409186">
        <ele>1411.9228308096</ele>
        <time>2016-06-18T15:25:52Z</time>
      </trkpt>
      <trkpt lat="46.437157" lon="14.409321">
        <ele>1411.2728387136</ele>
        <time>2016-06-18T15:26:03Z</time>
      </trkpt>
      <trkpt lat="46.437158" lon="14.409446">
        <ele>1410.1228526976</ele>
        <time>2016-06-18T15:26:14Z</time>
      </trkpt>
      <trkpt lat="46.437177" lon="14.409625">
        <ele>1408.9028675328</ele>
        <time>2016-06-18T15:26:23Z</time>
      </trkpt>
      <trkpt lat="46.437214" lon="14.409722">
        <ele>1408.1528766528</ele>
        <time>2016-06-18T15:26:33Z</time>
      </trkpt>
      <trkpt lat="46.437268" lon="14.409839">
        <ele>1407.5628838272</ele>
        <time>2016-06-18T15:26:42Z</time>
      </trkpt>
      <trkpt lat="46.437331" lon="14.409936">
        <ele>1407.032890272</ele>
        <time>2016-06-18T15:26:51Z</time>
      </trkpt>
      <trkpt lat="46.437395" lon="14.410063">
        <ele>1406.3428986624</ele>
        <time>2016-06-18T15:27:04Z</time>
      </trkpt>
      <trkpt lat="46.437415" lon="14.410188">
        <ele>1405.0929138624</ele>
        <time>2016-06-18T15:27:14Z</time>
      </trkpt>
      <trkpt lat="46.437432" lon="14.410300">
        <ele>1403.632931616</ele>
        <time>2016-06-18T15:27:25Z</time>
      </trkpt>
      <trkpt lat="46.437441" lon="14.410409">
        <ele>1403.032938912</ele>
        <time>2016-06-18T15:27:33Z</time>
      </trkpt>
      <trkpt lat="46.437442" lon="14.410496">
        <ele>1402.082950464</ele>
        <time>2016-06-18T15:27:44Z</time>
      </trkpt>
      <trkpt lat="46.437403" lon="14.410618">
        <ele>1400.3129719872</ele>
        <time>2016-06-18T15:27:55Z</time>
      </trkpt>
      <trkpt lat="46.437316" lon="14.410695">
        <ele>1399.3529836608</ele>
        <time>2016-06-18T15:28:06Z</time>
      </trkpt>
      <trkpt lat="46.437248" lon="14.410749">
        <ele>1398.4629944832</ele>
        <time>2016-06-18T15:28:15Z</time>
      </trkpt>
      <trkpt lat="46.437224" lon="14.410910">
        <ele>1397.8030025088</ele>
        <time>2016-06-18T15:28:22Z</time>
      </trkpt>
      <trkpt lat="46.437245" lon="14.411063">
        <ele>1397.183010048</ele>
        <time>2016-06-18T15:28:34Z</time>
      </trkpt>
      <trkpt lat="46.437250" lon="14.411074">
        <ele>1397.0430117504</ele>
        <time>2016-06-18T15:28:34Z</time>
      </trkpt>
      <trkpt lat="46.437264" lon="14.411116">
        <ele>1396.683016128</ele>
        <time>2016-06-18T15:28:38Z</time>
      </trkpt>
      <trkpt lat="46.437296" lon="14.411250">
        <ele>1395.2930330304</ele>
        <time>2016-06-18T15:28:46Z</time>
      </trkpt>
      <trkpt lat="46.437307" lon="14.411281">
        <ele>1395.0430360704</ele>
        <time>2016-06-18T15:28:49Z</time>
      </trkpt>
      <trkpt lat="46.437306" lon="14.411302">
        <ele>1394.8230387456</ele>
        <time>2016-06-18T15:28:50Z</time>
      </trkpt>
      <trkpt lat="46.437310" lon="14.411429">
        <ele>1394.033048352</ele>
        <time>2016-06-18T15:29:00Z</time>
      </trkpt>
      <trkpt lat="46.437309" lon="14.411593">
        <ele>1392.6530651328</ele>
        <time>2016-06-18T15:29:12Z</time>
      </trkpt>
      <trkpt lat="46.437332" lon="14.411696">
        <ele>1391.1730831296</ele>
        <time>2016-06-18T15:29:21Z</time>
      </trkpt>
      <trkpt lat="46.437355" lon="14.411761">
        <ele>1390.4930913984</ele>
        <time>2016-06-18T15:29:27Z</time>
      </trkpt>
      <trkpt lat="46.437385" lon="14.411863">
        <ele>1389.0931084224</ele>
        <time>2016-06-18T15:29:33Z</time>
      </trkpt>
      <trkpt lat="46.437393" lon="14.411932">
        <ele>1388.5631148672</ele>
        <time>2016-06-18T15:29:38Z</time>
      </trkpt>
      <trkpt lat="46.437385" lon="14.412079">
        <ele>1387.2131312832</ele>
        <time>2016-06-18T15:29:47Z</time>
      </trkpt>
      <trkpt lat="46.437354" lon="14.412213">
        <ele>1386.0131458752</ele>
        <time>2016-06-18T15:29:56Z</time>
      </trkpt>
      <trkpt lat="46.437370" lon="14.412349">
        <ele>1384.5231639936</ele>
        <time>2016-06-18T15:30:06Z</time>
      </trkpt>
      <trkpt lat="46.437377" lon="14.412428">
        <ele>1383.2931789504</ele>
        <time>2016-06-18T15:30:14Z</time>
      </trkpt>
      <trkpt lat="46.437402" lon="14.412510">
        <ele>1381.7031982848</ele>
        <time>2016-06-18T15:30:26Z</time>
      </trkpt>
      <trkpt lat="46.437438" lon="14.412622">
        <ele>1380.4432136064</ele>
        <time>2016-06-18T15:30:36Z</time>
      </trkpt>
      <trkpt lat="46.437460" lon="14.412728">
        <ele>1378.8232333056</ele>
        <time>2016-06-18T15:30:46Z</time>
      </trkpt>
      <trkpt lat="46.437434" lon="14.412790">
        <ele>1378.0132431552</ele>
        <time>2016-06-18T15:31:01Z</time>
      </trkpt>
      <trkpt lat="46.437432" lon="14.412805">
        <ele>1378.0732424256</ele>
        <time>2016-06-18T15:31:15Z</time>
      </trkpt>
      <trkpt lat="46.437441" lon="14.412884">
        <ele>1377.383250816</ele>
        <time>2016-06-18T15:31:26Z</time>
      </trkpt>
      <trkpt lat="46.437450" lon="14.412923">
        <ele>1377.1132540992</ele>
        <time>2016-06-18T15:31:30Z</time>
      </trkpt>
      <trkpt lat="46.437476" lon="14.413032">
        <ele>1376.383262976</ele>
        <time>2016-06-18T15:31:38Z</time>
      </trkpt>
      <trkpt lat="46.437496" lon="14.413181">
        <ele>1375.7532706368</ele>
        <time>2016-06-18T15:31:47Z</time>
      </trkpt>
      <trkpt lat="46.437507" lon="14.413274">
        <ele>1375.0732789056</ele>
        <time>2016-06-18T15:31:53Z</time>
      </trkpt>
      <trkpt lat="46.437534" lon="14.413436">
        <ele>1373.7232953216</ele>
        <time>2016-06-18T15:32:02Z</time>
      </trkpt>
      <trkpt lat="46.437545" lon="14.413553">
        <ele>1372.933304928</ele>
        <time>2016-06-18T15:32:10Z</time>
      </trkpt>
      <trkpt lat="46.437559" lon="14.413614">
        <ele>1371.8933175744</ele>
        <time>2016-06-18T15:32:17Z</time>
      </trkpt>
      <trkpt lat="46.437568" lon="14.413644">
        <ele>1371.5033223168</ele>
        <time>2016-06-18T15:32:18Z</time>
      </trkpt>
      <trkpt lat="46.437612" lon="14.413711">
        <ele>1370.5033344768</ele>
        <time>2016-06-18T15:32:25Z</time>
      </trkpt>
      <trkpt lat="46.437636" lon="14.413744">
        <ele>1370.083339584</ele>
        <time>2016-06-18T15:32:28Z</time>
      </trkpt>
      <trkpt lat="46.437647" lon="14.413813">
        <ele>1369.2633495552</ele>
        <time>2016-06-18T15:32:32Z</time>
      </trkpt>
      <trkpt lat="46.437666" lon="14.413896">
        <ele>1368.7133562432</ele>
        <time>2016-06-18T15:32:37Z</time>
      </trkpt>
      <trkpt lat="46.437677" lon="14.414076">
        <ele>1368.4933589184</ele>
        <time>2016-06-18T15:32:47Z</time>
      </trkpt>
      <trkpt lat="46.437704" lon="14.414208">
        <ele>1367.7033685248</ele>
        <time>2016-06-18T15:32:56Z</time>
      </trkpt>
      <trkpt lat="46.437702" lon="14.414270">
        <ele>1367.8433668224</ele>
        <time>2016-06-18T15:33:05Z</time>
      </trkpt>
      <trkpt lat="46.437703" lon="14.414359">
        <ele>1367.8533667008</ele>
        <time>2016-06-18T15:33:18Z</time>
      </trkpt>
      <trkpt lat="46.437714" lon="14.414386">
        <ele>1367.933365728</ele>
        <time>2016-06-18T15:33:28Z</time>
      </trkpt>
      <trkpt lat="46.437733" lon="14.414415">
        <ele>1367.98336512</ele>
        <time>2016-06-18T15:33:32Z</time>
      </trkpt>
      <trkpt lat="46.437764" lon="14.414536">
        <ele>1367.8933662144</ele>
        <time>2016-06-18T15:33:41Z</time>
      </trkpt>
      <trkpt lat="46.437779" lon="14.414709">
        <ele>1367.7133684032</ele>
        <time>2016-06-18T15:33:50Z</time>
      </trkpt>
      <trkpt lat="46.437775" lon="14.414843">
        <ele>1367.9633653632</ele>
        <time>2016-06-18T15:33:59Z</time>
      </trkpt>
      <trkpt lat="46.437776" lon="14.414937">
        <ele>1368.6433570944</ele>
        <time>2016-06-18T15:34:06Z</time>
      </trkpt>
      <trkpt lat="46.437818" lon="14.415060">
        <ele>1369.2733494336</ele>
        <time>2016-06-18T15:34:14Z</time>
      </trkpt>
      <trkpt lat="46.437835" lon="14.415102">
        <ele>1369.533346272</ele>
        <time>2016-06-18T15:34:17Z</time>
      </trkpt>
      <trkpt lat="46.437857" lon="14.415131">
        <ele>1369.9433412864</ele>
        <time>2016-06-18T15:34:21Z</time>
      </trkpt>
      <trkpt lat="46.437902" lon="14.415210">
        <ele>1370.9933285184</ele>
        <time>2016-06-18T15:34:28Z</time>
      </trkpt>
      <trkpt lat="46.437939" lon="14.415323">
        <ele>1371.8933175744</ele>
        <time>2016-06-18T15:34:35Z</time>
      </trkpt>
      <trkpt lat="46.437979" lon="14.415411">
        <ele>1372.3433121024</ele>
        <time>2016-06-18T15:34:40Z</time>
      </trkpt>
      <trkpt lat="46.438033" lon="14.415498">
        <ele>1373.0033040768</ele>
        <time>2016-06-18T15:34:48Z</time>
      </trkpt>
      <trkpt lat="46.438052" lon="14.415531">
        <ele>1373.3532998208</ele>
        <time>2016-06-18T15:34:51Z</time>
      </trkpt>
      <trkpt lat="46.438090" lon="14.415608">
        <ele>1374.1432902144</ele>
        <time>2016-06-18T15:34:57Z</time>
      </trkpt>
      <trkpt lat="46.438148" lon="14.415672">
        <ele>1375.1732776896</ele>
        <time>2016-06-18T15:35:04Z</time>
      </trkpt>
      <trkpt lat="46.438205" lon="14.415739">
        <ele>1375.9032688128</ele>
        <time>2016-06-18T15:35:12Z</time>
      </trkpt>
      <trkpt lat="46.438224" lon="14.415791">
        <ele>1376.3632632192</ele>
        <time>2016-06-18T15:35:16Z</time>
      </trkpt>
      <trkpt lat="46.438253" lon="14.415859">
        <ele>1377.1532536128</ele>
        <time>2016-06-18T15:35:23Z</time>
      </trkpt>
      <trkpt lat="46.438301" lon="14.415960">
        <ele>1377.933244128</ele>
        <time>2016-06-18T15:35:31Z</time>
      </trkpt>
      <trkpt lat="46.438369" lon="14.416010">
        <ele>1378.6432354944</ele>
        <time>2016-06-18T15:35:39Z</time>
      </trkpt>
      <trkpt lat="46.438398" lon="14.416038">
        <ele>1379.2032286848</ele>
        <time>2016-06-18T15:35:49Z</time>
      </trkpt>
      <trkpt lat="46.438382" lon="14.416014">
        <ele>1379.4032262528</ele>
        <time>2016-06-18T15:35:56Z</time>
      </trkpt>
      <trkpt lat="46.438367" lon="14.415977">
        <ele>1379.183228928</ele>
        <time>2016-06-18T15:36:05Z</time>
      </trkpt>
      <trkpt lat="46.438402" lon="14.415976">
        <ele>1379.23322832</ele>
        <time>2016-06-18T15:36:13Z</time>
      </trkpt>
      <trkpt lat="46.438409" lon="14.416021">
        <ele>1379.2732278336</ele>
        <time>2016-06-18T15:36:28Z</time>
      </trkpt>
      <trkpt lat="46.438410" lon="14.416055">
        <ele>1379.4532256448</ele>
        <time>2016-06-18T15:36:44Z</time>
      </trkpt>
      <trkpt lat="46.438385" lon="14.416058">
        <ele>1379.2232284416</ele>
        <time>2016-06-18T15:36:52Z</time>
      </trkpt>
      <trkpt lat="46.438382" lon="14.416063">
        <ele>1379.0632303872</ele>
        <time>2016-06-18T15:37:03Z</time>
      </trkpt>
      <trkpt lat="46.438399" lon="14.416095">
        <ele>1378.333239264</ele>
        <time>2016-06-18T15:37:14Z</time>
      </trkpt>
      <trkpt lat="46.438401" lon="14.416079">
        <ele>1378.48323744</ele>
        <time>2016-06-18T15:37:26Z</time>
      </trkpt>
      <trkpt lat="46.438414" lon="14.416065">
        <ele>1378.7732339136</ele>
        <time>2016-06-18T15:37:42Z</time>
      </trkpt>
      <trkpt lat="46.438431" lon="14.416074">
        <ele>1378.6532353728</ele>
        <time>2016-06-18T15:38:05Z</time>
      </trkpt>
      <trkpt lat="46.438421" lon="14.416054">
        <ele>1378.7732339136</ele>
        <time>2016-06-18T15:38:21Z</time>
      </trkpt>
      <trkpt lat="46.438404" lon="14.416041">
        <ele>1378.7232345216</ele>
        <time>2016-06-18T15:38:36Z</time>
      </trkpt>
      <trkpt lat="46.438410" lon="14.416061">
        <ele>1378.7132346432</ele>
        <time>2016-06-18T15:38:59Z</time>
      </trkpt>
      <trkpt lat="46.438422" lon="14.416092">
        <ele>1378.8232333056</ele>
        <time>2016-06-18T15:39:14Z</time>
      </trkpt>
      <trkpt lat="46.438419" lon="14.416114">
        <ele>1378.8932324544</ele>
        <time>2016-06-18T15:39:30Z</time>
      </trkpt>
      <trkpt lat="46.438420" lon="14.416087">
        <ele>1378.8032335488</ele>
        <time>2016-06-18T15:39:45Z</time>
      </trkpt>
      <trkpt lat="46.438401" lon="14.416015">
        <ele>1378.8232333056</ele>
        <time>2016-06-18T15:40:01Z</time>
      </trkpt>
      <trkpt lat="46.438398" lon="14.415986">
        <ele>1378.7632340352</ele>
        <time>2016-06-18T15:40:26Z</time>
      </trkpt>
      <trkpt lat="46.438389" lon="14.415970">
        <ele>1378.7432342784</ele>
        <time>2016-06-18T15:40:39Z</time>
      </trkpt>
      <trkpt lat="46.438363" lon="14.415881">
        <ele>1378.8532329408</ele>
        <time>2016-06-18T15:41:06Z</time>
      </trkpt>
      <trkpt lat="46.438384" lon="14.415854">
        <ele>1378.9532317248</ele>
        <time>2016-06-18T15:41:22Z</time>
      </trkpt>
      <trkpt lat="46.438404" lon="14.415746">
        <ele>1378.8732326976</ele>
        <time>2016-06-18T15:41:37Z</time>
      </trkpt>
      <trkpt lat="46.438400" lon="14.415648">
        <ele>1379.1232296576</ele>
        <time>2016-06-18T15:41:52Z</time>
      </trkpt>
      <trkpt lat="46.438378" lon="14.415699">
        <ele>1379.1632291712</ele>
        <time>2016-06-18T15:42:08Z</time>
      </trkpt>
      <trkpt lat="46.438380" lon="14.415753">
        <ele>1379.2132285632</ele>
        <time>2016-06-18T15:42:19Z</time>
      </trkpt>
      <trkpt lat="46.438366" lon="14.415806">
        <ele>1378.6932348864</ele>
        <time>2016-06-18T15:42:34Z</time>
      </trkpt>
      <trkpt lat="46.438351" lon="14.415887">
        <ele>1378.9732314816</ele>
        <time>2016-06-18T15:42:50Z</time>
      </trkpt>
      <trkpt lat="46.438338" lon="14.415838">
        <ele>1378.9132322112</ele>
        <time>2016-06-18T15:43:03Z</time>
      </trkpt>
      <trkpt lat="46.438345" lon="14.415850">
        <ele>1378.9632316032</ele>
        <time>2016-06-18T15:43:18Z</time>
      </trkpt>
      <trkpt lat="46.438354" lon="14.415850">
        <ele>1378.9232320896</ele>
        <time>2016-06-18T15:43:29Z</time>
      </trkpt>
      <trkpt lat="46.438354" lon="14.415902">
        <ele>1379.0132309952</ele>
        <time>2016-06-18T15:43:43Z</time>
      </trkpt>
      <trkpt lat="46.438346" lon="14.415926">
        <ele>1379.0032311168</ele>
        <time>2016-06-18T15:43:55Z</time>
      </trkpt>
      <trkpt lat="46.438341" lon="14.415933">
        <ele>1379.3132273472</ele>
        <time>2016-06-18T15:44:07Z</time>
      </trkpt>
      <trkpt lat="46.438305" lon="14.415895">
        <ele>1379.2932275904</ele>
        <time>2016-06-18T15:44:19Z</time>
      </trkpt>
      <trkpt lat="46.438320" lon="14.415955">
        <ele>1379.283227712</ele>
        <time>2016-06-18T15:44:33Z</time>
      </trkpt>
      <trkpt lat="46.438336" lon="14.416036">
        <ele>1379.1532292928</ele>
        <time>2016-06-18T15:44:46Z</time>
      </trkpt>
      <trkpt lat="46.438356" lon="14.416067">
        <ele>1379.3732266176</ele>
        <time>2016-06-18T15:45:01Z</time>
      </trkpt>
      <trkpt lat="46.438391" lon="14.416054">
        <ele>1379.3732266176</ele>
        <time>2016-06-18T15:45:17Z</time>
      </trkpt>
      <trkpt lat="46.438354" lon="14.416027">
        <ele>1379.4932251584</ele>
        <time>2016-06-18T15:45:32Z</time>
      </trkpt>
      <trkpt lat="46.438326" lon="14.415984">
        <ele>1379.533224672</ele>
        <time>2016-06-18T15:45:47Z</time>
      </trkpt>
      <trkpt lat="46.438377" lon="14.415954">
        <ele>1379.533224672</ele>
        <time>2016-06-18T15:45:59Z</time>
      </trkpt>
      <trkpt lat="46.438377" lon="14.415928">
        <ele>1379.4632255232</ele>
        <time>2016-06-18T15:46:14Z</time>
      </trkpt>
      <trkpt lat="46.438380" lon="14.415954">
        <ele>1379.5732241856</ele>
        <time>2016-06-18T15:46:27Z</time>
      </trkpt>
      <trkpt lat="46.438371" lon="14.415995">
        <ele>1379.5032250368</ele>
        <time>2016-06-18T15:46:41Z</time>
      </trkpt>
      <trkpt lat="46.438365" lon="14.416075">
        <ele>1379.5432245504</ele>
        <time>2016-06-18T15:46:56Z</time>
      </trkpt>
      <trkpt lat="46.438344" lon="14.416036">
        <ele>1379.583224064</ele>
        <time>2016-06-18T15:47:06Z</time>
      </trkpt>
      <trkpt lat="46.438336" lon="14.416031">
        <ele>1379.5632243072</ele>
        <time>2016-06-18T15:47:20Z</time>
      </trkpt>
      <trkpt lat="46.438350" lon="14.416044">
        <ele>1379.683222848</ele>
        <time>2016-06-18T15:47:33Z</time>
      </trkpt>
      <trkpt lat="46.438345" lon="14.416039">
        <ele>1379.5732241856</ele>
        <time>2016-06-18T15:47:46Z</time>
      </trkpt>
      <trkpt lat="46.438339" lon="14.416069">
        <ele>1379.2632279552</ele>
        <time>2016-06-18T15:47:59Z</time>
      </trkpt>
      <trkpt lat="46.438146" lon="14.415905">
        <ele>1379.533224672</ele>
        <time>2016-06-18T15:48:11Z</time>
      </trkpt>
      <trkpt lat="46.438118" lon="14.415917">
        <ele>1379.4532256448</ele>
        <time>2016-06-18T15:48:26Z</time>
      </trkpt>
      <trkpt lat="46.438229" lon="14.415978">
        <ele>1379.5732241856</ele>
        <time>2016-06-18T15:48:41Z</time>
      </trkpt>
      <trkpt lat="46.438270" lon="14.416013">
        <ele>1379.583224064</ele>
        <time>2016-06-18T15:48:56Z</time>
      </trkpt>
      <trkpt lat="46.438266" lon="14.416022">
        <ele>1379.533224672</ele>
        <time>2016-06-18T15:49:09Z</time>
      </trkpt>
      <trkpt lat="46.438265" lon="14.416063">
        <ele>1379.6632230912</ele>
        <time>2016-06-18T15:49:21Z</time>
      </trkpt>
      <trkpt lat="46.438259" lon="14.416051">
        <ele>1379.8432209024</ele>
        <time>2016-06-18T15:49:36Z</time>
      </trkpt>
      <trkpt lat="46.438223" lon="14.416024">
        <ele>1379.8632206592</ele>
        <time>2016-06-18T15:49:50Z</time>
      </trkpt>
      <trkpt lat="46.438268" lon="14.416059">
        <ele>1379.8232211456</ele>
        <time>2016-06-18T15:50:03Z</time>
      </trkpt>
      <trkpt lat="46.438303" lon="14.416043">
        <ele>1379.9432196864</ele>
        <time>2016-06-18T15:50:21Z</time>
      </trkpt>
      <trkpt lat="46.438299" lon="14.415994">
        <ele>1379.7032226048</ele>
        <time>2016-06-18T15:50:36Z</time>
      </trkpt>
      <trkpt lat="46.438260" lon="14.415991">
        <ele>1379.933219808</ele>
        <time>2016-06-18T15:50:52Z</time>
      </trkpt>
      <trkpt lat="46.438302" lon="14.416018">
        <ele>1379.9032201728</ele>
        <time>2016-06-18T15:51:08Z</time>
      </trkpt>
      <trkpt lat="46.438325" lon="14.416040">
        <ele>1379.833221024</ele>
        <time>2016-06-18T15:51:19Z</time>
      </trkpt>
      <trkpt lat="46.438346" lon="14.416060">
        <ele>1379.7132224832</ele>
        <time>2016-06-18T15:51:34Z</time>
      </trkpt>
      <trkpt lat="46.438393" lon="14.416083">
        <ele>1379.4232260096</ele>
        <time>2016-06-18T15:51:47Z</time>
      </trkpt>
      <trkpt lat="46.438411" lon="14.416070">
        <ele>1379.5732241856</ele>
        <time>2016-06-18T15:52:02Z</time>
      </trkpt>
      <trkpt lat="46.438408" lon="14.416058">
        <ele>1379.4732254016</ele>
        <time>2016-06-18T15:52:06Z</time>
      </trkpt>
      <trkpt lat="46.438425" lon="14.416022">
        <ele>1379.6032238208</ele>
        <time>2016-06-18T15:52:21Z</time>
      </trkpt>
      <trkpt lat="46.438376" lon="14.415949">
        <ele>1379.6032238208</ele>
        <time>2016-06-18T15:52:36Z</time>
      </trkpt>
      <trkpt lat="46.438366" lon="14.415942">
        <ele>1379.683222848</ele>
        <time>2016-06-18T15:52:48Z</time>
      </trkpt>
      <trkpt lat="46.438263" lon="14.415910">
        <ele>1379.633223456</ele>
        <time>2016-06-18T15:53:02Z</time>
      </trkpt>
      <trkpt lat="46.438201" lon="14.415912">
        <ele>1379.683222848</ele>
        <time>2016-06-18T15:53:15Z</time>
      </trkpt>
      <trkpt lat="46.438221" lon="14.415941">
        <ele>1379.8932202944</ele>
        <time>2016-06-18T15:53:30Z</time>
      </trkpt>
      <trkpt lat="46.438196" lon="14.415899">
        <ele>1379.8032213888</ele>
        <time>2016-06-18T15:53:43Z</time>
      </trkpt>
      <trkpt lat="46.438192" lon="14.415892">
        <ele>1379.7132224832</ele>
        <time>2016-06-18T15:53:58Z</time>
      </trkpt>
      <trkpt lat="46.438196" lon="14.415879">
        <ele>1379.6932227264</ele>
        <time>2016-06-18T15:54:12Z</time>
      </trkpt>
      <trkpt lat="46.438210" lon="14.415886">
        <ele>1379.7032226048</ele>
        <time>2016-06-18T15:54:13Z</time>
      </trkpt>
      <trkpt lat="46.438268" lon="14.415908">
        <ele>1379.4732254016</ele>
        <time>2016-06-18T15:54:28Z</time>
      </trkpt>
      <trkpt lat="46.438253" lon="14.415860">
        <ele>1379.4432257664</ele>
        <time>2016-06-18T15:54:40Z</time>
      </trkpt>
      <trkpt lat="46.438211" lon="14.415833">
        <ele>1379.3132273472</ele>
        <time>2016-06-18T15:54:55Z</time>
      </trkpt>
      <trkpt lat="46.438268" lon="14.415863">
        <ele>1379.4232260096</ele>
        <time>2016-06-18T15:55:11Z</time>
      </trkpt>
      <trkpt lat="46.438336" lon="14.415900">
        <ele>1379.6432233344</ele>
        <time>2016-06-18T15:55:26Z</time>
      </trkpt>
      <trkpt lat="46.438350" lon="14.415955">
        <ele>1379.7032226048</ele>
        <time>2016-06-18T15:55:38Z</time>
      </trkpt>
      <trkpt lat="46.438389" lon="14.415971">
        <ele>1379.5932239424</ele>
        <time>2016-06-18T15:55:50Z</time>
      </trkpt>
      <trkpt lat="46.438424" lon="14.415935">
        <ele>1379.8032213888</ele>
        <time>2016-06-18T15:56:01Z</time>
      </trkpt>
      <trkpt lat="46.438408" lon="14.415822">
        <ele>1379.7932215104</ele>
        <time>2016-06-18T15:56:09Z</time>
      </trkpt>
      <trkpt lat="46.438331" lon="14.415737">
        <ele>1379.7432221184</ele>
        <time>2016-06-18T15:56:23Z</time>
      </trkpt>
      <trkpt lat="46.438317" lon="14.415732">
        <ele>1379.5932239424</ele>
        <time>2016-06-18T15:56:38Z</time>
      </trkpt>
      <trkpt lat="46.438301" lon="14.415739">
        <ele>1379.73322224</ele>
        <time>2016-06-18T15:56:51Z</time>
      </trkpt>
      <trkpt lat="46.438313" lon="14.415742">
        <ele>1379.683222848</ele>
        <time>2016-06-18T15:57:07Z</time>
      </trkpt>
      <trkpt lat="46.438351" lon="14.415830">
        <ele>1379.6532232128</ele>
        <time>2016-06-18T15:57:26Z</time>
      </trkpt>
      <trkpt lat="46.438340" lon="14.415847">
        <ele>1379.5932239424</ele>
        <time>2016-06-18T15:57:37Z</time>
      </trkpt>
      <trkpt lat="46.438335" lon="14.415754">
        <ele>1379.533224672</ele>
        <time>2016-06-18T15:57:50Z</time>
      </trkpt>
      <trkpt lat="46.438388" lon="14.415836">
        <ele>1379.5632243072</ele>
        <time>2016-06-18T15:58:04Z</time>
      </trkpt>
      <trkpt lat="46.438410" lon="14.415845">
        <ele>1379.4432257664</ele>
        <time>2016-06-18T15:58:19Z</time>
      </trkpt>
      <trkpt lat="46.438370" lon="14.415746">
        <ele>1379.4232260096</ele>
        <time>2016-06-18T15:58:32Z</time>
      </trkpt>
      <trkpt lat="46.438355" lon="14.415727">
        <ele>1379.3932263744</ele>
        <time>2016-06-18T15:58:44Z</time>
      </trkpt>
      <trkpt lat="46.438357" lon="14.415771">
        <ele>1379.48322528</ele>
        <time>2016-06-18T15:58:57Z</time>
      </trkpt>
      <trkpt lat="46.438339" lon="14.415768">
        <ele>1379.3232272256</ele>
        <time>2016-06-18T15:59:10Z</time>
      </trkpt>
      <trkpt lat="46.438300" lon="14.415734">
        <ele>1379.4732254016</ele>
        <time>2016-06-18T15:59:22Z</time>
      </trkpt>
      <trkpt lat="46.438294" lon="14.415777">
        <ele>1379.5032250368</ele>
        <time>2016-06-18T15:59:37Z</time>
      </trkpt>
      <trkpt lat="46.438321" lon="14.415810">
        <ele>1379.533224672</ele>
        <time>2016-06-18T15:59:56Z</time>
      </trkpt>
      <trkpt lat="46.438336" lon="14.415794">
        <ele>1379.6232235776</ele>
        <time>2016-06-18T16:00:08Z</time>
      </trkpt>
      <trkpt lat="46.438389" lon="14.415813">
        <ele>1379.8232211456</ele>
        <time>2016-06-18T16:00:19Z</time>
      </trkpt>
      <trkpt lat="46.438331" lon="14.415728">
        <ele>1379.23322832</ele>
        <time>2016-06-18T16:00:31Z</time>
      </trkpt>
      <trkpt lat="46.438321" lon="14.415747">
        <ele>1379.4732254016</ele>
        <time>2016-06-18T16:00:43Z</time>
      </trkpt>
      <trkpt lat="46.438342" lon="14.415817">
        <ele>1379.533224672</ele>
        <time>2016-06-18T16:00:55Z</time>
      </trkpt>
      <trkpt lat="46.438331" lon="14.415806">
        <ele>1379.5132249152</ele>
        <time>2016-06-18T16:01:08Z</time>
      </trkpt>
      <trkpt lat="46.438377" lon="14.415829">
        <ele>1379.6032238208</ele>
        <time>2016-06-18T16:01:21Z</time>
      </trkpt>
      <trkpt lat="46.438393" lon="14.415756">
        <ele>1379.683222848</ele>
        <time>2016-06-18T16:01:33Z</time>
      </trkpt>
      <trkpt lat="46.438384" lon="14.415874">
        <ele>1379.4932251584</ele>
        <time>2016-06-18T16:01:47Z</time>
      </trkpt>
      <trkpt lat="46.438387" lon="14.415899">
        <ele>1379.2032286848</ele>
        <time>2016-06-18T16:01:59Z</time>
      </trkpt>
      <trkpt lat="46.438337" lon="14.415820">
        <ele>1379.0432306304</ele>
        <time>2016-06-18T16:02:12Z</time>
      </trkpt>
      <trkpt lat="46.438353" lon="14.415885">
        <ele>1379.1432294144</ele>
        <time>2016-06-18T16:02:27Z</time>
      </trkpt>
      <trkpt lat="46.438365" lon="14.415905">
        <ele>1379.4232260096</ele>
        <time>2016-06-18T16:02:41Z</time>
      </trkpt>
      <trkpt lat="46.438372" lon="14.415928">
        <ele>1379.4132261312</ele>
        <time>2016-06-18T16:02:53Z</time>
      </trkpt>
      <trkpt lat="46.438411" lon="14.415912">
        <ele>1379.5232247936</ele>
        <time>2016-06-18T16:03:05Z</time>
      </trkpt>
      <trkpt lat="46.438446" lon="14.415975">
        <ele>1379.383226496</ele>
        <time>2016-06-18T16:03:20Z</time>
      </trkpt>
      <trkpt lat="46.438413" lon="14.415886">
        <ele>1379.383226496</ele>
        <time>2016-06-18T16:03:33Z</time>
      </trkpt>
      <trkpt lat="46.438346" lon="14.415749">
        <ele>1379.4432257664</ele>
        <time>2016-06-18T16:03:44Z</time>
      </trkpt>
      <trkpt lat="46.438328" lon="14.415698">
        <ele>1379.383226496</ele>
        <time>2016-06-18T16:03:58Z</time>
      </trkpt>
      <trkpt lat="46.438339" lon="14.415712">
        <ele>1379.1932288064</ele>
        <time>2016-06-18T16:04:12Z</time>
      </trkpt>
      <trkpt lat="46.438358" lon="14.415782">
        <ele>1379.433225888</ele>
        <time>2016-06-18T16:04:27Z</time>
      </trkpt>
      <trkpt lat="46.438388" lon="14.415854">
        <ele>1379.283227712</ele>
        <time>2016-06-18T16:04:42Z</time>
      </trkpt>
      <trkpt lat="46.438407" lon="14.415929">
        <ele>1379.3132273472</ele>
        <time>2016-06-18T16:04:57Z</time>
      </trkpt>
      <trkpt lat="46.438405" lon="14.415889">
        <ele>1379.1032299008</ele>
        <time>2016-06-18T16:05:11Z</time>
      </trkpt>
      <trkpt lat="46.438399" lon="14.415954">
        <ele>1379.2432281984</ele>
        <time>2016-06-18T16:05:23Z</time>
      </trkpt>
      <trkpt lat="46.438365" lon="14.415867">
        <ele>1379.3032274688</ele>
        <time>2016-06-18T16:05:36Z</time>
      </trkpt>
      <trkpt lat="46.438359" lon="14.415802">
        <ele>1379.1132297792</ele>
        <time>2016-06-18T16:05:48Z</time>
      </trkpt>
      <trkpt lat="46.438394" lon="14.415869">
        <ele>1378.9232320896</ele>
        <time>2016-06-18T16:06:03Z</time>
      </trkpt>
      <trkpt lat="46.438377" lon="14.415886">
        <ele>1378.9532317248</ele>
        <time>2016-06-18T16:06:18Z</time>
      </trkpt>
      <trkpt lat="46.438343" lon="14.415876">
        <ele>1378.7132346432</ele>
        <time>2016-06-18T16:06:37Z</time>
      </trkpt>
      <trkpt lat="46.438372" lon="14.415903">
        <ele>1378.8132334272</ele>
        <time>2016-06-18T16:06:52Z</time>
      </trkpt>
      <trkpt lat="46.438394" lon="14.415962">
        <ele>1378.7732339136</ele>
        <time>2016-06-18T16:07:07Z</time>
      </trkpt>
      <trkpt lat="46.438389" lon="14.415939">
        <ele>1379.0032311168</ele>
        <time>2016-06-18T16:07:24Z</time>
      </trkpt>
      <trkpt lat="46.438383" lon="14.415912">
        <ele>1378.9432318464</ele>
        <time>2016-06-18T16:07:40Z</time>
      </trkpt>
      <trkpt lat="46.438367" lon="14.415931">
        <ele>1378.7032347648</ele>
        <time>2016-06-18T16:08:01Z</time>
      </trkpt>
      <trkpt lat="46.438391" lon="14.415934">
        <ele>1378.7032347648</ele>
        <time>2016-06-18T16:08:11Z</time>
      </trkpt>
      <trkpt lat="46.438343" lon="14.415897">
        <ele>1378.7132346432</ele>
        <time>2016-06-18T16:08:24Z</time>
      </trkpt>
      <trkpt lat="46.438372" lon="14.415887">
        <ele>1378.8132334272</ele>
        <time>2016-06-18T16:08:36Z</time>
      </trkpt>
      <trkpt lat="46.438382" lon="14.415885">
        <ele>1378.7632340352</ele>
        <time>2016-06-18T16:08:48Z</time>
      </trkpt>
      <trkpt lat="46.438346" lon="14.415903">
        <ele>1378.7732339136</ele>
        <time>2016-06-18T16:09:08Z</time>
      </trkpt>
      <trkpt lat="46.438293" lon="14.415886">
        <ele>1378.833233184</ele>
        <time>2016-06-18T16:09:20Z</time>
      </trkpt>
      <trkpt lat="46.438283" lon="14.415908">
        <ele>1378.933231968</ele>
        <time>2016-06-18T16:09:35Z</time>
      </trkpt>
      <trkpt lat="46.438320" lon="14.415902">
        <ele>1379.0932300224</ele>
        <time>2016-06-18T16:09:54Z</time>
      </trkpt>
      <trkpt lat="46.438349" lon="14.415899">
        <ele>1378.9032323328</ele>
        <time>2016-06-18T16:10:17Z</time>
      </trkpt>
      <trkpt lat="46.438367" lon="14.415855">
        <ele>1379.033230752</ele>
        <time>2016-06-18T16:10:36Z</time>
      </trkpt>
      <trkpt lat="46.438404" lon="14.415875">
        <ele>1378.9032323328</ele>
        <time>2016-06-18T16:10:59Z</time>
      </trkpt>
      <trkpt lat="46.438413" lon="14.415892">
        <ele>1379.1232296576</ele>
        <time>2016-06-18T16:11:18Z</time>
      </trkpt>
      <trkpt lat="46.438397" lon="14.415877">
        <ele>1379.283227712</ele>
        <time>2016-06-18T16:11:34Z</time>
      </trkpt>
      <trkpt lat="46.438361" lon="14.415833">
        <ele>1379.3232272256</ele>
        <time>2016-06-18T16:11:50Z</time>
      </trkpt>
      <trkpt lat="46.438380" lon="14.415843">
        <ele>1379.383226496</ele>
        <time>2016-06-18T16:12:08Z</time>
      </trkpt>
      <trkpt lat="46.438379" lon="14.415874">
        <ele>1379.3232272256</ele>
        <time>2016-06-18T16:12:28Z</time>
      </trkpt>
      <trkpt lat="46.438400" lon="14.415916">
        <ele>1379.283227712</ele>
        <time>2016-06-18T16:12:40Z</time>
      </trkpt>
      <trkpt lat="46.438416" lon="14.415924">
        <ele>1379.7132224832</ele>
        <time>2016-06-18T16:13:02Z</time>
      </trkpt>
      <trkpt lat="46.438393" lon="14.415890">
        <ele>1379.5632243072</ele>
        <time>2016-06-18T16:13:22Z</time>
      </trkpt>
      <trkpt lat="46.438389" lon="14.415878">
        <ele>1379.4132261312</ele>
        <time>2016-06-18T16:13:44Z</time>
      </trkpt>
      <trkpt lat="46.438389" lon="14.415896">
        <ele>1379.6632230912</ele>
        <time>2016-06-18T16:14:05Z</time>
      </trkpt>
      <trkpt lat="46.438351" lon="14.415853">
        <ele>1379.7032226048</ele>
        <time>2016-06-18T16:14:21Z</time>
      </trkpt>
      <trkpt lat="46.438352" lon="14.415820">
        <ele>1379.6032238208</ele>
        <time>2016-06-18T16:14:36Z</time>
      </trkpt>
      <trkpt lat="46.438355" lon="14.415814">
        <ele>1379.7132224832</ele>
        <time>2016-06-18T16:14:55Z</time>
      </trkpt>
      <trkpt lat="46.438349" lon="14.415782">
        <ele>1379.5232247936</ele>
        <time>2016-06-18T16:15:17Z</time>
      </trkpt>
      <trkpt lat="46.438335" lon="14.415750">
        <ele>1379.5732241856</ele>
        <time>2016-06-18T16:15:34Z</time>
      </trkpt>
      <trkpt lat="46.438362" lon="14.415800">
        <ele>1379.5932239424</ele>
        <time>2016-06-18T16:15:48Z</time>
      </trkpt>
      <trkpt lat="46.438300" lon="14.415665">
        <ele>1379.6432233344</ele>
        <time>2016-06-18T16:16:04Z</time>
      </trkpt>
      <trkpt lat="46.438314" lon="14.415687">
        <ele>1379.783221632</ele>
        <time>2016-06-18T16:16:21Z</time>
      </trkpt>
      <trkpt lat="46.438324" lon="14.415722">
        <ele>1380.0232187136</ele>
        <time>2016-06-18T16:16:40Z</time>
      </trkpt>
      <trkpt lat="46.438329" lon="14.415775">
        <ele>1379.9232199296</ele>
        <time>2016-06-18T16:16:58Z</time>
      </trkpt>
      <trkpt lat="46.438316" lon="14.415758">
        <ele>1379.6432233344</ele>
        <time>2016-06-18T16:17:14Z</time>
      </trkpt>
      <trkpt lat="46.438326" lon="14.415795">
        <ele>1379.6532232128</ele>
        <time>2016-06-18T16:17:29Z</time>
      </trkpt>
      <trkpt lat="46.438318" lon="14.415786">
        <ele>1379.5032250368</ele>
        <time>2016-06-18T16:17:51Z</time>
      </trkpt>
      <trkpt lat="46.438293" lon="14.415727">
        <ele>1379.583224064</ele>
        <time>2016-06-18T16:18:08Z</time>
      </trkpt>
      <trkpt lat="46.438283" lon="14.415701">
        <ele>1379.5932239424</ele>
        <time>2016-06-18T16:18:31Z</time>
      </trkpt>
      <trkpt lat="46.438272" lon="14.415655">
        <ele>1379.8232211456</ele>
        <time>2016-06-18T16:18:49Z</time>
      </trkpt>
      <trkpt lat="46.438299" lon="14.415725">
        <ele>1379.7032226048</ele>
        <time>2016-06-18T16:19:08Z</time>
      </trkpt>
      <trkpt lat="46.438308" lon="14.415726">
        <ele>1379.5732241856</ele>
        <time>2016-06-18T16:19:30Z</time>
      </trkpt>
      <trkpt lat="46.438315" lon="14.415725">
        <ele>1379.6632230912</ele>
        <time>2016-06-18T16:19:52Z</time>
      </trkpt>
      <trkpt lat="46.438293" lon="14.415725">
        <ele>1379.633223456</ele>
        <time>2016-06-18T16:20:04Z</time>
      </trkpt>
      <trkpt lat="46.438293" lon="14.415752">
        <ele>1379.6532232128</ele>
        <time>2016-06-18T16:20:19Z</time>
      </trkpt>
      <trkpt lat="46.438293" lon="14.415776">
        <ele>1379.7032226048</ele>
        <time>2016-06-18T16:20:37Z</time>
      </trkpt>
      <trkpt lat="46.438311" lon="14.415790">
        <ele>1379.7432221184</ele>
        <time>2016-06-18T16:20:53Z</time>
      </trkpt>
      <trkpt lat="46.438319" lon="14.415801">
        <ele>1379.6632230912</ele>
        <time>2016-06-18T16:21:09Z</time>
      </trkpt>
      <trkpt lat="46.438319" lon="14.415778">
        <ele>1379.48322528</ele>
        <time>2016-06-18T16:21:23Z</time>
      </trkpt>
      <trkpt lat="46.438320" lon="14.415798">
        <ele>1379.3732266176</ele>
        <time>2016-06-18T16:21:37Z</time>
      </trkpt>
      <trkpt lat="46.438318" lon="14.415820">
        <ele>1379.333227104</ele>
        <time>2016-06-18T16:21:52Z</time>
      </trkpt>
      <trkpt lat="46.438305" lon="14.415819">
        <ele>1379.4732254016</ele>
        <time>2016-06-18T16:22:10Z</time>
      </trkpt>
      <trkpt lat="46.438264" lon="14.415748">
        <ele>1379.8432209024</ele>
        <time>2016-06-18T16:22:27Z</time>
      </trkpt>
      <trkpt lat="46.438267" lon="14.415701">
        <ele>1379.7932215104</ele>
        <time>2016-06-18T16:22:46Z</time>
      </trkpt>
      <trkpt lat="46.438275" lon="14.415733">
        <ele>1379.8132212672</ele>
        <time>2016-06-18T16:23:04Z</time>
      </trkpt>
      <trkpt lat="46.438267" lon="14.415700">
        <ele>1379.8732205376</ele>
        <time>2016-06-18T16:23:19Z</time>
      </trkpt>
      <trkpt lat="46.438272" lon="14.415729">
        <ele>1379.783221632</ele>
        <time>2016-06-18T16:23:33Z</time>
      </trkpt>
      <trkpt lat="46.438296" lon="14.415764">
        <ele>1379.7732217536</ele>
        <time>2016-06-18T16:23:47Z</time>
      </trkpt>
      <trkpt lat="46.438274" lon="14.415656">
        <ele>1379.833221024</ele>
        <time>2016-06-18T16:24:00Z</time>
      </trkpt>
      <trkpt lat="46.438268" lon="14.415610">
        <ele>1379.9432196864</ele>
        <time>2016-06-18T16:24:14Z</time>
      </trkpt>
      <trkpt lat="46.438252" lon="14.415576">
        <ele>1379.6532232128</ele>
        <time>2016-06-18T16:24:27Z</time>
      </trkpt>
      <trkpt lat="46.438210" lon="14.415521">
        <ele>1379.6932227264</ele>
        <time>2016-06-18T16:24:48Z</time>
      </trkpt>
      <trkpt lat="46.438175" lon="14.415447">
        <ele>1380.033218592</ele>
        <time>2016-06-18T16:25:04Z</time>
      </trkpt>
      <trkpt lat="46.438186" lon="14.415455">
        <ele>1380.1932166464</ele>
        <time>2016-06-18T16:25:23Z</time>
      </trkpt>
      <trkpt lat="46.438203" lon="14.415494">
        <ele>1379.8432209024</ele>
        <time>2016-06-18T16:25:39Z</time>
      </trkpt>
      <trkpt lat="46.438216" lon="14.415524">
        <ele>1379.9632194432</ele>
        <time>2016-06-18T16:25:55Z</time>
      </trkpt>
      <trkpt lat="46.438235" lon="14.415545">
        <ele>1379.8632206592</ele>
        <time>2016-06-18T16:26:13Z</time>
      </trkpt>
      <trkpt lat="46.438261" lon="14.415598">
        <ele>1379.9232199296</ele>
        <time>2016-06-18T16:26:33Z</time>
      </trkpt>
      <trkpt lat="46.438283" lon="14.415610">
        <ele>1380.0132188352</ele>
        <time>2016-06-18T16:26:49Z</time>
      </trkpt>
      <trkpt lat="46.438253" lon="14.415585">
        <ele>1380.1532171328</ele>
        <time>2016-06-18T16:27:04Z</time>
      </trkpt>
      <trkpt lat="46.438237" lon="14.415570">
        <ele>1380.283215552</ele>
        <time>2016-06-18T16:27:23Z</time>
      </trkpt>
      <trkpt lat="46.438223" lon="14.415568">
        <ele>1380.333214944</ele>
        <time>2016-06-18T16:27:41Z</time>
      </trkpt>
      <trkpt lat="46.438240" lon="14.415611">
        <ele>1380.133217376</ele>
        <time>2016-06-18T16:28:02Z</time>
      </trkpt>
      <trkpt lat="46.438231" lon="14.415564">
        <ele>1380.4132139712</ele>
        <time>2016-06-18T16:28:21Z</time>
      </trkpt>
      <trkpt lat="46.438229" lon="14.415528">
        <ele>1380.383214336</ele>
        <time>2016-06-18T16:28:40Z</time>
      </trkpt>
      <trkpt lat="46.438223" lon="14.415533">
        <ele>1380.2932154304</ele>
        <time>2016-06-18T16:29:00Z</time>
      </trkpt>
      <trkpt lat="46.438219" lon="14.415487">
        <ele>1380.283215552</ele>
        <time>2016-06-18T16:29:23Z</time>
      </trkpt>
      <trkpt lat="46.438208" lon="14.415482">
        <ele>1380.3232150656</ele>
        <time>2016-06-18T16:29:42Z</time>
      </trkpt>
      <trkpt lat="46.438215" lon="14.415500">
        <ele>1380.0632182272</ele>
        <time>2016-06-18T16:30:02Z</time>
      </trkpt>
      <trkpt lat="46.438209" lon="14.415523">
        <ele>1380.383214336</ele>
        <time>2016-06-18T16:30:24Z</time>
      </trkpt>
      <trkpt lat="46.438231" lon="14.415547">
        <ele>1380.333214944</ele>
        <time>2016-06-18T16:30:43Z</time>
      </trkpt>
      <trkpt lat="46.438218" lon="14.415485">
        <ele>1380.2532159168</ele>
        <time>2016-06-18T16:31:03Z</time>
      </trkpt>
      <trkpt lat="46.438273" lon="14.415628">
        <ele>1380.4932129984</ele>
        <time>2016-06-18T16:31:25Z</time>
      </trkpt>
      <trkpt lat="46.438304" lon="14.415714">
        <ele>1380.833208864</ele>
        <time>2016-06-18T16:31:29Z</time>
      </trkpt>
      <trkpt lat="46.438323" lon="14.415771">
        <ele>1381.033206432</ele>
        <time>2016-06-18T16:31:31Z</time>
      </trkpt>
      <trkpt lat="46.438342" lon="14.415830">
        <ele>1381.2232041216</ele>
        <time>2016-06-18T16:31:38Z</time>
      </trkpt>
      <trkpt lat="46.438351" lon="14.415891">
        <ele>1381.2232041216</ele>
        <time>2016-06-18T16:31:52Z</time>
      </trkpt>
      <trkpt lat="46.438372" lon="14.415990">
        <ele>1381.2432038784</ele>
        <time>2016-06-18T16:32:00Z</time>
      </trkpt>
      <trkpt lat="46.438378" lon="14.416096">
        <ele>1381.3432026624</ele>
        <time>2016-06-18T16:32:11Z</time>
      </trkpt>
      <trkpt lat="46.438382" lon="14.416105">
        <ele>1381.3232029056</ele>
        <time>2016-06-18T16:32:29Z</time>
      </trkpt>
      <trkpt lat="46.438386" lon="14.416101">
        <ele>1381.4532013248</ele>
        <time>2016-06-18T16:32:48Z</time>
      </trkpt>
      <trkpt lat="46.438402" lon="14.416115">
        <ele>1381.7231980416</ele>
        <time>2016-06-18T16:33:07Z</time>
      </trkpt>
      <trkpt lat="46.438404" lon="14.416108">
        <ele>1381.7131981632</ele>
        <time>2016-06-18T16:33:25Z</time>
      </trkpt>
      <trkpt lat="46.438409" lon="14.416105">
        <ele>1381.5631999872</ele>
        <time>2016-06-18T16:33:44Z</time>
      </trkpt>
      <trkpt lat="46.438426" lon="14.416108">
        <ele>1381.6631987712</ele>
        <time>2016-06-18T16:33:56Z</time>
      </trkpt>
      <trkpt lat="46.438428" lon="14.416090">
        <ele>1381.2532037568</ele>
        <time>2016-06-18T16:34:15Z</time>
      </trkpt>
      <trkpt lat="46.438396" lon="14.416077">
        <ele>1381.2632036352</ele>
        <time>2016-06-18T16:34:35Z</time>
      </trkpt>
      <trkpt lat="46.438350" lon="14.416048">
        <ele>1381.2632036352</ele>
        <time>2016-06-18T16:34:54Z</time>
      </trkpt>
      <trkpt lat="46.438324" lon="14.416045">
        <ele>1381.233204</ele>
        <time>2016-06-18T16:35:02Z</time>
      </trkpt>
      <trkpt lat="46.438370" lon="14.416085">
        <ele>1381.3532025408</ele>
        <time>2016-06-18T16:35:10Z</time>
      </trkpt>
      <trkpt lat="46.438388" lon="14.416089">
        <ele>1381.0932057024</ele>
        <time>2016-06-18T16:35:22Z</time>
      </trkpt>
      <trkpt lat="46.438395" lon="14.416075">
        <ele>1381.2032043648</ele>
        <time>2016-06-18T16:35:41Z</time>
      </trkpt>
      <trkpt lat="46.438391" lon="14.416078">
        <ele>1381.2132042432</ele>
        <time>2016-06-18T16:36:00Z</time>
      </trkpt>
      <trkpt lat="46.438381" lon="14.416061">
        <ele>1381.4032019328</ele>
        <time>2016-06-18T16:36:22Z</time>
      </trkpt>
      <trkpt lat="46.438380" lon="14.416074">
        <ele>1381.1732047296</ele>
        <time>2016-06-18T16:36:43Z</time>
      </trkpt>
      <trkpt lat="46.438395" lon="14.416079">
        <ele>1381.0732059456</ele>
        <time>2016-06-18T16:37:01Z</time>
      </trkpt>
      <trkpt lat="46.438372" lon="14.416039">
        <ele>1381.233204</ele>
        <time>2016-06-18T16:37:21Z</time>
      </trkpt>
      <trkpt lat="46.438354" lon="14.416051">
        <ele>1381.433201568</ele>
        <time>2016-06-18T16:37:40Z</time>
      </trkpt>
      <trkpt lat="46.438344" lon="14.416100">
        <ele>1381.183204608</ele>
        <time>2016-06-18T16:37:55Z</time>
      </trkpt>
      <trkpt lat="46.438349" lon="14.416100">
        <ele>1381.1432050944</ele>
        <time>2016-06-18T16:38:15Z</time>
      </trkpt>
      <trkpt lat="46.438357" lon="14.416115">
        <ele>1381.0132066752</ele>
        <time>2016-06-18T16:38:34Z</time>
      </trkpt>
      <trkpt lat="46.438354" lon="14.416121">
        <ele>1381.0532061888</ele>
        <time>2016-06-18T16:38:57Z</time>
      </trkpt>
      <trkpt lat="46.438360" lon="14.416082">
        <ele>1381.0132066752</ele>
        <time>2016-06-18T16:39:24Z</time>
      </trkpt>
      <trkpt lat="46.438357" lon="14.416075">
        <ele>1381.1732047296</ele>
        <time>2016-06-18T16:39:44Z</time>
      </trkpt>
      <trkpt lat="46.438347" lon="14.416078">
        <ele>1381.233204</ele>
        <time>2016-06-18T16:40:03Z</time>
      </trkpt>
      <trkpt lat="46.438343" lon="14.416079">
        <ele>1381.3032031488</ele>
        <time>2016-06-18T16:40:19Z</time>
      </trkpt>
      <trkpt lat="46.438344" lon="14.416079">
        <ele>1381.0632060672</ele>
        <time>2016-06-18T16:40:42Z</time>
      </trkpt>
      <trkpt lat="46.438352" lon="14.416093">
        <ele>1381.1932044864</ele>
        <time>2016-06-18T16:41:02Z</time>
      </trkpt>
      <trkpt lat="46.438354" lon="14.416092">
        <ele>1381.1932044864</ele>
        <time>2016-06-18T16:41:16Z</time>
      </trkpt>
      <trkpt lat="46.438378" lon="14.416107">
        <ele>1381.183204608</ele>
        <time>2016-06-18T16:41:32Z</time>
      </trkpt>
      <trkpt lat="46.438376" lon="14.416109">
        <ele>1381.1132054592</ele>
        <time>2016-06-18T16:41:47Z</time>
      </trkpt>
      <trkpt lat="46.438386" lon="14.416101">
        <ele>1380.933207648</ele>
        <time>2016-06-18T16:41:59Z</time>
      </trkpt>
      <trkpt lat="46.438380" lon="14.416097">
        <ele>1381.1932044864</ele>
        <time>2016-06-18T16:42:17Z</time>
      </trkpt>
      <trkpt lat="46.438383" lon="14.416092">
        <ele>1381.1232053376</ele>
        <time>2016-06-18T16:42:34Z</time>
      </trkpt>
      <trkpt lat="46.438375" lon="14.416082">
        <ele>1381.183204608</ele>
        <time>2016-06-18T16:42:52Z</time>
      </trkpt>
      <trkpt lat="46.438377" lon="14.416092">
        <ele>1381.2432038784</ele>
        <time>2016-06-18T16:43:11Z</time>
      </trkpt>
      <trkpt lat="46.438384" lon="14.416088">
        <ele>1381.6431990144</ele>
        <time>2016-06-18T16:43:26Z</time>
      </trkpt>
      <trkpt lat="46.438381" lon="14.416080">
        <ele>1381.5132005952</ele>
        <time>2016-06-18T16:43:36Z</time>
      </trkpt>
      <trkpt lat="46.438373" lon="14.416093">
        <ele>1381.4032019328</ele>
        <time>2016-06-18T16:43:47Z</time>
      </trkpt>
      <trkpt lat="46.438373" lon="14.416074">
        <ele>1381.3532025408</ele>
        <time>2016-06-18T16:44:01Z</time>
      </trkpt>
      <trkpt lat="46.438368" lon="14.416084">
        <ele>1381.2732035136</ele>
        <time>2016-06-18T16:44:11Z</time>
      </trkpt>
      <trkpt lat="46.438344" lon="14.416078">
        <ele>1380.683210688</ele>
        <time>2016-06-18T16:44:26Z</time>
      </trkpt>
      <trkpt lat="46.438326" lon="14.416056">
        <ele>1381.133205216</ele>
        <time>2016-06-18T16:44:44Z</time>
      </trkpt>
      <trkpt lat="46.438295" lon="14.416023">
        <ele>1380.9732071616</ele>
        <time>2016-06-18T16:44:56Z</time>
      </trkpt>
      <trkpt lat="46.438259" lon="14.416013">
        <ele>1380.7032104448</ele>
        <time>2016-06-18T16:45:04Z</time>
      </trkpt>
      <trkpt lat="46.438249" lon="14.416035">
        <ele>1380.6732108096</ele>
        <time>2016-06-18T16:45:12Z</time>
      </trkpt>
      <trkpt lat="46.438231" lon="14.416036">
        <ele>1380.7132103232</ele>
        <time>2016-06-18T16:45:24Z</time>
      </trkpt>
      <trkpt lat="46.438211" lon="14.416031">
        <ele>1380.6232114176</ele>
        <time>2016-06-18T16:45:32Z</time>
      </trkpt>
      <trkpt lat="46.438163" lon="14.416086">
        <ele>1380.7432099584</ele>
        <time>2016-06-18T16:45:39Z</time>
      </trkpt>
      <trkpt lat="46.438107" lon="14.416157">
        <ele>1381.3132030272</ele>
        <time>2016-06-18T16:45:47Z</time>
      </trkpt>
      <trkpt lat="46.438092" lon="14.416155">
        <ele>1381.433201568</ele>
        <time>2016-06-18T16:46:02Z</time>
      </trkpt>
      <trkpt lat="46.438055" lon="14.416163">
        <ele>1381.383202176</ele>
        <time>2016-06-18T16:46:12Z</time>
      </trkpt>
      <trkpt lat="46.438063" lon="14.416154">
        <ele>1381.3032031488</ele>
        <time>2016-06-18T16:46:25Z</time>
      </trkpt>
      <trkpt lat="46.438099" lon="14.416157">
        <ele>1381.2232041216</ele>
        <time>2016-06-18T16:46:37Z</time>
      </trkpt>
      <trkpt lat="46.438140" lon="14.416137">
        <ele>1381.1432050944</ele>
        <time>2016-06-18T16:46:44Z</time>
      </trkpt>
      <trkpt lat="46.438163" lon="14.416107">
        <ele>1380.9532074048</ele>
        <time>2016-06-18T16:46:52Z</time>
      </trkpt>
      <trkpt lat="46.438172" lon="14.416089">
        <ele>1380.883208256</ele>
        <time>2016-06-18T16:47:04Z</time>
      </trkpt>
      <trkpt lat="46.438190" lon="14.416103">
        <ele>1380.9532074048</ele>
        <time>2016-06-18T16:47:22Z</time>
      </trkpt>
      <trkpt lat="46.438195" lon="14.416123">
        <ele>1381.0232065536</ele>
        <time>2016-06-18T16:47:38Z</time>
      </trkpt>
      <trkpt lat="46.438212" lon="14.416117">
        <ele>1381.033206432</ele>
        <time>2016-06-18T16:47:54Z</time>
      </trkpt>
      <trkpt lat="46.438233" lon="14.416077">
        <ele>1380.8732083776</ele>
        <time>2016-06-18T16:48:00Z</time>
      </trkpt>
      <trkpt lat="46.438249" lon="14.416052">
        <ele>1380.7132103232</ele>
        <time>2016-06-18T16:48:01Z</time>
      </trkpt>
      <trkpt lat="46.438246" lon="14.416023">
        <ele>1380.4232138496</ele>
        <time>2016-06-18T16:48:04Z</time>
      </trkpt>
      <trkpt lat="46.438185" lon="14.415884">
        <ele>1379.2032286848</ele>
        <time>2016-06-18T16:48:13Z</time>
      </trkpt>
      <trkpt lat="46.438124" lon="14.415773">
        <ele>1378.4132382912</ele>
        <time>2016-06-18T16:48:23Z</time>
      </trkpt>
      <trkpt lat="46.438066" lon="14.415679">
        <ele>1377.4632498432</ele>
        <time>2016-06-18T16:48:32Z</time>
      </trkpt>
      <trkpt lat="46.438010" lon="14.415580">
        <ele>1376.73325872</ele>
        <time>2016-06-18T16:48:40Z</time>
      </trkpt>
      <trkpt lat="46.437954" lon="14.415496">
        <ele>1375.6532718528</ele>
        <time>2016-06-18T16:48:48Z</time>
      </trkpt>
      <trkpt lat="46.437895" lon="14.415390">
        <ele>1374.6932835264</ele>
        <time>2016-06-18T16:48:58Z</time>
      </trkpt>
      <trkpt lat="46.437837" lon="14.415302">
        <ele>1373.9432926464</ele>
        <time>2016-06-18T16:49:07Z</time>
      </trkpt>
      <trkpt lat="46.437800" lon="14.415202">
        <ele>1373.0733032256</ele>
        <time>2016-06-18T16:49:17Z</time>
      </trkpt>
      <trkpt lat="46.437750" lon="14.415084">
        <ele>1372.133314656</ele>
        <time>2016-06-18T16:49:26Z</time>
      </trkpt>
      <trkpt lat="46.437740" lon="14.415033">
        <ele>1371.48332256</ele>
        <time>2016-06-18T16:49:31Z</time>
      </trkpt>
      <trkpt lat="46.437768" lon="14.414992">
        <ele>1371.2333256</ele>
        <time>2016-06-18T16:49:34Z</time>
      </trkpt>
      <trkpt lat="46.437784" lon="14.414933">
        <ele>1370.48333472</ele>
        <time>2016-06-18T16:49:44Z</time>
      </trkpt>
      <trkpt lat="46.437776" lon="14.414918">
        <ele>1370.1233390976</ele>
        <time>2016-06-18T16:49:54Z</time>
      </trkpt>
      <trkpt lat="46.437730" lon="14.414897">
        <ele>1370.083339584</ele>
        <time>2016-06-18T16:50:01Z</time>
      </trkpt>
      <trkpt lat="46.437696" lon="14.414854">
        <ele>1369.7633434752</ele>
        <time>2016-06-18T16:50:05Z</time>
      </trkpt>
      <trkpt lat="46.437651" lon="14.414779">
        <ele>1368.9733530816</ele>
        <time>2016-06-18T16:50:09Z</time>
      </trkpt>
      <trkpt lat="46.437574" lon="14.414645">
        <ele>1367.8033673088</ele>
        <time>2016-06-18T16:50:20Z</time>
      </trkpt>
      <trkpt lat="46.437517" lon="14.414558">
        <ele>1366.8433789824</ele>
        <time>2016-06-18T16:50:28Z</time>
      </trkpt>
      <trkpt lat="46.437459" lon="14.414445">
        <ele>1365.6033940608</ele>
        <time>2016-06-18T16:50:38Z</time>
      </trkpt>
      <trkpt lat="46.437401" lon="14.414348">
        <ele>1364.3634091392</ele>
        <time>2016-06-18T16:50:47Z</time>
      </trkpt>
      <trkpt lat="46.437368" lon="14.414306">
        <ele>1363.8034159488</ele>
        <time>2016-06-18T16:50:51Z</time>
      </trkpt>
      <trkpt lat="46.437271" lon="14.414185">
        <ele>1362.5534311488</ele>
        <time>2016-06-18T16:51:02Z</time>
      </trkpt>
      <trkpt lat="46.437208" lon="14.414119">
        <ele>1361.8534396608</ele>
        <time>2016-06-18T16:51:09Z</time>
      </trkpt>
      <trkpt lat="46.437102" lon="14.414064">
        <ele>1361.1534481728</ele>
        <time>2016-06-18T16:51:18Z</time>
      </trkpt>
      <trkpt lat="46.437014" lon="14.414051">
        <ele>1360.0434616704</ele>
        <time>2016-06-18T16:51:27Z</time>
      </trkpt>
      <trkpt lat="46.437004" lon="14.414053">
        <ele>1359.9234631296</ele>
        <time>2016-06-18T16:51:29Z</time>
      </trkpt>
      <trkpt lat="46.436954" lon="14.414078">
        <ele>1359.3934695744</ele>
        <time>2016-06-18T16:51:34Z</time>
      </trkpt>
      <trkpt lat="46.436881" lon="14.414079">
        <ele>1358.3634820992</ele>
        <time>2016-06-18T16:51:44Z</time>
      </trkpt>
      <trkpt lat="46.436801" lon="14.414046">
        <ele>1358.23348368</ele>
        <time>2016-06-18T16:51:53Z</time>
      </trkpt>
      <trkpt lat="46.436721" lon="14.413966">
        <ele>1358.0934853824</ele>
        <time>2016-06-18T16:52:05Z</time>
      </trkpt>
      <trkpt lat="46.436688" lon="14.413908">
        <ele>1358.1034852608</ele>
        <time>2016-06-18T16:52:17Z</time>
      </trkpt>
      <trkpt lat="46.436612" lon="14.413823">
        <ele>1358.7534773568</ele>
        <time>2016-06-18T16:52:28Z</time>
      </trkpt>
      <trkpt lat="46.436517" lon="14.413808">
        <ele>1357.9734868416</ele>
        <time>2016-06-18T16:52:39Z</time>
      </trkpt>
      <trkpt lat="46.436437" lon="14.413856">
        <ele>1356.183508608</ele>
        <time>2016-06-18T16:52:51Z</time>
      </trkpt>
      <trkpt lat="46.436369" lon="14.413936">
        <ele>1355.2235202816</ele>
        <time>2016-06-18T16:53:01Z</time>
      </trkpt>
      <trkpt lat="46.436329" lon="14.414004">
        <ele>1353.6635392512</ele>
        <time>2016-06-18T16:53:11Z</time>
      </trkpt>
      <trkpt lat="46.436266" lon="14.414073">
        <ele>1352.0035594368</ele>
        <time>2016-06-18T16:53:24Z</time>
      </trkpt>
      <trkpt lat="46.436171" lon="14.414087">
        <ele>1349.8035861888</ele>
        <time>2016-06-18T16:53:36Z</time>
      </trkpt>
      <trkpt lat="46.436097" lon="14.414055">
        <ele>1348.3136043072</ele>
        <time>2016-06-18T16:53:45Z</time>
      </trkpt>
      <trkpt lat="46.436007" lon="14.414005">
        <ele>1346.5436258304</ele>
        <time>2016-06-18T16:53:59Z</time>
      </trkpt>
      <trkpt lat="46.435956" lon="14.413948">
        <ele>1344.4536512448</ele>
        <time>2016-06-18T16:54:09Z</time>
      </trkpt>
      <trkpt lat="46.435910" lon="14.413898">
        <ele>1342.9936689984</ele>
        <time>2016-06-18T16:54:20Z</time>
      </trkpt>
      <trkpt lat="46.435861" lon="14.413861">
        <ele>1340.633697696</ele>
        <time>2016-06-18T16:54:32Z</time>
      </trkpt>
      <trkpt lat="46.435802" lon="14.413790">
        <ele>1338.833719584</ele>
        <time>2016-06-18T16:54:46Z</time>
      </trkpt>
      <trkpt lat="46.435749" lon="14.413696">
        <ele>1336.9437425664</ele>
        <time>2016-06-18T16:54:58Z</time>
      </trkpt>
      <trkpt lat="46.435727" lon="14.413645">
        <ele>1335.0237659136</ele>
        <time>2016-06-18T16:55:08Z</time>
      </trkpt>
      <trkpt lat="46.435754" lon="14.413589">
        <ele>1333.0637897472</ele>
        <time>2016-06-18T16:55:18Z</time>
      </trkpt>
      <trkpt lat="46.435784" lon="14.413543">
        <ele>1331.1738127296</ele>
        <time>2016-06-18T16:55:29Z</time>
      </trkpt>
      <trkpt lat="46.435806" lon="14.413413">
        <ele>1328.8938404544</ele>
        <time>2016-06-18T16:55:41Z</time>
      </trkpt>
      <trkpt lat="46.435794" lon="14.413301">
        <ele>1326.98386368</ele>
        <time>2016-06-18T16:55:52Z</time>
      </trkpt>
      <trkpt lat="46.435746" lon="14.413192">
        <ele>1325.5638809472</ele>
        <time>2016-06-18T16:56:00Z</time>
      </trkpt>
      <trkpt lat="46.435702" lon="14.413068">
        <ele>1323.8539017408</ele>
        <time>2016-06-18T16:56:12Z</time>
      </trkpt>
      <trkpt lat="46.435667" lon="14.413000">
        <ele>1322.2639210752</ele>
        <time>2016-06-18T16:56:22Z</time>
      </trkpt>
      <trkpt lat="46.435628" lon="14.412937">
        <ele>1320.633940896</ele>
        <time>2016-06-18T16:56:31Z</time>
      </trkpt>
      <trkpt lat="46.435610" lon="14.412878">
        <ele>1319.2539576768</ele>
        <time>2016-06-18T16:56:41Z</time>
      </trkpt>
      <trkpt lat="46.435605" lon="14.412809">
        <ele>1317.7539759168</ele>
        <time>2016-06-18T16:56:50Z</time>
      </trkpt>
      <trkpt lat="46.435559" lon="14.412755">
        <ele>1315.9539978048</ele>
        <time>2016-06-18T16:57:01Z</time>
      </trkpt>
      <trkpt lat="46.435511" lon="14.412689">
        <ele>1314.3240176256</ele>
        <time>2016-06-18T16:57:09Z</time>
      </trkpt>
      <trkpt lat="46.435475" lon="14.412642">
        <ele>1312.2140432832</ele>
        <time>2016-06-18T16:57:21Z</time>
      </trkpt>
      <trkpt lat="46.435466" lon="14.412580">
        <ele>1310.3940654144</ele>
        <time>2016-06-18T16:57:32Z</time>
      </trkpt>
      <trkpt lat="46.435464" lon="14.412513">
        <ele>1308.6040871808</ele>
        <time>2016-06-18T16:57:43Z</time>
      </trkpt>
      <trkpt lat="46.435472" lon="14.412450">
        <ele>1306.5241124736</ele>
        <time>2016-06-18T16:57:54Z</time>
      </trkpt>
      <trkpt lat="46.435445" lon="14.412417">
        <ele>1305.3541267008</ele>
        <time>2016-06-18T16:58:02Z</time>
      </trkpt>
      <trkpt lat="46.435371" lon="14.412371">
        <ele>1303.384150656</ele>
        <time>2016-06-18T16:58:11Z</time>
      </trkpt>
      <trkpt lat="46.435305" lon="14.412268">
        <ele>1300.934180448</ele>
        <time>2016-06-18T16:58:22Z</time>
      </trkpt>
      <trkpt lat="46.435254" lon="14.412126">
        <ele>1298.98420416</ele>
        <time>2016-06-18T16:58:34Z</time>
      </trkpt>
      <trkpt lat="46.435244" lon="14.412088">
        <ele>1297.3142244672</ele>
        <time>2016-06-18T16:58:46Z</time>
      </trkpt>
      <trkpt lat="46.435241" lon="14.412060">
        <ele>1295.8442423424</ele>
        <time>2016-06-18T16:58:57Z</time>
      </trkpt>
      <trkpt lat="46.435206" lon="14.412001">
        <ele>1294.7442557184</ele>
        <time>2016-06-18T16:59:06Z</time>
      </trkpt>
      <trkpt lat="46.435212" lon="14.411965">
        <ele>1292.8242790656</ele>
        <time>2016-06-18T16:59:19Z</time>
      </trkpt>
      <trkpt lat="46.435227" lon="14.411933">
        <ele>1291.9642895232</ele>
        <time>2016-06-18T16:59:31Z</time>
      </trkpt>
      <trkpt lat="46.435211" lon="14.411864">
        <ele>1291.5942940224</ele>
        <time>2016-06-18T16:59:40Z</time>
      </trkpt>
      <trkpt lat="46.435209" lon="14.411851">
        <ele>1291.5442946304</ele>
        <time>2016-06-18T16:59:40Z</time>
      </trkpt>
      <trkpt lat="46.435183" lon="14.411766">
        <ele>1291.3542969408</ele>
        <time>2016-06-18T16:59:47Z</time>
      </trkpt>
      <trkpt lat="46.435176" lon="14.411745">
        <ele>1291.3142974272</ele>
        <time>2016-06-18T16:59:50Z</time>
      </trkpt>
      <trkpt lat="46.435127" lon="14.411632">
        <ele>1290.884302656</ele>
        <time>2016-06-18T16:59:59Z</time>
      </trkpt>
      <trkpt lat="46.435088" lon="14.411528">
        <ele>1289.684317248</ele>
        <time>2016-06-18T17:00:09Z</time>
      </trkpt>
      <trkpt lat="46.435070" lon="14.411373">
        <ele>1287.2443469184</ele>
        <time>2016-06-18T17:00:21Z</time>
      </trkpt>
      <trkpt lat="46.435064" lon="14.411239">
        <ele>1285.4643685632</ele>
        <time>2016-06-18T17:00:30Z</time>
      </trkpt>
      <trkpt lat="46.435054" lon="14.411124">
        <ele>1284.1443846144</ele>
        <time>2016-06-18T17:00:37Z</time>
      </trkpt>
      <trkpt lat="46.435007" lon="14.410987">
        <ele>1282.3944058944</ele>
        <time>2016-06-18T17:00:48Z</time>
      </trkpt>
      <trkpt lat="46.434987" lon="14.410859">
        <ele>1280.9544234048</ele>
        <time>2016-06-18T17:00:57Z</time>
      </trkpt>
      <trkpt lat="46.434969" lon="14.410757">
        <ele>1279.5544404288</ele>
        <time>2016-06-18T17:01:07Z</time>
      </trkpt>
      <trkpt lat="46.434960" lon="14.410713">
        <ele>1279.1544452928</ele>
        <time>2016-06-18T17:01:11Z</time>
      </trkpt>
      <trkpt lat="46.434945" lon="14.410628">
        <ele>1278.2244566016</ele>
        <time>2016-06-18T17:01:17Z</time>
      </trkpt>
      <trkpt lat="46.434930" lon="14.410502">
        <ele>1277.2644682752</ele>
        <time>2016-06-18T17:01:28Z</time>
      </trkpt>
      <trkpt lat="46.434907" lon="14.410372">
        <ele>1276.2744803136</ele>
        <time>2016-06-18T17:01:38Z</time>
      </trkpt>
      <trkpt lat="46.434914" lon="14.410291">
        <ele>1275.8444855424</ele>
        <time>2016-06-18T17:01:43Z</time>
      </trkpt>
      <trkpt lat="46.434914" lon="14.410175">
        <ele>1274.8644974592</ele>
        <time>2016-06-18T17:01:51Z</time>
      </trkpt>
      <trkpt lat="46.434916" lon="14.410056">
        <ele>1272.8745216576</ele>
        <time>2016-06-18T17:02:02Z</time>
      </trkpt>
      <trkpt lat="46.434921" lon="14.409953">
        <ele>1271.9445329664</ele>
        <time>2016-06-18T17:02:14Z</time>
      </trkpt>
      <trkpt lat="46.434896" lon="14.409796">
        <ele>1270.7645473152</ele>
        <time>2016-06-18T17:02:25Z</time>
      </trkpt>
      <trkpt lat="46.434836" lon="14.409647">
        <ele>1269.0745678656</ele>
        <time>2016-06-18T17:02:37Z</time>
      </trkpt>
      <trkpt lat="46.434786" lon="14.409505">
        <ele>1266.7145965632</ele>
        <time>2016-06-18T17:02:49Z</time>
      </trkpt>
      <trkpt lat="46.434775" lon="14.409359">
        <ele>1264.5146233152</ele>
        <time>2016-06-18T17:03:00Z</time>
      </trkpt>
      <trkpt lat="46.434743" lon="14.409186">
        <ele>1261.73465712</ele>
        <time>2016-06-18T17:03:14Z</time>
      </trkpt>
      <trkpt lat="46.434726" lon="14.409054">
        <ele>1259.8046805888</ele>
        <time>2016-06-18T17:03:24Z</time>
      </trkpt>
      <trkpt lat="46.434715" lon="14.408894">
        <ele>1257.3047109888</ele>
        <time>2016-06-18T17:03:38Z</time>
      </trkpt>
      <trkpt lat="46.434713" lon="14.408856">
        <ele>1256.7447177984</ele>
        <time>2016-06-18T17:03:41Z</time>
      </trkpt>
      <trkpt lat="46.434705" lon="14.408716">
        <ele>1254.7547419968</ele>
        <time>2016-06-18T17:03:51Z</time>
      </trkpt>
      <trkpt lat="46.434680" lon="14.408611">
        <ele>1253.8247533056</ele>
        <time>2016-06-18T17:03:58Z</time>
      </trkpt>
      <trkpt lat="46.434656" lon="14.408490">
        <ele>1252.3547711808</ele>
        <time>2016-06-18T17:04:08Z</time>
      </trkpt>
      <trkpt lat="46.434639" lon="14.408394">
        <ele>1251.3647832192</ele>
        <time>2016-06-18T17:04:17Z</time>
      </trkpt>
      <trkpt lat="46.434622" lon="14.408333">
        <ele>1250.4247946496</ele>
        <time>2016-06-18T17:04:26Z</time>
      </trkpt>
      <trkpt lat="46.434602" lon="14.408310">
        <ele>1249.9448004864</ele>
        <time>2016-06-18T17:04:35Z</time>
      </trkpt>
      <trkpt lat="46.434599" lon="14.408311">
        <ele>1250.0547991488</ele>
        <time>2016-06-18T17:04:37Z</time>
      </trkpt>
    </trkseg>
  </trk>
</gpx>
